<?xml version="1.0" encoding="UTF-8" standalone="yes"?>
<gpx xmlns="http://www.topografix.com/GPX/1/1" creator="www.gps-tour.info" version="1.1" xmlns:xsi="http://www.w3.org/2001/XMLSchema-instance" xsi:schemaLocation="http://www.topografix.com/GPX/1/1 http://www.topografix.com/GPX/1/1/gpx.xsd">
  <metadata>
    <name>Seealpen 2010</name>
    <author>
      <name>Wilhelm Pistel</name>
    </author>
    <link href="www.gps-tour.info/de/touren/detail.65477.html">
      <text>Seealpen 2010 on www.gps-tour.info</text>
    </link>
    <time>2010-08-22T21:16:18Z</time>
    <bounds minlat="43.69560312" minlon="6.03058504" maxlat="47.62884086" maxlon="10.88333398"/>
  </metadata><wpt lat="46.00100041" lon="6.94606304">
    <ele>0</ele>
    <name>1. Übern. Hote</name>
    <sym>Waypoint</sym>
  </wpt><wpt lat="45.27800862" lon="6.35451836">
    <ele>0</ele>
    <name>2. Übern. Hote</name>
    <sym>Waypoint</sym>
  </wpt><wpt lat="44.1809879" lon="6.62594592">
    <ele>0</ele>
    <name>3. Übern. Hote</name>
    <sym>Waypoint</sym>
  </wpt><wpt lat="43.70089537" lon="7.29786702">
    <ele>0</ele>
    <name>4. Übern. JHB</name>
    <sym>Waypoint</sym>
  </wpt><wpt lat="44.38501818" lon="7.53494237">
    <ele>0</ele>
    <name>5. Übern. Hote</name>
    <sym>Waypoint</sym>
  </wpt><wpt lat="45.04180659" lon="6.41962068">
    <ele>0</ele>
    <name>6.Übern. Rif.</name>
    <sym>Waypoint</sym>
  </wpt><wpt lat="45.54923058" lon="8.06714058">
    <ele>0</ele>
    <name>7. Übern. Hote</name>
    <sym>Waypoint</sym>
  </wpt><wpt lat="46.49043348" lon="9.89656152">
    <ele>0</ele>
    <name>8. Übern. JHB</name>
    <sym>Waypoint</sym>
  </wpt><wpt lat="44.07333333" lon="7.16972223">
    <ele>0</ele>
    <name>Col  St. Marti</name>
    <sym>Waypoint</sym>
  </wpt><wpt lat="44.68382246" lon="6.97980984">
    <ele>2746.1</ele>
    <name>Col d Agnel</name>
    <sym>Waypoint</sym>
  </wpt><wpt lat="45.61750001" lon="6.60361108">
    <ele>0</ele>
    <name>Col d Areches</name>
    <sym>Waypoint</sym>
  </wpt><wpt lat="44.82583336" lon="6.73027782">
    <ele>2361.1</ele>
    <name>Col d Izoard</name>
    <sym>Waypoint</sym>
  </wpt><wpt lat="44.29694441" lon="6.59444447">
    <ele>2250.1</ele>
    <name>Col de Allos</name>
    <sym>Waypoint</sym>
  </wpt><wpt lat="44.17512166" lon="6.69487828">
    <ele>2092.9</ele>
    <name>Col de Champs</name>
    <sym>Waypoint</sym>
  </wpt><wpt lat="44.10028115" lon="7.02347084">
    <ele>1678.1</ele>
    <name>Col de Coullio</name>
    <sym>Waypoint</sym>
  </wpt><wpt lat="45.22749919" lon="6.20249444">
    <ele>0</ele>
    <name>Col de la Croi</name>
    <sym>Waypoint</sym>
  </wpt><wpt lat="46.05794907" lon="7.00069428">
    <ele>0</ele>
    <name>Col de la Forc</name>
    <sym>Waypoint</sym>
  </wpt><wpt lat="44.2040932" lon="7.15136611">
    <ele>2351</ele>
    <name>Col de la Lomb</name>
    <sym>Waypoint</sym>
  </wpt><wpt lat="45.44674304" lon="6.39367802">
    <ele>1984</ele>
    <name>Col de la Made</name>
    <sym>Waypoint</sym>
  </wpt><wpt lat="45.76680894" lon="6.53230581">
    <ele>1632.9</ele>
    <name>Col de Saisies</name>
    <sym>Waypoint</sym>
  </wpt><wpt lat="43.976764" lon="7.39194232">
    <ele>1607</ele>
    <name>Col de Turini</name>
    <sym>Waypoint</sym>
  </wpt><wpt lat="44.08461336" lon="6.9139104">
    <ele>1669</ele>
    <name>Col de Valberg</name>
    <sym>Waypoint</sym>
  </wpt><wpt lat="45.23922589" lon="6.17525728">
    <ele>1942</ele>
    <name>Col du Glandon</name>
    <sym>Waypoint</sym>
  </wpt><wpt lat="45.03539402" lon="6.4050293">
    <ele>2058.1</ele>
    <name>Col du Lautare</name>
    <sym>Waypoint</sym>
  </wpt><wpt lat="44.39611112" lon="7.12444444">
    <ele>2451</ele>
    <name>Col Esischie</name>
    <sym>Waypoint</sym>
  </wpt><wpt lat="44.04749997" lon="6.59194448">
    <ele>0</ele>
    <name>Col St. Michel</name>
    <sym>Waypoint</sym>
  </wpt><wpt lat="44.15583331" lon="7.56416663">
    <ele>1870.1</ele>
    <name>Col Tende</name>
    <sym>Waypoint</sym>
  </wpt><wpt lat="44.38583332" lon="7.12083335">
    <ele>2480.1</ele>
    <name>Colle dei Mort</name>
    <sym>Waypoint</sym>
  </wpt><wpt lat="44.38083334" lon="7.10222226">
    <ele>2415.9</ele>
    <name>Colle Valcaver</name>
    <sym>Waypoint</sym>
  </wpt><trk>
    <name>Seealpen 2010</name>
    <trkseg><trkpt lat="47.62800074" lon="10.27219383">
        <ele>742.8</ele>
        <time>2010-08-22T21:16:18Z</time>
      </trkpt><trkpt lat="47.62871638" lon="10.27339068">
        <ele>742.3</ele>
        <time>2010-08-22T21:16:54Z</time>
      </trkpt><trkpt lat="47.62719155" lon="10.27462006">
        <ele>742.8</ele>
        <time>2010-08-22T21:17:53Z</time>
      </trkpt><trkpt lat="47.62690480" lon="10.27761759">
        <ele>746.1</ele>
        <time>2010-08-22T21:19:03Z</time>
      </trkpt><trkpt lat="47.61167581" lon="10.27268275">
        <ele>721.6</ele>
        <time>2010-08-22T21:27:52Z</time>
      </trkpt><trkpt lat="47.60829974" lon="10.26814571">
        <ele>712</ele>
        <time>2010-08-22T21:30:27Z</time>
      </trkpt><trkpt lat="47.60655019" lon="10.25996329">
        <ele>713.9</ele>
        <time>2010-08-22T21:33:44Z</time>
      </trkpt><trkpt lat="47.60333062" lon="10.25612354">
        <ele>712.5</ele>
        <time>2010-08-22T21:36:05Z</time>
      </trkpt><trkpt lat="47.59530302" lon="10.25139623">
        <ele>710.6</ele>
        <time>2010-08-22T21:40:58Z</time>
      </trkpt><trkpt lat="47.58457393" lon="10.24124860">
        <ele>718.2</ele>
        <time>2010-08-22T21:48:11Z</time>
      </trkpt><trkpt lat="47.57926349" lon="10.24165051">
        <ele>715.8</ele>
        <time>2010-08-22T21:51:12Z</time>
      </trkpt><trkpt lat="47.57350445" lon="10.23814201">
        <ele>734.1</ele>
        <time>2010-08-22T21:54:43Z</time>
      </trkpt><trkpt lat="47.56244855" lon="10.22583755">
        <ele>719.7</ele>
        <time>2010-08-22T22:02:33Z</time>
      </trkpt><trkpt lat="47.56109915" lon="10.22221204">
        <ele>723</ele>
        <time>2010-08-22T22:04:08Z</time>
      </trkpt><trkpt lat="47.56141892" lon="10.21181940">
        <ele>725.5</ele>
        <time>2010-08-22T22:08:07Z</time>
      </trkpt><trkpt lat="47.55991227" lon="10.21155252">
        <ele>727.9</ele>
        <time>2010-08-22T22:08:58Z</time>
      </trkpt><trkpt lat="47.56101449" lon="10.20589692">
        <ele>731.2</ele>
        <time>2010-08-22T22:11:13Z</time>
      </trkpt><trkpt lat="47.56407129" lon="10.19726180">
        <ele>738.9</ele>
        <time>2010-08-22T22:14:57Z</time>
      </trkpt><trkpt lat="47.56820181" lon="10.19168716">
        <ele>741.3</ele>
        <time>2010-08-22T22:18:07Z</time>
      </trkpt><trkpt lat="47.56908417" lon="10.18320811">
        <ele>729.3</ele>
        <time>2010-08-22T22:21:24Z</time>
      </trkpt><trkpt lat="47.56603978" lon="10.15621897">
        <ele>733.6</ele>
        <time>2010-08-22T22:31:52Z</time>
      </trkpt><trkpt lat="47.55681751" lon="10.11872697">
        <ele>743.7</ele>
        <time>2010-08-22T22:47:07Z</time>
      </trkpt><trkpt lat="47.55813330" lon="10.10580811">
        <ele>739.4</ele>
        <time>2010-08-22T22:52:07Z</time>
      </trkpt><trkpt lat="47.55607194" lon="10.07967023">
        <ele>747.6</ele>
        <time>2010-08-22T23:02:10Z</time>
      </trkpt><trkpt lat="47.55411996" lon="10.07274854">
        <ele>749.5</ele>
        <time>2010-08-22T23:05:03Z</time>
      </trkpt><trkpt lat="47.55468331" lon="10.05759590">
        <ele>756.2</ele>
        <time>2010-08-22T23:10:51Z</time>
      </trkpt><trkpt lat="47.55119132" lon="10.04873598">
        <ele>768.2</ele>
        <time>2010-08-22T23:14:46Z</time>
      </trkpt><trkpt lat="47.55145418" lon="10.04317383">
        <ele>786.5</ele>
        <time>2010-08-22T23:16:54Z</time>
      </trkpt><trkpt lat="47.54923264" lon="10.03658541">
        <ele>804.3</ele>
        <time>2010-08-22T23:19:43Z</time>
      </trkpt><trkpt lat="47.54944747" lon="10.02786270">
        <ele>791.8</ele>
        <time>2010-08-22T23:23:03Z</time>
      </trkpt><trkpt lat="47.55200462" lon="10.02617106">
        <ele>779.3</ele>
        <time>2010-08-22T23:24:38Z</time>
      </trkpt><trkpt lat="47.55247593" lon="10.02377987">
        <ele>774.5</ele>
        <time>2010-08-22T23:25:36Z</time>
      </trkpt><trkpt lat="47.54737580" lon="10.00538972">
        <ele>867.2</ele>
        <time>2010-08-22T23:33:12Z</time>
      </trkpt><trkpt lat="47.54647952" lon="9.99640768">
        <ele>895.1</ele>
        <time>2010-08-22T23:36:40Z</time>
      </trkpt><trkpt lat="47.54273197" lon="9.98829215">
        <ele>903.8</ele>
        <time>2010-08-22T23:40:26Z</time>
      </trkpt><trkpt lat="47.54669577" lon="9.98933444">
        <ele>882.6</ele>
        <time>2010-08-22T23:42:43Z</time>
      </trkpt><trkpt lat="47.54956607" lon="9.98795394">
        <ele>862.4</ele>
        <time>2010-08-22T23:44:25Z</time>
      </trkpt><trkpt lat="47.55473528" lon="9.99174558">
        <ele>828.3</ele>
        <time>2010-08-22T23:47:41Z</time>
      </trkpt><trkpt lat="47.55647787" lon="9.99061016">
        <ele>821.1</ele>
        <time>2010-08-22T23:48:46Z</time>
      </trkpt><trkpt lat="47.55509511" lon="9.97687248">
        <ele>850.4</ele>
        <time>2010-08-22T23:54:05Z</time>
      </trkpt><trkpt lat="47.56014194" lon="9.97056308">
        <ele>821.1</ele>
        <time>2010-08-22T23:57:49Z</time>
      </trkpt><trkpt lat="47.56515951" lon="9.95937106">
        <ele>799.5</ele>
        <time>2010-08-23T00:02:57Z</time>
      </trkpt><trkpt lat="47.56546101" lon="9.95354530">
        <ele>803.3</ele>
        <time>2010-08-23T00:05:11Z</time>
      </trkpt><trkpt lat="47.56904126" lon="9.94022369">
        <ele>834.1</ele>
        <time>2010-08-23T00:10:40Z</time>
      </trkpt><trkpt lat="47.56834447" lon="9.93259189">
        <ele>834.1</ele>
        <time>2010-08-23T00:13:37Z</time>
      </trkpt><trkpt lat="47.56979412" lon="9.92890779">
        <ele>823</ele>
        <time>2010-08-23T00:15:15Z</time>
      </trkpt><trkpt lat="47.58572686" lon="9.93713379">
        <ele>723</ele>
        <time>2010-08-23T00:24:48Z</time>
      </trkpt><trkpt lat="47.58469899" lon="9.93426173">
        <ele>704.8</ele>
        <time>2010-08-23T00:26:03Z</time>
      </trkpt><trkpt lat="47.58522328" lon="9.92388544">
        <ele>643.3</ele>
        <time>2010-08-23T00:30:01Z</time>
      </trkpt><trkpt lat="47.58219657" lon="9.91714806">
        <ele>633.6</ele>
        <time>2010-08-23T00:33:07Z</time>
      </trkpt><trkpt lat="47.58143273" lon="9.90592646">
        <ele>611.5</ele>
        <time>2010-08-23T00:37:26Z</time>
      </trkpt><trkpt lat="47.57317773" lon="9.89043988">
        <ele>621.6</ele>
        <time>2010-08-23T00:44:58Z</time>
      </trkpt><trkpt lat="47.56493186" lon="9.88411901">
        <ele>625</ele>
        <time>2010-08-23T00:50:14Z</time>
      </trkpt><trkpt lat="47.56119403" lon="9.87881703">
        <ele>623.1</ele>
        <time>2010-08-23T00:53:10Z</time>
      </trkpt><trkpt lat="47.55504800" lon="9.88238052">
        <ele>621.6</ele>
        <time>2010-08-23T00:56:54Z</time>
      </trkpt><trkpt lat="47.54783345" lon="9.87775857">
        <ele>600</ele>
        <time>2010-08-23T01:01:21Z</time>
      </trkpt><trkpt lat="47.53547467" lon="9.86576540">
        <ele>601</ele>
        <time>2010-08-23T01:09:44Z</time>
      </trkpt><trkpt lat="47.53373827" lon="9.86872673">
        <ele>581.3</ele>
        <time>2010-08-23T01:11:14Z</time>
      </trkpt><trkpt lat="47.53317224" lon="9.86484935">
        <ele>569.2</ele>
        <time>2010-08-23T01:12:45Z</time>
      </trkpt><trkpt lat="47.52943618" lon="9.86336726">
        <ele>593.8</ele>
        <time>2010-08-23T01:14:56Z</time>
      </trkpt><trkpt lat="47.51341727" lon="9.84025441">
        <ele>602.9</ele>
        <time>2010-08-23T01:27:37Z</time>
      </trkpt><trkpt lat="47.49855046" lon="9.80216101">
        <ele>669.2</ele>
        <time>2010-08-23T01:44:27Z</time>
      </trkpt><trkpt lat="47.49809130" lon="9.79775950">
        <ele>665.4</ele>
        <time>2010-08-23T01:46:09Z</time>
      </trkpt><trkpt lat="47.49973105" lon="9.79434539">
        <ele>659.6</ele>
        <time>2010-08-23T01:47:45Z</time>
      </trkpt><trkpt lat="47.50181797" lon="9.79315851">
        <ele>652.4</ele>
        <time>2010-08-23T01:49:01Z</time>
      </trkpt><trkpt lat="47.49803606" lon="9.79205738">
        <ele>639.4</ele>
        <time>2010-08-23T01:51:12Z</time>
      </trkpt><trkpt lat="47.49344529" lon="9.79306405">
        <ele>630.3</ele>
        <time>2010-08-23T01:53:50Z</time>
      </trkpt><trkpt lat="47.49056678" lon="9.78273109">
        <ele>618.7</ele>
        <time>2010-08-23T01:58:07Z</time>
      </trkpt><trkpt lat="47.49147403" lon="9.77831877">
        <ele>608.7</ele>
        <time>2010-08-23T01:59:53Z</time>
      </trkpt><trkpt lat="47.49161552" lon="9.77720825">
        <ele>605.8</ele>
        <time>2010-08-23T02:00:19Z</time>
      </trkpt><trkpt lat="47.48805405" lon="9.77514153">
        <ele>592.8</ele>
        <time>2010-08-23T02:02:29Z</time>
      </trkpt><trkpt lat="47.48691814" lon="9.77172020">
        <ele>573.6</ele>
        <time>2010-08-23T02:03:56Z</time>
      </trkpt><trkpt lat="47.48496096" lon="9.75697593">
        <ele>515.9</ele>
        <time>2010-08-23T02:09:42Z</time>
      </trkpt><trkpt lat="47.48723950" lon="9.74908898">
        <ele>486.1</ele>
        <time>2010-08-23T02:12:59Z</time>
      </trkpt><trkpt lat="47.48991240" lon="9.74501847">
        <ele>462.5</ele>
        <time>2010-08-23T02:15:09Z</time>
      </trkpt><trkpt lat="47.49269486" lon="9.74457264">
        <ele>445.2</ele>
        <time>2010-08-23T02:16:44Z</time>
      </trkpt><trkpt lat="47.49324765" lon="9.74067153">
        <ele>436.1</ele>
        <time>2010-08-23T02:18:16Z</time>
      </trkpt><trkpt lat="47.48840173" lon="9.73416416">
        <ele>421.2</ele>
        <time>2010-08-23T02:21:58Z</time>
      </trkpt><trkpt lat="47.48423643" lon="9.73150450">
        <ele>420.7</ele>
        <time>2010-08-23T02:24:32Z</time>
      </trkpt><trkpt lat="47.48293472" lon="9.72286100">
        <ele>411.6</ele>
        <time>2010-08-23T02:27:56Z</time>
      </trkpt><trkpt lat="47.48457925" lon="9.71457540">
        <ele>413</ele>
        <time>2010-08-23T02:31:14Z</time>
      </trkpt><trkpt lat="47.48930622" lon="9.70376484">
        <ele>408.7</ele>
        <time>2010-08-23T02:36:10Z</time>
      </trkpt><trkpt lat="47.47772176" lon="9.67935816">
        <ele>403.4</ele>
        <time>2010-08-23T02:47:35Z</time>
      </trkpt><trkpt lat="47.47697929" lon="9.66403169">
        <ele>404.4</ele>
        <time>2010-08-23T02:53:28Z</time>
      </trkpt><trkpt lat="47.47097131" lon="9.65958534">
        <ele>405.3</ele>
        <time>2010-08-23T02:57:17Z</time>
      </trkpt><trkpt lat="47.46256301" lon="9.65764158">
        <ele>408.2</ele>
        <time>2010-08-23T03:02:06Z</time>
      </trkpt><trkpt lat="47.45877916" lon="9.63989759">
        <ele>406.8</ele>
        <time>2010-08-23T03:09:14Z</time>
      </trkpt><trkpt lat="47.45487085" lon="9.63823613">
        <ele>405.8</ele>
        <time>2010-08-23T03:11:32Z</time>
      </trkpt><trkpt lat="47.45456047" lon="9.64503109">
        <ele>405.8</ele>
        <time>2010-08-23T03:14:08Z</time>
      </trkpt><trkpt lat="47.45219300" lon="9.64735539">
        <ele>404.4</ele>
        <time>2010-08-23T03:15:45Z</time>
      </trkpt><trkpt lat="47.45083354" lon="9.65326396">
        <ele>403.9</ele>
        <time>2010-08-23T03:18:08Z</time>
      </trkpt><trkpt lat="47.44900670" lon="9.65380669">
        <ele>404.9</ele>
        <time>2010-08-23T03:19:12Z</time>
      </trkpt><trkpt lat="47.44600741" lon="9.65278753">
        <ele>411.1</ele>
        <time>2010-08-23T03:20:56Z</time>
      </trkpt><trkpt lat="47.43960690" lon="9.64441510">
        <ele>416.4</ele>
        <time>2010-08-23T03:25:47Z</time>
      </trkpt><trkpt lat="47.43562919" lon="9.64228174">
        <ele>414</ele>
        <time>2010-08-23T03:28:11Z</time>
      </trkpt><trkpt lat="47.42500948" lon="9.64604639">
        <ele>414</ele>
        <time>2010-08-23T03:34:22Z</time>
      </trkpt><trkpt lat="47.40537077" lon="9.64833138">
        <ele>412.5</ele>
        <time>2010-08-23T03:45:32Z</time>
      </trkpt><trkpt lat="47.38888415" lon="9.64229205">
        <ele>414</ele>
        <time>2010-08-23T03:55:09Z</time>
      </trkpt><trkpt lat="47.37473642" lon="9.63105577">
        <ele>415.9</ele>
        <time>2010-08-23T04:04:15Z</time>
      </trkpt><trkpt lat="47.35666462" lon="9.60615121">
        <ele>423.1</ele>
        <time>2010-08-23T04:18:16Z</time>
      </trkpt><trkpt lat="47.34651707" lon="9.59722314">
        <ele>423.1</ele>
        <time>2010-08-23T04:24:57Z</time>
      </trkpt><trkpt lat="47.32078429" lon="9.58654108">
        <ele>427.9</ele>
        <time>2010-08-23T04:40:06Z</time>
      </trkpt><trkpt lat="47.31602085" lon="9.58326241">
        <ele>428.4</ele>
        <time>2010-08-23T04:43:05Z</time>
      </trkpt><trkpt lat="47.29918915" lon="9.55545059">
        <ele>435.1</ele>
        <time>2010-08-23T04:57:24Z</time>
      </trkpt><trkpt lat="47.28292005" lon="9.54659821">
        <ele>435.6</ele>
        <time>2010-08-23T05:07:14Z</time>
      </trkpt><trkpt lat="47.27256387" lon="9.52986449">
        <ele>443.3</ele>
        <time>2010-08-23T05:15:56Z</time>
      </trkpt><trkpt lat="47.25850407" lon="9.52634057">
        <ele>438</ele>
        <time>2010-08-23T05:24:01Z</time>
      </trkpt><trkpt lat="47.24059764" lon="9.51545097">
        <ele>445.2</ele>
        <time>2010-08-23T05:34:59Z</time>
      </trkpt><trkpt lat="47.22282381" lon="9.50130316">
        <ele>447.2</ele>
        <time>2010-08-23T05:46:26Z</time>
      </trkpt><trkpt lat="47.20801735" lon="9.49529434">
        <ele>447.6</ele>
        <time>2010-08-23T05:55:08Z</time>
      </trkpt><trkpt lat="47.19287561" lon="9.48609076">
        <ele>449.1</ele>
        <time>2010-08-23T06:04:25Z</time>
      </trkpt><trkpt lat="47.18204527" lon="9.48411942">
        <ele>452</ele>
        <time>2010-08-23T06:10:36Z</time>
      </trkpt><trkpt lat="47.16958372" lon="9.48667447">
        <ele>452.9</ele>
        <time>2010-08-23T06:17:44Z</time>
      </trkpt><trkpt lat="47.15800471" lon="9.49212162">
        <ele>457.2</ele>
        <time>2010-08-23T06:24:37Z</time>
      </trkpt><trkpt lat="47.13263286" lon="9.50873505">
        <ele>461.6</ele>
        <time>2010-08-23T06:40:21Z</time>
      </trkpt><trkpt lat="47.11463448" lon="9.51495074">
        <ele>467.3</ele>
        <time>2010-08-23T06:50:50Z</time>
      </trkpt><trkpt lat="47.09955208" lon="9.51789379">
        <ele>472.6</ele>
        <time>2010-08-23T06:59:27Z</time>
      </trkpt><trkpt lat="47.09207199" lon="9.51585732">
        <ele>477.4</ele>
        <time>2010-08-23T07:03:46Z</time>
      </trkpt><trkpt lat="47.08642636" lon="9.51094260">
        <ele>475</ele>
        <time>2010-08-23T07:07:29Z</time>
      </trkpt><trkpt lat="47.06997838" lon="9.48017347">
        <ele>488</ele>
        <time>2010-08-23T07:22:34Z</time>
      </trkpt><trkpt lat="47.06741210" lon="9.47338547">
        <ele>485.1</ele>
        <time>2010-08-23T07:25:34Z</time>
      </trkpt><trkpt lat="47.06421482" lon="9.46950691">
        <ele>485.1</ele>
        <time>2010-08-23T07:27:55Z</time>
      </trkpt><trkpt lat="47.06132424" lon="9.46875572">
        <ele>485.6</ele>
        <time>2010-08-23T07:29:35Z</time>
      </trkpt><trkpt lat="47.05289782" lon="9.47086050">
        <ele>491.4</ele>
        <time>2010-08-23T07:34:26Z</time>
      </trkpt><trkpt lat="47.04877913" lon="9.47035566">
        <ele>491.4</ele>
        <time>2010-08-23T07:36:46Z</time>
      </trkpt><trkpt lat="47.03792096" lon="9.46188927">
        <ele>484.6</ele>
        <time>2010-08-23T07:43:44Z</time>
      </trkpt><trkpt lat="47.03589790" lon="9.46157704">
        <ele>485.6</ele>
        <time>2010-08-23T07:44:53Z</time>
      </trkpt><trkpt lat="47.03474505" lon="9.46530724">
        <ele>489</ele>
        <time>2010-08-23T07:46:28Z</time>
      </trkpt><trkpt lat="47.03048998" lon="9.47022641">
        <ele>491.9</ele>
        <time>2010-08-23T07:49:32Z</time>
      </trkpt><trkpt lat="47.01694793" lon="9.49304271">
        <ele>499.5</ele>
        <time>2010-08-23T08:01:13Z</time>
      </trkpt><trkpt lat="47.01384184" lon="9.50812100">
        <ele>505.8</ele>
        <time>2010-08-23T08:07:19Z</time>
      </trkpt><trkpt lat="47.01167965" lon="9.51282785">
        <ele>506.3</ele>
        <time>2010-08-23T08:09:30Z</time>
      </trkpt><trkpt lat="46.99794825" lon="9.52436236">
        <ele>510.1</ele>
        <time>2010-08-23T08:18:28Z</time>
      </trkpt><trkpt lat="46.97676701" lon="9.54891320">
        <ele>522.1</ele>
        <time>2010-08-23T08:33:46Z</time>
      </trkpt><trkpt lat="46.97319355" lon="9.55139467">
        <ele>525.5</ele>
        <time>2010-08-23T08:36:00Z</time>
      </trkpt><trkpt lat="46.96897226" lon="9.55226261">
        <ele>527.9</ele>
        <time>2010-08-23T08:38:25Z</time>
      </trkpt><trkpt lat="46.95284305" lon="9.54597216">
        <ele>529.3</ele>
        <time>2010-08-23T08:47:53Z</time>
      </trkpt><trkpt lat="46.94437095" lon="9.54582037">
        <ele>531.7</ele>
        <time>2010-08-23T08:52:41Z</time>
      </trkpt><trkpt lat="46.93943041" lon="9.54880902">
        <ele>533.2</ele>
        <time>2010-08-23T08:55:42Z</time>
      </trkpt><trkpt lat="46.93397019" lon="9.55656010">
        <ele>536.6</ele>
        <time>2010-08-23T09:00:01Z</time>
      </trkpt><trkpt lat="46.92903635" lon="9.56098826">
        <ele>538.5</ele>
        <time>2010-08-23T09:03:18Z</time>
      </trkpt><trkpt lat="46.92608474" lon="9.56202485">
        <ele>552.4</ele>
        <time>2010-08-23T09:05:01Z</time>
      </trkpt><trkpt lat="46.91483933" lon="9.56035341">
        <ele>543.3</ele>
        <time>2010-08-23T09:11:25Z</time>
      </trkpt><trkpt lat="46.90331656" lon="9.54736339">
        <ele>549.5</ele>
        <time>2010-08-23T09:19:40Z</time>
      </trkpt><trkpt lat="46.88330980" lon="9.53562479">
        <ele>566.4</ele>
        <time>2010-08-23T09:31:52Z</time>
      </trkpt><trkpt lat="46.87414133" lon="9.53213515">
        <ele>558.7</ele>
        <time>2010-08-23T09:37:14Z</time>
      </trkpt><trkpt lat="46.87026085" lon="9.52669638">
        <ele>559.6</ele>
        <time>2010-08-23T09:40:17Z</time>
      </trkpt><trkpt lat="46.86403980" lon="9.51210047">
        <ele>565.9</ele>
        <time>2010-08-23T09:46:57Z</time>
      </trkpt><trkpt lat="46.86092626" lon="9.50834052">
        <ele>569.2</ele>
        <time>2010-08-23T09:49:14Z</time>
      </trkpt><trkpt lat="46.84897107" lon="9.50562252">
        <ele>568.8</ele>
        <time>2010-08-23T09:56:05Z</time>
      </trkpt><trkpt lat="46.84734179" lon="9.50231938">
        <ele>565.9</ele>
        <time>2010-08-23T09:57:40Z</time>
      </trkpt><trkpt lat="46.84573439" lon="9.50678827">
        <ele>584.6</ele>
        <time>2010-08-23T09:59:38Z</time>
      </trkpt><trkpt lat="46.83698201" lon="9.46070499">
        <ele>576.9</ele>
        <time>2010-08-23T10:18:10Z</time>
      </trkpt><trkpt lat="46.83704722" lon="9.45211547">
        <ele>584.6</ele>
        <time>2010-08-23T10:21:29Z</time>
      </trkpt><trkpt lat="46.83411724" lon="9.44954725">
        <ele>586.1</ele>
        <time>2010-08-23T10:23:26Z</time>
      </trkpt><trkpt lat="46.82975656" lon="9.43698613">
        <ele>595.2</ele>
        <time>2010-08-23T10:28:53Z</time>
      </trkpt><trkpt lat="46.82783660" lon="9.41945169">
        <ele>610.1</ele>
        <time>2010-08-23T10:35:46Z</time>
      </trkpt><trkpt lat="46.82842467" lon="9.39917654">
        <ele>672.6</ele>
        <time>2010-08-23T10:43:38Z</time>
      </trkpt><trkpt lat="46.82677126" lon="9.38519351">
        <ele>766.3</ele>
        <time>2010-08-23T10:49:08Z</time>
      </trkpt><trkpt lat="46.82853699" lon="9.37786102">
        <ele>822.5</ele>
        <time>2010-08-23T10:52:09Z</time>
      </trkpt><trkpt lat="46.82732271" lon="9.36981213">
        <ele>854.7</ele>
        <time>2010-08-23T10:55:21Z</time>
      </trkpt><trkpt lat="46.83021295" lon="9.36304702">
        <ele>849.5</ele>
        <time>2010-08-23T10:58:26Z</time>
      </trkpt><trkpt lat="46.83254505" lon="9.34476785">
        <ele>824</ele>
        <time>2010-08-23T11:05:39Z</time>
      </trkpt><trkpt lat="46.83415890" lon="9.34122741">
        <ele>825.9</ele>
        <time>2010-08-23T11:07:18Z</time>
      </trkpt><trkpt lat="46.83411599" lon="9.32565761">
        <ele>855.2</ele>
        <time>2010-08-23T11:13:20Z</time>
      </trkpt><trkpt lat="46.83630467" lon="9.31779580">
        <ele>902.8</ele>
        <time>2010-08-23T11:16:37Z</time>
      </trkpt><trkpt lat="46.83534251" lon="9.30682372">
        <ele>956.6</ele>
        <time>2010-08-23T11:20:54Z</time>
      </trkpt><trkpt lat="46.83732039" lon="9.30101942">
        <ele>983.6</ele>
        <time>2010-08-23T11:23:25Z</time>
      </trkpt><trkpt lat="46.83205035" lon="9.27900167">
        <ele>1089.8</ele>
        <time>2010-08-23T11:32:28Z</time>
      </trkpt><trkpt lat="46.82658116" lon="9.27754305">
        <ele>1103.7</ele>
        <time>2010-08-23T11:35:37Z</time>
      </trkpt><trkpt lat="46.82001427" lon="9.26819514">
        <ele>1081.1</ele>
        <time>2010-08-23T11:40:48Z</time>
      </trkpt><trkpt lat="46.81462211" lon="9.26557663">
        <ele>1038.8</ele>
        <time>2010-08-23T11:44:01Z</time>
      </trkpt><trkpt lat="46.80711939" lon="9.25906984">
        <ele>1018.7</ele>
        <time>2010-08-23T11:48:58Z</time>
      </trkpt><trkpt lat="46.80184356" lon="9.25613173">
        <ele>984.5</ele>
        <time>2010-08-23T11:52:10Z</time>
      </trkpt><trkpt lat="46.79772076" lon="9.25683850">
        <ele>956.6</ele>
        <time>2010-08-23T11:54:31Z</time>
      </trkpt><trkpt lat="46.79691576" lon="9.25591397">
        <ele>949.4</ele>
        <time>2010-08-23T11:55:06Z</time>
      </trkpt><trkpt lat="46.79025835" lon="9.24010629">
        <ele>835</ele>
        <time>2010-08-23T12:02:18Z</time>
      </trkpt><trkpt lat="46.78858281" lon="9.22662735">
        <ele>760.1</ele>
        <time>2010-08-23T12:07:37Z</time>
      </trkpt><trkpt lat="46.77976060" lon="9.21862548">
        <ele>709.6</ele>
        <time>2010-08-23T12:13:30Z</time>
      </trkpt><trkpt lat="46.77749807" lon="9.21259470">
        <ele>704.3</ele>
        <time>2010-08-23T12:16:10Z</time>
      </trkpt><trkpt lat="46.77327770" lon="9.18357764">
        <ele>718.2</ele>
        <time>2010-08-23T12:27:41Z</time>
      </trkpt><trkpt lat="46.77690137" lon="9.17043029">
        <ele>738.4</ele>
        <time>2010-08-23T12:33:11Z</time>
      </trkpt><trkpt lat="46.77608044" lon="9.15971872">
        <ele>741.8</ele>
        <time>2010-08-23T12:37:21Z</time>
      </trkpt><trkpt lat="46.77711988" lon="9.15461130">
        <ele>745.6</ele>
        <time>2010-08-23T12:39:26Z</time>
      </trkpt><trkpt lat="46.77557946" lon="9.14936833">
        <ele>750</ele>
        <time>2010-08-23T12:41:38Z</time>
      </trkpt><trkpt lat="46.77674345" lon="9.13907292">
        <ele>751.4</ele>
        <time>2010-08-23T12:45:41Z</time>
      </trkpt><trkpt lat="46.77103529" lon="9.11679072">
        <ele>759.6</ele>
        <time>2010-08-23T12:54:55Z</time>
      </trkpt><trkpt lat="46.75844735" lon="9.08724401">
        <ele>775.4</ele>
        <time>2010-08-23T13:08:25Z</time>
      </trkpt><trkpt lat="46.75711178" lon="9.06275000">
        <ele>794.7</ele>
        <time>2010-08-23T13:17:58Z</time>
      </trkpt><trkpt lat="46.75286961" lon="9.05609275">
        <ele>812.5</ele>
        <time>2010-08-23T13:21:29Z</time>
      </trkpt><trkpt lat="46.74857380" lon="9.03667364">
        <ele>836</ele>
        <time>2010-08-23T13:29:25Z</time>
      </trkpt><trkpt lat="46.74471897" lon="9.02735825">
        <ele>837.9</ele>
        <time>2010-08-23T13:33:38Z</time>
      </trkpt><trkpt lat="46.74473464" lon="9.02198453">
        <ele>833.1</ele>
        <time>2010-08-23T13:35:43Z</time>
      </trkpt><trkpt lat="46.74312045" lon="9.02019122">
        <ele>832.6</ele>
        <time>2010-08-23T13:36:52Z</time>
      </trkpt><trkpt lat="46.74259918" lon="9.01582626">
        <ele>831.7</ele>
        <time>2010-08-23T13:38:36Z</time>
      </trkpt><trkpt lat="46.74499792" lon="9.00193946">
        <ele>854.7</ele>
        <time>2010-08-23T13:44:09Z</time>
      </trkpt><trkpt lat="46.74335003" lon="8.99689254">
        <ele>856.2</ele>
        <time>2010-08-23T13:46:19Z</time>
      </trkpt><trkpt lat="46.74207867" lon="8.97898209">
        <ele>878.3</ele>
        <time>2010-08-23T13:53:19Z</time>
      </trkpt><trkpt lat="46.73427419" lon="8.96665709">
        <ele>932.1</ele>
        <time>2010-08-23T13:59:50Z</time>
      </trkpt><trkpt lat="46.73443881" lon="8.95614459">
        <ele>962.9</ele>
        <time>2010-08-23T14:03:55Z</time>
      </trkpt><trkpt lat="46.73162476" lon="8.95159280">
        <ele>986.5</ele>
        <time>2010-08-23T14:06:18Z</time>
      </trkpt><trkpt lat="46.73206045" lon="8.94904093">
        <ele>996.5</ele>
        <time>2010-08-23T14:07:19Z</time>
      </trkpt><trkpt lat="46.73076142" lon="8.94858244">
        <ele>1005.7</ele>
        <time>2010-08-23T14:08:04Z</time>
      </trkpt><trkpt lat="46.72705369" lon="8.93573608">
        <ele>1039.8</ele>
        <time>2010-08-23T14:13:29Z</time>
      </trkpt><trkpt lat="46.72162976" lon="8.89770127">
        <ele>1029.2</ele>
        <time>2010-08-23T14:28:35Z</time>
      </trkpt><trkpt lat="46.71656382" lon="8.88890538">
        <ele>1054.7</ele>
        <time>2010-08-23T14:33:02Z</time>
      </trkpt><trkpt lat="46.71287955" lon="8.87341621">
        <ele>1096</ele>
        <time>2010-08-23T14:39:24Z</time>
      </trkpt><trkpt lat="46.70833111" lon="8.86489391">
        <ele>1124.4</ele>
        <time>2010-08-23T14:43:36Z</time>
      </trkpt><trkpt lat="46.70456563" lon="8.85063873">
        <ele>1153.2</ele>
        <time>2010-08-23T14:49:32Z</time>
      </trkpt><trkpt lat="46.70216287" lon="8.84848441">
        <ele>1169.6</ele>
        <time>2010-08-23T14:51:08Z</time>
      </trkpt><trkpt lat="46.70096342" lon="8.84486502">
        <ele>1188.3</ele>
        <time>2010-08-23T14:52:42Z</time>
      </trkpt><trkpt lat="46.69832463" lon="8.84456713">
        <ele>1203.7</ele>
        <time>2010-08-23T14:54:12Z</time>
      </trkpt><trkpt lat="46.69518100" lon="8.84187922">
        <ele>1220.5</ele>
        <time>2010-08-23T14:56:16Z</time>
      </trkpt><trkpt lat="46.69458831" lon="8.83791659">
        <ele>1225.3</ele>
        <time>2010-08-23T14:57:50Z</time>
      </trkpt><trkpt lat="46.69265846" lon="8.83864054">
        <ele>1234.5</ele>
        <time>2010-08-23T14:58:58Z</time>
      </trkpt><trkpt lat="46.69096691" lon="8.83724797">
        <ele>1238.3</ele>
        <time>2010-08-23T15:00:04Z</time>
      </trkpt><trkpt lat="46.68818320" lon="8.83172949">
        <ele>1247.4</ele>
        <time>2010-08-23T15:02:44Z</time>
      </trkpt><trkpt lat="46.68642995" lon="8.83538249">
        <ele>1262.8</ele>
        <time>2010-08-23T15:04:28Z</time>
      </trkpt><trkpt lat="46.68551675" lon="8.83513564">
        <ele>1269.1</ele>
        <time>2010-08-23T15:04:59Z</time>
      </trkpt><trkpt lat="46.68210682" lon="8.82951935">
        <ele>1294.1</ele>
        <time>2010-08-23T15:07:54Z</time>
      </trkpt><trkpt lat="46.68065331" lon="8.80236944">
        <ele>1353.7</ele>
        <time>2010-08-23T15:18:29Z</time>
      </trkpt><trkpt lat="46.68079195" lon="8.78589347">
        <ele>1397.4</ele>
        <time>2010-08-23T15:24:54Z</time>
      </trkpt><trkpt lat="46.68207757" lon="8.78386933">
        <ele>1396.5</ele>
        <time>2010-08-23T15:25:58Z</time>
      </trkpt><trkpt lat="46.68077653" lon="8.78252411">
        <ele>1396</ele>
        <time>2010-08-23T15:26:52Z</time>
      </trkpt><trkpt lat="46.68152059" lon="8.77855226">
        <ele>1395</ele>
        <time>2010-08-23T15:28:28Z</time>
      </trkpt><trkpt lat="46.67904634" lon="8.77108030">
        <ele>1398.9</ele>
        <time>2010-08-23T15:31:42Z</time>
      </trkpt><trkpt lat="46.68046112" lon="8.76205802">
        <ele>1406.5</ele>
        <time>2010-08-23T15:35:18Z</time>
      </trkpt><trkpt lat="46.67714012" lon="8.75972534">
        <ele>1402.7</ele>
        <time>2010-08-23T15:37:23Z</time>
      </trkpt><trkpt lat="46.67589516" lon="8.75169514">
        <ele>1395</ele>
        <time>2010-08-23T15:40:35Z</time>
      </trkpt><trkpt lat="46.67216789" lon="8.74505340">
        <ele>1419.5</ele>
        <time>2010-08-23T15:43:55Z</time>
      </trkpt><trkpt lat="46.66946138" lon="8.74398144">
        <ele>1429.1</ele>
        <time>2010-08-23T15:45:31Z</time>
      </trkpt><trkpt lat="46.66745064" lon="8.74567945">
        <ele>1442.1</ele>
        <time>2010-08-23T15:46:50Z</time>
      </trkpt><trkpt lat="46.66558248" lon="8.74235778">
        <ele>1455.6</ele>
        <time>2010-08-23T15:48:30Z</time>
      </trkpt><trkpt lat="46.66116824" lon="8.72053407">
        <ele>1559.4</ele>
        <time>2010-08-23T15:57:21Z</time>
      </trkpt><trkpt lat="46.65541825" lon="8.70908054">
        <ele>1625.2</ele>
        <time>2010-08-23T16:02:52Z</time>
      </trkpt><trkpt lat="46.65354624" lon="8.69878840">
        <ele>1676.7</ele>
        <time>2010-08-23T16:07:00Z</time>
      </trkpt><trkpt lat="46.64925060" lon="8.69273398">
        <ele>1727.6</ele>
        <time>2010-08-23T16:10:23Z</time>
      </trkpt><trkpt lat="46.64874374" lon="8.68717133">
        <ele>1763.7</ele>
        <time>2010-08-23T16:12:34Z</time>
      </trkpt><trkpt lat="46.64908413" lon="8.68621135">
        <ele>1774.7</ele>
        <time>2010-08-23T16:12:59Z</time>
      </trkpt><trkpt lat="46.64986960" lon="8.68690588">
        <ele>1790.6</ele>
        <time>2010-08-23T16:13:31Z</time>
      </trkpt><trkpt lat="46.65107123" lon="8.68121465">
        <ele>1847.3</ele>
        <time>2010-08-23T16:15:50Z</time>
      </trkpt><trkpt lat="46.65104483" lon="8.68405142">
        <ele>1866.5</ele>
        <time>2010-08-23T16:16:56Z</time>
      </trkpt><trkpt lat="46.65193549" lon="8.68006457">
        <ele>1890.6</ele>
        <time>2010-08-23T16:18:34Z</time>
      </trkpt><trkpt lat="46.65219818" lon="8.68142964">
        <ele>1904</ele>
        <time>2010-08-23T16:19:07Z</time>
      </trkpt><trkpt lat="46.65468459" lon="8.67672832">
        <ele>1962.7</ele>
        <time>2010-08-23T16:21:25Z</time>
      </trkpt><trkpt lat="46.65611286" lon="8.67676118">
        <ele>1989.6</ele>
        <time>2010-08-23T16:22:14Z</time>
      </trkpt><trkpt lat="46.65868242" lon="8.67121412">
        <ele>2031.4</ele>
        <time>2010-08-23T16:24:50Z</time>
      </trkpt><trkpt lat="46.66054245" lon="8.67073995">
        <ele>2026.1</ele>
        <time>2010-08-23T16:25:54Z</time>
      </trkpt><trkpt lat="46.66160762" lon="8.66824064">
        <ele>2022.3</ele>
        <time>2010-08-23T16:27:03Z</time>
      </trkpt><trkpt lat="46.65996342" lon="8.65629709">
        <ele>2021.8</ele>
        <time>2010-08-23T16:31:47Z</time>
      </trkpt><trkpt lat="46.65526168" lon="8.63867607">
        <ele>1970.4</ele>
        <time>2010-08-23T16:39:08Z</time>
      </trkpt><trkpt lat="46.64308395" lon="8.62069605">
        <ele>1856.9</ele>
        <time>2010-08-23T16:48:58Z</time>
      </trkpt><trkpt lat="46.64124244" lon="8.60864983">
        <ele>1795.9</ele>
        <time>2010-08-23T16:53:46Z</time>
      </trkpt><trkpt lat="46.64032789" lon="8.61156615">
        <ele>1767</ele>
        <time>2010-08-23T16:55:00Z</time>
      </trkpt><trkpt lat="46.63972800" lon="8.61048195">
        <ele>1759.8</ele>
        <time>2010-08-23T16:55:33Z</time>
      </trkpt><trkpt lat="46.63996236" lon="8.60324954">
        <ele>1714.2</ele>
        <time>2010-08-23T16:58:22Z</time>
      </trkpt><trkpt lat="46.63747863" lon="8.60967712">
        <ele>1668.5</ele>
        <time>2010-08-23T17:01:14Z</time>
      </trkpt><trkpt lat="46.63747662" lon="8.60463029">
        <ele>1642.1</ele>
        <time>2010-08-23T17:03:12Z</time>
      </trkpt><trkpt lat="46.63924965" lon="8.60108550">
        <ele>1611.8</ele>
        <time>2010-08-23T17:04:54Z</time>
      </trkpt><trkpt lat="46.63547988" lon="8.60624456">
        <ele>1569.5</ele>
        <time>2010-08-23T17:07:50Z</time>
      </trkpt><trkpt lat="46.63749272" lon="8.59992829">
        <ele>1532.5</ele>
        <time>2010-08-23T17:10:33Z</time>
      </trkpt><trkpt lat="46.63578096" lon="8.60233390">
        <ele>1508</ele>
        <time>2010-08-23T17:11:53Z</time>
      </trkpt><trkpt lat="46.63438797" lon="8.59795234">
        <ele>1475.3</ele>
        <time>2010-08-23T17:13:46Z</time>
      </trkpt><trkpt lat="46.63551752" lon="8.59681542">
        <ele>1461.3</ele>
        <time>2010-08-23T17:14:33Z</time>
      </trkpt><trkpt lat="46.63351919" lon="8.59706721">
        <ele>1455.6</ele>
        <time>2010-08-23T17:15:41Z</time>
      </trkpt><trkpt lat="46.63047740" lon="8.58704338">
        <ele>1445</ele>
        <time>2010-08-23T17:19:57Z</time>
      </trkpt><trkpt lat="46.61861784" lon="8.56898415">
        <ele>1487.3</ele>
        <time>2010-08-23T17:29:40Z</time>
      </trkpt><trkpt lat="46.61075780" lon="8.54051870">
        <ele>1508</ele>
        <time>2010-08-23T17:41:37Z</time>
      </trkpt><trkpt lat="46.61075042" lon="8.53647192">
        <ele>1504.1</ele>
        <time>2010-08-23T17:43:11Z</time>
      </trkpt><trkpt lat="46.60272081" lon="8.51517401">
        <ele>1523.3</ele>
        <time>2010-08-23T17:52:39Z</time>
      </trkpt><trkpt lat="46.60087252" lon="8.50563590">
        <ele>1543.1</ele>
        <time>2010-08-23T17:56:30Z</time>
      </trkpt><trkpt lat="46.59281013" lon="8.49441522">
        <ele>1622.4</ele>
        <time>2010-08-23T18:02:49Z</time>
      </trkpt><trkpt lat="46.58964001" lon="8.49265921">
        <ele>1667.5</ele>
        <time>2010-08-23T18:04:45Z</time>
      </trkpt><trkpt lat="46.59160766" lon="8.49123512">
        <ele>1694</ele>
        <time>2010-08-23T18:05:59Z</time>
      </trkpt><trkpt lat="46.58791535" lon="8.49006317">
        <ele>1735.3</ele>
        <time>2010-08-23T18:08:08Z</time>
      </trkpt><trkpt lat="46.59249723" lon="8.48831219">
        <ele>1787.7</ele>
        <time>2010-08-23T18:10:49Z</time>
      </trkpt><trkpt lat="46.58913928" lon="8.48868007">
        <ele>1820.4</ele>
        <time>2010-08-23T18:12:43Z</time>
      </trkpt><trkpt lat="46.58678027" lon="8.48469615">
        <ele>1854</ele>
        <time>2010-08-23T18:14:46Z</time>
      </trkpt><trkpt lat="46.58997965" lon="8.48665240">
        <ele>1891.1</ele>
        <time>2010-08-23T18:16:44Z</time>
      </trkpt><trkpt lat="46.58735753" lon="8.48218334">
        <ele>1930.5</ele>
        <time>2010-08-23T18:19:01Z</time>
      </trkpt><trkpt lat="46.58750254" lon="8.47821099">
        <ele>1956.9</ele>
        <time>2010-08-23T18:20:34Z</time>
      </trkpt><trkpt lat="46.58977186" lon="8.47971210">
        <ele>1990.1</ele>
        <time>2010-08-23T18:21:59Z</time>
      </trkpt><trkpt lat="46.58926023" lon="8.47575115">
        <ele>2016</ele>
        <time>2010-08-23T18:23:33Z</time>
      </trkpt><trkpt lat="46.59482003" lon="8.45719462">
        <ele>2114.1</ele>
        <time>2010-08-23T18:31:26Z</time>
      </trkpt><trkpt lat="46.59171185" lon="8.45368168">
        <ele>2134.7</ele>
        <time>2010-08-23T18:33:40Z</time>
      </trkpt><trkpt lat="46.58797696" lon="8.44197460">
        <ele>2197.7</ele>
        <time>2010-08-23T18:38:41Z</time>
      </trkpt><trkpt lat="46.58794997" lon="8.43253540">
        <ele>2261.6</ele>
        <time>2010-08-23T18:42:22Z</time>
      </trkpt><trkpt lat="46.58256434" lon="8.42719940">
        <ele>2328.5</ele>
        <time>2010-08-23T18:46:04Z</time>
      </trkpt><trkpt lat="46.58006318" lon="8.42668575">
        <ele>2353.4</ele>
        <time>2010-08-23T18:47:29Z</time>
      </trkpt><trkpt lat="46.57207213" lon="8.41375633">
        <ele>2410.6</ele>
        <time>2010-08-23T18:54:16Z</time>
      </trkpt><trkpt lat="46.57197213" lon="8.40957896">
        <ele>2404.4</ele>
        <time>2010-08-23T18:55:53Z</time>
      </trkpt><trkpt lat="46.57516488" lon="8.39966954">
        <ele>2368.8</ele>
        <time>2010-08-23T19:00:09Z</time>
      </trkpt><trkpt lat="46.57598354" lon="8.39085287">
        <ele>2308.3</ele>
        <time>2010-08-23T19:03:37Z</time>
      </trkpt><trkpt lat="46.57486640" lon="8.39271658">
        <ele>2288.1</ele>
        <time>2010-08-23T19:04:35Z</time>
      </trkpt><trkpt lat="46.57512390" lon="8.39131898">
        <ele>2282.8</ele>
        <time>2010-08-23T19:05:09Z</time>
      </trkpt><trkpt lat="46.57695266" lon="8.38818373">
        <ele>2257.8</ele>
        <time>2010-08-23T19:06:45Z</time>
      </trkpt><trkpt lat="46.57461394" lon="8.39045640">
        <ele>2234.2</ele>
        <time>2010-08-23T19:08:20Z</time>
      </trkpt><trkpt lat="46.57645226" lon="8.38677406">
        <ele>2195.3</ele>
        <time>2010-08-23T19:10:07Z</time>
      </trkpt><trkpt lat="46.57364642" lon="8.38989263">
        <ele>2153.5</ele>
        <time>2010-08-23T19:12:07Z</time>
      </trkpt><trkpt lat="46.57281384" lon="8.39529402">
        <ele>2121.8</ele>
        <time>2010-08-23T19:14:16Z</time>
      </trkpt><trkpt lat="46.57293320" lon="8.38922024">
        <ele>2088.6</ele>
        <time>2010-08-23T19:16:38Z</time>
      </trkpt><trkpt lat="46.57086782" lon="8.39674132">
        <ele>2046.8</ele>
        <time>2010-08-23T19:19:47Z</time>
      </trkpt><trkpt lat="46.56981631" lon="8.38852689">
        <ele>2021.3</ele>
        <time>2010-08-23T19:23:03Z</time>
      </trkpt><trkpt lat="46.56496050" lon="8.37946270">
        <ele>1968</ele>
        <time>2010-08-23T19:27:31Z</time>
      </trkpt><trkpt lat="46.56108102" lon="8.36609096">
        <ele>1889.6</ele>
        <time>2010-08-23T19:33:10Z</time>
      </trkpt><trkpt lat="46.56257468" lon="8.36851962">
        <ele>1856.9</ele>
        <time>2010-08-23T19:34:27Z</time>
      </trkpt><trkpt lat="46.56019581" lon="8.35786538">
        <ele>1800.7</ele>
        <time>2010-08-23T19:38:48Z</time>
      </trkpt><trkpt lat="46.56109251" lon="8.36186757">
        <ele>1782.4</ele>
        <time>2010-08-23T19:40:27Z</time>
      </trkpt><trkpt lat="46.56177597" lon="8.36289285">
        <ele>1776.2</ele>
        <time>2010-08-23T19:41:00Z</time>
      </trkpt><trkpt lat="46.56216028" lon="8.36131856">
        <ele>1767</ele>
        <time>2010-08-23T19:41:39Z</time>
      </trkpt><trkpt lat="46.55899980" lon="8.35620375">
        <ele>1751.7</ele>
        <time>2010-08-23T19:44:20Z</time>
      </trkpt><trkpt lat="46.55489451" lon="8.35509474">
        <ele>1700.7</ele>
        <time>2010-08-23T19:46:42Z</time>
      </trkpt><trkpt lat="46.55636897" lon="8.35553169">
        <ele>1691.6</ele>
        <time>2010-08-23T19:47:33Z</time>
      </trkpt><trkpt lat="46.54845234" lon="8.36038691">
        <ele>1619.5</ele>
        <time>2010-08-23T19:52:25Z</time>
      </trkpt><trkpt lat="46.54413240" lon="8.35492048">
        <ele>1588.2</ele>
        <time>2010-08-23T19:55:40Z</time>
      </trkpt><trkpt lat="46.54305029" lon="8.35760814">
        <ele>1568</ele>
        <time>2010-08-23T19:56:53Z</time>
      </trkpt><trkpt lat="46.53858299" lon="8.35042913">
        <ele>1518.5</ele>
        <time>2010-08-23T20:00:39Z</time>
      </trkpt><trkpt lat="46.54126168" lon="8.35952282">
        <ele>1467.6</ele>
        <time>2010-08-23T20:04:30Z</time>
      </trkpt><trkpt lat="46.52405447" lon="8.33085923">
        <ele>1393.1</ele>
        <time>2010-08-23T20:19:20Z</time>
      </trkpt><trkpt lat="46.51445937" lon="8.32511284">
        <ele>1384.4</ele>
        <time>2010-08-23T20:25:13Z</time>
      </trkpt><trkpt lat="46.51362420" lon="8.31840992">
        <ele>1382</ele>
        <time>2010-08-23T20:27:52Z</time>
      </trkpt><trkpt lat="46.50864602" lon="8.31004143">
        <ele>1382</ele>
        <time>2010-08-23T20:32:11Z</time>
      </trkpt><trkpt lat="46.50515143" lon="8.29844699">
        <ele>1378.7</ele>
        <time>2010-08-23T20:37:07Z</time>
      </trkpt><trkpt lat="46.50154369" lon="8.29391548">
        <ele>1381.6</ele>
        <time>2010-08-23T20:39:49Z</time>
      </trkpt><trkpt lat="46.50023134" lon="8.28767918">
        <ele>1375.3</ele>
        <time>2010-08-23T20:42:22Z</time>
      </trkpt><trkpt lat="46.49754343" lon="8.28589258">
        <ele>1379.6</ele>
        <time>2010-08-23T20:44:02Z</time>
      </trkpt><trkpt lat="46.49596973" lon="8.28102697">
        <ele>1378.7</ele>
        <time>2010-08-23T20:46:08Z</time>
      </trkpt><trkpt lat="46.48970828" lon="8.27449604">
        <ele>1415.2</ele>
        <time>2010-08-23T20:50:30Z</time>
      </trkpt><trkpt lat="46.48721592" lon="8.26275911">
        <ele>1408</ele>
        <time>2010-08-23T20:55:18Z</time>
      </trkpt><trkpt lat="46.47986784" lon="8.25652532">
        <ele>1356.6</ele>
        <time>2010-08-23T21:00:07Z</time>
      </trkpt><trkpt lat="46.47357840" lon="8.24863980">
        <ele>1375.3</ele>
        <time>2010-08-23T21:04:49Z</time>
      </trkpt><trkpt lat="46.46564501" lon="8.23365212">
        <ele>1348.4</ele>
        <time>2010-08-23T21:12:12Z</time>
      </trkpt><trkpt lat="46.45943921" lon="8.22935807">
        <ele>1354.6</ele>
        <time>2010-08-23T21:16:06Z</time>
      </trkpt><trkpt lat="46.45722891" lon="8.22465884">
        <ele>1346</ele>
        <time>2010-08-23T21:18:19Z</time>
      </trkpt><trkpt lat="46.45604052" lon="8.21689460">
        <ele>1340.7</ele>
        <time>2010-08-23T21:21:25Z</time>
      </trkpt><trkpt lat="46.45438392" lon="8.21627685">
        <ele>1343.6</ele>
        <time>2010-08-23T21:22:23Z</time>
      </trkpt><trkpt lat="46.45240697" lon="8.21161794">
        <ele>1338.3</ele>
        <time>2010-08-23T21:24:32Z</time>
      </trkpt><trkpt lat="46.43982112" lon="8.20030555">
        <ele>1309.9</ele>
        <time>2010-08-23T21:32:55Z</time>
      </trkpt><trkpt lat="46.43063288" lon="8.18116103">
        <ele>1280.1</ele>
        <time>2010-08-23T21:42:01Z</time>
      </trkpt><trkpt lat="46.41993178" lon="8.16803648">
        <ele>1255.6</ele>
        <time>2010-08-23T21:49:58Z</time>
      </trkpt><trkpt lat="46.41019838" lon="8.15007264">
        <ele>1217.2</ele>
        <time>2010-08-23T21:58:53Z</time>
      </trkpt><trkpt lat="46.40337962" lon="8.14160608">
        <ele>1167.7</ele>
        <time>2010-08-23T22:03:58Z</time>
      </trkpt><trkpt lat="46.40397256" lon="8.13719234">
        <ele>1135.5</ele>
        <time>2010-08-23T22:05:44Z</time>
      </trkpt><trkpt lat="46.40178480" lon="8.13829137">
        <ele>1114.8</ele>
        <time>2010-08-23T22:07:03Z</time>
      </trkpt><trkpt lat="46.40002443" lon="8.13699234">
        <ele>1099.9</ele>
        <time>2010-08-23T22:08:10Z</time>
      </trkpt><trkpt lat="46.39184151" lon="8.12189302">
        <ele>1054.7</ele>
        <time>2010-08-23T22:15:40Z</time>
      </trkpt><trkpt lat="46.38948033" lon="8.12138910">
        <ele>1064.8</ele>
        <time>2010-08-23T22:17:01Z</time>
      </trkpt><trkpt lat="46.38693919" lon="8.11411771">
        <ele>1084.5</ele>
        <time>2010-08-23T22:20:12Z</time>
      </trkpt><trkpt lat="46.38173839" lon="8.10791477">
        <ele>1082.6</ele>
        <time>2010-08-23T22:24:01Z</time>
      </trkpt><trkpt lat="46.37693581" lon="8.09737276">
        <ele>1000.9</ele>
        <time>2010-08-23T22:28:57Z</time>
      </trkpt><trkpt lat="46.37662274" lon="8.09998658">
        <ele>983.1</ele>
        <time>2010-08-23T22:30:00Z</time>
      </trkpt><trkpt lat="46.37630138" lon="8.09713346">
        <ele>970.6</ele>
        <time>2010-08-23T22:31:07Z</time>
      </trkpt><trkpt lat="46.37893305" lon="8.09376913">
        <ele>934.1</ele>
        <time>2010-08-23T22:33:07Z</time>
      </trkpt><trkpt lat="46.37875879" lon="8.09114618">
        <ele>918.2</ele>
        <time>2010-08-23T22:34:09Z</time>
      </trkpt><trkpt lat="46.37553393" lon="8.08979385">
        <ele>891.3</ele>
        <time>2010-08-23T22:36:03Z</time>
      </trkpt><trkpt lat="46.37192460" lon="8.08316561">
        <ele>871.6</ele>
        <time>2010-08-23T22:39:21Z</time>
      </trkpt><trkpt lat="46.37086588" lon="8.07938880">
        <ele>867.2</ele>
        <time>2010-08-23T22:40:56Z</time>
      </trkpt><trkpt lat="46.37170315" lon="8.07677876">
        <ele>862.9</ele>
        <time>2010-08-23T22:42:04Z</time>
      </trkpt><trkpt lat="46.36956401" lon="8.06943496">
        <ele>846.1</ele>
        <time>2010-08-23T22:45:11Z</time>
      </trkpt><trkpt lat="46.36794764" lon="8.06809503">
        <ele>840.3</ele>
        <time>2010-08-23T22:46:14Z</time>
      </trkpt><trkpt lat="46.36200202" lon="8.05409691">
        <ele>811.5</ele>
        <time>2010-08-23T22:52:40Z</time>
      </trkpt><trkpt lat="46.34486639" lon="8.02686025">
        <ele>762.9</ele>
        <time>2010-08-23T23:07:05Z</time>
      </trkpt><trkpt lat="46.33935730" lon="8.02157840">
        <ele>745.2</ele>
        <time>2010-08-23T23:10:49Z</time>
      </trkpt><trkpt lat="46.33744229" lon="8.01714395">
        <ele>738.9</ele>
        <time>2010-08-23T23:12:52Z</time>
      </trkpt><trkpt lat="46.33368016" lon="8.01315308">
        <ele>730.7</ele>
        <time>2010-08-23T23:15:30Z</time>
      </trkpt><trkpt lat="46.32618246" lon="8.01063708">
        <ele>728.3</ele>
        <time>2010-08-23T23:19:52Z</time>
      </trkpt><trkpt lat="46.31999016" lon="7.98414230">
        <ele>704.3</ele>
        <time>2010-08-23T23:30:49Z</time>
      </trkpt><trkpt lat="46.31507443" lon="7.97703646">
        <ele>705.3</ele>
        <time>2010-08-23T23:34:45Z</time>
      </trkpt><trkpt lat="46.31220220" lon="7.96791905">
        <ele>703.8</ele>
        <time>2010-08-23T23:38:40Z</time>
      </trkpt><trkpt lat="46.30518437" lon="7.96431542">
        <ele>700.5</ele>
        <time>2010-08-23T23:42:53Z</time>
      </trkpt><trkpt lat="46.30262412" lon="7.95626300">
        <ele>703.8</ele>
        <time>2010-08-23T23:46:21Z</time>
      </trkpt><trkpt lat="46.30285319" lon="7.94133056">
        <ele>706.7</ele>
        <time>2010-08-23T23:52:12Z</time>
      </trkpt><trkpt lat="46.29784584" lon="7.92938232">
        <ele>696.1</ele>
        <time>2010-08-23T23:57:40Z</time>
      </trkpt><trkpt lat="46.29199863" lon="7.88805485">
        <ele>677.4</ele>
        <time>2010-08-24T00:14:11Z</time>
      </trkpt><trkpt lat="46.29236131" lon="7.87863032">
        <ele>683.2</ele>
        <time>2010-08-24T00:17:53Z</time>
      </trkpt><trkpt lat="46.29745961" lon="7.85870075">
        <ele>678.8</ele>
        <time>2010-08-24T00:26:12Z</time>
      </trkpt><trkpt lat="46.30009429" lon="7.82366431">
        <ele>668.7</ele>
        <time>2010-08-24T00:40:00Z</time>
      </trkpt><trkpt lat="46.30763054" lon="7.76266527">
        <ele>665.4</ele>
        <time>2010-08-24T01:04:15Z</time>
      </trkpt><trkpt lat="46.30582810" lon="7.75429292">
        <ele>660.1</ele>
        <time>2010-08-24T01:07:41Z</time>
      </trkpt><trkpt lat="46.30506141" lon="7.73287112">
        <ele>659.1</ele>
        <time>2010-08-24T01:16:05Z</time>
      </trkpt><trkpt lat="46.29811834" lon="7.66697830">
        <ele>641.8</ele>
        <time>2010-08-24T01:42:10Z</time>
      </trkpt><trkpt lat="46.29995247" lon="7.66026842">
        <ele>647.6</ele>
        <time>2010-08-24T01:45:00Z</time>
      </trkpt><trkpt lat="46.30805953" lon="7.65212799">
        <ele>647.1</ele>
        <time>2010-08-24T01:50:35Z</time>
      </trkpt><trkpt lat="46.31045633" lon="7.64732634">
        <ele>645.7</ele>
        <time>2010-08-24T01:52:54Z</time>
      </trkpt><trkpt lat="46.31200791" lon="7.63991833">
        <ele>640.9</ele>
        <time>2010-08-24T01:55:56Z</time>
      </trkpt><trkpt lat="46.30990506" lon="7.62931824">
        <ele>649.5</ele>
        <time>2010-08-24T02:00:15Z</time>
      </trkpt><trkpt lat="46.30990950" lon="7.62080432">
        <ele>638</ele>
        <time>2010-08-24T02:03:35Z</time>
      </trkpt><trkpt lat="46.30671180" lon="7.61117301">
        <ele>619.7</ele>
        <time>2010-08-24T02:07:46Z</time>
      </trkpt><trkpt lat="46.29787384" lon="7.59740615">
        <ele>586.1</ele>
        <time>2010-08-24T02:15:07Z</time>
      </trkpt><trkpt lat="46.29652402" lon="7.58723052">
        <ele>592.8</ele>
        <time>2010-08-24T02:19:11Z</time>
      </trkpt><trkpt lat="46.29441371" lon="7.58395999">
        <ele>598.6</ele>
        <time>2010-08-24T02:20:56Z</time>
      </trkpt><trkpt lat="46.29060153" lon="7.56596915">
        <ele>589.9</ele>
        <time>2010-08-24T02:28:18Z</time>
      </trkpt><trkpt lat="46.28573299" lon="7.55327225">
        <ele>572.6</ele>
        <time>2010-08-24T02:33:59Z</time>
      </trkpt><trkpt lat="46.28622090" lon="7.53689610">
        <ele>544.2</ele>
        <time>2010-08-24T02:40:24Z</time>
      </trkpt><trkpt lat="46.27802591" lon="7.51040476">
        <ele>539.9</ele>
        <time>2010-08-24T02:51:46Z</time>
      </trkpt><trkpt lat="46.27471087" lon="7.49330409">
        <ele>540.9</ele>
        <time>2010-08-24T02:58:43Z</time>
      </trkpt><trkpt lat="46.26553419" lon="7.45974437">
        <ele>533.2</ele>
        <time>2010-08-24T03:12:51Z</time>
      </trkpt><trkpt lat="46.24833109" lon="7.42782542">
        <ele>520.7</ele>
        <time>2010-08-24T03:28:43Z</time>
      </trkpt><trkpt lat="46.24129398" lon="7.39658078">
        <ele>516.4</ele>
        <time>2010-08-24T03:41:35Z</time>
      </trkpt><trkpt lat="46.23615495" lon="7.38092355">
        <ele>513.5</ele>
        <time>2010-08-24T03:48:23Z</time>
      </trkpt><trkpt lat="46.23566151" lon="7.38015175">
        <ele>512</ele>
        <time>2010-08-24T03:48:48Z</time>
      </trkpt><trkpt lat="46.23122891" lon="7.38507788">
        <ele>510.1</ele>
        <time>2010-08-24T03:51:58Z</time>
      </trkpt><trkpt lat="46.23076916" lon="7.38405705">
        <ele>503.9</ele>
        <time>2010-08-24T03:52:26Z</time>
      </trkpt><trkpt lat="46.23068333" lon="7.38547325">
        <ele>504.3</ele>
        <time>2010-08-24T03:53:00Z</time>
      </trkpt><trkpt lat="46.23605663" lon="7.38088743">
        <ele>503.9</ele>
        <time>2010-08-24T03:56:32Z</time>
      </trkpt><trkpt lat="46.23567526" lon="7.38191128">
        <ele>501.9</ele>
        <time>2010-08-24T03:56:59Z</time>
      </trkpt><trkpt lat="46.23479968" lon="7.38115381">
        <ele>501.5</ele>
        <time>2010-08-24T03:57:34Z</time>
      </trkpt><trkpt lat="46.22800531" lon="7.37218433">
        <ele>496.2</ele>
        <time>2010-08-24T04:02:47Z</time>
      </trkpt><trkpt lat="46.22424963" lon="7.36441188">
        <ele>508.7</ele>
        <time>2010-08-24T04:06:30Z</time>
      </trkpt><trkpt lat="46.21410711" lon="7.31951195">
        <ele>494.7</ele>
        <time>2010-08-24T04:25:01Z</time>
      </trkpt><trkpt lat="46.21235244" lon="7.29011863">
        <ele>494.7</ele>
        <time>2010-08-24T04:36:35Z</time>
      </trkpt><trkpt lat="46.20864303" lon="7.27426711">
        <ele>501.9</ele>
        <time>2010-08-24T04:43:08Z</time>
      </trkpt><trkpt lat="46.20312766" lon="7.26269002">
        <ele>491.9</ele>
        <time>2010-08-24T04:48:39Z</time>
      </trkpt><trkpt lat="46.18993370" lon="7.24512264">
        <ele>493.8</ele>
        <time>2010-08-24T04:58:49Z</time>
      </trkpt><trkpt lat="46.17880656" lon="7.22370596">
        <ele>491.9</ele>
        <time>2010-08-24T05:09:19Z</time>
      </trkpt><trkpt lat="46.16299519" lon="7.19908303">
        <ele>484.6</ele>
        <time>2010-08-24T05:22:30Z</time>
      </trkpt><trkpt lat="46.15372832" lon="7.16323447">
        <ele>481.8</ele>
        <time>2010-08-24T05:37:31Z</time>
      </trkpt><trkpt lat="46.11874712" lon="7.10673574">
        <ele>471.2</ele>
        <time>2010-08-24T06:07:15Z</time>
      </trkpt><trkpt lat="46.11448702" lon="7.09543308">
        <ele>468.3</ele>
        <time>2010-08-24T06:12:19Z</time>
      </trkpt><trkpt lat="46.11493662" lon="7.09210270">
        <ele>467.3</ele>
        <time>2010-08-24T06:13:39Z</time>
      </trkpt><trkpt lat="46.11503452" lon="7.09451233">
        <ele>468.3</ele>
        <time>2010-08-24T06:14:35Z</time>
      </trkpt><trkpt lat="46.11278826" lon="7.09697343">
        <ele>475.5</ele>
        <time>2010-08-24T06:16:11Z</time>
      </trkpt><trkpt lat="46.10880920" lon="7.09721197">
        <ele>472.1</ele>
        <time>2010-08-24T06:18:27Z</time>
      </trkpt><trkpt lat="46.10507733" lon="7.09558111">
        <ele>468.3</ele>
        <time>2010-08-24T06:20:39Z</time>
      </trkpt><trkpt lat="46.10191349" lon="7.09229741">
        <ele>469.7</ele>
        <time>2010-08-24T06:22:52Z</time>
      </trkpt><trkpt lat="46.09725458" lon="7.08150412">
        <ele>471.2</ele>
        <time>2010-08-24T06:27:51Z</time>
      </trkpt><trkpt lat="46.09191346" lon="7.07441077">
        <ele>482.2</ele>
        <time>2010-08-24T06:31:58Z</time>
      </trkpt><trkpt lat="46.08851938" lon="7.05495344">
        <ele>503.9</ele>
        <time>2010-08-24T06:39:51Z</time>
      </trkpt><trkpt lat="46.09135380" lon="7.05480273">
        <ele>524.1</ele>
        <time>2010-08-24T06:41:28Z</time>
      </trkpt><trkpt lat="46.10360345" lon="7.06444276">
        <ele>646.6</ele>
        <time>2010-08-24T06:49:22Z</time>
      </trkpt><trkpt lat="46.09790166" lon="7.05526667">
        <ele>722.6</ele>
        <time>2010-08-24T06:54:13Z</time>
      </trkpt><trkpt lat="46.08127750" lon="7.03656664">
        <ele>911.5</ele>
        <time>2010-08-24T07:06:09Z</time>
      </trkpt><trkpt lat="46.07993187" lon="7.03229589">
        <ele>945.1</ele>
        <time>2010-08-24T07:08:00Z</time>
      </trkpt><trkpt lat="46.07818508" lon="7.03234560">
        <ele>964.3</ele>
        <time>2010-08-24T07:08:59Z</time>
      </trkpt><trkpt lat="46.07654047" lon="7.02888119">
        <ele>991.3</ele>
        <time>2010-08-24T07:10:38Z</time>
      </trkpt><trkpt lat="46.07371057" lon="7.02807116">
        <ele>1018.2</ele>
        <time>2010-08-24T07:12:16Z</time>
      </trkpt><trkpt lat="46.07219948" lon="7.02600980">
        <ele>1035.5</ele>
        <time>2010-08-24T07:13:27Z</time>
      </trkpt><trkpt lat="46.06879157" lon="7.02506256">
        <ele>1067.2</ele>
        <time>2010-08-24T07:15:25Z</time>
      </trkpt><trkpt lat="46.07464314" lon="7.02532768">
        <ele>1120.1</ele>
        <time>2010-08-24T07:18:44Z</time>
      </trkpt><trkpt lat="46.06572153" lon="7.02001850">
        <ele>1201.3</ele>
        <time>2010-08-24T07:24:12Z</time>
      </trkpt><trkpt lat="46.07292912" lon="7.02180083">
        <ele>1269.6</ele>
        <time>2010-08-24T07:28:21Z</time>
      </trkpt><trkpt lat="46.07554436" lon="7.02056408">
        <ele>1291.2</ele>
        <time>2010-08-24T07:29:54Z</time>
      </trkpt><trkpt lat="46.07287112" lon="7.02094596">
        <ele>1313.8</ele>
        <time>2010-08-24T07:31:26Z</time>
      </trkpt><trkpt lat="46.06589235" lon="7.01529052">
        <ele>1383</ele>
        <time>2010-08-24T07:35:58Z</time>
      </trkpt><trkpt lat="46.06175160" lon="7.00939796">
        <ele>1434.9</ele>
        <time>2010-08-24T07:39:16Z</time>
      </trkpt><trkpt lat="46.05820539" lon="7.00009706">
        <ele>1484.4</ele>
        <time>2010-08-24T07:43:26Z</time>
      </trkpt><trkpt lat="46.04518352" lon="6.99785516">
        <ele>1370.5</ele>
        <time>2010-08-24T07:50:52Z</time>
      </trkpt><trkpt lat="46.05738111" lon="6.99543622">
        <ele>1263.3</ele>
        <time>2010-08-24T07:57:51Z</time>
      </trkpt><trkpt lat="46.06454420" lon="6.98905667">
        <ele>1232.5</ele>
        <time>2010-08-24T08:02:37Z</time>
      </trkpt><trkpt lat="46.07114043" lon="6.97702210">
        <ele>1189.3</ele>
        <time>2010-08-24T08:08:39Z</time>
      </trkpt><trkpt lat="46.07113716" lon="6.97467081">
        <ele>1184.5</ele>
        <time>2010-08-24T08:09:34Z</time>
      </trkpt><trkpt lat="46.06776738" lon="6.96920992">
        <ele>1150.4</ele>
        <time>2010-08-24T08:12:26Z</time>
      </trkpt><trkpt lat="46.05972385" lon="6.96181046">
        <ele>1078.3</ele>
        <time>2010-08-24T08:17:51Z</time>
      </trkpt><trkpt lat="46.06147416" lon="6.96438907">
        <ele>1089.3</ele>
        <time>2010-08-24T08:19:16Z</time>
      </trkpt><trkpt lat="46.06624296" lon="6.96621305">
        <ele>1062.9</ele>
        <time>2010-08-24T08:22:04Z</time>
      </trkpt><trkpt lat="46.07047239" lon="6.96417189">
        <ele>1079.2</ele>
        <time>2010-08-24T08:24:35Z</time>
      </trkpt><trkpt lat="46.08070284" lon="6.97198819">
        <ele>1160</ele>
        <time>2010-08-24T08:31:09Z</time>
      </trkpt><trkpt lat="46.08189583" lon="6.97949410">
        <ele>1202.7</ele>
        <time>2010-08-24T08:34:10Z</time>
      </trkpt><trkpt lat="46.08588771" lon="6.98621211">
        <ele>1264.3</ele>
        <time>2010-08-24T08:37:39Z</time>
      </trkpt><trkpt lat="46.08573097" lon="6.97589600">
        <ele>1317.1</ele>
        <time>2010-08-24T08:41:42Z</time>
      </trkpt><trkpt lat="46.08288289" lon="6.96764946">
        <ele>1387.3</ele>
        <time>2010-08-24T08:45:20Z</time>
      </trkpt><trkpt lat="46.07003334" lon="6.95380985">
        <ele>1553.1</ele>
        <time>2010-08-24T08:54:25Z</time>
      </trkpt><trkpt lat="46.07540966" lon="6.95607422">
        <ele>1614.7</ele>
        <time>2010-08-24T08:57:35Z</time>
      </trkpt><trkpt lat="46.07103607" lon="6.95095204">
        <ele>1675.7</ele>
        <time>2010-08-24T09:00:47Z</time>
      </trkpt><trkpt lat="46.07748595" lon="6.95453354">
        <ele>1752.1</ele>
        <time>2010-08-24T09:04:42Z</time>
      </trkpt><trkpt lat="46.07171609" lon="6.94541009">
        <ele>1848.3</ele>
        <time>2010-08-24T09:09:33Z</time>
      </trkpt><trkpt lat="46.06838697" lon="6.93609025">
        <ele>1923.7</ele>
        <time>2010-08-24T09:13:40Z</time>
      </trkpt><trkpt lat="46.07194844" lon="6.94571570">
        <ele>1871.3</ele>
        <time>2010-08-24T09:17:57Z</time>
      </trkpt><trkpt lat="46.07749919" lon="6.95452684">
        <ele>1785.8</ele>
        <time>2010-08-24T09:22:38Z</time>
      </trkpt><trkpt lat="46.07097849" lon="6.95086579">
        <ele>1707.4</ele>
        <time>2010-08-24T09:26:36Z</time>
      </trkpt><trkpt lat="46.07541562" lon="6.95606232">
        <ele>1648.3</ele>
        <time>2010-08-24T09:29:50Z</time>
      </trkpt><trkpt lat="46.06993234" lon="6.95344247">
        <ele>1589.2</ele>
        <time>2010-08-24T09:33:07Z</time>
      </trkpt><trkpt lat="46.08249346" lon="6.96687698">
        <ele>1427.7</ele>
        <time>2010-08-24T09:41:58Z</time>
      </trkpt><trkpt lat="46.08584404" lon="6.97663494">
        <ele>1349.8</ele>
        <time>2010-08-24T09:46:15Z</time>
      </trkpt><trkpt lat="46.08577196" lon="6.98701283">
        <ele>1297</ele>
        <time>2010-08-24T09:50:20Z</time>
      </trkpt><trkpt lat="46.08506260" lon="6.98315824">
        <ele>1272.4</ele>
        <time>2010-08-24T09:51:54Z</time>
      </trkpt><trkpt lat="46.08188753" lon="6.97947750">
        <ele>1236.4</ele>
        <time>2010-08-24T09:54:12Z</time>
      </trkpt><trkpt lat="46.08062354" lon="6.97198391">
        <ele>1199.9</ele>
        <time>2010-08-24T09:57:14Z</time>
      </trkpt><trkpt lat="46.07041732" lon="6.96416276">
        <ele>1116.2</ele>
        <time>2010-08-24T10:03:47Z</time>
      </trkpt><trkpt lat="46.06845562" lon="6.96424171">
        <ele>1097</ele>
        <time>2010-08-24T10:04:54Z</time>
      </trkpt><trkpt lat="46.06653306" lon="6.96630492">
        <ele>1091.7</ele>
        <time>2010-08-24T10:06:15Z</time>
      </trkpt><trkpt lat="46.06104451" lon="6.96379236">
        <ele>1120.6</ele>
        <time>2010-08-24T10:09:31Z</time>
      </trkpt><trkpt lat="46.04934211" lon="6.94413747">
        <ele>1175.3</ele>
        <time>2010-08-24T10:19:42Z</time>
      </trkpt><trkpt lat="46.03626769" lon="6.93623082">
        <ele>1262.3</ele>
        <time>2010-08-24T10:27:44Z</time>
      </trkpt><trkpt lat="46.03251678" lon="6.93004556">
        <ele>1287.3</ele>
        <time>2010-08-24T10:30:58Z</time>
      </trkpt><trkpt lat="46.02743752" lon="6.92626381">
        <ele>1312.3</ele>
        <time>2010-08-24T10:34:12Z</time>
      </trkpt><trkpt lat="46.02524867" lon="6.92173214">
        <ele>1322.4</ele>
        <time>2010-08-24T10:36:23Z</time>
      </trkpt><trkpt lat="46.02117707" lon="6.91837636">
        <ele>1342.1</ele>
        <time>2010-08-24T10:39:02Z</time>
      </trkpt><trkpt lat="46.01879997" lon="6.91966918">
        <ele>1353.7</ele>
        <time>2010-08-24T10:40:29Z</time>
      </trkpt><trkpt lat="46.01528049" lon="6.91915914">
        <ele>1378.7</ele>
        <time>2010-08-24T10:42:29Z</time>
      </trkpt><trkpt lat="46.00968440" lon="6.92381756">
        <ele>1423.4</ele>
        <time>2010-08-24T10:46:09Z</time>
      </trkpt><trkpt lat="46.00114416" lon="6.92269824">
        <ele>1456.5</ele>
        <time>2010-08-24T10:51:00Z</time>
      </trkpt><trkpt lat="45.99619146" lon="6.92681400">
        <ele>1418.6</ele>
        <time>2010-08-24T10:54:14Z</time>
      </trkpt><trkpt lat="45.98876954" lon="6.92691157">
        <ele>1367.1</ele>
        <time>2010-08-24T10:58:27Z</time>
      </trkpt><trkpt lat="45.99105302" lon="6.92756720">
        <ele>1342.6</ele>
        <time>2010-08-24T10:59:46Z</time>
      </trkpt><trkpt lat="45.98907330" lon="6.92900662">
        <ele>1303.7</ele>
        <time>2010-08-24T11:01:01Z</time>
      </trkpt><trkpt lat="45.99774546" lon="6.93601297">
        <ele>1383</ele>
        <time>2010-08-24T11:06:39Z</time>
      </trkpt><trkpt lat="46.00275994" lon="6.94408894">
        <ele>1457</ele>
        <time>2010-08-24T11:10:55Z</time>
      </trkpt><trkpt lat="46.00215015" lon="6.94764806">
        <ele>1472.9</ele>
        <time>2010-08-24T11:12:22Z</time>
      </trkpt><trkpt lat="46.00117065" lon="6.94639689">
        <ele>1456.1</ele>
        <time>2010-08-24T11:13:06Z</time>
      </trkpt><trkpt lat="46.00181018" lon="6.94683828">
        <ele>1462.8</ele>
        <time>2010-08-24T11:13:30Z</time>
      </trkpt><trkpt lat="46.00267092" lon="6.94388115">
        <ele>1477.2</ele>
        <time>2010-08-24T11:14:46Z</time>
      </trkpt><trkpt lat="45.99364839" lon="6.93197323">
        <ele>1359.9</ele>
        <time>2010-08-24T11:21:42Z</time>
      </trkpt><trkpt lat="45.98214867" lon="6.92594002">
        <ele>1271.5</ele>
        <time>2010-08-24T11:28:38Z</time>
      </trkpt><trkpt lat="45.96778393" lon="6.91366196">
        <ele>1212.8</ele>
        <time>2010-08-24T11:38:06Z</time>
      </trkpt><trkpt lat="45.96395273" lon="6.91204341">
        <ele>1202.7</ele>
        <time>2010-08-24T11:40:22Z</time>
      </trkpt><trkpt lat="45.95829444" lon="6.90337594">
        <ele>1165.3</ele>
        <time>2010-08-24T11:45:03Z</time>
      </trkpt><trkpt lat="45.95265770" lon="6.90220918">
        <ele>1121.5</ele>
        <time>2010-08-24T11:48:17Z</time>
      </trkpt><trkpt lat="45.94110693" lon="6.88742694">
        <ele>1089.8</ele>
        <time>2010-08-24T11:57:02Z</time>
      </trkpt><trkpt lat="45.93403965" lon="6.88848088">
        <ele>1087.9</ele>
        <time>2010-08-24T12:01:04Z</time>
      </trkpt><trkpt lat="45.92716598" lon="6.87528315">
        <ele>1065.3</ele>
        <time>2010-08-24T12:07:34Z</time>
      </trkpt><trkpt lat="45.92486473" lon="6.87313118">
        <ele>1061.4</ele>
        <time>2010-08-24T12:09:07Z</time>
      </trkpt><trkpt lat="45.92299154" lon="6.87636852">
        <ele>1067.7</ele>
        <time>2010-08-24T12:10:47Z</time>
      </trkpt><trkpt lat="45.91951959" lon="6.87475300">
        <ele>1073.4</ele>
        <time>2010-08-24T12:12:51Z</time>
      </trkpt><trkpt lat="45.91283201" lon="6.86438894">
        <ele>1075.4</ele>
        <time>2010-08-24T12:18:25Z</time>
      </trkpt><trkpt lat="45.90808064" lon="6.84759513">
        <ele>1075.9</ele>
        <time>2010-08-24T12:25:34Z</time>
      </trkpt><trkpt lat="45.89731317" lon="6.82309927">
        <ele>1023.9</ele>
        <time>2010-08-24T12:36:59Z</time>
      </trkpt><trkpt lat="45.89799855" lon="6.81094542">
        <ele>1007.1</ele>
        <time>2010-08-24T12:41:48Z</time>
      </trkpt><trkpt lat="45.89151700" lon="6.79223090">
        <ele>980.7</ele>
        <time>2010-08-24T12:50:02Z</time>
      </trkpt><trkpt lat="45.89331927" lon="6.78856960">
        <ele>966.3</ele>
        <time>2010-08-24T12:51:48Z</time>
      </trkpt><trkpt lat="45.90762492" lon="6.77402297">
        <ele>928.3</ele>
        <time>2010-08-24T13:01:44Z</time>
      </trkpt><trkpt lat="45.91137381" lon="6.77403177">
        <ele>901.4</ele>
        <time>2010-08-24T13:03:52Z</time>
      </trkpt><trkpt lat="45.91303217" lon="6.77259101">
        <ele>891.8</ele>
        <time>2010-08-24T13:04:57Z</time>
      </trkpt><trkpt lat="45.91612149" lon="6.76453876">
        <ele>862.4</ele>
        <time>2010-08-24T13:08:35Z</time>
      </trkpt><trkpt lat="45.92655201" lon="6.76078283">
        <ele>827.4</ele>
        <time>2010-08-24T13:14:40Z</time>
      </trkpt><trkpt lat="45.92785833" lon="6.75712572">
        <ele>824.9</ele>
        <time>2010-08-24T13:16:18Z</time>
      </trkpt><trkpt lat="45.92678008" lon="6.75039011">
        <ele>812.9</ele>
        <time>2010-08-24T13:19:01Z</time>
      </trkpt><trkpt lat="45.93194317" lon="6.73448721">
        <ele>730.3</ele>
        <time>2010-08-24T13:25:56Z</time>
      </trkpt><trkpt lat="45.92825471" lon="6.73531056">
        <ele>702.9</ele>
        <time>2010-08-24T13:28:03Z</time>
      </trkpt><trkpt lat="45.91615015" lon="6.72704307">
        <ele>627.4</ele>
        <time>2010-08-24T13:35:39Z</time>
      </trkpt><trkpt lat="45.90993271" lon="6.71098544">
        <ele>611.5</ele>
        <time>2010-08-24T13:42:53Z</time>
      </trkpt><trkpt lat="45.91044903" lon="6.70680991">
        <ele>603.4</ele>
        <time>2010-08-24T13:44:34Z</time>
      </trkpt><trkpt lat="45.90612313" lon="6.70369939">
        <ele>613</ele>
        <time>2010-08-24T13:47:18Z</time>
      </trkpt><trkpt lat="45.90614610" lon="6.70811070">
        <ele>633.6</ele>
        <time>2010-08-24T13:49:02Z</time>
      </trkpt><trkpt lat="45.91012130" lon="6.71878522">
        <ele>696.6</ele>
        <time>2010-08-24T13:53:49Z</time>
      </trkpt><trkpt lat="45.90510431" lon="6.71304152">
        <ele>730.7</ele>
        <time>2010-08-24T13:57:27Z</time>
      </trkpt><trkpt lat="45.90242386" lon="6.71316147">
        <ele>749</ele>
        <time>2010-08-24T13:58:58Z</time>
      </trkpt><trkpt lat="45.90206487" lon="6.71108485">
        <ele>763.4</ele>
        <time>2010-08-24T13:59:49Z</time>
      </trkpt><trkpt lat="45.89950939" lon="6.70962540">
        <ele>784.6</ele>
        <time>2010-08-24T14:01:22Z</time>
      </trkpt><trkpt lat="45.89253942" lon="6.71128258">
        <ele>818.7</ele>
        <time>2010-08-24T14:05:22Z</time>
      </trkpt><trkpt lat="45.89196627" lon="6.71326440">
        <ele>826.9</ele>
        <time>2010-08-24T14:06:13Z</time>
      </trkpt><trkpt lat="45.88894844" lon="6.71232848">
        <ele>824</ele>
        <time>2010-08-24T14:07:58Z</time>
      </trkpt><trkpt lat="45.88925916" lon="6.70700597">
        <ele>826.4</ele>
        <time>2010-08-24T14:10:04Z</time>
      </trkpt><trkpt lat="45.89262307" lon="6.70474738">
        <ele>841.8</ele>
        <time>2010-08-24T14:12:11Z</time>
      </trkpt><trkpt lat="45.89450724" lon="6.69893545">
        <ele>869.7</ele>
        <time>2010-08-24T14:14:42Z</time>
      </trkpt><trkpt lat="45.89413315" lon="6.69336434">
        <ele>890.8</ele>
        <time>2010-08-24T14:16:55Z</time>
      </trkpt><trkpt lat="45.89023591" lon="6.68144871">
        <ele>947</ele>
        <time>2010-08-24T14:22:06Z</time>
      </trkpt><trkpt lat="45.89249927" lon="6.65661321">
        <ele>1005.7</ele>
        <time>2010-08-24T14:31:59Z</time>
      </trkpt><trkpt lat="45.88837621" lon="6.64896011">
        <ele>1023</ele>
        <time>2010-08-24T14:35:48Z</time>
      </trkpt><trkpt lat="45.88606029" lon="6.64962933">
        <ele>1029.2</ele>
        <time>2010-08-24T14:37:08Z</time>
      </trkpt><trkpt lat="45.88219456" lon="6.64104743">
        <ele>1050.9</ele>
        <time>2010-08-24T14:41:10Z</time>
      </trkpt><trkpt lat="45.87199688" lon="6.63050652">
        <ele>1100.8</ele>
        <time>2010-08-24T14:48:17Z</time>
      </trkpt><trkpt lat="45.86090905" lon="6.62286356">
        <ele>1102.8</ele>
        <time>2010-08-24T14:55:15Z</time>
      </trkpt><trkpt lat="45.85788863" lon="6.61500083">
        <ele>1094.6</ele>
        <time>2010-08-24T14:58:48Z</time>
      </trkpt><trkpt lat="45.85729167" lon="6.60855917">
        <ele>1086.4</ele>
        <time>2010-08-24T15:01:22Z</time>
      </trkpt><trkpt lat="45.85397244" lon="6.60497189">
        <ele>1076.3</ele>
        <time>2010-08-24T15:03:43Z</time>
      </trkpt><trkpt lat="45.85128168" lon="6.60488329">
        <ele>1075.4</ele>
        <time>2010-08-24T15:05:14Z</time>
      </trkpt><trkpt lat="45.84771158" lon="6.59524536">
        <ele>1062.9</ele>
        <time>2010-08-24T15:09:33Z</time>
      </trkpt><trkpt lat="45.84313380" lon="6.59012477">
        <ele>1051.3</ele>
        <time>2010-08-24T15:12:50Z</time>
      </trkpt><trkpt lat="45.83184841" lon="6.55336342">
        <ele>1011.4</ele>
        <time>2010-08-24T15:28:42Z</time>
      </trkpt><trkpt lat="45.82896629" lon="6.54967630">
        <ele>1014.8</ele>
        <time>2010-08-24T15:30:53Z</time>
      </trkpt><trkpt lat="45.82461968" lon="6.53626786">
        <ele>998.5</ele>
        <time>2010-08-24T15:36:43Z</time>
      </trkpt><trkpt lat="45.82042337" lon="6.52869757">
        <ele>983.6</ele>
        <time>2010-08-24T15:40:32Z</time>
      </trkpt><trkpt lat="45.81972432" lon="6.52781010">
        <ele>991.3</ele>
        <time>2010-08-24T15:41:04Z</time>
      </trkpt><trkpt lat="45.81921872" lon="6.53007958">
        <ele>1002.8</ele>
        <time>2010-08-24T15:42:01Z</time>
      </trkpt><trkpt lat="45.81800938" lon="6.52819634">
        <ele>1023.5</ele>
        <time>2010-08-24T15:43:01Z</time>
      </trkpt><trkpt lat="45.81597124" lon="6.52167396">
        <ele>1064.8</ele>
        <time>2010-08-24T15:45:51Z</time>
      </trkpt><trkpt lat="45.81240616" lon="6.51647441">
        <ele>1097.5</ele>
        <time>2010-08-24T15:48:43Z</time>
      </trkpt><trkpt lat="45.81057421" lon="6.51548275">
        <ele>1108.1</ele>
        <time>2010-08-24T15:49:50Z</time>
      </trkpt><trkpt lat="45.80796593" lon="6.51686920">
        <ele>1124.4</ele>
        <time>2010-08-24T15:51:25Z</time>
      </trkpt><trkpt lat="45.80968380" lon="6.51965618">
        <ele>1144.6</ele>
        <time>2010-08-24T15:52:53Z</time>
      </trkpt><trkpt lat="45.80819744" lon="6.52045749">
        <ele>1161.4</ele>
        <time>2010-08-24T15:53:47Z</time>
      </trkpt><trkpt lat="45.80934031" lon="6.52168762">
        <ele>1176.3</ele>
        <time>2010-08-24T15:54:35Z</time>
      </trkpt><trkpt lat="45.80458216" lon="6.53138682">
        <ele>1249.4</ele>
        <time>2010-08-24T15:59:16Z</time>
      </trkpt><trkpt lat="45.80531499" lon="6.54707062">
        <ele>1298.4</ele>
        <time>2010-08-24T16:05:29Z</time>
      </trkpt><trkpt lat="45.80405460" lon="6.55046554">
        <ele>1310.4</ele>
        <time>2010-08-24T16:07:00Z</time>
      </trkpt><trkpt lat="45.79614862" lon="6.54094161">
        <ele>1395</ele>
        <time>2010-08-24T16:12:51Z</time>
      </trkpt><trkpt lat="45.78702450" lon="6.54707909">
        <ele>1462.8</ele>
        <time>2010-08-24T16:18:34Z</time>
      </trkpt><trkpt lat="45.78144626" lon="6.55706420">
        <ele>1435.4</ele>
        <time>2010-08-24T16:23:37Z</time>
      </trkpt><trkpt lat="45.77837463" lon="6.55975806">
        <ele>1426.7</ele>
        <time>2010-08-24T16:25:39Z</time>
      </trkpt><trkpt lat="45.78174591" lon="6.54645321">
        <ele>1498.4</ele>
        <time>2010-08-24T16:31:15Z</time>
      </trkpt><trkpt lat="45.77985906" lon="6.53943705">
        <ele>1542.6</ele>
        <time>2010-08-24T16:34:13Z</time>
      </trkpt><trkpt lat="45.77577599" lon="6.53590609">
        <ele>1584.9</ele>
        <time>2010-08-24T16:36:55Z</time>
      </trkpt><trkpt lat="45.77223279" lon="6.53637389">
        <ele>1590.2</ele>
        <time>2010-08-24T16:38:56Z</time>
      </trkpt><trkpt lat="45.76868079" lon="6.53185705">
        <ele>1613.7</ele>
        <time>2010-08-24T16:41:38Z</time>
      </trkpt><trkpt lat="45.75955868" lon="6.53416157">
        <ele>1648.8</ele>
        <time>2010-08-24T16:46:53Z</time>
      </trkpt><trkpt lat="45.75459928" lon="6.54577293">
        <ele>1590.6</ele>
        <time>2010-08-24T16:52:15Z</time>
      </trkpt><trkpt lat="45.75294746" lon="6.54609975">
        <ele>1576.2</ele>
        <time>2010-08-24T16:53:12Z</time>
      </trkpt><trkpt lat="45.75269935" lon="6.54364058">
        <ele>1569</ele>
        <time>2010-08-24T16:54:11Z</time>
      </trkpt><trkpt lat="45.75027807" lon="6.54141091">
        <ele>1583.4</ele>
        <time>2010-08-24T16:55:49Z</time>
      </trkpt><trkpt lat="45.74680226" lon="6.54217743">
        <ele>1617.6</ele>
        <time>2010-08-24T16:57:48Z</time>
      </trkpt><trkpt lat="45.74531984" lon="6.54014491">
        <ele>1634.9</ele>
        <time>2010-08-24T16:58:58Z</time>
      </trkpt><trkpt lat="45.74687108" lon="6.53553922">
        <ele>1666.1</ele>
        <time>2010-08-24T17:01:00Z</time>
      </trkpt><trkpt lat="45.74628845" lon="6.52086703">
        <ele>1658.9</ele>
        <time>2010-08-24T17:06:48Z</time>
      </trkpt><trkpt lat="45.73780060" lon="6.50605202">
        <ele>1508</ele>
        <time>2010-08-24T17:14:23Z</time>
      </trkpt><trkpt lat="45.73728562" lon="6.51350244">
        <ele>1454.1</ele>
        <time>2010-08-24T17:17:21Z</time>
      </trkpt><trkpt lat="45.74028165" lon="6.52160774">
        <ele>1391.6</ele>
        <time>2010-08-24T17:20:58Z</time>
      </trkpt><trkpt lat="45.73981544" lon="6.52814026">
        <ele>1339.7</ele>
        <time>2010-08-24T17:23:34Z</time>
      </trkpt><trkpt lat="45.73742208" lon="6.52185836">
        <ele>1287.8</ele>
        <time>2010-08-24T17:26:24Z</time>
      </trkpt><trkpt lat="45.73421030" lon="6.52026119">
        <ele>1246.5</ele>
        <time>2010-08-24T17:28:19Z</time>
      </trkpt><trkpt lat="45.73703827" lon="6.52827043">
        <ele>1185</ele>
        <time>2010-08-24T17:31:52Z</time>
      </trkpt><trkpt lat="45.73565810" lon="6.53092624">
        <ele>1153.7</ele>
        <time>2010-08-24T17:33:11Z</time>
      </trkpt><trkpt lat="45.73372784" lon="6.52438676">
        <ele>1118.6</ele>
        <time>2010-08-24T17:35:59Z</time>
      </trkpt><trkpt lat="45.73110824" lon="6.51927187">
        <ele>1053.3</ele>
        <time>2010-08-24T17:38:30Z</time>
      </trkpt><trkpt lat="45.73063374" lon="6.52244903">
        <ele>1003.3</ele>
        <time>2010-08-24T17:39:47Z</time>
      </trkpt><trkpt lat="45.72934427" lon="6.51768208">
        <ele>979.2</ele>
        <time>2010-08-24T17:41:48Z</time>
      </trkpt><trkpt lat="45.73097648" lon="6.52701449">
        <ele>911.9</ele>
        <time>2010-08-24T17:45:37Z</time>
      </trkpt><trkpt lat="45.73050298" lon="6.53725348">
        <ele>829.8</ele>
        <time>2010-08-24T17:49:40Z</time>
      </trkpt><trkpt lat="45.72698954" lon="6.52476126">
        <ele>758.6</ele>
        <time>2010-08-24T17:55:00Z</time>
      </trkpt><trkpt lat="45.72599888" lon="6.52716444">
        <ele>738.4</ele>
        <time>2010-08-24T17:56:06Z</time>
      </trkpt><trkpt lat="45.72694302" lon="6.53317309">
        <ele>729.8</ele>
        <time>2010-08-24T17:58:32Z</time>
      </trkpt><trkpt lat="45.72512767" lon="6.53923430">
        <ele>725.5</ele>
        <time>2010-08-24T18:01:09Z</time>
      </trkpt><trkpt lat="45.72686582" lon="6.54556825">
        <ele>716.8</ele>
        <time>2010-08-24T18:03:50Z</time>
      </trkpt><trkpt lat="45.71971128" lon="6.56267001">
        <ele>733.1</ele>
        <time>2010-08-24T18:11:43Z</time>
      </trkpt><trkpt lat="45.71999073" lon="6.57201290">
        <ele>744.7</ele>
        <time>2010-08-24T18:15:25Z</time>
      </trkpt><trkpt lat="45.71887041" lon="6.57375768">
        <ele>745.6</ele>
        <time>2010-08-24T18:16:22Z</time>
      </trkpt><trkpt lat="45.71604051" lon="6.57209789">
        <ele>750.4</ele>
        <time>2010-08-24T18:18:05Z</time>
      </trkpt><trkpt lat="45.71839750" lon="6.57455262">
        <ele>748</ele>
        <time>2010-08-24T18:19:45Z</time>
      </trkpt><trkpt lat="45.71543718" lon="6.57247667">
        <ele>776.4</ele>
        <time>2010-08-24T18:21:37Z</time>
      </trkpt><trkpt lat="45.71321648" lon="6.57506081">
        <ele>824.5</ele>
        <time>2010-08-24T18:23:14Z</time>
      </trkpt><trkpt lat="45.70974880" lon="6.56887656">
        <ele>883.6</ele>
        <time>2010-08-24T18:26:22Z</time>
      </trkpt><trkpt lat="45.70972098" lon="6.57119919">
        <ele>908.1</ele>
        <time>2010-08-24T18:27:17Z</time>
      </trkpt><trkpt lat="45.70763221" lon="6.56858948">
        <ele>932.6</ele>
        <time>2010-08-24T18:28:52Z</time>
      </trkpt><trkpt lat="45.69934845" lon="6.56656265">
        <ele>994.1</ele>
        <time>2010-08-24T18:33:37Z</time>
      </trkpt><trkpt lat="45.68541044" lon="6.56882769">
        <ele>1045.1</ele>
        <time>2010-08-24T18:41:34Z</time>
      </trkpt><trkpt lat="45.68601293" lon="6.57012773">
        <ele>1060</ele>
        <time>2010-08-24T18:42:11Z</time>
      </trkpt><trkpt lat="45.68312352" lon="6.57256653">
        <ele>1098</ele>
        <time>2010-08-24T18:44:05Z</time>
      </trkpt><trkpt lat="45.68503610" lon="6.57224877">
        <ele>1112.4</ele>
        <time>2010-08-24T18:45:11Z</time>
      </trkpt><trkpt lat="45.68311355" lon="6.57580831">
        <ele>1150.4</ele>
        <time>2010-08-24T18:46:57Z</time>
      </trkpt><trkpt lat="45.67999363" lon="6.57557488">
        <ele>1176.8</ele>
        <time>2010-08-24T18:48:44Z</time>
      </trkpt><trkpt lat="45.68105487" lon="6.57813228">
        <ele>1221</ele>
        <time>2010-08-24T18:49:54Z</time>
      </trkpt><trkpt lat="45.67238555" lon="6.57938487">
        <ele>1317.6</ele>
        <time>2010-08-24T18:54:51Z</time>
      </trkpt><trkpt lat="45.67081009" lon="6.57790873">
        <ele>1340.7</ele>
        <time>2010-08-24T18:55:55Z</time>
      </trkpt><trkpt lat="45.65237459" lon="6.57861793">
        <ele>1482</ele>
        <time>2010-08-24T19:06:22Z</time>
      </trkpt><trkpt lat="45.65579642" lon="6.58023764">
        <ele>1522.9</ele>
        <time>2010-08-24T19:08:24Z</time>
      </trkpt><trkpt lat="45.65112041" lon="6.58095270">
        <ele>1569.5</ele>
        <time>2010-08-24T19:11:04Z</time>
      </trkpt><trkpt lat="45.65139810" lon="6.58452423">
        <ele>1596.9</ele>
        <time>2010-08-24T19:12:29Z</time>
      </trkpt><trkpt lat="45.64896894" lon="6.58729529">
        <ele>1627.6</ele>
        <time>2010-08-24T19:14:15Z</time>
      </trkpt><trkpt lat="45.64469534" lon="6.58449071">
        <ele>1662.7</ele>
        <time>2010-08-24T19:16:55Z</time>
      </trkpt><trkpt lat="45.63597959" lon="6.58840573">
        <ele>1654.6</ele>
        <time>2010-08-24T19:22:05Z</time>
      </trkpt><trkpt lat="45.63701199" lon="6.58911651">
        <ele>1673.3</ele>
        <time>2010-08-24T19:22:44Z</time>
      </trkpt><trkpt lat="45.63285339" lon="6.59197474">
        <ele>1718</ele>
        <time>2010-08-24T19:25:21Z</time>
      </trkpt><trkpt lat="45.63556485" lon="6.59226526">
        <ele>1747.3</ele>
        <time>2010-08-24T19:26:54Z</time>
      </trkpt><trkpt lat="45.63323820" lon="6.59323362">
        <ele>1777.1</ele>
        <time>2010-08-24T19:28:16Z</time>
      </trkpt><trkpt lat="45.62989986" lon="6.59934570">
        <ele>1850.7</ele>
        <time>2010-08-24T19:31:20Z</time>
      </trkpt><trkpt lat="45.62574864" lon="6.60128452">
        <ele>1898.3</ele>
        <time>2010-08-24T19:33:49Z</time>
      </trkpt><trkpt lat="45.62630620" lon="6.60454307">
        <ele>1957.4</ele>
        <time>2010-08-24T19:35:09Z</time>
      </trkpt><trkpt lat="45.62459814" lon="6.60493668">
        <ele>1976.6</ele>
        <time>2010-08-24T19:36:07Z</time>
      </trkpt><trkpt lat="45.61910221" lon="6.59994057">
        <ele>2059.8</ele>
        <time>2010-08-24T19:39:49Z</time>
      </trkpt><trkpt lat="45.61716557" lon="6.60269737">
        <ele>2089.6</ele>
        <time>2010-08-24T19:41:22Z</time>
      </trkpt><trkpt lat="45.61882074" lon="6.60702210">
        <ele>2080.4</ele>
        <time>2010-08-24T19:43:19Z</time>
      </trkpt><trkpt lat="45.61767368" lon="6.60773062">
        <ele>2064.1</ele>
        <time>2010-08-24T19:44:01Z</time>
      </trkpt><trkpt lat="45.62051297" lon="6.61363349">
        <ele>2014.1</ele>
        <time>2010-08-24T19:46:52Z</time>
      </trkpt><trkpt lat="45.61992682" lon="6.61708935">
        <ele>1990.1</ele>
        <time>2010-08-24T19:48:16Z</time>
      </trkpt><trkpt lat="45.61714855" lon="6.61824983">
        <ele>1951.6</ele>
        <time>2010-08-24T19:49:55Z</time>
      </trkpt><trkpt lat="45.61152874" lon="6.62561308">
        <ele>1878.1</ele>
        <time>2010-08-24T19:54:14Z</time>
      </trkpt><trkpt lat="45.61204624" lon="6.62387727">
        <ele>1858.4</ele>
        <time>2010-08-24T19:54:59Z</time>
      </trkpt><trkpt lat="45.60984758" lon="6.62621171">
        <ele>1838.7</ele>
        <time>2010-08-24T19:56:32Z</time>
      </trkpt><trkpt lat="45.60928449" lon="6.62371055">
        <ele>1782.9</ele>
        <time>2010-08-24T19:57:34Z</time>
      </trkpt><trkpt lat="45.60302304" lon="6.63242203">
        <ele>1673.8</ele>
        <time>2010-08-24T20:02:31Z</time>
      </trkpt><trkpt lat="45.60085774" lon="6.63934708">
        <ele>1605.1</ele>
        <time>2010-08-24T20:05:32Z</time>
      </trkpt><trkpt lat="45.59068471" lon="6.65091519">
        <ele>1441.2</ele>
        <time>2010-08-24T20:12:54Z</time>
      </trkpt><trkpt lat="45.58634456" lon="6.65388490">
        <ele>1424.3</ele>
        <time>2010-08-24T20:15:37Z</time>
      </trkpt><trkpt lat="45.58178002" lon="6.65203393">
        <ele>1443.1</ele>
        <time>2010-08-24T20:18:19Z</time>
      </trkpt><trkpt lat="45.57895616" lon="6.65257431">
        <ele>1417.1</ele>
        <time>2010-08-24T20:19:55Z</time>
      </trkpt><trkpt lat="45.57623405" lon="6.65149899">
        <ele>1396</ele>
        <time>2010-08-24T20:21:31Z</time>
      </trkpt><trkpt lat="45.57137490" lon="6.64492607">
        <ele>1336.4</ele>
        <time>2010-08-24T20:25:19Z</time>
      </trkpt><trkpt lat="45.57513267" lon="6.65570143">
        <ele>1268.1</ele>
        <time>2010-08-24T20:30:05Z</time>
      </trkpt><trkpt lat="45.58521426" lon="6.65977478">
        <ele>1236.4</ele>
        <time>2010-08-24T20:36:02Z</time>
      </trkpt><trkpt lat="45.58532029" lon="6.66281951">
        <ele>1220.1</ele>
        <time>2010-08-24T20:37:14Z</time>
      </trkpt><trkpt lat="45.58078107" lon="6.66329962">
        <ele>1183.5</ele>
        <time>2010-08-24T20:39:49Z</time>
      </trkpt><trkpt lat="45.57814303" lon="6.66639003">
        <ele>1154.2</ele>
        <time>2010-08-24T20:41:45Z</time>
      </trkpt><trkpt lat="45.57350667" lon="6.66733073">
        <ele>1121</ele>
        <time>2010-08-24T20:44:24Z</time>
      </trkpt><trkpt lat="45.56982886" lon="6.67554676">
        <ele>1059.5</ele>
        <time>2010-08-24T20:48:16Z</time>
      </trkpt><trkpt lat="45.56815348" lon="6.66952143">
        <ele>1019.1</ele>
        <time>2010-08-24T20:50:50Z</time>
      </trkpt><trkpt lat="45.56687256" lon="6.66858458">
        <ele>1003.8</ele>
        <time>2010-08-24T20:51:39Z</time>
      </trkpt><trkpt lat="45.56681556" lon="6.67011822">
        <ele>989.3</ele>
        <time>2010-08-24T20:52:16Z</time>
      </trkpt><trkpt lat="45.56496081" lon="6.66724683">
        <ele>969.1</ele>
        <time>2010-08-24T20:53:49Z</time>
      </trkpt><trkpt lat="45.56314798" lon="6.65930942">
        <ele>915.3</ele>
        <time>2010-08-24T20:57:07Z</time>
      </trkpt><trkpt lat="45.56205774" lon="6.66130054">
        <ele>891.3</ele>
        <time>2010-08-24T20:58:08Z</time>
      </trkpt><trkpt lat="45.56052184" lon="6.65727664">
        <ele>855.7</ele>
        <time>2010-08-24T20:59:57Z</time>
      </trkpt><trkpt lat="45.55896784" lon="6.66076443">
        <ele>822.5</ele>
        <time>2010-08-24T21:01:35Z</time>
      </trkpt><trkpt lat="45.55827331" lon="6.65752801">
        <ele>782.2</ele>
        <time>2010-08-24T21:02:56Z</time>
      </trkpt><trkpt lat="45.55961567" lon="6.65290958">
        <ele>744.2</ele>
        <time>2010-08-24T21:04:55Z</time>
      </trkpt><trkpt lat="45.55746060" lon="6.64944241">
        <ele>738.4</ele>
        <time>2010-08-24T21:06:45Z</time>
      </trkpt><trkpt lat="45.55869224" lon="6.65239686">
        <ele>734.1</ele>
        <time>2010-08-24T21:08:07Z</time>
      </trkpt><trkpt lat="45.55749514" lon="6.65437357">
        <ele>723</ele>
        <time>2010-08-24T21:09:09Z</time>
      </trkpt><trkpt lat="45.55630231" lon="6.65238345">
        <ele>720.6</ele>
        <time>2010-08-24T21:10:11Z</time>
      </trkpt><trkpt lat="45.55512138" lon="6.64451410">
        <ele>701.9</ele>
        <time>2010-08-24T21:13:23Z</time>
      </trkpt><trkpt lat="45.55742741" lon="6.65447490">
        <ele>720.6</ele>
        <time>2010-08-24T21:17:33Z</time>
      </trkpt><trkpt lat="45.55656910" lon="6.65957764">
        <ele>701.9</ele>
        <time>2010-08-24T21:19:38Z</time>
      </trkpt><trkpt lat="45.55535205" lon="6.66163456">
        <ele>697.6</ele>
        <time>2010-08-24T21:20:42Z</time>
      </trkpt><trkpt lat="45.55301015" lon="6.65905318">
        <ele>720.2</ele>
        <time>2010-08-24T21:22:22Z</time>
      </trkpt><trkpt lat="45.55006852" lon="6.66384269">
        <ele>752.9</ele>
        <time>2010-08-24T21:24:54Z</time>
      </trkpt><trkpt lat="45.54785218" lon="6.65846494">
        <ele>790.8</ele>
        <time>2010-08-24T21:27:23Z</time>
      </trkpt><trkpt lat="45.54671685" lon="6.64640305">
        <ele>858.1</ele>
        <time>2010-08-24T21:32:12Z</time>
      </trkpt><trkpt lat="45.54632541" lon="6.65348852">
        <ele>907.1</ele>
        <time>2010-08-24T21:35:02Z</time>
      </trkpt><trkpt lat="45.54564421" lon="6.64968967">
        <ele>933.1</ele>
        <time>2010-08-24T21:36:35Z</time>
      </trkpt><trkpt lat="45.54516477" lon="6.65298569">
        <ele>954.2</ele>
        <time>2010-08-24T21:37:55Z</time>
      </trkpt><trkpt lat="45.54125076" lon="6.63479570">
        <ele>1075.9</ele>
        <time>2010-08-24T21:45:28Z</time>
      </trkpt><trkpt lat="45.54116107" lon="6.64007161">
        <ele>1106.1</ele>
        <time>2010-08-24T21:47:34Z</time>
      </trkpt><trkpt lat="45.53734144" lon="6.62727496">
        <ele>1185</ele>
        <time>2010-08-24T21:53:05Z</time>
      </trkpt><trkpt lat="45.52937394" lon="6.61648569">
        <ele>1207.1</ele>
        <time>2010-08-24T21:59:18Z</time>
      </trkpt><trkpt lat="45.52591657" lon="6.61677470">
        <ele>1182.1</ele>
        <time>2010-08-24T22:01:16Z</time>
      </trkpt><trkpt lat="45.52869928" lon="6.61206851">
        <ele>1206.1</ele>
        <time>2010-08-24T22:03:43Z</time>
      </trkpt><trkpt lat="45.51943467" lon="6.59947101">
        <ele>1247.4</ele>
        <time>2010-08-24T22:10:58Z</time>
      </trkpt><trkpt lat="45.51908615" lon="6.59549564">
        <ele>1270</ele>
        <time>2010-08-24T22:12:33Z</time>
      </trkpt><trkpt lat="45.51784035" lon="6.59723380">
        <ele>1289.3</ele>
        <time>2010-08-24T22:13:32Z</time>
      </trkpt><trkpt lat="45.51276695" lon="6.59588414">
        <ele>1289.3</ele>
        <time>2010-08-24T22:16:28Z</time>
      </trkpt><trkpt lat="45.51081892" lon="6.59401087">
        <ele>1275.3</ele>
        <time>2010-08-24T22:17:48Z</time>
      </trkpt><trkpt lat="45.51204980" lon="6.59205487">
        <ele>1253.2</ele>
        <time>2010-08-24T22:18:50Z</time>
      </trkpt><trkpt lat="45.51028960" lon="6.59157367">
        <ele>1239.3</ele>
        <time>2010-08-24T22:19:51Z</time>
      </trkpt><trkpt lat="45.51358687" lon="6.59068937">
        <ele>1205.2</ele>
        <time>2010-08-24T22:21:45Z</time>
      </trkpt><trkpt lat="45.50706299" lon="6.58813189">
        <ele>1136.4</ele>
        <time>2010-08-24T22:25:35Z</time>
      </trkpt><trkpt lat="45.50640752" lon="6.58646238">
        <ele>1100.4</ele>
        <time>2010-08-24T22:26:21Z</time>
      </trkpt><trkpt lat="45.50806127" lon="6.58478592">
        <ele>1047</ele>
        <time>2010-08-24T22:27:30Z</time>
      </trkpt><trkpt lat="45.50571040" lon="6.58375293">
        <ele>1011.4</ele>
        <time>2010-08-24T22:28:53Z</time>
      </trkpt><trkpt lat="45.50957060" lon="6.58307886">
        <ele>973.5</ele>
        <time>2010-08-24T22:31:06Z</time>
      </trkpt><trkpt lat="45.50737161" lon="6.58116929">
        <ele>950.9</ele>
        <time>2010-08-24T22:32:33Z</time>
      </trkpt><trkpt lat="45.50446988" lon="6.58115387">
        <ele>923.5</ele>
        <time>2010-08-24T22:34:12Z</time>
      </trkpt><trkpt lat="45.50681455" lon="6.57931974">
        <ele>889.8</ele>
        <time>2010-08-24T22:35:43Z</time>
      </trkpt><trkpt lat="45.50485368" lon="6.57819950">
        <ele>859.6</ele>
        <time>2010-08-24T22:36:55Z</time>
      </trkpt><trkpt lat="45.50661816" lon="6.57751990">
        <ele>842.7</ele>
        <time>2010-08-24T22:37:57Z</time>
      </trkpt><trkpt lat="45.50494588" lon="6.57702067">
        <ele>827.8</ele>
        <time>2010-08-24T22:38:55Z</time>
      </trkpt><trkpt lat="45.50763824" lon="6.57618315">
        <ele>791.8</ele>
        <time>2010-08-24T22:40:28Z</time>
      </trkpt><trkpt lat="45.50671556" lon="6.57463074">
        <ele>760.1</ele>
        <time>2010-08-24T22:41:17Z</time>
      </trkpt><trkpt lat="45.50395489" lon="6.57471657">
        <ele>735.5</ele>
        <time>2010-08-24T22:42:51Z</time>
      </trkpt><trkpt lat="45.50885235" lon="6.57377763">
        <ele>664.4</ele>
        <time>2010-08-24T22:45:39Z</time>
      </trkpt><trkpt lat="45.50499131" lon="6.57097648">
        <ele>617.8</ele>
        <time>2010-08-24T22:48:06Z</time>
      </trkpt><trkpt lat="45.50651573" lon="6.57068647">
        <ele>599.5</ele>
        <time>2010-08-24T22:48:58Z</time>
      </trkpt><trkpt lat="45.50488377" lon="6.56858856">
        <ele>577.4</ele>
        <time>2010-08-24T22:50:13Z</time>
      </trkpt><trkpt lat="45.50603243" lon="6.56679374">
        <ele>565.9</ele>
        <time>2010-08-24T22:51:11Z</time>
      </trkpt><trkpt lat="45.50807124" lon="6.56679123">
        <ele>587</ele>
        <time>2010-08-24T22:52:20Z</time>
      </trkpt><trkpt lat="45.50818918" lon="6.56424506">
        <ele>587</ele>
        <time>2010-08-24T22:53:21Z</time>
      </trkpt><trkpt lat="45.50145222" lon="6.56170249">
        <ele>572.6</ele>
        <time>2010-08-24T22:57:18Z</time>
      </trkpt><trkpt lat="45.48533164" lon="6.54304907">
        <ele>515.9</ele>
        <time>2010-08-24T23:09:04Z</time>
      </trkpt><trkpt lat="45.48313525" lon="6.53709213">
        <ele>512</ele>
        <time>2010-08-24T23:11:44Z</time>
      </trkpt><trkpt lat="45.48778687" lon="6.52538622">
        <ele>502.4</ele>
        <time>2010-08-24T23:17:05Z</time>
      </trkpt><trkpt lat="45.48628668" lon="6.52390606">
        <ele>501</ele>
        <time>2010-08-24T23:18:07Z</time>
      </trkpt><trkpt lat="45.48394477" lon="6.52476529">
        <ele>502.9</ele>
        <time>2010-08-24T23:19:29Z</time>
      </trkpt><trkpt lat="45.48761135" lon="6.52048599">
        <ele>511.6</ele>
        <time>2010-08-24T23:22:10Z</time>
      </trkpt><trkpt lat="45.49236171" lon="6.51972651">
        <ele>517.8</ele>
        <time>2010-08-24T23:24:52Z</time>
      </trkpt><trkpt lat="45.49893799" lon="6.51274807">
        <ele>511.1</ele>
        <time>2010-08-24T23:29:31Z</time>
      </trkpt><trkpt lat="45.50697271" lon="6.50832846">
        <ele>519.2</ele>
        <time>2010-08-24T23:34:24Z</time>
      </trkpt><trkpt lat="45.51288581" lon="6.49745529">
        <ele>499.5</ele>
        <time>2010-08-24T23:39:52Z</time>
      </trkpt><trkpt lat="45.51565586" lon="6.48738435">
        <ele>486.6</ele>
        <time>2010-08-24T23:44:09Z</time>
      </trkpt><trkpt lat="45.52742640" lon="6.48044522">
        <ele>471.2</ele>
        <time>2010-08-24T23:51:22Z</time>
      </trkpt><trkpt lat="45.53797930" lon="6.47024696">
        <ele>458.7</ele>
        <time>2010-08-24T23:58:36Z</time>
      </trkpt><trkpt lat="45.54541472" lon="6.46674123">
        <ele>450</ele>
        <time>2010-08-25T00:03:02Z</time>
      </trkpt><trkpt lat="45.55209627" lon="6.46920601">
        <ele>435.1</ele>
        <time>2010-08-25T00:06:56Z</time>
      </trkpt><trkpt lat="45.55472123" lon="6.46742812">
        <ele>433.2</ele>
        <time>2010-08-25T00:08:35Z</time>
      </trkpt><trkpt lat="45.55111969" lon="6.46828668">
        <ele>430.3</ele>
        <time>2010-08-25T00:10:39Z</time>
      </trkpt><trkpt lat="45.54492966" lon="6.46477156">
        <ele>477</ele>
        <time>2010-08-25T00:14:26Z</time>
      </trkpt><trkpt lat="45.53568400" lon="6.46808242">
        <ele>443.3</ele>
        <time>2010-08-25T00:19:50Z</time>
      </trkpt><trkpt lat="45.53294094" lon="6.47348522">
        <ele>448.6</ele>
        <time>2010-08-25T00:22:29Z</time>
      </trkpt><trkpt lat="45.52746990" lon="6.47527820">
        <ele>449.6</ele>
        <time>2010-08-25T00:25:39Z</time>
      </trkpt><trkpt lat="45.52152831" lon="6.48208975">
        <ele>451.5</ele>
        <time>2010-08-25T00:29:59Z</time>
      </trkpt><trkpt lat="45.51799098" lon="6.48220860">
        <ele>455.3</ele>
        <time>2010-08-25T00:31:59Z</time>
      </trkpt><trkpt lat="45.52013146" lon="6.48322692">
        <ele>455.3</ele>
        <time>2010-08-25T00:33:16Z</time>
      </trkpt><trkpt lat="45.52003004" lon="6.48486994">
        <ele>454.8</ele>
        <time>2010-08-25T00:33:55Z</time>
      </trkpt><trkpt lat="45.51318077" lon="6.48579598">
        <ele>457.7</ele>
        <time>2010-08-25T00:37:49Z</time>
      </trkpt><trkpt lat="45.51149517" lon="6.48734009">
        <ele>458.2</ele>
        <time>2010-08-25T00:38:57Z</time>
      </trkpt><trkpt lat="45.50717103" lon="6.49576700">
        <ele>481.3</ele>
        <time>2010-08-25T00:43:06Z</time>
      </trkpt><trkpt lat="45.50305367" lon="6.49970055">
        <ele>463.5</ele>
        <time>2010-08-25T00:45:54Z</time>
      </trkpt><trkpt lat="45.50672276" lon="6.49642205">
        <ele>472.1</ele>
        <time>2010-08-25T00:48:21Z</time>
      </trkpt><trkpt lat="45.50828079" lon="6.49160673">
        <ele>468.3</ele>
        <time>2010-08-25T00:50:28Z</time>
      </trkpt><trkpt lat="45.51263377" lon="6.48628037">
        <ele>450.5</ele>
        <time>2010-08-25T00:53:43Z</time>
      </trkpt><trkpt lat="45.51956937" lon="6.48524956">
        <ele>448.1</ele>
        <time>2010-08-25T00:57:40Z</time>
      </trkpt><trkpt lat="45.52527468" lon="6.48129028">
        <ele>449.1</ele>
        <time>2010-08-25T01:01:15Z</time>
      </trkpt><trkpt lat="45.53533934" lon="6.47313008">
        <ele>438.5</ele>
        <time>2010-08-25T01:07:49Z</time>
      </trkpt><trkpt lat="45.53969809" lon="6.46600161">
        <ele>428.4</ele>
        <time>2010-08-25T01:11:34Z</time>
      </trkpt><trkpt lat="45.54703393" lon="6.46416555">
        <ele>485.1</ele>
        <time>2010-08-25T01:15:47Z</time>
      </trkpt><trkpt lat="45.54436950" lon="6.46379298">
        <ele>506.8</ele>
        <time>2010-08-25T01:17:18Z</time>
      </trkpt><trkpt lat="45.54722420" lon="6.46327975">
        <ele>536.6</ele>
        <time>2010-08-25T01:18:56Z</time>
      </trkpt><trkpt lat="45.54491373" lon="6.46235196">
        <ele>576</ele>
        <time>2010-08-25T01:20:18Z</time>
      </trkpt><trkpt lat="45.54936662" lon="6.46046268">
        <ele>632.7</ele>
        <time>2010-08-25T01:22:56Z</time>
      </trkpt><trkpt lat="45.53759231" lon="6.45965408">
        <ele>753.8</ele>
        <time>2010-08-25T01:29:36Z</time>
      </trkpt><trkpt lat="45.52999948" lon="6.46378853">
        <ele>810.5</ele>
        <time>2010-08-25T01:34:13Z</time>
      </trkpt><trkpt lat="45.52702122" lon="6.46092427">
        <ele>832.6</ele>
        <time>2010-08-25T01:36:15Z</time>
      </trkpt><trkpt lat="45.52476883" lon="6.46073341">
        <ele>850.4</ele>
        <time>2010-08-25T01:37:31Z</time>
      </trkpt><trkpt lat="45.52030933" lon="6.45683013">
        <ele>887.9</ele>
        <time>2010-08-25T01:40:29Z</time>
      </trkpt><trkpt lat="45.52267462" lon="6.45836804">
        <ele>906.2</ele>
        <time>2010-08-25T01:41:58Z</time>
      </trkpt><trkpt lat="45.51926754" lon="6.45299407">
        <ele>933.6</ele>
        <time>2010-08-25T01:44:50Z</time>
      </trkpt><trkpt lat="45.51787950" lon="6.45383092">
        <ele>945.1</ele>
        <time>2010-08-25T01:45:41Z</time>
      </trkpt><trkpt lat="45.51330574" lon="6.44892231">
        <ele>963.4</ele>
        <time>2010-08-25T01:48:56Z</time>
      </trkpt><trkpt lat="45.51350087" lon="6.44493026">
        <ele>982.6</ele>
        <time>2010-08-25T01:50:31Z</time>
      </trkpt><trkpt lat="45.50999573" lon="6.44687176">
        <ele>998.9</ele>
        <time>2010-08-25T01:52:39Z</time>
      </trkpt><trkpt lat="45.50551367" lon="6.44450337">
        <ele>993.2</ele>
        <time>2010-08-25T01:55:22Z</time>
      </trkpt><trkpt lat="45.49578966" lon="6.43250417">
        <ele>998.9</ele>
        <time>2010-08-25T02:02:39Z</time>
      </trkpt><trkpt lat="45.49154289" lon="6.43067507">
        <ele>1029.7</ele>
        <time>2010-08-25T02:05:09Z</time>
      </trkpt><trkpt lat="45.49488970" lon="6.43103348">
        <ele>1054.2</ele>
        <time>2010-08-25T02:07:04Z</time>
      </trkpt><trkpt lat="45.49063487" lon="6.42781667">
        <ele>1093.2</ele>
        <time>2010-08-25T02:09:47Z</time>
      </trkpt><trkpt lat="45.48673922" lon="6.42728593">
        <ele>1134</ele>
        <time>2010-08-25T02:12:00Z</time>
      </trkpt><trkpt lat="45.48788913" lon="6.42667405">
        <ele>1150.4</ele>
        <time>2010-08-25T02:12:42Z</time>
      </trkpt><trkpt lat="45.48215557" lon="6.42155171">
        <ele>1213.8</ele>
        <time>2010-08-25T02:16:32Z</time>
      </trkpt><trkpt lat="45.47854901" lon="6.42052174">
        <ele>1243.1</ele>
        <time>2010-08-25T02:18:37Z</time>
      </trkpt><trkpt lat="45.47722718" lon="6.41773786">
        <ele>1276.8</ele>
        <time>2010-08-25T02:19:57Z</time>
      </trkpt><trkpt lat="45.47571844" lon="6.41854009">
        <ele>1297.4</ele>
        <time>2010-08-25T02:20:52Z</time>
      </trkpt><trkpt lat="45.47349799" lon="6.41488290">
        <ele>1335.4</ele>
        <time>2010-08-25T02:22:47Z</time>
      </trkpt><trkpt lat="45.47501905" lon="6.41599811">
        <ele>1349.8</ele>
        <time>2010-08-25T02:23:45Z</time>
      </trkpt><trkpt lat="45.47579421" lon="6.41360809">
        <ele>1362.3</ele>
        <time>2010-08-25T02:24:48Z</time>
      </trkpt><trkpt lat="45.47485963" lon="6.41474342">
        <ele>1380.1</ele>
        <time>2010-08-25T02:25:30Z</time>
      </trkpt><trkpt lat="45.46997734" lon="6.40765736">
        <ele>1467.1</ele>
        <time>2010-08-25T02:29:27Z</time>
      </trkpt><trkpt lat="45.46981339" lon="6.40022278">
        <ele>1528.2</ele>
        <time>2010-08-25T02:32:24Z</time>
      </trkpt><trkpt lat="45.46510402" lon="6.40227366">
        <ele>1548.8</ele>
        <time>2010-08-25T02:35:11Z</time>
      </trkpt><trkpt lat="45.45945168" lon="6.39863491">
        <ele>1575.3</ele>
        <time>2010-08-25T02:38:42Z</time>
      </trkpt><trkpt lat="45.45699561" lon="6.39420139">
        <ele>1582.5</ele>
        <time>2010-08-25T02:40:57Z</time>
      </trkpt><trkpt lat="45.45285403" lon="6.39732650">
        <ele>1603.6</ele>
        <time>2010-08-25T02:43:36Z</time>
      </trkpt><trkpt lat="45.44833376" lon="6.39504343">
        <ele>1630.1</ele>
        <time>2010-08-25T02:46:19Z</time>
      </trkpt><trkpt lat="45.44562112" lon="6.39113520">
        <ele>1668.5</ele>
        <time>2010-08-25T02:48:30Z</time>
      </trkpt><trkpt lat="45.44412269" lon="6.38185124">
        <ele>1742</ele>
        <time>2010-08-25T02:52:18Z</time>
      </trkpt><trkpt lat="45.44201514" lon="6.38169282">
        <ele>1768</ele>
        <time>2010-08-25T02:53:29Z</time>
      </trkpt><trkpt lat="45.44445796" lon="6.37930892">
        <ele>1797.8</ele>
        <time>2010-08-25T02:55:10Z</time>
      </trkpt><trkpt lat="45.44607416" lon="6.38055330">
        <ele>1815.1</ele>
        <time>2010-08-25T02:56:12Z</time>
      </trkpt><trkpt lat="45.44541828" lon="6.37861474">
        <ele>1830.5</ele>
        <time>2010-08-25T02:57:04Z</time>
      </trkpt><trkpt lat="45.44125591" lon="6.37833545">
        <ele>1880.5</ele>
        <time>2010-08-25T02:59:25Z</time>
      </trkpt><trkpt lat="45.44171666" lon="6.37729291">
        <ele>1898.7</ele>
        <time>2010-08-25T02:59:55Z</time>
      </trkpt><trkpt lat="45.43921894" lon="6.37891925">
        <ele>1925.7</ele>
        <time>2010-08-25T03:01:28Z</time>
      </trkpt><trkpt lat="45.43681241" lon="6.37556733">
        <ele>1961.2</ele>
        <time>2010-08-25T03:03:23Z</time>
      </trkpt><trkpt lat="45.43435551" lon="6.37496727">
        <ele>1972.3</ele>
        <time>2010-08-25T03:04:47Z</time>
      </trkpt><trkpt lat="45.43079898" lon="6.36246189">
        <ele>1885.8</ele>
        <time>2010-08-25T03:10:09Z</time>
      </trkpt><trkpt lat="45.43082941" lon="6.36525507">
        <ele>1861.7</ele>
        <time>2010-08-25T03:11:16Z</time>
      </trkpt><trkpt lat="45.42626965" lon="6.37012387">
        <ele>1811.3</ele>
        <time>2010-08-25T03:14:30Z</time>
      </trkpt><trkpt lat="45.42601979" lon="6.37387527">
        <ele>1787.7</ele>
        <time>2010-08-25T03:15:59Z</time>
      </trkpt><trkpt lat="45.42436587" lon="6.36714997">
        <ele>1745.9</ele>
        <time>2010-08-25T03:18:50Z</time>
      </trkpt><trkpt lat="45.42541621" lon="6.36267420">
        <ele>1709.8</ele>
        <time>2010-08-25T03:20:42Z</time>
      </trkpt><trkpt lat="45.42306232" lon="6.36016583">
        <ele>1680</ele>
        <time>2010-08-25T03:22:22Z</time>
      </trkpt><trkpt lat="45.42345434" lon="6.36249106">
        <ele>1664.2</ele>
        <time>2010-08-25T03:23:19Z</time>
      </trkpt><trkpt lat="45.42141209" lon="6.36595965">
        <ele>1631.5</ele>
        <time>2010-08-25T03:25:07Z</time>
      </trkpt><trkpt lat="45.41806846" lon="6.36217640">
        <ele>1583.4</ele>
        <time>2010-08-25T03:27:32Z</time>
      </trkpt><trkpt lat="45.41565724" lon="6.36299992">
        <ele>1576.2</ele>
        <time>2010-08-25T03:28:57Z</time>
      </trkpt><trkpt lat="45.41212561" lon="6.35244710">
        <ele>1501.7</ele>
        <time>2010-08-25T03:33:36Z</time>
      </trkpt><trkpt lat="45.40367640" lon="6.34619705">
        <ele>1412.3</ele>
        <time>2010-08-25T03:38:59Z</time>
      </trkpt><trkpt lat="45.41235762" lon="6.35251592">
        <ele>1504.1</ele>
        <time>2010-08-25T03:44:31Z</time>
      </trkpt><trkpt lat="45.41554928" lon="6.35975361">
        <ele>1557.5</ele>
        <time>2010-08-25T03:47:55Z</time>
      </trkpt><trkpt lat="45.41520353" lon="6.36261544">
        <ele>1573.3</ele>
        <time>2010-08-25T03:49:04Z</time>
      </trkpt><trkpt lat="45.41730152" lon="6.35989191">
        <ele>1558.9</ele>
        <time>2010-08-25T03:50:40Z</time>
      </trkpt><trkpt lat="45.41593980" lon="6.36057302">
        <ele>1539.7</ele>
        <time>2010-08-25T03:51:29Z</time>
      </trkpt><trkpt lat="45.41311761" lon="6.34992801">
        <ele>1439.2</ele>
        <time>2010-08-25T03:56:01Z</time>
      </trkpt><trkpt lat="45.40677930" lon="6.34566807">
        <ele>1386.8</ele>
        <time>2010-08-25T03:59:59Z</time>
      </trkpt><trkpt lat="45.40801596" lon="6.34472075">
        <ele>1370.5</ele>
        <time>2010-08-25T04:00:47Z</time>
      </trkpt><trkpt lat="45.40277400" lon="6.34302995">
        <ele>1314.3</ele>
        <time>2010-08-25T04:03:50Z</time>
      </trkpt><trkpt lat="45.40167363" lon="6.33962631">
        <ele>1287.8</ele>
        <time>2010-08-25T04:05:19Z</time>
      </trkpt><trkpt lat="45.39759290" lon="6.33619786">
        <ele>1224.9</ele>
        <time>2010-08-25T04:08:00Z</time>
      </trkpt><trkpt lat="45.39259343" lon="6.33471846">
        <ele>1171</ele>
        <time>2010-08-25T04:10:54Z</time>
      </trkpt><trkpt lat="45.38856199" lon="6.33726597">
        <ele>1119.1</ele>
        <time>2010-08-25T04:13:24Z</time>
      </trkpt><trkpt lat="45.38746739" lon="6.33184581">
        <ele>1068.2</ele>
        <time>2010-08-25T04:15:38Z</time>
      </trkpt><trkpt lat="45.38547828" lon="6.33048845">
        <ele>1054.2</ele>
        <time>2010-08-25T04:16:53Z</time>
      </trkpt><trkpt lat="45.38456440" lon="6.33168697">
        <ele>1034.5</ele>
        <time>2010-08-25T04:17:36Z</time>
      </trkpt><trkpt lat="45.38403685" lon="6.32765737">
        <ele>990.3</ele>
        <time>2010-08-25T04:19:13Z</time>
      </trkpt><trkpt lat="45.38185713" lon="6.32960365">
        <ele>968.7</ele>
        <time>2010-08-25T04:20:41Z</time>
      </trkpt><trkpt lat="45.37903788" lon="6.32497625">
        <ele>932.1</ele>
        <time>2010-08-25T04:23:07Z</time>
      </trkpt><trkpt lat="45.37190438" lon="6.32383347">
        <ele>865.3</ele>
        <time>2010-08-25T04:27:11Z</time>
      </trkpt><trkpt lat="45.37336970" lon="6.32127640">
        <ele>832.6</ele>
        <time>2010-08-25T04:28:30Z</time>
      </trkpt><trkpt lat="45.36655195" lon="6.32076183">
        <ele>754.3</ele>
        <time>2010-08-25T04:32:22Z</time>
      </trkpt><trkpt lat="45.36900072" lon="6.31812774">
        <ele>728.8</ele>
        <time>2010-08-25T04:34:07Z</time>
      </trkpt><trkpt lat="45.36773690" lon="6.31825556">
        <ele>713.9</ele>
        <time>2010-08-25T04:34:50Z</time>
      </trkpt><trkpt lat="45.36908923" lon="6.31694086">
        <ele>695.2</ele>
        <time>2010-08-25T04:35:45Z</time>
      </trkpt><trkpt lat="45.36731453" lon="6.31646636">
        <ele>676.9</ele>
        <time>2010-08-25T04:36:47Z</time>
      </trkpt><trkpt lat="45.36797335" lon="6.31561928">
        <ele>668.7</ele>
        <time>2010-08-25T04:37:17Z</time>
      </trkpt><trkpt lat="45.36091000" lon="6.31677917">
        <ele>626.9</ele>
        <time>2010-08-25T04:41:19Z</time>
      </trkpt><trkpt lat="45.35891528" lon="6.31271822">
        <ele>590.9</ele>
        <time>2010-08-25T04:43:17Z</time>
      </trkpt><trkpt lat="45.35524182" lon="6.31360243">
        <ele>571.2</ele>
        <time>2010-08-25T04:45:24Z</time>
      </trkpt><trkpt lat="45.34945211" lon="6.30976637">
        <ele>519.7</ele>
        <time>2010-08-25T04:49:01Z</time>
      </trkpt><trkpt lat="45.35273530" lon="6.30369050">
        <ele>512.5</ele>
        <time>2010-08-25T04:52:04Z</time>
      </trkpt><trkpt lat="45.35058526" lon="6.30618076">
        <ele>516.8</ele>
        <time>2010-08-25T04:53:38Z</time>
      </trkpt><trkpt lat="45.34811109" lon="6.30614782">
        <ele>514.4</ele>
        <time>2010-08-25T04:55:02Z</time>
      </trkpt><trkpt lat="45.32707176" lon="6.31921034">
        <ele>531.7</ele>
        <time>2010-08-25T05:08:03Z</time>
      </trkpt><trkpt lat="45.32045030" lon="6.32132677">
        <ele>534.2</ele>
        <time>2010-08-25T05:11:53Z</time>
      </trkpt><trkpt lat="45.31279905" lon="6.33909465">
        <ele>552.9</ele>
        <time>2010-08-25T05:20:11Z</time>
      </trkpt><trkpt lat="45.30021497" lon="6.35306141">
        <ele>565.4</ele>
        <time>2010-08-25T05:29:14Z</time>
      </trkpt><trkpt lat="45.29464184" lon="6.35509637">
        <ele>572.1</ele>
        <time>2010-08-25T05:32:30Z</time>
      </trkpt><trkpt lat="45.28662656" lon="6.35416531">
        <ele>585.1</ele>
        <time>2010-08-25T05:37:03Z</time>
      </trkpt><trkpt lat="45.27580435" lon="6.35945060">
        <ele>581.7</ele>
        <time>2010-08-25T05:43:32Z</time>
      </trkpt><trkpt lat="45.28634065" lon="6.30341666">
        <ele>1375.8</ele>
        <time>2010-08-25T06:06:39Z</time>
      </trkpt><trkpt lat="45.28102921" lon="6.29977866">
        <ele>1388.8</ele>
        <time>2010-08-25T06:10:00Z</time>
      </trkpt><trkpt lat="45.28517951" lon="6.30246162">
        <ele>1360.9</ele>
        <time>2010-08-25T06:12:35Z</time>
      </trkpt><trkpt lat="45.28536953" lon="6.30568120">
        <ele>1345.5</ele>
        <time>2010-08-25T06:13:52Z</time>
      </trkpt><trkpt lat="45.28260978" lon="6.30289472">
        <ele>1316.2</ele>
        <time>2010-08-25T06:15:47Z</time>
      </trkpt><trkpt lat="45.28084849" lon="6.30337416">
        <ele>1304.2</ele>
        <time>2010-08-25T06:16:48Z</time>
      </trkpt><trkpt lat="45.28371334" lon="6.30898476">
        <ele>1260.4</ele>
        <time>2010-08-25T06:19:34Z</time>
      </trkpt><trkpt lat="45.28279955" lon="6.30722816">
        <ele>1251.8</ele>
        <time>2010-08-25T06:20:26Z</time>
      </trkpt><trkpt lat="45.27921386" lon="6.30704049">
        <ele>1225.3</ele>
        <time>2010-08-25T06:22:28Z</time>
      </trkpt><trkpt lat="45.28018021" lon="6.30947091">
        <ele>1205.6</ele>
        <time>2010-08-25T06:23:35Z</time>
      </trkpt><trkpt lat="45.27757645" lon="6.30868435">
        <ele>1183</ele>
        <time>2010-08-25T06:25:05Z</time>
      </trkpt><trkpt lat="45.27932366" lon="6.31137343">
        <ele>1161.4</ele>
        <time>2010-08-25T06:26:33Z</time>
      </trkpt><trkpt lat="45.27809110" lon="6.31187090">
        <ele>1141.2</ele>
        <time>2010-08-25T06:27:17Z</time>
      </trkpt><trkpt lat="45.28045178" lon="6.31358114">
        <ele>1119.6</ele>
        <time>2010-08-25T06:28:47Z</time>
      </trkpt><trkpt lat="45.27992472" lon="6.31571040">
        <ele>1108.5</ele>
        <time>2010-08-25T06:29:41Z</time>
      </trkpt><trkpt lat="45.28096458" lon="6.31765248">
        <ele>1088.4</ele>
        <time>2010-08-25T06:30:39Z</time>
      </trkpt><trkpt lat="45.27989044" lon="6.31666308">
        <ele>1082.1</ele>
        <time>2010-08-25T06:31:23Z</time>
      </trkpt><trkpt lat="45.27885192" lon="6.31714865">
        <ele>1076.3</ele>
        <time>2010-08-25T06:32:00Z</time>
      </trkpt><trkpt lat="45.28010846" lon="6.31937027">
        <ele>1045.1</ele>
        <time>2010-08-25T06:33:08Z</time>
      </trkpt><trkpt lat="45.27825505" lon="6.31894380">
        <ele>1023.9</ele>
        <time>2010-08-25T06:34:12Z</time>
      </trkpt><trkpt lat="45.27837089" lon="6.31974360">
        <ele>1011</ele>
        <time>2010-08-25T06:34:31Z</time>
      </trkpt><trkpt lat="45.28075722" lon="6.32150606">
        <ele>989.3</ele>
        <time>2010-08-25T06:36:03Z</time>
      </trkpt><trkpt lat="45.28121596" lon="6.32368947">
        <ele>971.1</ele>
        <time>2010-08-25T06:36:57Z</time>
      </trkpt><trkpt lat="45.28067734" lon="6.32563700">
        <ele>956.2</ele>
        <time>2010-08-25T06:37:47Z</time>
      </trkpt><trkpt lat="45.28017836" lon="6.32321916">
        <ele>937.4</ele>
        <time>2010-08-25T06:38:47Z</time>
      </trkpt><trkpt lat="45.27841506" lon="6.32390052">
        <ele>916.3</ele>
        <time>2010-08-25T06:39:50Z</time>
      </trkpt><trkpt lat="45.27764921" lon="6.32317297">
        <ele>904.7</ele>
        <time>2010-08-25T06:40:21Z</time>
      </trkpt><trkpt lat="45.27583193" lon="6.32331639">
        <ele>887.9</ele>
        <time>2010-08-25T06:41:23Z</time>
      </trkpt><trkpt lat="45.27677372" lon="6.32385928">
        <ele>883.1</ele>
        <time>2010-08-25T06:41:57Z</time>
      </trkpt><trkpt lat="45.27694596" lon="6.32624351">
        <ele>864.8</ele>
        <time>2010-08-25T06:42:55Z</time>
      </trkpt><trkpt lat="45.27826419" lon="6.32791688">
        <ele>849.9</ele>
        <time>2010-08-25T06:43:55Z</time>
      </trkpt><trkpt lat="45.27745114" lon="6.32918414">
        <ele>834.1</ele>
        <time>2010-08-25T06:44:36Z</time>
      </trkpt><trkpt lat="45.27567200" lon="6.32850185">
        <ele>817.7</ele>
        <time>2010-08-25T06:45:38Z</time>
      </trkpt><trkpt lat="45.27581139" lon="6.33172704">
        <ele>791.3</ele>
        <time>2010-08-25T06:46:56Z</time>
      </trkpt><trkpt lat="45.27701193" lon="6.33339210">
        <ele>775</ele>
        <time>2010-08-25T06:47:53Z</time>
      </trkpt><trkpt lat="45.27513028" lon="6.33419266">
        <ele>759.1</ele>
        <time>2010-08-25T06:49:00Z</time>
      </trkpt><trkpt lat="45.27597961" lon="6.33600500">
        <ele>742.3</ele>
        <time>2010-08-25T06:49:52Z</time>
      </trkpt><trkpt lat="45.27788289" lon="6.33565966">
        <ele>722.6</ele>
        <time>2010-08-25T06:50:57Z</time>
      </trkpt><trkpt lat="45.27400517" lon="6.33847296">
        <ele>679.3</ele>
        <time>2010-08-25T06:53:25Z</time>
      </trkpt><trkpt lat="45.27230977" lon="6.33774189">
        <ele>665.4</ele>
        <time>2010-08-25T06:54:25Z</time>
      </trkpt><trkpt lat="45.27115281" lon="6.33946270">
        <ele>650.5</ele>
        <time>2010-08-25T06:55:22Z</time>
      </trkpt><trkpt lat="45.27022938" lon="6.33898820">
        <ele>659.6</ele>
        <time>2010-08-25T06:55:55Z</time>
      </trkpt><trkpt lat="45.27093530" lon="6.33657035">
        <ele>687</ele>
        <time>2010-08-25T06:56:58Z</time>
      </trkpt><trkpt lat="45.26913420" lon="6.33591003">
        <ele>702.9</ele>
        <time>2010-08-25T06:58:01Z</time>
      </trkpt><trkpt lat="45.26709916" lon="6.33098390">
        <ele>728.8</ele>
        <time>2010-08-25T07:00:18Z</time>
      </trkpt><trkpt lat="45.26283017" lon="6.32796331">
        <ele>777.8</ele>
        <time>2010-08-25T07:03:00Z</time>
      </trkpt><trkpt lat="45.25578853" lon="6.31852638">
        <ele>871.1</ele>
        <time>2010-08-25T07:08:29Z</time>
      </trkpt><trkpt lat="45.25427996" lon="6.31856117">
        <ele>879.7</ele>
        <time>2010-08-25T07:09:20Z</time>
      </trkpt><trkpt lat="45.25225346" lon="6.31680247">
        <ele>864.4</ele>
        <time>2010-08-25T07:10:41Z</time>
      </trkpt><trkpt lat="45.25135803" lon="6.31748200">
        <ele>857.2</ele>
        <time>2010-08-25T07:11:16Z</time>
      </trkpt><trkpt lat="45.24929490" lon="6.31602254">
        <ele>851.4</ele>
        <time>2010-08-25T07:12:34Z</time>
      </trkpt><trkpt lat="45.24611171" lon="6.31736909">
        <ele>857.6</ele>
        <time>2010-08-25T07:14:27Z</time>
      </trkpt><trkpt lat="45.24274772" lon="6.31569791">
        <ele>846.1</ele>
        <time>2010-08-25T07:16:28Z</time>
      </trkpt><trkpt lat="45.24013935" lon="6.31578089">
        <ele>828.3</ele>
        <time>2010-08-25T07:17:57Z</time>
      </trkpt><trkpt lat="45.23897645" lon="6.31000182">
        <ele>821.1</ele>
        <time>2010-08-25T07:20:21Z</time>
      </trkpt><trkpt lat="45.23788571" lon="6.31325333">
        <ele>847.1</ele>
        <time>2010-08-25T07:21:47Z</time>
      </trkpt><trkpt lat="45.23095404" lon="6.31037448">
        <ele>930.7</ele>
        <time>2010-08-25T07:25:52Z</time>
      </trkpt><trkpt lat="45.22744152" lon="6.30969537">
        <ele>969.6</ele>
        <time>2010-08-25T07:27:53Z</time>
      </trkpt><trkpt lat="45.22574201" lon="6.31056408">
        <ele>990.3</ele>
        <time>2010-08-25T07:28:54Z</time>
      </trkpt><trkpt lat="45.22492561" lon="6.30983921">
        <ele>995.6</ele>
        <time>2010-08-25T07:29:27Z</time>
      </trkpt><trkpt lat="45.22341737" lon="6.30832393">
        <ele>1008.6</ele>
        <time>2010-08-25T07:30:30Z</time>
      </trkpt><trkpt lat="45.22561955" lon="6.30953545">
        <ele>1034.5</ele>
        <time>2010-08-25T07:31:50Z</time>
      </trkpt><trkpt lat="45.22884365" lon="6.30728256">
        <ele>1073</ele>
        <time>2010-08-25T07:33:52Z</time>
      </trkpt><trkpt lat="45.22883367" lon="6.30618026">
        <ele>1082.1</ele>
        <time>2010-08-25T07:34:19Z</time>
      </trkpt><trkpt lat="45.23293745" lon="6.30478475">
        <ele>1141.7</ele>
        <time>2010-08-25T07:36:42Z</time>
      </trkpt><trkpt lat="45.23015122" lon="6.30461787">
        <ele>1170.5</ele>
        <time>2010-08-25T07:38:17Z</time>
      </trkpt><trkpt lat="45.22773883" lon="6.30273094">
        <ele>1213.3</ele>
        <time>2010-08-25T07:39:51Z</time>
      </trkpt><trkpt lat="45.22631013" lon="6.30419659">
        <ele>1233.5</ele>
        <time>2010-08-25T07:40:50Z</time>
      </trkpt><trkpt lat="45.22202857" lon="6.30376116">
        <ele>1274.4</ele>
        <time>2010-08-25T07:43:16Z</time>
      </trkpt><trkpt lat="45.21946522" lon="6.30586761">
        <ele>1288.8</ele>
        <time>2010-08-25T07:44:57Z</time>
      </trkpt><trkpt lat="45.21256901" lon="6.30711031">
        <ele>1287.8</ele>
        <time>2010-08-25T07:48:53Z</time>
      </trkpt><trkpt lat="45.21119639" lon="6.30644940">
        <ele>1286.9</ele>
        <time>2010-08-25T07:49:43Z</time>
      </trkpt><trkpt lat="45.20894333" lon="6.30895919">
        <ele>1298.4</ele>
        <time>2010-08-25T07:51:20Z</time>
      </trkpt><trkpt lat="45.20797581" lon="6.30906765">
        <ele>1300.3</ele>
        <time>2010-08-25T07:51:53Z</time>
      </trkpt><trkpt lat="45.20371420" lon="6.30591380">
        <ele>1288.8</ele>
        <time>2010-08-25T07:54:36Z</time>
      </trkpt><trkpt lat="45.20252883" lon="6.30642643">
        <ele>1283.5</ele>
        <time>2010-08-25T07:55:19Z</time>
      </trkpt><trkpt lat="45.20136651" lon="6.30290545">
        <ele>1269.1</ele>
        <time>2010-08-25T07:56:52Z</time>
      </trkpt><trkpt lat="45.20044802" lon="6.30237579">
        <ele>1261.9</ele>
        <time>2010-08-25T07:57:25Z</time>
      </trkpt><trkpt lat="45.19858808" lon="6.30321139">
        <ele>1251.3</ele>
        <time>2010-08-25T07:58:32Z</time>
      </trkpt><trkpt lat="45.19799749" lon="6.30131288">
        <ele>1240.7</ele>
        <time>2010-08-25T07:59:21Z</time>
      </trkpt><trkpt lat="45.19632295" lon="6.30046388">
        <ele>1235</ele>
        <time>2010-08-25T08:00:22Z</time>
      </trkpt><trkpt lat="45.19371442" lon="6.29690216">
        <ele>1244.1</ele>
        <time>2010-08-25T08:02:25Z</time>
      </trkpt><trkpt lat="45.19241766" lon="6.29188752">
        <ele>1269.1</ele>
        <time>2010-08-25T08:04:33Z</time>
      </trkpt><trkpt lat="45.19254791" lon="6.28617031">
        <ele>1287.8</ele>
        <time>2010-08-25T08:06:50Z</time>
      </trkpt><trkpt lat="45.19676946" lon="6.28138105">
        <ele>1318.1</ele>
        <time>2010-08-25T08:09:54Z</time>
      </trkpt><trkpt lat="45.20061532" lon="6.27523108">
        <ele>1359.4</ele>
        <time>2010-08-25T08:13:11Z</time>
      </trkpt><trkpt lat="45.20184009" lon="6.26919310">
        <ele>1373.9</ele>
        <time>2010-08-25T08:15:41Z</time>
      </trkpt><trkpt lat="45.20373381" lon="6.26614066">
        <ele>1395</ele>
        <time>2010-08-25T08:17:19Z</time>
      </trkpt><trkpt lat="45.20854360" lon="6.26197452">
        <ele>1416.2</ele>
        <time>2010-08-25T08:20:30Z</time>
      </trkpt><trkpt lat="45.21274746" lon="6.25324477">
        <ele>1441.2</ele>
        <time>2010-08-25T08:24:43Z</time>
      </trkpt><trkpt lat="45.21452878" lon="6.25215931">
        <ele>1452.7</ele>
        <time>2010-08-25T08:25:49Z</time>
      </trkpt><trkpt lat="45.21985380" lon="6.24020479">
        <ele>1499.8</ele>
        <time>2010-08-25T08:31:28Z</time>
      </trkpt><trkpt lat="45.22149808" lon="6.23280189">
        <ele>1514.2</ele>
        <time>2010-08-25T08:34:34Z</time>
      </trkpt><trkpt lat="45.22067590" lon="6.22327980">
        <ele>1574.3</ele>
        <time>2010-08-25T08:38:24Z</time>
      </trkpt><trkpt lat="45.22154142" lon="6.22281150">
        <ele>1583.9</ele>
        <time>2010-08-25T08:38:55Z</time>
      </trkpt><trkpt lat="45.22195816" lon="6.22378020">
        <ele>1590.2</ele>
        <time>2010-08-25T08:39:22Z</time>
      </trkpt><trkpt lat="45.22209211" lon="6.22265224">
        <ele>1596.4</ele>
        <time>2010-08-25T08:39:50Z</time>
      </trkpt><trkpt lat="45.21985531" lon="6.21723175">
        <ele>1647.4</ele>
        <time>2010-08-25T08:42:20Z</time>
      </trkpt><trkpt lat="45.22220124" lon="6.21574723">
        <ele>1680</ele>
        <time>2010-08-25T08:43:47Z</time>
      </trkpt><trkpt lat="45.22496752" lon="6.21685155">
        <ele>1709.4</ele>
        <time>2010-08-25T08:45:25Z</time>
      </trkpt><trkpt lat="45.22159330" lon="6.21206691">
        <ele>1756.5</ele>
        <time>2010-08-25T08:48:07Z</time>
      </trkpt><trkpt lat="45.22354084" lon="6.21169123">
        <ele>1779.5</ele>
        <time>2010-08-25T08:49:14Z</time>
      </trkpt><trkpt lat="45.22612917" lon="6.21360834">
        <ele>1806</ele>
        <time>2010-08-25T08:50:53Z</time>
      </trkpt><trkpt lat="45.22770882" lon="6.21645927">
        <ele>1830.5</ele>
        <time>2010-08-25T08:52:20Z</time>
      </trkpt><trkpt lat="45.22600017" lon="6.21269605">
        <ele>1863.7</ele>
        <time>2010-08-25T08:54:07Z</time>
      </trkpt><trkpt lat="45.23067031" lon="6.21596080">
        <ele>1922.8</ele>
        <time>2010-08-25T08:57:04Z</time>
      </trkpt><trkpt lat="45.22913810" lon="6.21467519">
        <ele>1939.6</ele>
        <time>2010-08-25T08:58:05Z</time>
      </trkpt><trkpt lat="45.22854022" lon="6.21237762">
        <ele>1955.9</ele>
        <time>2010-08-25T08:59:03Z</time>
      </trkpt><trkpt lat="45.22900533" lon="6.20857190">
        <ele>1984.8</ele>
        <time>2010-08-25T09:00:36Z</time>
      </trkpt><trkpt lat="45.23045540" lon="6.21010780">
        <ele>2012.2</ele>
        <time>2010-08-25T09:01:37Z</time>
      </trkpt><trkpt lat="45.23036102" lon="6.20883702">
        <ele>2021.3</ele>
        <time>2010-08-25T09:02:08Z</time>
      </trkpt><trkpt lat="45.22727967" lon="6.20352348">
        <ele>2064.1</ele>
        <time>2010-08-25T09:04:53Z</time>
      </trkpt><trkpt lat="45.23034426" lon="6.20048454">
        <ele>2042.5</ele>
        <time>2010-08-25T09:07:00Z</time>
      </trkpt><trkpt lat="45.23402861" lon="6.19288400">
        <ele>2002.1</ele>
        <time>2010-08-25T09:10:41Z</time>
      </trkpt><trkpt lat="45.23620606" lon="6.19109631">
        <ele>1983.3</ele>
        <time>2010-08-25T09:12:06Z</time>
      </trkpt><trkpt lat="45.23810364" lon="6.18600623">
        <ele>1958.8</ele>
        <time>2010-08-25T09:14:24Z</time>
      </trkpt><trkpt lat="45.23904945" lon="6.18524524">
        <ele>1949.2</ele>
        <time>2010-08-25T09:15:01Z</time>
      </trkpt><trkpt lat="45.23813884" lon="6.17509056">
        <ele>1896.3</ele>
        <time>2010-08-25T09:19:06Z</time>
      </trkpt><trkpt lat="45.23453211" lon="6.17114964">
        <ele>1852.1</ele>
        <time>2010-08-25T09:21:41Z</time>
      </trkpt><trkpt lat="45.23157523" lon="6.16104408">
        <ele>1791.6</ele>
        <time>2010-08-25T09:26:03Z</time>
      </trkpt><trkpt lat="45.22859789" lon="6.15545243">
        <ele>1756</ele>
        <time>2010-08-25T09:28:51Z</time>
      </trkpt><trkpt lat="45.22452135" lon="6.13939958">
        <ele>1782.9</ele>
        <time>2010-08-25T09:35:39Z</time>
      </trkpt><trkpt lat="45.21466884" lon="6.13124600">
        <ele>1769.9</ele>
        <time>2010-08-25T09:42:07Z</time>
      </trkpt><trkpt lat="45.21042039" lon="6.12595484">
        <ele>1740.6</ele>
        <time>2010-08-25T09:45:19Z</time>
      </trkpt><trkpt lat="45.20874007" lon="6.12099350">
        <ele>1720.4</ele>
        <time>2010-08-25T09:47:31Z</time>
      </trkpt><trkpt lat="45.20773575" lon="6.10880949">
        <ele>1687.3</ele>
        <time>2010-08-25T09:52:25Z</time>
      </trkpt><trkpt lat="45.20565503" lon="6.10328690">
        <ele>1649.3</ele>
        <time>2010-08-25T09:54:55Z</time>
      </trkpt><trkpt lat="45.20693779" lon="6.10882524">
        <ele>1619</ele>
        <time>2010-08-25T09:57:14Z</time>
      </trkpt><trkpt lat="45.20446530" lon="6.10080376">
        <ele>1570.5</ele>
        <time>2010-08-25T10:00:44Z</time>
      </trkpt><trkpt lat="45.20470351" lon="6.09471045">
        <ele>1524.8</ele>
        <time>2010-08-25T10:03:10Z</time>
      </trkpt><trkpt lat="45.20374823" lon="6.08938401">
        <ele>1482.5</ele>
        <time>2010-08-25T10:05:22Z</time>
      </trkpt><trkpt lat="45.20099670" lon="6.08407189">
        <ele>1453.7</ele>
        <time>2010-08-25T10:08:00Z</time>
      </trkpt><trkpt lat="45.20162132" lon="6.07876464">
        <ele>1416.6</ele>
        <time>2010-08-25T10:10:09Z</time>
      </trkpt><trkpt lat="45.20349551" lon="6.07673345">
        <ele>1384</ele>
        <time>2010-08-25T10:11:29Z</time>
      </trkpt><trkpt lat="45.20295522" lon="6.07734416">
        <ele>1371</ele>
        <time>2010-08-25T10:11:52Z</time>
      </trkpt><trkpt lat="45.20225281" lon="6.07670051">
        <ele>1359</ele>
        <time>2010-08-25T10:12:21Z</time>
      </trkpt><trkpt lat="45.20442121" lon="6.07342780">
        <ele>1316.2</ele>
        <time>2010-08-25T10:14:08Z</time>
      </trkpt><trkpt lat="45.20763894" lon="6.06449545">
        <ele>1270.5</ele>
        <time>2010-08-25T10:18:09Z</time>
      </trkpt><trkpt lat="45.20883227" lon="6.05772900">
        <ele>1200.8</ele>
        <time>2010-08-25T10:20:56Z</time>
      </trkpt><trkpt lat="45.20965915" lon="6.05519984">
        <ele>1206.6</ele>
        <time>2010-08-25T10:22:02Z</time>
      </trkpt><trkpt lat="45.21015644" lon="6.05696624">
        <ele>1228.7</ele>
        <time>2010-08-25T10:22:48Z</time>
      </trkpt><trkpt lat="45.21042685" lon="6.05560167">
        <ele>1243.6</ele>
        <time>2010-08-25T10:23:22Z</time>
      </trkpt><trkpt lat="45.21075005" lon="6.05684630">
        <ele>1257.5</ele>
        <time>2010-08-25T10:23:54Z</time>
      </trkpt><trkpt lat="45.21122933" lon="6.04769896">
        <ele>1291.7</ele>
        <time>2010-08-25T10:27:33Z</time>
      </trkpt><trkpt lat="45.20515865" lon="6.04334649">
        <ele>1292.6</ele>
        <time>2010-08-25T10:31:25Z</time>
      </trkpt><trkpt lat="45.20321891" lon="6.04037820">
        <ele>1284.5</ele>
        <time>2010-08-25T10:33:02Z</time>
      </trkpt><trkpt lat="45.19575927" lon="6.03848138">
        <ele>1244.1</ele>
        <time>2010-08-25T10:37:19Z</time>
      </trkpt><trkpt lat="45.18644882" lon="6.03401391">
        <ele>1135.5</ele>
        <time>2010-08-25T10:42:53Z</time>
      </trkpt><trkpt lat="45.17208760" lon="6.03807192">
        <ele>989.3</ele>
        <time>2010-08-25T10:51:11Z</time>
      </trkpt><trkpt lat="45.16686107" lon="6.04163222">
        <ele>938.4</ele>
        <time>2010-08-25T10:54:28Z</time>
      </trkpt><trkpt lat="45.16095518" lon="6.04200840">
        <ele>900.4</ele>
        <time>2010-08-25T10:57:49Z</time>
      </trkpt><trkpt lat="45.15726823" lon="6.04361027">
        <ele>865.8</ele>
        <time>2010-08-25T11:00:00Z</time>
      </trkpt><trkpt lat="45.14846363" lon="6.04860295">
        <ele>819.2</ele>
        <time>2010-08-25T11:05:23Z</time>
      </trkpt><trkpt lat="45.14510055" lon="6.05444723">
        <ele>823</ele>
        <time>2010-08-25T11:08:24Z</time>
      </trkpt><trkpt lat="45.14411350" lon="6.05118918">
        <ele>807.2</ele>
        <time>2010-08-25T11:09:49Z</time>
      </trkpt><trkpt lat="45.14151193" lon="6.04930879">
        <ele>798.5</ele>
        <time>2010-08-25T11:11:28Z</time>
      </trkpt><trkpt lat="45.13753287" lon="6.04860135">
        <ele>802.8</ele>
        <time>2010-08-25T11:13:44Z</time>
      </trkpt><trkpt lat="45.13568650" lon="6.04950040">
        <ele>801.4</ele>
        <time>2010-08-25T11:14:51Z</time>
      </trkpt><trkpt lat="45.13011933" lon="6.04797363">
        <ele>798</ele>
        <time>2010-08-25T11:18:03Z</time>
      </trkpt><trkpt lat="45.12620992" lon="6.04303879">
        <ele>809.1</ele>
        <time>2010-08-25T11:21:01Z</time>
      </trkpt><trkpt lat="45.12528867" lon="6.04052304">
        <ele>830.7</ele>
        <time>2010-08-25T11:22:09Z</time>
      </trkpt><trkpt lat="45.12717376" lon="6.04725690">
        <ele>867.2</ele>
        <time>2010-08-25T11:25:03Z</time>
      </trkpt><trkpt lat="45.12370038" lon="6.04011392">
        <ele>919.6</ele>
        <time>2010-08-25T11:28:31Z</time>
      </trkpt><trkpt lat="45.12184337" lon="6.03858188">
        <ele>931.7</ele>
        <time>2010-08-25T11:29:44Z</time>
      </trkpt><trkpt lat="45.12343141" lon="6.04083066">
        <ele>949</ele>
        <time>2010-08-25T11:31:00Z</time>
      </trkpt><trkpt lat="45.12393399" lon="6.04343399">
        <ele>965.3</ele>
        <time>2010-08-25T11:32:05Z</time>
      </trkpt><trkpt lat="45.12196432" lon="6.04129686">
        <ele>989.3</ele>
        <time>2010-08-25T11:33:30Z</time>
      </trkpt><trkpt lat="45.11826941" lon="6.04126593">
        <ele>1021.5</ele>
        <time>2010-08-25T11:35:35Z</time>
      </trkpt><trkpt lat="45.11660175" lon="6.03591803">
        <ele>1070.1</ele>
        <time>2010-08-25T11:37:55Z</time>
      </trkpt><trkpt lat="45.11642782" lon="6.04152686">
        <ele>1098.4</ele>
        <time>2010-08-25T11:40:10Z</time>
      </trkpt><trkpt lat="45.11561880" lon="6.03567143">
        <ele>1147.5</ele>
        <time>2010-08-25T11:42:33Z</time>
      </trkpt><trkpt lat="45.11428357" lon="6.04165586">
        <ele>1196</ele>
        <time>2010-08-25T11:45:04Z</time>
      </trkpt><trkpt lat="45.11443310" lon="6.03507833">
        <ele>1229.7</ele>
        <time>2010-08-25T11:47:42Z</time>
      </trkpt><trkpt lat="45.11210544" lon="6.04342519">
        <ele>1284.5</ele>
        <time>2010-08-25T11:51:17Z</time>
      </trkpt><trkpt lat="45.11292075" lon="6.03638138">
        <ele>1333</ele>
        <time>2010-08-25T11:54:08Z</time>
      </trkpt><trkpt lat="45.10516506" lon="6.03913089">
        <ele>1391.6</ele>
        <time>2010-08-25T11:58:40Z</time>
      </trkpt><trkpt lat="45.10346680" lon="6.03852614">
        <ele>1399.3</ele>
        <time>2010-08-25T11:59:40Z</time>
      </trkpt><trkpt lat="45.09553635" lon="6.03112198">
        <ele>1464.2</ele>
        <time>2010-08-25T12:05:02Z</time>
      </trkpt><trkpt lat="45.09197387" lon="6.03058504">
        <ele>1451.7</ele>
        <time>2010-08-25T12:07:04Z</time>
      </trkpt><trkpt lat="45.09115245" lon="6.03353983">
        <ele>1449.3</ele>
        <time>2010-08-25T12:08:20Z</time>
      </trkpt><trkpt lat="45.08929099" lon="6.03393068">
        <ele>1467.1</ele>
        <time>2010-08-25T12:09:24Z</time>
      </trkpt><trkpt lat="45.08803999" lon="6.03589431">
        <ele>1483</ele>
        <time>2010-08-25T12:10:28Z</time>
      </trkpt><trkpt lat="45.08470584" lon="6.03660551">
        <ele>1519.5</ele>
        <time>2010-08-25T12:12:22Z</time>
      </trkpt><trkpt lat="45.08342701" lon="6.03975912">
        <ele>1530.6</ele>
        <time>2010-08-25T12:13:50Z</time>
      </trkpt><trkpt lat="45.08033753" lon="6.04185392">
        <ele>1545</ele>
        <time>2010-08-25T12:15:46Z</time>
      </trkpt><trkpt lat="45.08111193" lon="6.04543584">
        <ele>1535.4</ele>
        <time>2010-08-25T12:17:16Z</time>
      </trkpt><trkpt lat="45.07993947" lon="6.05240129">
        <ele>1509.4</ele>
        <time>2010-08-25T12:20:08Z</time>
      </trkpt><trkpt lat="45.08176103" lon="6.05256558">
        <ele>1502.7</ele>
        <time>2010-08-25T12:21:10Z</time>
      </trkpt><trkpt lat="45.08286953" lon="6.05594742">
        <ele>1490.7</ele>
        <time>2010-08-25T12:22:40Z</time>
      </trkpt><trkpt lat="45.08118360" lon="6.05657087">
        <ele>1477.2</ele>
        <time>2010-08-25T12:23:39Z</time>
      </trkpt><trkpt lat="45.08092803" lon="6.05891428">
        <ele>1460.4</ele>
        <time>2010-08-25T12:24:36Z</time>
      </trkpt><trkpt lat="45.08231163" lon="6.06230736">
        <ele>1488.7</ele>
        <time>2010-08-25T12:26:10Z</time>
      </trkpt><trkpt lat="45.08226109" lon="6.05827600">
        <ele>1509.9</ele>
        <time>2010-08-25T12:27:47Z</time>
      </trkpt><trkpt lat="45.08352290" lon="6.05777627">
        <ele>1523.3</ele>
        <time>2010-08-25T12:28:31Z</time>
      </trkpt><trkpt lat="45.08299828" lon="6.05892392">
        <ele>1533.9</ele>
        <time>2010-08-25T12:29:04Z</time>
      </trkpt><trkpt lat="45.08367923" lon="6.06245857">
        <ele>1560.4</ele>
        <time>2010-08-25T12:30:32Z</time>
      </trkpt><trkpt lat="45.08447425" lon="6.06019990">
        <ele>1579.6</ele>
        <time>2010-08-25T12:31:32Z</time>
      </trkpt><trkpt lat="45.08665103" lon="6.05920857">
        <ele>1603.1</ele>
        <time>2010-08-25T12:32:50Z</time>
      </trkpt><trkpt lat="45.08441298" lon="6.06519233">
        <ele>1649.3</ele>
        <time>2010-08-25T12:35:33Z</time>
      </trkpt><trkpt lat="45.08711891" lon="6.06194224">
        <ele>1684.8</ele>
        <time>2010-08-25T12:37:33Z</time>
      </trkpt><trkpt lat="45.08463585" lon="6.06764470">
        <ele>1728.1</ele>
        <time>2010-08-25T12:40:14Z</time>
      </trkpt><trkpt lat="45.08610109" lon="6.07174572">
        <ele>1758.9</ele>
        <time>2010-08-25T12:42:04Z</time>
      </trkpt><trkpt lat="45.08835113" lon="6.07408586">
        <ele>1784.8</ele>
        <time>2010-08-25T12:43:39Z</time>
      </trkpt><trkpt lat="45.08911472" lon="6.08001396">
        <ele>1819</ele>
        <time>2010-08-25T12:46:04Z</time>
      </trkpt><trkpt lat="45.09042255" lon="6.07953074">
        <ele>1831.9</ele>
        <time>2010-08-25T12:46:50Z</time>
      </trkpt><trkpt lat="45.08943701" lon="6.08165723">
        <ele>1844.4</ele>
        <time>2010-08-25T12:47:51Z</time>
      </trkpt><trkpt lat="45.08988318" lon="6.08420692">
        <ele>1861.7</ele>
        <time>2010-08-25T12:48:54Z</time>
      </trkpt><trkpt lat="45.08897567" lon="6.08784216">
        <ele>1870.9</ele>
        <time>2010-08-25T12:50:27Z</time>
      </trkpt><trkpt lat="45.08715352" lon="6.09234282">
        <ele>1849.7</ele>
        <time>2010-08-25T12:52:31Z</time>
      </trkpt><trkpt lat="45.08605306" lon="6.09056871">
        <ele>1835.8</ele>
        <time>2010-08-25T12:53:28Z</time>
      </trkpt><trkpt lat="45.08471028" lon="6.09815173">
        <ele>1838.7</ele>
        <time>2010-08-25T12:56:35Z</time>
      </trkpt><trkpt lat="45.08505260" lon="6.10586928">
        <ele>1835.8</ele>
        <time>2010-08-25T12:59:41Z</time>
      </trkpt><trkpt lat="45.08029847" lon="6.10968154">
        <ele>1786.7</ele>
        <time>2010-08-25T13:02:47Z</time>
      </trkpt><trkpt lat="45.07889559" lon="6.11966791">
        <ele>1766.1</ele>
        <time>2010-08-25T13:06:51Z</time>
      </trkpt><trkpt lat="45.07961928" lon="6.12352375">
        <ele>1779.5</ele>
        <time>2010-08-25T13:08:27Z</time>
      </trkpt><trkpt lat="45.08168492" lon="6.12797027">
        <ele>1805</ele>
        <time>2010-08-25T13:10:35Z</time>
      </trkpt><trkpt lat="45.08153622" lon="6.13166073">
        <ele>1825.7</ele>
        <time>2010-08-25T13:12:03Z</time>
      </trkpt><trkpt lat="45.07973956" lon="6.13164221">
        <ele>1849.2</ele>
        <time>2010-08-25T13:13:05Z</time>
      </trkpt><trkpt lat="45.08186144" lon="6.14189068">
        <ele>1930.5</ele>
        <time>2010-08-25T13:17:21Z</time>
      </trkpt><trkpt lat="45.08657526" lon="6.14872134">
        <ele>1987.7</ele>
        <time>2010-08-25T13:21:10Z</time>
      </trkpt><trkpt lat="45.08743130" lon="6.14904572">
        <ele>1995.8</ele>
        <time>2010-08-25T13:21:40Z</time>
      </trkpt><trkpt lat="45.08772358" lon="6.14772147">
        <ele>2009.3</ele>
        <time>2010-08-25T13:22:14Z</time>
      </trkpt><trkpt lat="45.08753524" lon="6.14907657">
        <ele>2008.3</ele>
        <time>2010-08-25T13:22:47Z</time>
      </trkpt><trkpt lat="45.09069697" lon="6.14900004">
        <ele>1962.7</ele>
        <time>2010-08-25T13:24:34Z</time>
      </trkpt><trkpt lat="45.09679137" lon="6.15387864">
        <ele>1886.7</ele>
        <time>2010-08-25T13:28:32Z</time>
      </trkpt><trkpt lat="45.09319679" lon="6.15280459">
        <ele>1828.1</ele>
        <time>2010-08-25T13:30:37Z</time>
      </trkpt><trkpt lat="45.09987197" lon="6.15979660">
        <ele>1737.7</ele>
        <time>2010-08-25T13:35:19Z</time>
      </trkpt><trkpt lat="45.09854411" lon="6.16049767">
        <ele>1705.5</ele>
        <time>2010-08-25T13:36:07Z</time>
      </trkpt><trkpt lat="45.09946973" lon="6.16187456">
        <ele>1684.8</ele>
        <time>2010-08-25T13:36:53Z</time>
      </trkpt><trkpt lat="45.09856850" lon="6.16205343">
        <ele>1675.2</ele>
        <time>2010-08-25T13:37:24Z</time>
      </trkpt><trkpt lat="45.09804128" lon="6.16122270">
        <ele>1665.1</ele>
        <time>2010-08-25T13:37:51Z</time>
      </trkpt><trkpt lat="45.09984507" lon="6.16471200">
        <ele>1633.9</ele>
        <time>2010-08-25T13:39:35Z</time>
      </trkpt><trkpt lat="45.09708675" lon="6.16279657">
        <ele>1598.8</ele>
        <time>2010-08-25T13:41:19Z</time>
      </trkpt><trkpt lat="45.09755664" lon="6.16400407">
        <ele>1593</ele>
        <time>2010-08-25T13:41:52Z</time>
      </trkpt><trkpt lat="45.09533368" lon="6.16323243">
        <ele>1570.5</ele>
        <time>2010-08-25T13:43:10Z</time>
      </trkpt><trkpt lat="45.08992869" lon="6.16340501">
        <ele>1513.7</ele>
        <time>2010-08-25T13:46:14Z</time>
      </trkpt><trkpt lat="45.08727850" lon="6.16125665">
        <ele>1488.3</ele>
        <time>2010-08-25T13:47:58Z</time>
      </trkpt><trkpt lat="45.08362072" lon="6.16104484">
        <ele>1455.6</ele>
        <time>2010-08-25T13:50:02Z</time>
      </trkpt><trkpt lat="45.08128963" lon="6.15953769">
        <ele>1435.9</ele>
        <time>2010-08-25T13:51:29Z</time>
      </trkpt><trkpt lat="45.08219965" lon="6.16132974">
        <ele>1420.5</ele>
        <time>2010-08-25T13:52:22Z</time>
      </trkpt><trkpt lat="45.07794542" lon="6.15802014">
        <ele>1406.1</ele>
        <time>2010-08-25T13:55:07Z</time>
      </trkpt><trkpt lat="45.07432712" lon="6.15775804">
        <ele>1401.7</ele>
        <time>2010-08-25T13:57:10Z</time>
      </trkpt><trkpt lat="45.07082105" lon="6.15388770">
        <ele>1391.6</ele>
        <time>2010-08-25T13:59:41Z</time>
      </trkpt><trkpt lat="45.06708281" lon="6.15305278">
        <ele>1349.8</ele>
        <time>2010-08-25T14:01:50Z</time>
      </trkpt><trkpt lat="45.05878464" lon="6.14634558">
        <ele>1258</ele>
        <time>2010-08-25T14:07:15Z</time>
      </trkpt><trkpt lat="45.05953717" lon="6.14880206">
        <ele>1226.3</ele>
        <time>2010-08-25T14:08:19Z</time>
      </trkpt><trkpt lat="45.05217970" lon="6.14274329">
        <ele>1220.5</ele>
        <time>2010-08-25T14:13:09Z</time>
      </trkpt><trkpt lat="45.05040626" lon="6.14289651">
        <ele>1216.7</ele>
        <time>2010-08-25T14:14:09Z</time>
      </trkpt><trkpt lat="45.04945147" lon="6.14009989">
        <ele>1195.1</ele>
        <time>2010-08-25T14:15:24Z</time>
      </trkpt><trkpt lat="45.04875871" lon="6.14290497">
        <ele>1156.6</ele>
        <time>2010-08-25T14:16:35Z</time>
      </trkpt><trkpt lat="45.04747603" lon="6.13880052">
        <ele>1112.4</ele>
        <time>2010-08-25T14:18:23Z</time>
      </trkpt><trkpt lat="45.04771189" lon="6.14405925">
        <ele>1097.5</ele>
        <time>2010-08-25T14:20:29Z</time>
      </trkpt><trkpt lat="45.04536605" lon="6.15276243">
        <ele>1100.8</ele>
        <time>2010-08-25T14:24:13Z</time>
      </trkpt><trkpt lat="45.04431948" lon="6.15365460">
        <ele>1101.3</ele>
        <time>2010-08-25T14:24:55Z</time>
      </trkpt><trkpt lat="45.04518014" lon="6.15572660">
        <ele>1105.2</ele>
        <time>2010-08-25T14:25:52Z</time>
      </trkpt><trkpt lat="45.04381028" lon="6.15861476">
        <ele>1114.3</ele>
        <time>2010-08-25T14:27:16Z</time>
      </trkpt><trkpt lat="45.04398672" lon="6.16247747">
        <ele>1098.9</ele>
        <time>2010-08-25T14:28:49Z</time>
      </trkpt><trkpt lat="45.04269465" lon="6.16900396">
        <ele>1098.4</ele>
        <time>2010-08-25T14:31:32Z</time>
      </trkpt><trkpt lat="45.03926184" lon="6.17721621">
        <ele>1100.8</ele>
        <time>2010-08-25T14:35:21Z</time>
      </trkpt><trkpt lat="45.03924994" lon="6.18764740">
        <ele>1123.9</ele>
        <time>2010-08-25T14:39:31Z</time>
      </trkpt><trkpt lat="45.03725186" lon="6.19515256">
        <ele>1140.3</ele>
        <time>2010-08-25T14:42:44Z</time>
      </trkpt><trkpt lat="45.03839968" lon="6.21020428">
        <ele>1161.9</ele>
        <time>2010-08-25T14:48:48Z</time>
      </trkpt><trkpt lat="45.03589349" lon="6.21776291">
        <ele>1190.3</ele>
        <time>2010-08-25T14:52:08Z</time>
      </trkpt><trkpt lat="45.03603850" lon="6.22571499">
        <ele>1229.2</ele>
        <time>2010-08-25T14:55:19Z</time>
      </trkpt><trkpt lat="45.03780842" lon="6.23457307">
        <ele>1269.6</ele>
        <time>2010-08-25T14:59:01Z</time>
      </trkpt><trkpt lat="45.03755244" lon="6.23893770">
        <ele>1278.7</ele>
        <time>2010-08-25T15:00:46Z</time>
      </trkpt><trkpt lat="45.03878416" lon="6.24430832">
        <ele>1299.8</ele>
        <time>2010-08-25T15:03:01Z</time>
      </trkpt><trkpt lat="45.03942294" lon="6.25720907">
        <ele>1342.1</ele>
        <time>2010-08-25T15:08:12Z</time>
      </trkpt><trkpt lat="45.04163334" lon="6.26177603">
        <ele>1351.3</ele>
        <time>2010-08-25T15:10:25Z</time>
      </trkpt><trkpt lat="45.04275039" lon="6.26716216">
        <ele>1358.5</ele>
        <time>2010-08-25T15:12:40Z</time>
      </trkpt><trkpt lat="45.04242945" lon="6.27267335">
        <ele>1376.3</ele>
        <time>2010-08-25T15:14:53Z</time>
      </trkpt><trkpt lat="45.04400114" lon="6.28423979">
        <ele>1407.5</ele>
        <time>2010-08-25T15:19:36Z</time>
      </trkpt><trkpt lat="45.04329119" lon="6.29114689">
        <ele>1436.3</ele>
        <time>2010-08-25T15:22:23Z</time>
      </trkpt><trkpt lat="45.04458905" lon="6.29735193">
        <ele>1462.8</ele>
        <time>2010-08-25T15:24:59Z</time>
      </trkpt><trkpt lat="45.04441194" lon="6.30126519">
        <ele>1481.5</ele>
        <time>2010-08-25T15:26:33Z</time>
      </trkpt><trkpt lat="45.04532783" lon="6.30330476">
        <ele>1484.9</ele>
        <time>2010-08-25T15:27:31Z</time>
      </trkpt><trkpt lat="45.04506212" lon="6.30582126">
        <ele>1493.5</ele>
        <time>2010-08-25T15:28:32Z</time>
      </trkpt><trkpt lat="45.04629233" lon="6.30753854">
        <ele>1491.6</ele>
        <time>2010-08-25T15:29:31Z</time>
      </trkpt><trkpt lat="45.04656315" lon="6.31151676">
        <ele>1505.1</ele>
        <time>2010-08-25T15:31:07Z</time>
      </trkpt><trkpt lat="45.04892501" lon="6.31486768">
        <ele>1516.1</ele>
        <time>2010-08-25T15:33:00Z</time>
      </trkpt><trkpt lat="45.04792781" lon="6.31674497">
        <ele>1527.2</ele>
        <time>2010-08-25T15:33:57Z</time>
      </trkpt><trkpt lat="45.04822973" lon="6.32306946">
        <ele>1554.6</ele>
        <time>2010-08-25T15:36:29Z</time>
      </trkpt><trkpt lat="45.04583627" lon="6.32887376">
        <ele>1578.1</ele>
        <time>2010-08-25T15:39:11Z</time>
      </trkpt><trkpt lat="45.04622075" lon="6.33079003">
        <ele>1595.4</ele>
        <time>2010-08-25T15:39:58Z</time>
      </trkpt><trkpt lat="45.04573519" lon="6.33182209">
        <ele>1599.3</ele>
        <time>2010-08-25T15:40:28Z</time>
      </trkpt><trkpt lat="45.04390810" lon="6.33128456">
        <ele>1611.3</ele>
        <time>2010-08-25T15:41:32Z</time>
      </trkpt><trkpt lat="45.04321576" lon="6.33207321">
        <ele>1618</ele>
        <time>2010-08-25T15:42:02Z</time>
      </trkpt><trkpt lat="45.04387407" lon="6.33320360">
        <ele>1624.8</ele>
        <time>2010-08-25T15:42:37Z</time>
      </trkpt><trkpt lat="45.04578414" lon="6.33340040">
        <ele>1632.9</ele>
        <time>2010-08-25T15:43:42Z</time>
      </trkpt><trkpt lat="45.04442644" lon="6.33477227">
        <ele>1647.8</ele>
        <time>2010-08-25T15:44:39Z</time>
      </trkpt><trkpt lat="45.04393593" lon="6.33749044">
        <ele>1663.7</ele>
        <time>2010-08-25T15:45:46Z</time>
      </trkpt><trkpt lat="45.04130728" lon="6.34152481">
        <ele>1694</ele>
        <time>2010-08-25T15:47:58Z</time>
      </trkpt><trkpt lat="45.04124919" lon="6.35199641">
        <ele>1747.3</ele>
        <time>2010-08-25T15:52:10Z</time>
      </trkpt><trkpt lat="45.04232962" lon="6.35552133">
        <ele>1767</ele>
        <time>2010-08-25T15:53:42Z</time>
      </trkpt><trkpt lat="45.04004723" lon="6.35811210">
        <ele>1782.4</ele>
        <time>2010-08-25T15:55:21Z</time>
      </trkpt><trkpt lat="45.03847462" lon="6.36366134">
        <ele>1816.5</ele>
        <time>2010-08-25T15:57:45Z</time>
      </trkpt><trkpt lat="45.03603129" lon="6.36766763">
        <ele>1842</ele>
        <time>2010-08-25T15:59:52Z</time>
      </trkpt><trkpt lat="45.03842181" lon="6.36532104">
        <ele>1863.2</ele>
        <time>2010-08-25T16:01:31Z</time>
      </trkpt><trkpt lat="45.03495983" lon="6.37194257">
        <ele>1900.7</ele>
        <time>2010-08-25T16:04:49Z</time>
      </trkpt><trkpt lat="45.03199297" lon="6.38230017">
        <ele>1960.7</ele>
        <time>2010-08-25T16:09:17Z</time>
      </trkpt><trkpt lat="45.03342377" lon="6.38549720">
        <ele>1976.6</ele>
        <time>2010-08-25T16:10:48Z</time>
      </trkpt><trkpt lat="45.03254786" lon="6.39082667">
        <ele>2000.6</ele>
        <time>2010-08-25T16:13:00Z</time>
      </trkpt><trkpt lat="45.03374295" lon="6.40004232">
        <ele>2014.1</ele>
        <time>2010-08-25T16:16:45Z</time>
      </trkpt><trkpt lat="45.03331648" lon="6.40420133">
        <ele>2034.3</ele>
        <time>2010-08-25T16:18:26Z</time>
      </trkpt><trkpt lat="45.03373146" lon="6.40524387">
        <ele>2041</ele>
        <time>2010-08-25T16:18:55Z</time>
      </trkpt><trkpt lat="45.03634930" lon="6.40605927">
        <ele>2045.8</ele>
        <time>2010-08-25T16:20:26Z</time>
      </trkpt><trkpt lat="45.03782586" lon="6.40436553">
        <ele>2034.3</ele>
        <time>2010-08-25T16:21:30Z</time>
      </trkpt><trkpt lat="45.03946460" lon="6.40547630">
        <ele>2024.2</ele>
        <time>2010-08-25T16:22:32Z</time>
      </trkpt><trkpt lat="45.03867427" lon="6.41067015">
        <ele>2006.4</ele>
        <time>2010-08-25T16:24:40Z</time>
      </trkpt><trkpt lat="45.04277789" lon="6.41654729">
        <ele>1979</ele>
        <time>2010-08-25T16:27:58Z</time>
      </trkpt><trkpt lat="45.04149914" lon="6.41994590">
        <ele>1964.1</ele>
        <time>2010-08-25T16:29:31Z</time>
      </trkpt><trkpt lat="45.04157835" lon="6.42125859">
        <ele>1956.4</ele>
        <time>2010-08-25T16:30:02Z</time>
      </trkpt><trkpt lat="45.04306002" lon="6.42192503">
        <ele>1943.9</ele>
        <time>2010-08-25T16:30:55Z</time>
      </trkpt><trkpt lat="45.04266540" lon="6.42610928">
        <ele>1927.6</ele>
        <time>2010-08-25T16:32:37Z</time>
      </trkpt><trkpt lat="45.04041570" lon="6.42849159">
        <ele>1912.7</ele>
        <time>2010-08-25T16:34:12Z</time>
      </trkpt><trkpt lat="45.03914659" lon="6.43238892">
        <ele>1896.8</ele>
        <time>2010-08-25T16:35:55Z</time>
      </trkpt><trkpt lat="45.03177639" lon="6.44108783">
        <ele>1843</ele>
        <time>2010-08-25T16:41:21Z</time>
      </trkpt><trkpt lat="45.02589623" lon="6.45056759">
        <ele>1794.9</ele>
        <time>2010-08-25T16:46:24Z</time>
      </trkpt><trkpt lat="45.01798145" lon="6.46605492">
        <ele>1719</ele>
        <time>2010-08-25T16:54:04Z</time>
      </trkpt><trkpt lat="45.01615889" lon="6.46530373">
        <ele>1709.8</ele>
        <time>2010-08-25T16:55:08Z</time>
      </trkpt><trkpt lat="45.00809650" lon="6.47204379">
        <ele>1660.8</ele>
        <time>2010-08-25T17:00:27Z</time>
      </trkpt><trkpt lat="45.00517088" lon="6.47279313">
        <ele>1643.5</ele>
        <time>2010-08-25T17:02:08Z</time>
      </trkpt><trkpt lat="45.00106316" lon="6.47663891">
        <ele>1618</ele>
        <time>2010-08-25T17:04:55Z</time>
      </trkpt><trkpt lat="44.99401717" lon="6.48076080">
        <ele>1587.8</ele>
        <time>2010-08-25T17:09:14Z</time>
      </trkpt><trkpt lat="44.98335782" lon="6.49845877">
        <ele>1541.1</ele>
        <time>2010-08-25T17:18:33Z</time>
      </trkpt><trkpt lat="44.97907089" lon="6.50037998">
        <ele>1531</ele>
        <time>2010-08-25T17:21:06Z</time>
      </trkpt><trkpt lat="44.97594118" lon="6.50843265">
        <ele>1506.5</ele>
        <time>2010-08-25T17:24:47Z</time>
      </trkpt><trkpt lat="44.97622490" lon="6.51340043">
        <ele>1495</ele>
        <time>2010-08-25T17:26:47Z</time>
      </trkpt><trkpt lat="44.97552636" lon="6.51606596">
        <ele>1489.2</ele>
        <time>2010-08-25T17:27:55Z</time>
      </trkpt><trkpt lat="44.97234744" lon="6.51936256">
        <ele>1477.2</ele>
        <time>2010-08-25T17:30:09Z</time>
      </trkpt><trkpt lat="44.97074012" lon="6.52285782">
        <ele>1471.9</ele>
        <time>2010-08-25T17:31:50Z</time>
      </trkpt><trkpt lat="44.96907958" lon="6.52388334">
        <ele>1471.9</ele>
        <time>2010-08-25T17:32:51Z</time>
      </trkpt><trkpt lat="44.96737412" lon="6.53155463">
        <ele>1458.5</ele>
        <time>2010-08-25T17:36:05Z</time>
      </trkpt><trkpt lat="44.96456090" lon="6.53567827">
        <ele>1449.3</ele>
        <time>2010-08-25T17:38:22Z</time>
      </trkpt><trkpt lat="44.95880521" lon="6.54138132">
        <ele>1435.4</ele>
        <time>2010-08-25T17:42:21Z</time>
      </trkpt><trkpt lat="44.95659968" lon="6.54722426">
        <ele>1427.7</ele>
        <time>2010-08-25T17:45:01Z</time>
      </trkpt><trkpt lat="44.94804687" lon="6.55855768">
        <ele>1407.5</ele>
        <time>2010-08-25T17:51:39Z</time>
      </trkpt><trkpt lat="44.94575442" lon="6.56062407">
        <ele>1404.6</ele>
        <time>2010-08-25T17:53:12Z</time>
      </trkpt><trkpt lat="44.94530063" lon="6.56017606">
        <ele>1406.1</ele>
        <time>2010-08-25T17:53:30Z</time>
      </trkpt><trkpt lat="44.94667693" lon="6.55799140">
        <ele>1403.7</ele>
        <time>2010-08-25T17:54:41Z</time>
      </trkpt><trkpt lat="44.94529132" lon="6.55620949">
        <ele>1412.8</ele>
        <time>2010-08-25T17:55:45Z</time>
      </trkpt><trkpt lat="44.94393454" lon="6.55672104">
        <ele>1417.6</ele>
        <time>2010-08-25T17:56:32Z</time>
      </trkpt><trkpt lat="44.94526517" lon="6.56138021">
        <ele>1396.9</ele>
        <time>2010-08-25T17:58:33Z</time>
      </trkpt><trkpt lat="44.94297750" lon="6.56752573">
        <ele>1393.6</ele>
        <time>2010-08-25T18:01:20Z</time>
      </trkpt><trkpt lat="44.93958610" lon="6.57254876">
        <ele>1391.6</ele>
        <time>2010-08-25T18:04:07Z</time>
      </trkpt><trkpt lat="44.93669987" lon="6.58299923">
        <ele>1373.9</ele>
        <time>2010-08-25T18:08:37Z</time>
      </trkpt><trkpt lat="44.92927568" lon="6.59576847">
        <ele>1367.1</ele>
        <time>2010-08-25T18:15:15Z</time>
      </trkpt><trkpt lat="44.92326737" lon="6.60947800">
        <ele>1349.3</ele>
        <time>2010-08-25T18:21:43Z</time>
      </trkpt><trkpt lat="44.92206398" lon="6.61499639">
        <ele>1348.4</ele>
        <time>2010-08-25T18:24:02Z</time>
      </trkpt><trkpt lat="44.91742853" lon="6.62182680">
        <ele>1349.8</ele>
        <time>2010-08-25T18:27:50Z</time>
      </trkpt><trkpt lat="44.91117396" lon="6.62433526">
        <ele>1318.1</ele>
        <time>2010-08-25T18:31:31Z</time>
      </trkpt><trkpt lat="44.90848873" lon="6.62713900">
        <ele>1300.3</ele>
        <time>2010-08-25T18:33:24Z</time>
      </trkpt><trkpt lat="44.90440960" lon="6.62799186">
        <ele>1267.6</ele>
        <time>2010-08-25T18:35:44Z</time>
      </trkpt><trkpt lat="44.90201690" lon="6.63140774">
        <ele>1251.8</ele>
        <time>2010-08-25T18:37:40Z</time>
      </trkpt><trkpt lat="44.90010599" lon="6.63131344">
        <ele>1241.7</ele>
        <time>2010-08-25T18:38:45Z</time>
      </trkpt><trkpt lat="44.89853220" lon="6.62871212">
        <ele>1228.7</ele>
        <time>2010-08-25T18:40:08Z</time>
      </trkpt><trkpt lat="44.89508205" lon="6.62989112">
        <ele>1224.4</ele>
        <time>2010-08-25T18:42:08Z</time>
      </trkpt><trkpt lat="44.89558697" lon="6.63282394">
        <ele>1223.4</ele>
        <time>2010-08-25T18:43:21Z</time>
      </trkpt><trkpt lat="44.89418904" lon="6.63334714">
        <ele>1220.1</ele>
        <time>2010-08-25T18:44:10Z</time>
      </trkpt><trkpt lat="44.89444863" lon="6.63732645">
        <ele>1232.5</ele>
        <time>2010-08-25T18:45:46Z</time>
      </trkpt><trkpt lat="44.88881750" lon="6.63935705">
        <ele>1271.5</ele>
        <time>2010-08-25T18:49:04Z</time>
      </trkpt><trkpt lat="44.88921446" lon="6.64038501">
        <ele>1279.2</ele>
        <time>2010-08-25T18:49:32Z</time>
      </trkpt><trkpt lat="44.89266403" lon="6.64023304">
        <ele>1305.1</ele>
        <time>2010-08-25T18:51:29Z</time>
      </trkpt><trkpt lat="44.89317776" lon="6.64236607">
        <ele>1317.1</ele>
        <time>2010-08-25T18:52:24Z</time>
      </trkpt><trkpt lat="44.89263637" lon="6.64491853">
        <ele>1332</ele>
        <time>2010-08-25T18:53:28Z</time>
      </trkpt><trkpt lat="44.89150356" lon="6.64681435">
        <ele>1344.5</ele>
        <time>2010-08-25T18:54:28Z</time>
      </trkpt><trkpt lat="44.88965644" lon="6.64784432">
        <ele>1355.1</ele>
        <time>2010-08-25T18:55:35Z</time>
      </trkpt><trkpt lat="44.88666418" lon="6.64818487">
        <ele>1374.8</ele>
        <time>2010-08-25T18:57:17Z</time>
      </trkpt><trkpt lat="44.88153220" lon="6.66586884">
        <ele>1448.8</ele>
        <time>2010-08-25T19:04:57Z</time>
      </trkpt><trkpt lat="44.88205112" lon="6.66961924">
        <ele>1439.7</ele>
        <time>2010-08-25T19:06:29Z</time>
      </trkpt><trkpt lat="44.88029411" lon="6.67074049">
        <ele>1431.5</ele>
        <time>2010-08-25T19:07:35Z</time>
      </trkpt><trkpt lat="44.87889399" lon="6.67873196">
        <ele>1430.6</ele>
        <time>2010-08-25T19:10:53Z</time>
      </trkpt><trkpt lat="44.87740738" lon="6.68228983">
        <ele>1442.1</ele>
        <time>2010-08-25T19:12:33Z</time>
      </trkpt><trkpt lat="44.87694394" lon="6.68818742">
        <ele>1473.8</ele>
        <time>2010-08-25T19:14:56Z</time>
      </trkpt><trkpt lat="44.87302775" lon="6.69430194">
        <ele>1515.7</ele>
        <time>2010-08-25T19:18:14Z</time>
      </trkpt><trkpt lat="44.87191438" lon="6.70109538">
        <ele>1541.1</ele>
        <time>2010-08-25T19:21:02Z</time>
      </trkpt><trkpt lat="44.86935849" lon="6.70287796">
        <ele>1551.2</ele>
        <time>2010-08-25T19:22:39Z</time>
      </trkpt><trkpt lat="44.86736728" lon="6.71050843">
        <ele>1562.3</ele>
        <time>2010-08-25T19:25:55Z</time>
      </trkpt><trkpt lat="44.86833573" lon="6.72210781">
        <ele>1606.5</ele>
        <time>2010-08-25T19:30:37Z</time>
      </trkpt><trkpt lat="44.87003541" lon="6.72550458">
        <ele>1627.6</ele>
        <time>2010-08-25T19:32:17Z</time>
      </trkpt><trkpt lat="44.86956125" lon="6.72601059">
        <ele>1631.5</ele>
        <time>2010-08-25T19:32:37Z</time>
      </trkpt><trkpt lat="44.86775687" lon="6.72473051">
        <ele>1645</ele>
        <time>2010-08-25T19:33:46Z</time>
      </trkpt><trkpt lat="44.86391310" lon="6.72425224">
        <ele>1677.2</ele>
        <time>2010-08-25T19:35:57Z</time>
      </trkpt><trkpt lat="44.85899795" lon="6.72498959">
        <ele>1715.6</ele>
        <time>2010-08-25T19:38:45Z</time>
      </trkpt><trkpt lat="44.85540228" lon="6.72709161">
        <ele>1735.3</ele>
        <time>2010-08-25T19:40:57Z</time>
      </trkpt><trkpt lat="44.85225387" lon="6.72445457">
        <ele>1762.2</ele>
        <time>2010-08-25T19:43:02Z</time>
      </trkpt><trkpt lat="44.84839149" lon="6.72469270">
        <ele>1796.4</ele>
        <time>2010-08-25T19:45:13Z</time>
      </trkpt><trkpt lat="44.84650230" lon="6.72561782">
        <ele>1816.5</ele>
        <time>2010-08-25T19:46:21Z</time>
      </trkpt><trkpt lat="44.84462810" lon="6.72466186">
        <ele>1832.9</ele>
        <time>2010-08-25T19:47:29Z</time>
      </trkpt><trkpt lat="44.84427514" lon="6.72415895">
        <ele>1836.7</ele>
        <time>2010-08-25T19:47:46Z</time>
      </trkpt><trkpt lat="44.84546478" lon="6.72440227">
        <ele>1842</ele>
        <time>2010-08-25T19:48:27Z</time>
      </trkpt><trkpt lat="44.84458552" lon="6.72375427">
        <ele>1849.7</ele>
        <time>2010-08-25T19:49:00Z</time>
      </trkpt><trkpt lat="44.83873839" lon="6.72351312">
        <ele>1909.3</ele>
        <time>2010-08-25T19:52:19Z</time>
      </trkpt><trkpt lat="44.83586952" lon="6.72175963">
        <ele>1957.9</ele>
        <time>2010-08-25T19:54:06Z</time>
      </trkpt><trkpt lat="44.83499025" lon="6.72277048">
        <ele>1973.7</ele>
        <time>2010-08-25T19:54:44Z</time>
      </trkpt><trkpt lat="44.83505027" lon="6.72152066">
        <ele>1983.8</ele>
        <time>2010-08-25T19:55:14Z</time>
      </trkpt><trkpt lat="44.83407193" lon="6.72358990">
        <ele>1998.2</ele>
        <time>2010-08-25T19:56:14Z</time>
      </trkpt><trkpt lat="44.83423203" lon="6.72247326">
        <ele>2008.3</ele>
        <time>2010-08-25T19:56:42Z</time>
      </trkpt><trkpt lat="44.83303702" lon="6.72299453">
        <ele>2026.6</ele>
        <time>2010-08-25T19:57:24Z</time>
      </trkpt><trkpt lat="44.83374596" lon="6.72216925">
        <ele>2034.8</ele>
        <time>2010-08-25T19:57:56Z</time>
      </trkpt><trkpt lat="44.83208006" lon="6.72291976">
        <ele>2050.6</ele>
        <time>2010-08-25T19:58:55Z</time>
      </trkpt><trkpt lat="44.83221400" lon="6.72412181">
        <ele>2061.2</ele>
        <time>2010-08-25T19:59:24Z</time>
      </trkpt><trkpt lat="44.83032874" lon="6.72455457">
        <ele>2089.1</ele>
        <time>2010-08-25T20:00:29Z</time>
      </trkpt><trkpt lat="44.83055933" lon="6.72368042">
        <ele>2096.3</ele>
        <time>2010-08-25T20:00:52Z</time>
      </trkpt><trkpt lat="44.82973958" lon="6.72355075">
        <ele>2108.3</ele>
        <time>2010-08-25T20:01:20Z</time>
      </trkpt><trkpt lat="44.82717866" lon="6.72548136">
        <ele>2132.3</ele>
        <time>2010-08-25T20:02:58Z</time>
      </trkpt><trkpt lat="44.82845966" lon="6.72715338">
        <ele>2149.6</ele>
        <time>2010-08-25T20:03:58Z</time>
      </trkpt><trkpt lat="44.82629260" lon="6.72810112">
        <ele>2179.9</ele>
        <time>2010-08-25T20:05:15Z</time>
      </trkpt><trkpt lat="44.82677658" lon="6.72976493">
        <ele>2194.3</ele>
        <time>2010-08-25T20:05:58Z</time>
      </trkpt><trkpt lat="44.82422236" lon="6.73196820">
        <ele>2221.3</ele>
        <time>2010-08-25T20:07:40Z</time>
      </trkpt><trkpt lat="44.82234540" lon="6.73161188">
        <ele>2246.7</ele>
        <time>2010-08-25T20:08:44Z</time>
      </trkpt><trkpt lat="44.82272208" lon="6.73371524">
        <ele>2260.2</ele>
        <time>2010-08-25T20:09:37Z</time>
      </trkpt><trkpt lat="44.82200861" lon="6.73320327">
        <ele>2271.3</ele>
        <time>2010-08-25T20:10:04Z</time>
      </trkpt><trkpt lat="44.82185841" lon="6.73393602">
        <ele>2276.1</ele>
        <time>2010-08-25T20:10:22Z</time>
      </trkpt><trkpt lat="44.82250214" lon="6.73607826">
        <ele>2293.4</ele>
        <time>2010-08-25T20:11:18Z</time>
      </trkpt><trkpt lat="44.82069467" lon="6.73464504">
        <ele>2318.8</ele>
        <time>2010-08-25T20:12:29Z</time>
      </trkpt><trkpt lat="44.81905114" lon="6.73480782">
        <ele>2330.4</ele>
        <time>2010-08-25T20:13:25Z</time>
      </trkpt><trkpt lat="44.81949899" lon="6.73254579">
        <ele>2315</ele>
        <time>2010-08-25T20:14:22Z</time>
      </trkpt><trkpt lat="44.81780576" lon="6.73440381">
        <ele>2291.9</ele>
        <time>2010-08-25T20:15:35Z</time>
      </trkpt><trkpt lat="44.81797474" lon="6.73305860">
        <ele>2278.9</ele>
        <time>2010-08-25T20:16:08Z</time>
      </trkpt><trkpt lat="44.81558263" lon="6.73507864">
        <ele>2252</ele>
        <time>2010-08-25T20:17:42Z</time>
      </trkpt><trkpt lat="44.81553058" lon="6.73627717">
        <ele>2243.4</ele>
        <time>2010-08-25T20:18:11Z</time>
      </trkpt><trkpt lat="44.81375747" lon="6.73580409">
        <ele>2224.6</ele>
        <time>2010-08-25T20:19:13Z</time>
      </trkpt><trkpt lat="44.81330200" lon="6.73457991">
        <ele>2217.9</ele>
        <time>2010-08-25T20:19:46Z</time>
      </trkpt><trkpt lat="44.81237680" lon="6.73484218">
        <ele>2208.3</ele>
        <time>2010-08-25T20:20:18Z</time>
      </trkpt><trkpt lat="44.81119696" lon="6.73750059">
        <ele>2182.3</ele>
        <time>2010-08-25T20:21:34Z</time>
      </trkpt><trkpt lat="44.80940877" lon="6.73827550">
        <ele>2178.5</ele>
        <time>2010-08-25T20:22:37Z</time>
      </trkpt><trkpt lat="44.80732075" lon="6.73604591">
        <ele>2205.9</ele>
        <time>2010-08-25T20:24:06Z</time>
      </trkpt><trkpt lat="44.80366381" lon="6.73752213">
        <ele>2170.3</ele>
        <time>2010-08-25T20:26:16Z</time>
      </trkpt><trkpt lat="44.80567933" lon="6.73501100">
        <ele>2142</ele>
        <time>2010-08-25T20:27:47Z</time>
      </trkpt><trkpt lat="44.80300005" lon="6.73372798">
        <ele>2114.1</ele>
        <time>2010-08-25T20:29:23Z</time>
      </trkpt><trkpt lat="44.80096358" lon="6.73114794">
        <ele>2086.2</ele>
        <time>2010-08-25T20:30:56Z</time>
      </trkpt><trkpt lat="44.80182566" lon="6.73406133">
        <ele>2061.7</ele>
        <time>2010-08-25T20:32:13Z</time>
      </trkpt><trkpt lat="44.79941125" lon="6.73209820">
        <ele>2030.9</ele>
        <time>2010-08-25T20:33:47Z</time>
      </trkpt><trkpt lat="44.80024944" lon="6.72966795">
        <ele>2014.6</ele>
        <time>2010-08-25T20:34:52Z</time>
      </trkpt><trkpt lat="44.79867306" lon="6.73239861">
        <ele>1989.1</ele>
        <time>2010-08-25T20:36:17Z</time>
      </trkpt><trkpt lat="44.79898453" lon="6.72904677">
        <ele>1959.3</ele>
        <time>2010-08-25T20:37:39Z</time>
      </trkpt><trkpt lat="44.79747009" lon="6.73225720">
        <ele>1928.5</ele>
        <time>2010-08-25T20:39:12Z</time>
      </trkpt><trkpt lat="44.79816101" lon="6.73420114">
        <ele>1901.6</ele>
        <time>2010-08-25T20:40:04Z</time>
      </trkpt><trkpt lat="44.79722785" lon="6.73349873">
        <ele>1891.5</ele>
        <time>2010-08-25T20:40:40Z</time>
      </trkpt><trkpt lat="44.79619881" lon="6.73169277">
        <ele>1869.4</ele>
        <time>2010-08-25T20:41:36Z</time>
      </trkpt><trkpt lat="44.79669510" lon="6.72809500">
        <ele>1839.1</ele>
        <time>2010-08-25T20:43:05Z</time>
      </trkpt><trkpt lat="44.79486466" lon="6.73024178">
        <ele>1808.9</ele>
        <time>2010-08-25T20:44:26Z</time>
      </trkpt><trkpt lat="44.79185170" lon="6.73196878">
        <ele>1779.1</ele>
        <time>2010-08-25T20:46:16Z</time>
      </trkpt><trkpt lat="44.78683245" lon="6.73304150">
        <ele>1739.2</ele>
        <time>2010-08-25T20:49:09Z</time>
      </trkpt><trkpt lat="44.78323460" lon="6.73479080">
        <ele>1709.8</ele>
        <time>2010-08-25T20:51:18Z</time>
      </trkpt><trkpt lat="44.77644450" lon="6.73519967">
        <ele>1655.5</ele>
        <time>2010-08-25T20:55:09Z</time>
      </trkpt><trkpt lat="44.76940044" lon="6.73699767">
        <ele>1598.8</ele>
        <time>2010-08-25T20:59:13Z</time>
      </trkpt><trkpt lat="44.76699617" lon="6.73868696">
        <ele>1577.2</ele>
        <time>2010-08-25T21:00:44Z</time>
      </trkpt><trkpt lat="44.76147158" lon="6.74387964">
        <ele>1558.9</ele>
        <time>2010-08-25T21:04:30Z</time>
      </trkpt><trkpt lat="44.75670940" lon="6.75036262">
        <ele>1520.9</ele>
        <time>2010-08-25T21:08:15Z</time>
      </trkpt><trkpt lat="44.75230781" lon="6.76176553">
        <ele>1447.9</ele>
        <time>2010-08-25T21:13:28Z</time>
      </trkpt><trkpt lat="44.75015609" lon="6.76601473">
        <ele>1433.5</ele>
        <time>2010-08-25T21:15:34Z</time>
      </trkpt><trkpt lat="44.74842531" lon="6.76663399">
        <ele>1429.6</ele>
        <time>2010-08-25T21:16:35Z</time>
      </trkpt><trkpt lat="44.74792349" lon="6.76777803">
        <ele>1421.4</ele>
        <time>2010-08-25T21:17:07Z</time>
      </trkpt><trkpt lat="44.74707012" lon="6.77005741">
        <ele>1405.1</ele>
        <time>2010-08-25T21:18:10Z</time>
      </trkpt><trkpt lat="44.74808693" lon="6.77208424">
        <ele>1387.8</ele>
        <time>2010-08-25T21:19:09Z</time>
      </trkpt><trkpt lat="44.74471397" lon="6.76978399">
        <ele>1382.5</ele>
        <time>2010-08-25T21:21:17Z</time>
      </trkpt><trkpt lat="44.74456276" lon="6.76743647">
        <ele>1367.1</ele>
        <time>2010-08-25T21:22:14Z</time>
      </trkpt><trkpt lat="44.74409581" lon="6.76801105">
        <ele>1362.3</ele>
        <time>2010-08-25T21:22:35Z</time>
      </trkpt><trkpt lat="44.74073651" lon="6.76651035">
        <ele>1334</ele>
        <time>2010-08-25T21:24:35Z</time>
      </trkpt><trkpt lat="44.73714511" lon="6.76837030">
        <ele>1307.5</ele>
        <time>2010-08-25T21:26:45Z</time>
      </trkpt><trkpt lat="44.73147291" lon="6.76683976">
        <ele>1294.6</ele>
        <time>2010-08-25T21:30:01Z</time>
      </trkpt><trkpt lat="44.72949822" lon="6.76411749">
        <ele>1287.8</ele>
        <time>2010-08-25T21:31:35Z</time>
      </trkpt><trkpt lat="44.72189332" lon="6.76243004">
        <ele>1262.8</ele>
        <time>2010-08-25T21:35:57Z</time>
      </trkpt><trkpt lat="44.71755342" lon="6.76014950">
        <ele>1252.3</ele>
        <time>2010-08-25T21:38:34Z</time>
      </trkpt><trkpt lat="44.71594275" lon="6.75644654">
        <ele>1249.9</ele>
        <time>2010-08-25T21:40:19Z</time>
      </trkpt><trkpt lat="44.71496542" lon="6.74940021">
        <ele>1243.6</ele>
        <time>2010-08-25T21:43:13Z</time>
      </trkpt><trkpt lat="44.70856299" lon="6.73659174">
        <ele>1219.1</ele>
        <time>2010-08-25T21:49:31Z</time>
      </trkpt><trkpt lat="44.70894621" lon="6.73134618">
        <ele>1210.4</ele>
        <time>2010-08-25T21:51:38Z</time>
      </trkpt><trkpt lat="44.70533965" lon="6.72294893">
        <ele>1202.7</ele>
        <time>2010-08-25T21:55:35Z</time>
      </trkpt><trkpt lat="44.70506648" lon="6.72034384">
        <ele>1196</ele>
        <time>2010-08-25T21:56:39Z</time>
      </trkpt><trkpt lat="44.70141625" lon="6.71580521">
        <ele>1175.8</ele>
        <time>2010-08-25T21:59:25Z</time>
      </trkpt><trkpt lat="44.69750014" lon="6.70822151">
        <ele>1149.9</ele>
        <time>2010-08-25T22:03:11Z</time>
      </trkpt><trkpt lat="44.68700658" lon="6.69863571">
        <ele>1122.5</ele>
        <time>2010-08-25T22:10:16Z</time>
      </trkpt><trkpt lat="44.68217458" lon="6.69731540">
        <ele>1103.3</ele>
        <time>2010-08-25T22:13:04Z</time>
      </trkpt><trkpt lat="44.67598916" lon="6.69269085">
        <ele>1098.4</ele>
        <time>2010-08-25T22:17:02Z</time>
      </trkpt><trkpt lat="44.67416458" lon="6.68645237">
        <ele>1105.2</ele>
        <time>2010-08-25T22:19:45Z</time>
      </trkpt><trkpt lat="44.67452593" lon="6.68531771">
        <ele>1109.5</ele>
        <time>2010-08-25T22:20:15Z</time>
      </trkpt><trkpt lat="44.66987900" lon="6.67999797">
        <ele>1115.7</ele>
        <time>2010-08-25T22:23:39Z</time>
      </trkpt><trkpt lat="44.66522386" lon="6.66397763">
        <ele>1132.1</ele>
        <time>2010-08-25T22:30:37Z</time>
      </trkpt><trkpt lat="44.65930456" lon="6.65732810">
        <ele>1102.3</ele>
        <time>2010-08-25T22:34:55Z</time>
      </trkpt><trkpt lat="44.65606311" lon="6.65483231">
        <ele>1086.9</ele>
        <time>2010-08-25T22:37:00Z</time>
      </trkpt><trkpt lat="44.66107800" lon="6.65262770">
        <ele>1061</ele>
        <time>2010-08-25T22:39:59Z</time>
      </trkpt><trkpt lat="44.66003747" lon="6.65070204">
        <ele>1043.6</ele>
        <time>2010-08-25T22:40:57Z</time>
      </trkpt><trkpt lat="44.65691831" lon="6.65143915">
        <ele>1049.9</ele>
        <time>2010-08-25T22:42:45Z</time>
      </trkpt><trkpt lat="44.65838783" lon="6.64987450">
        <ele>1036.9</ele>
        <time>2010-08-25T22:43:48Z</time>
      </trkpt><trkpt lat="44.65826512" lon="6.64544106">
        <ele>1008.1</ele>
        <time>2010-08-25T22:45:35Z</time>
      </trkpt><trkpt lat="44.66020603" lon="6.65053273">
        <ele>1034.5</ele>
        <time>2010-08-25T22:47:55Z</time>
      </trkpt><trkpt lat="44.65684891" lon="6.65159413">
        <ele>1041.2</ele>
        <time>2010-08-25T22:49:52Z</time>
      </trkpt><trkpt lat="44.65837492" lon="6.65008455">
        <ele>1029.2</ele>
        <time>2010-08-25T22:50:55Z</time>
      </trkpt><trkpt lat="44.65789464" lon="6.64602754">
        <ele>1005.7</ele>
        <time>2010-08-25T22:52:34Z</time>
      </trkpt><trkpt lat="44.65992381" lon="6.64053789">
        <ele>999.4</ele>
        <time>2010-08-25T22:55:04Z</time>
      </trkpt><trkpt lat="44.65847601" lon="6.63296384">
        <ele>972</ele>
        <time>2010-08-25T22:58:14Z</time>
      </trkpt><trkpt lat="44.65957161" lon="6.63085956">
        <ele>965.8</ele>
        <time>2010-08-25T22:59:17Z</time>
      </trkpt><trkpt lat="44.65955845" lon="6.62542566">
        <ele>943.2</ele>
        <time>2010-08-25T23:01:28Z</time>
      </trkpt><trkpt lat="44.65710221" lon="6.63100222">
        <ele>960.5</ele>
        <time>2010-08-25T23:04:07Z</time>
      </trkpt><trkpt lat="44.65745853" lon="6.63760364">
        <ele>969.6</ele>
        <time>2010-08-25T23:06:47Z</time>
      </trkpt><trkpt lat="44.65834005" lon="6.64007261">
        <ele>976.8</ele>
        <time>2010-08-25T23:07:54Z</time>
      </trkpt><trkpt lat="44.65932794" lon="6.63996734">
        <ele>971.5</ele>
        <time>2010-08-25T23:08:27Z</time>
      </trkpt><trkpt lat="44.65831491" lon="6.63996449">
        <ele>966.3</ele>
        <time>2010-08-25T23:09:02Z</time>
      </trkpt><trkpt lat="44.65730061" lon="6.63688456">
        <ele>956.2</ele>
        <time>2010-08-25T23:10:24Z</time>
      </trkpt><trkpt lat="44.65672695" lon="6.63297172">
        <ele>944.6</ele>
        <time>2010-08-25T23:12:00Z</time>
      </trkpt><trkpt lat="44.65694145" lon="6.63165894">
        <ele>945.1</ele>
        <time>2010-08-25T23:12:33Z</time>
      </trkpt><trkpt lat="44.65937513" lon="6.62587560">
        <ele>924.9</ele>
        <time>2010-08-25T23:15:15Z</time>
      </trkpt><trkpt lat="44.65959340" lon="6.62162413">
        <ele>929.3</ele>
        <time>2010-08-25T23:16:59Z</time>
      </trkpt><trkpt lat="44.66006471" lon="6.62037891">
        <ele>927.3</ele>
        <time>2010-08-25T23:17:33Z</time>
      </trkpt><trkpt lat="44.66564471" lon="6.61432743">
        <ele>909.5</ele>
        <time>2010-08-25T23:21:32Z</time>
      </trkpt><trkpt lat="44.66030108" lon="6.61997390">
        <ele>926.8</ele>
        <time>2010-08-25T23:25:19Z</time>
      </trkpt><trkpt lat="44.65947764" lon="6.62238856">
        <ele>928.3</ele>
        <time>2010-08-25T23:26:24Z</time>
      </trkpt><trkpt lat="44.65975844" lon="6.62949557">
        <ele>942.7</ele>
        <time>2010-08-25T23:29:16Z</time>
      </trkpt><trkpt lat="44.65956088" lon="6.63090248">
        <ele>947</ele>
        <time>2010-08-25T23:29:51Z</time>
      </trkpt><trkpt lat="44.65843594" lon="6.63308404">
        <ele>954.7</ele>
        <time>2010-08-25T23:30:56Z</time>
      </trkpt><trkpt lat="44.65964025" lon="6.63664844">
        <ele>969.1</ele>
        <time>2010-08-25T23:32:32Z</time>
      </trkpt><trkpt lat="44.65990906" lon="6.64061191">
        <ele>982.1</ele>
        <time>2010-08-25T23:34:08Z</time>
      </trkpt><trkpt lat="44.65793906" lon="6.64506370">
        <ele>985</ele>
        <time>2010-08-25T23:36:15Z</time>
      </trkpt><trkpt lat="44.65819630" lon="6.65039803">
        <ele>1015.8</ele>
        <time>2010-08-25T23:38:24Z</time>
      </trkpt><trkpt lat="44.65640425" lon="6.65117847">
        <ele>1026.8</ele>
        <time>2010-08-25T23:39:28Z</time>
      </trkpt><trkpt lat="44.65593017" lon="6.65249887">
        <ele>1033.6</ele>
        <time>2010-08-25T23:40:04Z</time>
      </trkpt><trkpt lat="44.65512425" lon="6.65224046">
        <ele>1039.8</ele>
        <time>2010-08-25T23:40:32Z</time>
      </trkpt><trkpt lat="44.65553304" lon="6.65121703">
        <ele>1047.5</ele>
        <time>2010-08-25T23:41:00Z</time>
      </trkpt><trkpt lat="44.65510430" lon="6.64997701">
        <ele>1053.7</ele>
        <time>2010-08-25T23:41:33Z</time>
      </trkpt><trkpt lat="44.65417425" lon="6.64961700">
        <ele>1063.4</ele>
        <time>2010-08-25T23:42:06Z</time>
      </trkpt><trkpt lat="44.65427399" lon="6.65144920">
        <ele>1077.8</ele>
        <time>2010-08-25T23:42:51Z</time>
      </trkpt><trkpt lat="44.65355063" lon="6.65209905">
        <ele>1085.5</ele>
        <time>2010-08-25T23:43:20Z</time>
      </trkpt><trkpt lat="44.65275360" lon="6.64992437">
        <ele>1102.8</ele>
        <time>2010-08-25T23:44:19Z</time>
      </trkpt><trkpt lat="44.65073331" lon="6.65052669">
        <ele>1123</ele>
        <time>2010-08-25T23:45:29Z</time>
      </trkpt><trkpt lat="44.65004390" lon="6.65424708">
        <ele>1150.8</ele>
        <time>2010-08-25T23:47:02Z</time>
      </trkpt><trkpt lat="44.64823634" lon="6.65531896">
        <ele>1172</ele>
        <time>2010-08-25T23:48:09Z</time>
      </trkpt><trkpt lat="44.64536411" lon="6.65569204">
        <ele>1193.6</ele>
        <time>2010-08-25T23:49:47Z</time>
      </trkpt><trkpt lat="44.64367642" lon="6.65700289">
        <ele>1212.8</ele>
        <time>2010-08-25T23:50:52Z</time>
      </trkpt><trkpt lat="44.64533067" lon="6.65658480">
        <ele>1221.5</ele>
        <time>2010-08-25T23:51:50Z</time>
      </trkpt><trkpt lat="44.64586971" lon="6.65711872">
        <ele>1223.9</ele>
        <time>2010-08-25T23:52:12Z</time>
      </trkpt><trkpt lat="44.64278751" lon="6.66184000">
        <ele>1270</ele>
        <time>2010-08-25T23:54:47Z</time>
      </trkpt><trkpt lat="44.64112614" lon="6.66226077">
        <ele>1291.7</ele>
        <time>2010-08-25T23:55:44Z</time>
      </trkpt><trkpt lat="44.64183810" lon="6.66268766">
        <ele>1301.8</ele>
        <time>2010-08-25T23:56:11Z</time>
      </trkpt><trkpt lat="44.64274292" lon="6.66246705">
        <ele>1310.9</ele>
        <time>2010-08-25T23:56:42Z</time>
      </trkpt><trkpt lat="44.64323268" lon="6.66287860">
        <ele>1321.5</ele>
        <time>2010-08-25T23:57:01Z</time>
      </trkpt><trkpt lat="44.64158278" lon="6.66394251">
        <ele>1341.2</ele>
        <time>2010-08-25T23:58:03Z</time>
      </trkpt><trkpt lat="44.64114265" lon="6.66513710">
        <ele>1353.2</ele>
        <time>2010-08-25T23:58:35Z</time>
      </trkpt><trkpt lat="44.64033463" lon="6.66570707">
        <ele>1360.9</ele>
        <time>2010-08-25T23:59:06Z</time>
      </trkpt><trkpt lat="44.63746316" lon="6.66571269">
        <ele>1388.3</ele>
        <time>2010-08-26T00:00:44Z</time>
      </trkpt><trkpt lat="44.63971680" lon="6.66683452">
        <ele>1417.6</ele>
        <time>2010-08-26T00:02:05Z</time>
      </trkpt><trkpt lat="44.63756483" lon="6.66829323">
        <ele>1445.5</ele>
        <time>2010-08-26T00:03:26Z</time>
      </trkpt><trkpt lat="44.63659681" lon="6.66842331">
        <ele>1452.7</ele>
        <time>2010-08-26T00:03:59Z</time>
      </trkpt><trkpt lat="44.63640361" lon="6.66895841">
        <ele>1460.9</ele>
        <time>2010-08-26T00:04:14Z</time>
      </trkpt><trkpt lat="44.63728731" lon="6.66936686">
        <ele>1466.6</ele>
        <time>2010-08-26T00:04:46Z</time>
      </trkpt><trkpt lat="44.63732184" lon="6.66988704">
        <ele>1470.5</ele>
        <time>2010-08-26T00:04:58Z</time>
      </trkpt><trkpt lat="44.63534992" lon="6.66970063">
        <ele>1489.2</ele>
        <time>2010-08-26T00:06:05Z</time>
      </trkpt><trkpt lat="44.63449446" lon="6.67000934">
        <ele>1498.4</ele>
        <time>2010-08-26T00:06:35Z</time>
      </trkpt><trkpt lat="44.63303090" lon="6.67150140">
        <ele>1512.3</ele>
        <time>2010-08-26T00:07:37Z</time>
      </trkpt><trkpt lat="44.63445892" lon="6.67294962">
        <ele>1520</ele>
        <time>2010-08-26T00:08:37Z</time>
      </trkpt><trkpt lat="44.63470007" lon="6.67415092">
        <ele>1529.1</ele>
        <time>2010-08-26T00:09:07Z</time>
      </trkpt><trkpt lat="44.63437024" lon="6.67527175">
        <ele>1537.8</ele>
        <time>2010-08-26T00:09:36Z</time>
      </trkpt><trkpt lat="44.63368250" lon="6.67623483">
        <ele>1543.5</ele>
        <time>2010-08-26T00:10:09Z</time>
      </trkpt><trkpt lat="44.63184377" lon="6.67671620">
        <ele>1561.3</ele>
        <time>2010-08-26T00:11:13Z</time>
      </trkpt><trkpt lat="44.63016043" lon="6.67807415">
        <ele>1580.1</ele>
        <time>2010-08-26T00:12:19Z</time>
      </trkpt><trkpt lat="44.62813729" lon="6.68090866">
        <ele>1604.1</ele>
        <time>2010-08-26T00:13:56Z</time>
      </trkpt><trkpt lat="44.62652117" lon="6.68004465">
        <ele>1616.6</ele>
        <time>2010-08-26T00:14:55Z</time>
      </trkpt><trkpt lat="44.62569363" lon="6.68054463">
        <ele>1618.5</ele>
        <time>2010-08-26T00:15:25Z</time>
      </trkpt><trkpt lat="44.62495652" lon="6.68292526">
        <ele>1622.8</ele>
        <time>2010-08-26T00:16:28Z</time>
      </trkpt><trkpt lat="44.62409403" lon="6.68331720">
        <ele>1622.4</ele>
        <time>2010-08-26T00:16:59Z</time>
      </trkpt><trkpt lat="44.62218614" lon="6.68295284">
        <ele>1625.7</ele>
        <time>2010-08-26T00:18:04Z</time>
      </trkpt><trkpt lat="44.62066172" lon="6.68400711">
        <ele>1641.1</ele>
        <time>2010-08-26T00:19:02Z</time>
      </trkpt><trkpt lat="44.61977005" lon="6.68363571">
        <ele>1646.4</ele>
        <time>2010-08-26T00:19:34Z</time>
      </trkpt><trkpt lat="44.61882860" lon="6.68391600">
        <ele>1650.7</ele>
        <time>2010-08-26T00:20:07Z</time>
      </trkpt><trkpt lat="44.61609291" lon="6.68557327">
        <ele>1651.2</ele>
        <time>2010-08-26T00:21:48Z</time>
      </trkpt><trkpt lat="44.61429885" lon="6.68583387">
        <ele>1643.5</ele>
        <time>2010-08-26T00:22:49Z</time>
      </trkpt><trkpt lat="44.61273881" lon="6.68697867">
        <ele>1633.4</ele>
        <time>2010-08-26T00:23:49Z</time>
      </trkpt><trkpt lat="44.60929594" lon="6.68847492">
        <ele>1633.9</ele>
        <time>2010-08-26T00:25:51Z</time>
      </trkpt><trkpt lat="44.60735428" lon="6.68847861">
        <ele>1629.6</ele>
        <time>2010-08-26T00:26:58Z</time>
      </trkpt><trkpt lat="44.60554580" lon="6.68919853">
        <ele>1630.5</ele>
        <time>2010-08-26T00:28:01Z</time>
      </trkpt><trkpt lat="44.60374553" lon="6.68857651">
        <ele>1637.7</ele>
        <time>2010-08-26T00:29:04Z</time>
      </trkpt><trkpt lat="44.60015607" lon="6.68969826">
        <ele>1656</ele>
        <time>2010-08-26T00:31:09Z</time>
      </trkpt><trkpt lat="44.59511259" lon="6.68990135">
        <ele>1648.3</ele>
        <time>2010-08-26T00:34:01Z</time>
      </trkpt><trkpt lat="44.59602974" lon="6.68917531">
        <ele>1639.2</ele>
        <time>2010-08-26T00:34:37Z</time>
      </trkpt><trkpt lat="44.59569765" lon="6.68848355">
        <ele>1639.2</ele>
        <time>2010-08-26T00:34:57Z</time>
      </trkpt><trkpt lat="44.59480078" lon="6.68836352">
        <ele>1645.9</ele>
        <time>2010-08-26T00:35:28Z</time>
      </trkpt><trkpt lat="44.59315592" lon="6.68939634">
        <ele>1656</ele>
        <time>2010-08-26T00:36:29Z</time>
      </trkpt><trkpt lat="44.59139849" lon="6.68879184">
        <ele>1672.4</ele>
        <time>2010-08-26T00:37:30Z</time>
      </trkpt><trkpt lat="44.59081519" lon="6.68784636">
        <ele>1680</ele>
        <time>2010-08-26T00:38:01Z</time>
      </trkpt><trkpt lat="44.58892985" lon="6.68772583">
        <ele>1699.7</ele>
        <time>2010-08-26T00:39:05Z</time>
      </trkpt><trkpt lat="44.58706781" lon="6.68685855">
        <ele>1717.1</ele>
        <time>2010-08-26T00:40:11Z</time>
      </trkpt><trkpt lat="44.58343585" lon="6.68282032">
        <ele>1756.5</ele>
        <time>2010-08-26T00:42:49Z</time>
      </trkpt><trkpt lat="44.58020211" lon="6.68453693">
        <ele>1778.6</ele>
        <time>2010-08-26T00:44:46Z</time>
      </trkpt><trkpt lat="44.57907876" lon="6.68410015">
        <ele>1784.3</ele>
        <time>2010-08-26T00:45:26Z</time>
      </trkpt><trkpt lat="44.57852841" lon="6.68307781">
        <ele>1793.5</ele>
        <time>2010-08-26T00:45:57Z</time>
      </trkpt><trkpt lat="44.57668565" lon="6.68219788">
        <ele>1810.3</ele>
        <time>2010-08-26T00:47:03Z</time>
      </trkpt><trkpt lat="44.57390017" lon="6.68192522">
        <ele>1833.4</ele>
        <time>2010-08-26T00:48:38Z</time>
      </trkpt><trkpt lat="44.57319710" lon="6.68126338">
        <ele>1840.1</ele>
        <time>2010-08-26T00:49:07Z</time>
      </trkpt><trkpt lat="44.57278731" lon="6.68004675">
        <ele>1850.2</ele>
        <time>2010-08-26T00:49:40Z</time>
      </trkpt><trkpt lat="44.57189044" lon="6.68010995">
        <ele>1855.5</ele>
        <time>2010-08-26T00:50:10Z</time>
      </trkpt><trkpt lat="44.57130916" lon="6.68233233">
        <ele>1869.9</ele>
        <time>2010-08-26T00:51:07Z</time>
      </trkpt><trkpt lat="44.56951401" lon="6.68277958">
        <ele>1885.8</ele>
        <time>2010-08-26T00:52:09Z</time>
      </trkpt><trkpt lat="44.56884320" lon="6.68469242">
        <ele>1905</ele>
        <time>2010-08-26T00:53:01Z</time>
      </trkpt><trkpt lat="44.56698879" lon="6.68510808">
        <ele>1920.9</ele>
        <time>2010-08-26T00:54:05Z</time>
      </trkpt><trkpt lat="44.56319556" lon="6.68900843">
        <ele>1949.7</ele>
        <time>2010-08-26T00:56:45Z</time>
      </trkpt><trkpt lat="44.56059348" lon="6.69076301">
        <ele>1951.6</ele>
        <time>2010-08-26T00:58:23Z</time>
      </trkpt><trkpt lat="44.56006551" lon="6.69189046">
        <ele>1960.7</ele>
        <time>2010-08-26T00:58:56Z</time>
      </trkpt><trkpt lat="44.55752193" lon="6.69429959">
        <ele>1982.9</ele>
        <time>2010-08-26T01:00:40Z</time>
      </trkpt><trkpt lat="44.55606390" lon="6.69775000">
        <ele>1987.7</ele>
        <time>2010-08-26T01:02:17Z</time>
      </trkpt><trkpt lat="44.55524910" lon="6.69863035">
        <ele>1990.5</ele>
        <time>2010-08-26T01:02:52Z</time>
      </trkpt><trkpt lat="44.55316510" lon="6.69932865">
        <ele>1995.4</ele>
        <time>2010-08-26T01:04:05Z</time>
      </trkpt><trkpt lat="44.55249464" lon="6.70028267">
        <ele>2004</ele>
        <time>2010-08-26T01:04:37Z</time>
      </trkpt><trkpt lat="44.55149929" lon="6.70042047">
        <ele>2012.7</ele>
        <time>2010-08-26T01:05:11Z</time>
      </trkpt><trkpt lat="44.54804644" lon="6.70281460">
        <ele>2047.3</ele>
        <time>2010-08-26T01:07:22Z</time>
      </trkpt><trkpt lat="44.54617770" lon="6.70227891">
        <ele>2060.7</ele>
        <time>2010-08-26T01:08:27Z</time>
      </trkpt><trkpt lat="44.54227668" lon="6.70286397">
        <ele>2078.5</ele>
        <time>2010-08-26T01:10:40Z</time>
      </trkpt><trkpt lat="44.53954661" lon="6.70237362">
        <ele>2098.7</ele>
        <time>2010-08-26T01:12:14Z</time>
      </trkpt><trkpt lat="44.53591381" lon="6.70371708">
        <ele>2076.1</ele>
        <time>2010-08-26T01:14:22Z</time>
      </trkpt><trkpt lat="44.53521987" lon="6.70469751">
        <ele>2067.5</ele>
        <time>2010-08-26T01:14:55Z</time>
      </trkpt><trkpt lat="44.53347593" lon="6.70466499">
        <ele>2048.7</ele>
        <time>2010-08-26T01:15:55Z</time>
      </trkpt><trkpt lat="44.53202695" lon="6.70151129">
        <ele>2021.3</ele>
        <time>2010-08-26T01:17:25Z</time>
      </trkpt><trkpt lat="44.53276422" lon="6.70863415">
        <ele>1975.2</ele>
        <time>2010-08-26T01:20:20Z</time>
      </trkpt><trkpt lat="44.53134064" lon="6.71049426">
        <ele>1953.1</ele>
        <time>2010-08-26T01:21:26Z</time>
      </trkpt><trkpt lat="44.53128423" lon="6.71301093">
        <ele>1934.3</ele>
        <time>2010-08-26T01:22:27Z</time>
      </trkpt><trkpt lat="44.53057261" lon="6.71212111">
        <ele>1923.3</ele>
        <time>2010-08-26T01:22:59Z</time>
      </trkpt><trkpt lat="44.53059197" lon="6.71002865">
        <ele>1906.9</ele>
        <time>2010-08-26T01:23:50Z</time>
      </trkpt><trkpt lat="44.52954641" lon="6.71219294">
        <ele>1889.6</ele>
        <time>2010-08-26T01:24:54Z</time>
      </trkpt><trkpt lat="44.52888583" lon="6.72178242">
        <ele>1816.1</ele>
        <time>2010-08-26T01:28:47Z</time>
      </trkpt><trkpt lat="44.52801705" lon="6.71741009">
        <ele>1772.3</ele>
        <time>2010-08-26T01:30:37Z</time>
      </trkpt><trkpt lat="44.52702555" lon="6.71505637">
        <ele>1748.3</ele>
        <time>2010-08-26T01:31:43Z</time>
      </trkpt><trkpt lat="44.52705112" lon="6.71769574">
        <ele>1726.7</ele>
        <time>2010-08-26T01:32:47Z</time>
      </trkpt><trkpt lat="44.52535630" lon="6.72384739">
        <ele>1673.3</ele>
        <time>2010-08-26T01:35:27Z</time>
      </trkpt><trkpt lat="44.52544481" lon="6.72514700">
        <ele>1672.8</ele>
        <time>2010-08-26T01:35:59Z</time>
      </trkpt><trkpt lat="44.52598192" lon="6.72604999">
        <ele>1672.4</ele>
        <time>2010-08-26T01:36:27Z</time>
      </trkpt><trkpt lat="44.52529855" lon="6.72757055">
        <ele>1671.4</ele>
        <time>2010-08-26T01:37:11Z</time>
      </trkpt><trkpt lat="44.52493888" lon="6.73168405">
        <ele>1662.7</ele>
        <time>2010-08-26T01:38:51Z</time>
      </trkpt><trkpt lat="44.52350876" lon="6.73330209">
        <ele>1655</ele>
        <time>2010-08-26T01:39:54Z</time>
      </trkpt><trkpt lat="44.52314473" lon="6.73830123">
        <ele>1624.8</ele>
        <time>2010-08-26T01:41:55Z</time>
      </trkpt><trkpt lat="44.52267593" lon="6.73933463">
        <ele>1618</ele>
        <time>2010-08-26T01:42:25Z</time>
      </trkpt><trkpt lat="44.52015826" lon="6.74081722">
        <ele>1597.4</ele>
        <time>2010-08-26T01:43:58Z</time>
      </trkpt><trkpt lat="44.52029128" lon="6.74333397">
        <ele>1583.9</ele>
        <time>2010-08-26T01:44:59Z</time>
      </trkpt><trkpt lat="44.51753573" lon="6.74686996">
        <ele>1550.7</ele>
        <time>2010-08-26T01:47:06Z</time>
      </trkpt><trkpt lat="44.51714010" lon="6.74815566">
        <ele>1540.7</ele>
        <time>2010-08-26T01:47:40Z</time>
      </trkpt><trkpt lat="44.51801777" lon="6.75191486">
        <ele>1517.6</ele>
        <time>2010-08-26T01:49:16Z</time>
      </trkpt><trkpt lat="44.51762433" lon="6.75248575">
        <ele>1509.9</ele>
        <time>2010-08-26T01:49:35Z</time>
      </trkpt><trkpt lat="44.51728704" lon="6.75131614">
        <ele>1506.5</ele>
        <time>2010-08-26T01:50:06Z</time>
      </trkpt><trkpt lat="44.51547873" lon="6.75038450">
        <ele>1489.2</ele>
        <time>2010-08-26T01:51:11Z</time>
      </trkpt><trkpt lat="44.51490817" lon="6.74943214">
        <ele>1483</ele>
        <time>2010-08-26T01:51:41Z</time>
      </trkpt><trkpt lat="44.51472930" lon="6.74692352">
        <ele>1473.8</ele>
        <time>2010-08-26T01:52:43Z</time>
      </trkpt><trkpt lat="44.51556489" lon="6.74462395">
        <ele>1471.9</ele>
        <time>2010-08-26T01:53:45Z</time>
      </trkpt><trkpt lat="44.51485268" lon="6.74407577">
        <ele>1470</ele>
        <time>2010-08-26T01:54:13Z</time>
      </trkpt><trkpt lat="44.51094705" lon="6.74450317">
        <ele>1454.6</ele>
        <time>2010-08-26T01:56:26Z</time>
      </trkpt><trkpt lat="44.50987484" lon="6.74663544">
        <ele>1438.8</ele>
        <time>2010-08-26T01:57:29Z</time>
      </trkpt><trkpt lat="44.50475509" lon="6.74474113">
        <ele>1421.4</ele>
        <time>2010-08-26T02:00:29Z</time>
      </trkpt><trkpt lat="44.50431286" lon="6.74351569">
        <ele>1417.1</ele>
        <time>2010-08-26T02:01:02Z</time>
      </trkpt><trkpt lat="44.50325489" lon="6.74303055">
        <ele>1408.9</ele>
        <time>2010-08-26T02:01:40Z</time>
      </trkpt><trkpt lat="44.50219349" lon="6.74061463">
        <ele>1398.4</ele>
        <time>2010-08-26T02:02:49Z</time>
      </trkpt><trkpt lat="44.50113729" lon="6.74058437">
        <ele>1396.9</ele>
        <time>2010-08-26T02:03:25Z</time>
      </trkpt><trkpt lat="44.49847570" lon="6.73925400">
        <ele>1392.1</ele>
        <time>2010-08-26T02:05:01Z</time>
      </trkpt><trkpt lat="44.49566097" lon="6.74086508">
        <ele>1390.7</ele>
        <time>2010-08-26T02:06:44Z</time>
      </trkpt><trkpt lat="44.49263050" lon="6.74205992">
        <ele>1381.1</ele>
        <time>2010-08-26T02:08:31Z</time>
      </trkpt><trkpt lat="44.49161637" lon="6.74207451">
        <ele>1377.2</ele>
        <time>2010-08-26T02:09:06Z</time>
      </trkpt><trkpt lat="44.48904941" lon="6.74395935">
        <ele>1365.7</ele>
        <time>2010-08-26T02:10:44Z</time>
      </trkpt><trkpt lat="44.48840082" lon="6.74509585">
        <ele>1361.8</ele>
        <time>2010-08-26T02:11:20Z</time>
      </trkpt><trkpt lat="44.48593839" lon="6.74755661">
        <ele>1353.2</ele>
        <time>2010-08-26T02:13:03Z</time>
      </trkpt><trkpt lat="44.48413242" lon="6.74873309">
        <ele>1350.8</ele>
        <time>2010-08-26T02:14:10Z</time>
      </trkpt><trkpt lat="44.48112281" lon="6.75232248">
        <ele>1340.7</ele>
        <time>2010-08-26T02:16:25Z</time>
      </trkpt><trkpt lat="44.47972295" lon="6.75599107">
        <ele>1338.8</ele>
        <time>2010-08-26T02:18:05Z</time>
      </trkpt><trkpt lat="44.47629216" lon="6.76065325">
        <ele>1328.2</ele>
        <time>2010-08-26T02:20:48Z</time>
      </trkpt><trkpt lat="44.47104047" lon="6.76371826">
        <ele>1326.8</ele>
        <time>2010-08-26T02:24:01Z</time>
      </trkpt><trkpt lat="44.46746987" lon="6.76181247">
        <ele>1320</ele>
        <time>2010-08-26T02:26:11Z</time>
      </trkpt><trkpt lat="44.46520374" lon="6.75743678">
        <ele>1311.4</ele>
        <time>2010-08-26T02:28:22Z</time>
      </trkpt><trkpt lat="44.46527481" lon="6.75354539">
        <ele>1310.9</ele>
        <time>2010-08-26T02:29:57Z</time>
      </trkpt><trkpt lat="44.46490283" lon="6.75232155">
        <ele>1310.4</ele>
        <time>2010-08-26T02:30:29Z</time>
      </trkpt><trkpt lat="44.46027560" lon="6.74718194">
        <ele>1309.9</ele>
        <time>2010-08-26T02:33:50Z</time>
      </trkpt><trkpt lat="44.45839327" lon="6.74656293">
        <ele>1302.2</ele>
        <time>2010-08-26T02:34:56Z</time>
      </trkpt><trkpt lat="44.45804433" lon="6.74529316">
        <ele>1304.6</ele>
        <time>2010-08-26T02:35:29Z</time>
      </trkpt><trkpt lat="44.45731293" lon="6.74440292">
        <ele>1303.7</ele>
        <time>2010-08-26T02:36:02Z</time>
      </trkpt><trkpt lat="44.45544720" lon="6.74376011">
        <ele>1296</ele>
        <time>2010-08-26T02:37:07Z</time>
      </trkpt><trkpt lat="44.45359983" lon="6.74380738">
        <ele>1291.7</ele>
        <time>2010-08-26T02:38:10Z</time>
      </trkpt><trkpt lat="44.44950074" lon="6.74058127">
        <ele>1287.3</ele>
        <time>2010-08-26T02:40:49Z</time>
      </trkpt><trkpt lat="44.44761230" lon="6.74023175">
        <ele>1285.4</ele>
        <time>2010-08-26T02:41:54Z</time>
      </trkpt><trkpt lat="44.44514366" lon="6.74230057">
        <ele>1281.1</ele>
        <time>2010-08-26T02:43:32Z</time>
      </trkpt><trkpt lat="44.44423917" lon="6.74259955">
        <ele>1280.1</ele>
        <time>2010-08-26T02:44:04Z</time>
      </trkpt><trkpt lat="44.44135630" lon="6.74210100">
        <ele>1275.3</ele>
        <time>2010-08-26T02:45:42Z</time>
      </trkpt><trkpt lat="44.43879186" lon="6.74393135">
        <ele>1271.5</ele>
        <time>2010-08-26T02:47:20Z</time>
      </trkpt><trkpt lat="44.43489972" lon="6.74398810">
        <ele>1264.8</ele>
        <time>2010-08-26T02:49:33Z</time>
      </trkpt><trkpt lat="44.43418106" lon="6.74324152">
        <ele>1261.4</ele>
        <time>2010-08-26T02:50:03Z</time>
      </trkpt><trkpt lat="44.43323248" lon="6.74084757">
        <ele>1257.5</ele>
        <time>2010-08-26T02:51:09Z</time>
      </trkpt><trkpt lat="44.42956967" lon="6.73647255">
        <ele>1249.9</ele>
        <time>2010-08-26T02:53:53Z</time>
      </trkpt><trkpt lat="44.42476583" lon="6.73708577">
        <ele>1246</ele>
        <time>2010-08-26T02:56:37Z</time>
      </trkpt><trkpt lat="44.42106908" lon="6.73686734">
        <ele>1234</ele>
        <time>2010-08-26T02:58:43Z</time>
      </trkpt><trkpt lat="44.42023625" lon="6.73635822">
        <ele>1232.1</ele>
        <time>2010-08-26T02:59:14Z</time>
      </trkpt><trkpt lat="44.41799602" lon="6.73065224">
        <ele>1228.7</ele>
        <time>2010-08-26T03:01:52Z</time>
      </trkpt><trkpt lat="44.41663438" lon="6.72874343">
        <ele>1229.7</ele>
        <time>2010-08-26T03:02:57Z</time>
      </trkpt><trkpt lat="44.41475574" lon="6.72834604">
        <ele>1229.2</ele>
        <time>2010-08-26T03:04:02Z</time>
      </trkpt><trkpt lat="44.41293134" lon="6.72902908">
        <ele>1229.2</ele>
        <time>2010-08-26T03:05:06Z</time>
      </trkpt><trkpt lat="44.41094499" lon="6.72840547">
        <ele>1231.6</ele>
        <time>2010-08-26T03:06:15Z</time>
      </trkpt><trkpt lat="44.41007445" lon="6.72771413">
        <ele>1232.5</ele>
        <time>2010-08-26T03:06:49Z</time>
      </trkpt><trkpt lat="44.40726492" lon="6.72225944">
        <ele>1231.1</ele>
        <time>2010-08-26T03:09:33Z</time>
      </trkpt><trkpt lat="44.40575433" lon="6.71725737">
        <ele>1222.9</ele>
        <time>2010-08-26T03:11:45Z</time>
      </trkpt><trkpt lat="44.40490944" lon="6.71183981">
        <ele>1211.4</ele>
        <time>2010-08-26T03:13:59Z</time>
      </trkpt><trkpt lat="44.40481321" lon="6.70616191">
        <ele>1200.8</ele>
        <time>2010-08-26T03:16:17Z</time>
      </trkpt><trkpt lat="44.40387067" lon="6.70228142">
        <ele>1200.8</ele>
        <time>2010-08-26T03:17:57Z</time>
      </trkpt><trkpt lat="44.40218398" lon="6.70129387">
        <ele>1202.3</ele>
        <time>2010-08-26T03:18:59Z</time>
      </trkpt><trkpt lat="44.39934670" lon="6.69411711">
        <ele>1197.9</ele>
        <time>2010-08-26T03:22:18Z</time>
      </trkpt><trkpt lat="44.39540998" lon="6.69067006">
        <ele>1192.7</ele>
        <time>2010-08-26T03:24:56Z</time>
      </trkpt><trkpt lat="44.39279080" lon="6.68694019">
        <ele>1189.8</ele>
        <time>2010-08-26T03:27:03Z</time>
      </trkpt><trkpt lat="44.39167844" lon="6.68309156">
        <ele>1188.8</ele>
        <time>2010-08-26T03:28:44Z</time>
      </trkpt><trkpt lat="44.39136713" lon="6.67192603">
        <ele>1175.8</ele>
        <time>2010-08-26T03:33:15Z</time>
      </trkpt><trkpt lat="44.39117988" lon="6.67060621">
        <ele>1173.4</ele>
        <time>2010-08-26T03:33:48Z</time>
      </trkpt><trkpt lat="44.39011689" lon="6.66841644">
        <ele>1170.1</ele>
        <time>2010-08-26T03:34:52Z</time>
      </trkpt><trkpt lat="44.38990893" lon="6.66586574">
        <ele>1167.7</ele>
        <time>2010-08-26T03:35:55Z</time>
      </trkpt><trkpt lat="44.38856070" lon="6.66237409">
        <ele>1161.9</ele>
        <time>2010-08-26T03:37:31Z</time>
      </trkpt><trkpt lat="44.38758731" lon="6.65442151">
        <ele>1155.2</ele>
        <time>2010-08-26T03:40:47Z</time>
      </trkpt><trkpt lat="44.38821235" lon="6.65242276">
        <ele>1153.7</ele>
        <time>2010-08-26T03:41:40Z</time>
      </trkpt><trkpt lat="44.38811671" lon="6.65129942">
        <ele>1153.7</ele>
        <time>2010-08-26T03:42:08Z</time>
      </trkpt><trkpt lat="44.38755823" lon="6.65058008">
        <ele>1153.2</ele>
        <time>2010-08-26T03:42:33Z</time>
      </trkpt><trkpt lat="44.38755320" lon="6.64666951">
        <ele>1148</ele>
        <time>2010-08-26T03:44:08Z</time>
      </trkpt><trkpt lat="44.38686312" lon="6.64607875">
        <ele>1148.9</ele>
        <time>2010-08-26T03:44:36Z</time>
      </trkpt><trkpt lat="44.38690285" lon="6.64356745">
        <ele>1148</ele>
        <time>2010-08-26T03:45:37Z</time>
      </trkpt><trkpt lat="44.38631058" lon="6.64302430">
        <ele>1148.4</ele>
        <time>2010-08-26T03:46:01Z</time>
      </trkpt><trkpt lat="44.38626767" lon="6.61603114">
        <ele>1138.8</ele>
        <time>2010-08-26T03:56:57Z</time>
      </trkpt><trkpt lat="44.38549276" lon="6.61080611">
        <ele>1140.3</ele>
        <time>2010-08-26T03:59:06Z</time>
      </trkpt><trkpt lat="44.38547910" lon="6.60673401">
        <ele>1140.3</ele>
        <time>2010-08-26T04:00:45Z</time>
      </trkpt><trkpt lat="44.38749126" lon="6.59900716">
        <ele>1134.5</ele>
        <time>2010-08-26T04:04:05Z</time>
      </trkpt><trkpt lat="44.39076422" lon="6.58940191">
        <ele>1123.4</ele>
        <time>2010-08-26T04:08:24Z</time>
      </trkpt><trkpt lat="44.38987851" lon="6.58400942">
        <ele>1129.7</ele>
        <time>2010-08-26T04:10:38Z</time>
      </trkpt><trkpt lat="44.39014782" lon="6.58122495">
        <ele>1127.8</ele>
        <time>2010-08-26T04:11:46Z</time>
      </trkpt><trkpt lat="44.39279080" lon="6.57596111">
        <ele>1116.7</ele>
        <time>2010-08-26T04:14:23Z</time>
      </trkpt><trkpt lat="44.39338717" lon="6.57299065">
        <ele>1119.1</ele>
        <time>2010-08-26T04:15:37Z</time>
      </trkpt><trkpt lat="44.39349211" lon="6.57171845">
        <ele>1122</ele>
        <time>2010-08-26T04:16:09Z</time>
      </trkpt><trkpt lat="44.39341190" lon="6.57113741">
        <ele>1119.6</ele>
        <time>2010-08-26T04:16:23Z</time>
      </trkpt><trkpt lat="44.39327561" lon="6.57370194">
        <ele>1113.3</ele>
        <time>2010-08-26T04:17:25Z</time>
      </trkpt><trkpt lat="44.39213508" lon="6.57135920">
        <ele>1104.7</ele>
        <time>2010-08-26T04:18:34Z</time>
      </trkpt><trkpt lat="44.39136738" lon="6.57148836">
        <ele>1107.1</ele>
        <time>2010-08-26T04:19:01Z</time>
      </trkpt><trkpt lat="44.39088048" lon="6.57274053">
        <ele>1119.6</ele>
        <time>2010-08-26T04:19:35Z</time>
      </trkpt><trkpt lat="44.38936453" lon="6.57440216">
        <ele>1128.7</ele>
        <time>2010-08-26T04:20:41Z</time>
      </trkpt><trkpt lat="44.38686362" lon="6.58288968">
        <ele>1132.1</ele>
        <time>2010-08-26T04:24:24Z</time>
      </trkpt><trkpt lat="44.38527642" lon="6.58407681">
        <ele>1141.2</ele>
        <time>2010-08-26T04:25:25Z</time>
      </trkpt><trkpt lat="44.38447201" lon="6.59176511">
        <ele>1142.2</ele>
        <time>2010-08-26T04:28:34Z</time>
      </trkpt><trkpt lat="44.38363860" lon="6.59411238">
        <ele>1137.9</ele>
        <time>2010-08-26T04:29:37Z</time>
      </trkpt><trkpt lat="44.38350591" lon="6.59686265">
        <ele>1136.4</ele>
        <time>2010-08-26T04:30:44Z</time>
      </trkpt><trkpt lat="44.38219808" lon="6.60178986">
        <ele>1155.6</ele>
        <time>2010-08-26T04:32:52Z</time>
      </trkpt><trkpt lat="44.38166944" lon="6.61164966">
        <ele>1133.5</ele>
        <time>2010-08-26T04:36:52Z</time>
      </trkpt><trkpt lat="44.38030386" lon="6.61345856">
        <ele>1133.1</ele>
        <time>2010-08-26T04:37:56Z</time>
      </trkpt><trkpt lat="44.37843159" lon="6.61814212">
        <ele>1136.9</ele>
        <time>2010-08-26T04:40:07Z</time>
      </trkpt><trkpt lat="44.37456921" lon="6.62276432">
        <ele>1152.8</ele>
        <time>2010-08-26T04:42:59Z</time>
      </trkpt><trkpt lat="44.37381241" lon="6.62283238">
        <ele>1156.1</ele>
        <time>2010-08-26T04:43:25Z</time>
      </trkpt><trkpt lat="44.37300565" lon="6.62218094">
        <ele>1162.9</ele>
        <time>2010-08-26T04:43:57Z</time>
      </trkpt><trkpt lat="44.37150361" lon="6.62393292">
        <ele>1174.9</ele>
        <time>2010-08-26T04:45:03Z</time>
      </trkpt><trkpt lat="44.36680128" lon="6.62499466">
        <ele>1215.7</ele>
        <time>2010-08-26T04:47:45Z</time>
      </trkpt><trkpt lat="44.36407205" lon="6.62384056">
        <ele>1239.3</ele>
        <time>2010-08-26T04:49:22Z</time>
      </trkpt><trkpt lat="44.36250447" lon="6.62259618">
        <ele>1255.6</ele>
        <time>2010-08-26T04:50:23Z</time>
      </trkpt><trkpt lat="44.36067671" lon="6.62254237">
        <ele>1272</ele>
        <time>2010-08-26T04:51:26Z</time>
      </trkpt><trkpt lat="44.35836180" lon="6.62147602">
        <ele>1291.2</ele>
        <time>2010-08-26T04:52:48Z</time>
      </trkpt><trkpt lat="44.35713712" lon="6.61945975">
        <ele>1306.1</ele>
        <time>2010-08-26T04:53:53Z</time>
      </trkpt><trkpt lat="44.35642985" lon="6.62019409">
        <ele>1311.4</ele>
        <time>2010-08-26T04:54:23Z</time>
      </trkpt><trkpt lat="44.35340750" lon="6.61712288">
        <ele>1345</ele>
        <time>2010-08-26T04:56:30Z</time>
      </trkpt><trkpt lat="44.35193246" lon="6.61417656">
        <ele>1361.8</ele>
        <time>2010-08-26T04:57:57Z</time>
      </trkpt><trkpt lat="44.35096619" lon="6.61443707">
        <ele>1368.6</ele>
        <time>2010-08-26T04:58:31Z</time>
      </trkpt><trkpt lat="44.35059722" lon="6.61570550">
        <ele>1376.7</ele>
        <time>2010-08-26T04:59:04Z</time>
      </trkpt><trkpt lat="44.34604107" lon="6.61667042">
        <ele>1415.2</ele>
        <time>2010-08-26T05:01:40Z</time>
      </trkpt><trkpt lat="44.34171215" lon="6.61530971">
        <ele>1453.2</ele>
        <time>2010-08-26T05:04:11Z</time>
      </trkpt><trkpt lat="44.34010878" lon="6.61405301">
        <ele>1470.5</ele>
        <time>2010-08-26T05:05:14Z</time>
      </trkpt><trkpt lat="44.33883029" lon="6.61223849">
        <ele>1483.9</ele>
        <time>2010-08-26T05:06:16Z</time>
      </trkpt><trkpt lat="44.33494611" lon="6.61139343">
        <ele>1516.1</ele>
        <time>2010-08-26T05:08:29Z</time>
      </trkpt><trkpt lat="44.33330452" lon="6.61020370">
        <ele>1531.5</ele>
        <time>2010-08-26T05:09:32Z</time>
      </trkpt><trkpt lat="44.33324601" lon="6.60929913">
        <ele>1541.6</ele>
        <time>2010-08-26T05:09:54Z</time>
      </trkpt><trkpt lat="44.33482667" lon="6.60648977">
        <ele>1558.9</ele>
        <time>2010-08-26T05:11:21Z</time>
      </trkpt><trkpt lat="44.33647564" lon="6.60066837">
        <ele>1582.5</ele>
        <time>2010-08-26T05:13:53Z</time>
      </trkpt><trkpt lat="44.33608421" lon="6.60015162">
        <ele>1582.5</ele>
        <time>2010-08-26T05:14:12Z</time>
      </trkpt><trkpt lat="44.33429148" lon="6.60006856">
        <ele>1588.7</ele>
        <time>2010-08-26T05:15:13Z</time>
      </trkpt><trkpt lat="44.33408353" lon="6.59896935">
        <ele>1595.4</ele>
        <time>2010-08-26T05:15:40Z</time>
      </trkpt><trkpt lat="44.33508642" lon="6.59687924">
        <ele>1603.6</ele>
        <time>2010-08-26T05:16:42Z</time>
      </trkpt><trkpt lat="44.33517100" lon="6.59310630">
        <ele>1620.4</ele>
        <time>2010-08-26T05:18:13Z</time>
      </trkpt><trkpt lat="44.33574524" lon="6.59126018">
        <ele>1630.5</ele>
        <time>2010-08-26T05:19:02Z</time>
      </trkpt><trkpt lat="44.33502675" lon="6.59046650">
        <ele>1636.8</ele>
        <time>2010-08-26T05:19:33Z</time>
      </trkpt><trkpt lat="44.33485743" lon="6.58902397">
        <ele>1640.6</ele>
        <time>2010-08-26T05:20:09Z</time>
      </trkpt><trkpt lat="44.33636265" lon="6.58290267">
        <ele>1664.7</ele>
        <time>2010-08-26T05:22:46Z</time>
      </trkpt><trkpt lat="44.33547836" lon="6.58335689">
        <ele>1669</ele>
        <time>2010-08-26T05:23:18Z</time>
      </trkpt><trkpt lat="44.33487663" lon="6.58436179">
        <ele>1672.8</ele>
        <time>2010-08-26T05:23:50Z</time>
      </trkpt><trkpt lat="44.33303051" lon="6.58506512">
        <ele>1684.4</ele>
        <time>2010-08-26T05:24:55Z</time>
      </trkpt><trkpt lat="44.33231185" lon="6.58455315">
        <ele>1691.1</ele>
        <time>2010-08-26T05:25:23Z</time>
      </trkpt><trkpt lat="44.33082951" lon="6.58723394">
        <ele>1711.3</ele>
        <time>2010-08-26T05:26:45Z</time>
      </trkpt><trkpt lat="44.33011285" lon="6.58776233">
        <ele>1717.5</ele>
        <time>2010-08-26T05:27:13Z</time>
      </trkpt><trkpt lat="44.33083286" lon="6.58852249">
        <ele>1723.8</ele>
        <time>2010-08-26T05:27:43Z</time>
      </trkpt><trkpt lat="44.33092481" lon="6.58971448">
        <ele>1729.5</ele>
        <time>2010-08-26T05:28:13Z</time>
      </trkpt><trkpt lat="44.32998771" lon="6.59019928">
        <ele>1736.8</ele>
        <time>2010-08-26T05:28:46Z</time>
      </trkpt><trkpt lat="44.32923317" lon="6.59248360">
        <ele>1747.8</ele>
        <time>2010-08-26T05:29:48Z</time>
      </trkpt><trkpt lat="44.32867980" lon="6.59305500">
        <ele>1755.5</ele>
        <time>2010-08-26T05:30:11Z</time>
      </trkpt><trkpt lat="44.32875717" lon="6.59055367">
        <ele>1769.4</ele>
        <time>2010-08-26T05:31:12Z</time>
      </trkpt><trkpt lat="44.32780096" lon="6.59262702">
        <ele>1785.8</ele>
        <time>2010-08-26T05:32:12Z</time>
      </trkpt><trkpt lat="44.32834754" lon="6.59771852">
        <ele>1816.1</ele>
        <time>2010-08-26T05:34:17Z</time>
      </trkpt><trkpt lat="44.32778604" lon="6.60017367">
        <ele>1829.5</ele>
        <time>2010-08-26T05:35:20Z</time>
      </trkpt><trkpt lat="44.32554354" lon="6.60369440">
        <ele>1868</ele>
        <time>2010-08-26T05:37:14Z</time>
      </trkpt><trkpt lat="44.32463243" lon="6.60394192">
        <ele>1876.2</ele>
        <time>2010-08-26T05:37:46Z</time>
      </trkpt><trkpt lat="44.32391771" lon="6.60352450">
        <ele>1882.4</ele>
        <time>2010-08-26T05:38:12Z</time>
      </trkpt><trkpt lat="44.32222465" lon="6.60220251">
        <ele>1898.3</ele>
        <time>2010-08-26T05:39:18Z</time>
      </trkpt><trkpt lat="44.32182424" lon="6.60112669">
        <ele>1906</ele>
        <time>2010-08-26T05:39:48Z</time>
      </trkpt><trkpt lat="44.32094708" lon="6.60085461">
        <ele>1912.7</ele>
        <time>2010-08-26T05:40:18Z</time>
      </trkpt><trkpt lat="44.32032648" lon="6.60013184">
        <ele>1919.9</ele>
        <time>2010-08-26T05:40:46Z</time>
      </trkpt><trkpt lat="44.31993245" lon="6.59783109">
        <ele>1933.8</ele>
        <time>2010-08-26T05:41:43Z</time>
      </trkpt><trkpt lat="44.31894799" lon="6.59778692">
        <ele>1943</ele>
        <time>2010-08-26T05:42:17Z</time>
      </trkpt><trkpt lat="44.31831608" lon="6.59713791">
        <ele>1950.7</ele>
        <time>2010-08-26T05:42:43Z</time>
      </trkpt><trkpt lat="44.31799430" lon="6.59593410">
        <ele>1957.4</ele>
        <time>2010-08-26T05:43:15Z</time>
      </trkpt><trkpt lat="44.31658178" lon="6.59417046">
        <ele>1974.2</ele>
        <time>2010-08-26T05:44:19Z</time>
      </trkpt><trkpt lat="44.31569087" lon="6.59397827">
        <ele>1981.4</ele>
        <time>2010-08-26T05:44:50Z</time>
      </trkpt><trkpt lat="44.31503901" lon="6.59463901">
        <ele>1985.7</ele>
        <time>2010-08-26T05:45:17Z</time>
      </trkpt><trkpt lat="44.31563890" lon="6.59361005">
        <ele>1996.3</ele>
        <time>2010-08-26T05:45:49Z</time>
      </trkpt><trkpt lat="44.31661740" lon="6.59325600">
        <ele>2001.6</ele>
        <time>2010-08-26T05:46:24Z</time>
      </trkpt><trkpt lat="44.31819731" lon="6.59362597">
        <ele>2015.5</ele>
        <time>2010-08-26T05:47:18Z</time>
      </trkpt><trkpt lat="44.31650777" lon="6.59257958">
        <ele>2032.8</ele>
        <time>2010-08-26T05:48:21Z</time>
      </trkpt><trkpt lat="44.31452754" lon="6.59265108">
        <ele>2048.2</ele>
        <time>2010-08-26T05:49:28Z</time>
      </trkpt><trkpt lat="44.31361878" lon="6.59322842">
        <ele>2054</ele>
        <time>2010-08-26T05:50:02Z</time>
      </trkpt><trkpt lat="44.31087924" lon="6.59239124">
        <ele>2075.6</ele>
        <time>2010-08-26T05:51:38Z</time>
      </trkpt><trkpt lat="44.31018865" lon="6.59321568">
        <ele>2083.8</ele>
        <time>2010-08-26T05:52:09Z</time>
      </trkpt><trkpt lat="44.31005395" lon="6.59463021">
        <ele>2091</ele>
        <time>2010-08-26T05:52:43Z</time>
      </trkpt><trkpt lat="44.31060791" lon="6.59727353">
        <ele>2104</ele>
        <time>2010-08-26T05:53:50Z</time>
      </trkpt><trkpt lat="44.30974458" lon="6.59738593">
        <ele>2111.2</ele>
        <time>2010-08-26T05:54:20Z</time>
      </trkpt><trkpt lat="44.30715708" lon="6.59578297">
        <ele>2132.8</ele>
        <time>2010-08-26T05:55:56Z</time>
      </trkpt><trkpt lat="44.30652760" lon="6.59471302">
        <ele>2142</ele>
        <time>2010-08-26T05:56:30Z</time>
      </trkpt><trkpt lat="44.30557592" lon="6.59438487">
        <ele>2151.6</ele>
        <time>2010-08-26T05:57:03Z</time>
      </trkpt><trkpt lat="44.30219206" lon="6.59647968">
        <ele>2177.5</ele>
        <time>2010-08-26T05:59:09Z</time>
      </trkpt><trkpt lat="44.30037462" lon="6.59588649">
        <ele>2194.8</ele>
        <time>2010-08-26T06:00:12Z</time>
      </trkpt><trkpt lat="44.29839246" lon="6.59629737">
        <ele>2208.3</ele>
        <time>2010-08-26T06:01:20Z</time>
      </trkpt><trkpt lat="44.29751840" lon="6.59588230">
        <ele>2216.9</ele>
        <time>2010-08-26T06:01:52Z</time>
      </trkpt><trkpt lat="44.29677937" lon="6.59517420">
        <ele>2224.1</ele>
        <time>2010-08-26T06:02:22Z</time>
      </trkpt><trkpt lat="44.29721833" lon="6.59400165">
        <ele>2241.9</ele>
        <time>2010-08-26T06:02:54Z</time>
      </trkpt><trkpt lat="44.29849053" lon="6.59226341">
        <ele>2235.2</ele>
        <time>2010-08-26T06:03:55Z</time>
      </trkpt><trkpt lat="44.29807378" lon="6.59130285">
        <ele>2228</ele>
        <time>2010-08-26T06:04:22Z</time>
      </trkpt><trkpt lat="44.29915798" lon="6.58922363">
        <ele>2211.7</ele>
        <time>2010-08-26T06:05:25Z</time>
      </trkpt><trkpt lat="44.30210942" lon="6.58626298">
        <ele>2181.8</ele>
        <time>2010-08-26T06:07:28Z</time>
      </trkpt><trkpt lat="44.30236582" lon="6.58501198">
        <ele>2174.2</ele>
        <time>2010-08-26T06:08:00Z</time>
      </trkpt><trkpt lat="44.30148195" lon="6.58640010">
        <ele>2162.1</ele>
        <time>2010-08-26T06:08:45Z</time>
      </trkpt><trkpt lat="44.29910903" lon="6.58750400">
        <ele>2139.6</ele>
        <time>2010-08-26T06:10:10Z</time>
      </trkpt><trkpt lat="44.30055491" lon="6.58569804">
        <ele>2127.1</ele>
        <time>2010-08-26T06:11:16Z</time>
      </trkpt><trkpt lat="44.30120275" lon="6.58349100">
        <ele>2110.2</ele>
        <time>2010-08-26T06:12:14Z</time>
      </trkpt><trkpt lat="44.30265567" lon="6.58206792">
        <ele>2097.7</ele>
        <time>2010-08-26T06:13:14Z</time>
      </trkpt><trkpt lat="44.30054946" lon="6.57990539">
        <ele>2077.1</ele>
        <time>2010-08-26T06:14:43Z</time>
      </trkpt><trkpt lat="44.30027093" lon="6.57587595">
        <ele>2051.6</ele>
        <time>2010-08-26T06:16:22Z</time>
      </trkpt><trkpt lat="44.29923853" lon="6.57969953">
        <ele>2021.3</ele>
        <time>2010-08-26T06:18:01Z</time>
      </trkpt><trkpt lat="44.29890837" lon="6.57441759">
        <ele>1991</ele>
        <time>2010-08-26T06:20:10Z</time>
      </trkpt><trkpt lat="44.29800095" lon="6.57661448">
        <ele>1966.5</ele>
        <time>2010-08-26T06:21:12Z</time>
      </trkpt><trkpt lat="44.29791805" lon="6.57408726">
        <ele>1954.5</ele>
        <time>2010-08-26T06:22:14Z</time>
      </trkpt><trkpt lat="44.29836640" lon="6.57295050">
        <ele>1944.4</ele>
        <time>2010-08-26T06:22:45Z</time>
      </trkpt><trkpt lat="44.29730139" lon="6.57268329">
        <ele>1922.8</ele>
        <time>2010-08-26T06:23:22Z</time>
      </trkpt><trkpt lat="44.29956224" lon="6.56715517">
        <ele>1883.8</ele>
        <time>2010-08-26T06:25:57Z</time>
      </trkpt><trkpt lat="44.29705287" lon="6.56924126">
        <ele>1862.2</ele>
        <time>2010-08-26T06:27:36Z</time>
      </trkpt><trkpt lat="44.29608149" lon="6.56954560">
        <ele>1851.2</ele>
        <time>2010-08-26T06:28:10Z</time>
      </trkpt><trkpt lat="44.29674793" lon="6.56941912">
        <ele>1857.9</ele>
        <time>2010-08-26T06:28:33Z</time>
      </trkpt><trkpt lat="44.29806867" lon="6.56835579">
        <ele>1867.5</ele>
        <time>2010-08-26T06:29:25Z</time>
      </trkpt><trkpt lat="44.29759744" lon="6.56825169">
        <ele>1866.1</ele>
        <time>2010-08-26T06:29:41Z</time>
      </trkpt><trkpt lat="44.29769459" lon="6.56840826">
        <ele>1838.2</ele>
        <time>2010-08-26T06:29:46Z</time>
      </trkpt><trkpt lat="44.29780799" lon="6.56839754">
        <ele>1861.7</ele>
        <time>2010-08-26T06:29:50Z</time>
      </trkpt><trkpt lat="44.29680602" lon="6.56938526">
        <ele>1858.8</ele>
        <time>2010-08-26T06:30:31Z</time>
      </trkpt><trkpt lat="44.29308437" lon="6.56963077">
        <ele>1835.3</ele>
        <time>2010-08-26T06:32:38Z</time>
      </trkpt><trkpt lat="44.29064163" lon="6.57167553">
        <ele>1812.7</ele>
        <time>2010-08-26T06:34:15Z</time>
      </trkpt><trkpt lat="44.28936482" lon="6.57219973">
        <ele>1802.1</ele>
        <time>2010-08-26T06:35:00Z</time>
      </trkpt><trkpt lat="44.29110767" lon="6.56931158">
        <ele>1794.9</ele>
        <time>2010-08-26T06:36:32Z</time>
      </trkpt><trkpt lat="44.28945710" lon="6.56912073">
        <ele>1793.5</ele>
        <time>2010-08-26T06:37:28Z</time>
      </trkpt><trkpt lat="44.28557276" lon="6.57244675">
        <ele>1777.1</ele>
        <time>2010-08-26T06:40:03Z</time>
      </trkpt><trkpt lat="44.28356915" lon="6.57242043">
        <ele>1765.6</ele>
        <time>2010-08-26T06:41:11Z</time>
      </trkpt><trkpt lat="44.28192630" lon="6.57378618">
        <ele>1765.1</ele>
        <time>2010-08-26T06:42:16Z</time>
      </trkpt><trkpt lat="44.28010516" lon="6.57463811">
        <ele>1753.6</ele>
        <time>2010-08-26T06:43:22Z</time>
      </trkpt><trkpt lat="44.27798999" lon="6.57764780">
        <ele>1735.3</ele>
        <time>2010-08-26T06:45:04Z</time>
      </trkpt><trkpt lat="44.27643171" lon="6.57890081">
        <ele>1725.2</ele>
        <time>2010-08-26T06:46:05Z</time>
      </trkpt><trkpt lat="44.27490235" lon="6.57892227">
        <ele>1713.2</ele>
        <time>2010-08-26T06:46:57Z</time>
      </trkpt><trkpt lat="44.27377263" lon="6.57965183">
        <ele>1710.8</ele>
        <time>2010-08-26T06:47:40Z</time>
      </trkpt><trkpt lat="44.27289580" lon="6.57914531">
        <ele>1707</ele>
        <time>2010-08-26T06:48:12Z</time>
      </trkpt><trkpt lat="44.27108548" lon="6.58012323">
        <ele>1694</ele>
        <time>2010-08-26T06:49:18Z</time>
      </trkpt><trkpt lat="44.26728010" lon="6.58078582">
        <ele>1668.5</ele>
        <time>2010-08-26T06:51:28Z</time>
      </trkpt><trkpt lat="44.26551663" lon="6.58201628">
        <ele>1655</ele>
        <time>2010-08-26T06:52:35Z</time>
      </trkpt><trkpt lat="44.26366280" lon="6.58269296">
        <ele>1645.4</ele>
        <time>2010-08-26T06:53:40Z</time>
      </trkpt><trkpt lat="44.26297188" lon="6.58420086">
        <ele>1630.1</ele>
        <time>2010-08-26T06:54:24Z</time>
      </trkpt><trkpt lat="44.26035773" lon="6.58681870">
        <ele>1610.8</ele>
        <time>2010-08-26T06:56:13Z</time>
      </trkpt><trkpt lat="44.25844130" lon="6.58943854">
        <ele>1588.7</ele>
        <time>2010-08-26T06:57:45Z</time>
      </trkpt><trkpt lat="44.25606695" lon="6.59363930">
        <ele>1572.4</ele>
        <time>2010-08-26T06:59:55Z</time>
      </trkpt><trkpt lat="44.25340528" lon="6.59715610">
        <ele>1556</ele>
        <time>2010-08-26T07:01:59Z</time>
      </trkpt><trkpt lat="44.25344468" lon="6.59820912">
        <ele>1547.9</ele>
        <time>2010-08-26T07:02:25Z</time>
      </trkpt><trkpt lat="44.25268519" lon="6.59829210">
        <ele>1545</ele>
        <time>2010-08-26T07:02:51Z</time>
      </trkpt><trkpt lat="44.25139270" lon="6.60030317">
        <ele>1537.8</ele>
        <time>2010-08-26T07:03:57Z</time>
      </trkpt><trkpt lat="44.24967902" lon="6.60133925">
        <ele>1529.6</ele>
        <time>2010-08-26T07:05:00Z</time>
      </trkpt><trkpt lat="44.24717233" lon="6.60497826">
        <ele>1509.4</ele>
        <time>2010-08-26T07:07:03Z</time>
      </trkpt><trkpt lat="44.24693940" lon="6.60754697">
        <ele>1500.8</ele>
        <time>2010-08-26T07:08:06Z</time>
      </trkpt><trkpt lat="44.24477578" lon="6.61505356">
        <ele>1470</ele>
        <time>2010-08-26T07:11:23Z</time>
      </trkpt><trkpt lat="44.24523846" lon="6.61747023">
        <ele>1465.7</ele>
        <time>2010-08-26T07:12:24Z</time>
      </trkpt><trkpt lat="44.24473286" lon="6.61987231">
        <ele>1462.8</ele>
        <time>2010-08-26T07:13:25Z</time>
      </trkpt><trkpt lat="44.24551338" lon="6.62334309">
        <ele>1455.1</ele>
        <time>2010-08-26T07:14:54Z</time>
      </trkpt><trkpt lat="44.24514818" lon="6.62450759">
        <ele>1456.5</ele>
        <time>2010-08-26T07:15:25Z</time>
      </trkpt><trkpt lat="44.24255725" lon="6.62608900">
        <ele>1455.6</ele>
        <time>2010-08-26T07:17:01Z</time>
      </trkpt><trkpt lat="44.23998074" lon="6.62979280">
        <ele>1439.2</ele>
        <time>2010-08-26T07:19:07Z</time>
      </trkpt><trkpt lat="44.23822674" lon="6.62890624">
        <ele>1430.1</ele>
        <time>2010-08-26T07:20:10Z</time>
      </trkpt><trkpt lat="44.23538989" lon="6.62930229">
        <ele>1424.8</ele>
        <time>2010-08-26T07:21:47Z</time>
      </trkpt><trkpt lat="44.23253099" lon="6.62892083">
        <ele>1424.3</ele>
        <time>2010-08-26T07:23:25Z</time>
      </trkpt><trkpt lat="44.22960780" lon="6.63002824">
        <ele>1410.9</ele>
        <time>2010-08-26T07:25:08Z</time>
      </trkpt><trkpt lat="44.22555590" lon="6.63328302">
        <ele>1387.3</ele>
        <time>2010-08-26T07:27:46Z</time>
      </trkpt><trkpt lat="44.21712078" lon="6.63473644">
        <ele>1368.1</ele>
        <time>2010-08-26T07:32:35Z</time>
      </trkpt><trkpt lat="44.21548404" lon="6.63599071">
        <ele>1362.8</ele>
        <time>2010-08-26T07:33:39Z</time>
      </trkpt><trkpt lat="44.20876184" lon="6.63780212">
        <ele>1349.3</ele>
        <time>2010-08-26T07:37:32Z</time>
      </trkpt><trkpt lat="44.20703609" lon="6.63685581">
        <ele>1346</ele>
        <time>2010-08-26T07:38:35Z</time>
      </trkpt><trkpt lat="44.20221608" lon="6.63638491">
        <ele>1344.5</ele>
        <time>2010-08-26T07:41:19Z</time>
      </trkpt><trkpt lat="44.20047138" lon="6.63557053">
        <ele>1343.6</ele>
        <time>2010-08-26T07:42:21Z</time>
      </trkpt><trkpt lat="44.19954485" lon="6.63577404">
        <ele>1339.3</ele>
        <time>2010-08-26T07:42:53Z</time>
      </trkpt><trkpt lat="44.19888318" lon="6.63661332">
        <ele>1334</ele>
        <time>2010-08-26T07:43:24Z</time>
      </trkpt><trkpt lat="44.19699449" lon="6.63593137">
        <ele>1332</ele>
        <time>2010-08-26T07:44:30Z</time>
      </trkpt><trkpt lat="44.19500320" lon="6.63608098">
        <ele>1322.4</ele>
        <time>2010-08-26T07:45:38Z</time>
      </trkpt><trkpt lat="44.19406023" lon="6.63571922">
        <ele>1317.6</ele>
        <time>2010-08-26T07:46:11Z</time>
      </trkpt><trkpt lat="44.19318860" lon="6.63460409">
        <ele>1311.9</ele>
        <time>2010-08-26T07:46:51Z</time>
      </trkpt><trkpt lat="44.19137123" lon="6.63506434">
        <ele>1303.2</ele>
        <time>2010-08-26T07:47:54Z</time>
      </trkpt><trkpt lat="44.18955521" lon="6.63488128">
        <ele>1298.9</ele>
        <time>2010-08-26T07:48:56Z</time>
      </trkpt><trkpt lat="44.18643161" lon="6.63176816">
        <ele>1296</ele>
        <time>2010-08-26T07:51:07Z</time>
      </trkpt><trkpt lat="44.18455348" lon="6.63175106">
        <ele>1294.1</ele>
        <time>2010-08-26T07:52:10Z</time>
      </trkpt><trkpt lat="44.18340105" lon="6.62995147">
        <ele>1283</ele>
        <time>2010-08-26T07:53:09Z</time>
      </trkpt><trkpt lat="44.18251408" lon="6.63047567">
        <ele>1276.8</ele>
        <time>2010-08-26T07:53:42Z</time>
      </trkpt><trkpt lat="44.18163825" lon="6.63026000">
        <ele>1270.5</ele>
        <time>2010-08-26T07:54:12Z</time>
      </trkpt><trkpt lat="44.18166021" lon="6.62896995">
        <ele>1263.8</ele>
        <time>2010-08-26T07:54:44Z</time>
      </trkpt><trkpt lat="44.18223387" lon="6.62796001">
        <ele>1261.4</ele>
        <time>2010-08-26T07:55:15Z</time>
      </trkpt><trkpt lat="44.18081305" lon="6.62714889">
        <ele>1260.4</ele>
        <time>2010-08-26T07:56:07Z</time>
      </trkpt><trkpt lat="44.18041827" lon="6.62597283">
        <ele>1258</ele>
        <time>2010-08-26T07:56:39Z</time>
      </trkpt><trkpt lat="44.17961159" lon="6.62547033">
        <ele>1255.1</ele>
        <time>2010-08-26T07:57:09Z</time>
      </trkpt><trkpt lat="44.18045263" lon="6.62600736">
        <ele>1258</ele>
        <time>2010-08-26T07:57:40Z</time>
      </trkpt><trkpt lat="44.18067224" lon="6.62675478">
        <ele>1259.5</ele>
        <time>2010-08-26T07:58:00Z</time>
      </trkpt><trkpt lat="44.18088070" lon="6.62584174">
        <ele>1255.1</ele>
        <time>2010-08-26T07:58:23Z</time>
      </trkpt><trkpt lat="44.65932794" lon="6.63996734">
        <ele>950.4</ele>
        <time>2010-08-26T12:29:32Z</time>
      </trkpt><trkpt lat="44.65730061" lon="6.63688456">
        <ele>956.2</ele>
        <time>2010-08-26T12:31:14Z</time>
      </trkpt><trkpt lat="44.65694145" lon="6.63165894">
        <ele>945.1</ele>
        <time>2010-08-26T12:33:20Z</time>
      </trkpt><trkpt lat="44.66006471" lon="6.62037891">
        <ele>927.3</ele>
        <time>2010-08-26T12:38:13Z</time>
      </trkpt><trkpt lat="44.66564471" lon="6.61432743">
        <ele>909.5</ele>
        <time>2010-08-26T12:42:13Z</time>
      </trkpt><trkpt lat="44.66030108" lon="6.61997390">
        <ele>926.8</ele>
        <time>2010-08-26T12:46:00Z</time>
      </trkpt><trkpt lat="44.65843594" lon="6.63308404">
        <ele>954.7</ele>
        <time>2010-08-26T12:51:23Z</time>
      </trkpt><trkpt lat="44.65990906" lon="6.64061191">
        <ele>982.1</ele>
        <time>2010-08-26T12:54:32Z</time>
      </trkpt><trkpt lat="44.65819630" lon="6.65039803">
        <ele>1015.8</ele>
        <time>2010-08-26T12:58:36Z</time>
      </trkpt><trkpt lat="44.65593017" lon="6.65249887">
        <ele>1033.6</ele>
        <time>2010-08-26T13:00:08Z</time>
      </trkpt><trkpt lat="44.65417425" lon="6.64961700">
        <ele>1063.4</ele>
        <time>2010-08-26T13:01:40Z</time>
      </trkpt><trkpt lat="44.65355063" lon="6.65209905">
        <ele>1085.5</ele>
        <time>2010-08-26T13:02:43Z</time>
      </trkpt><trkpt lat="44.65275360" lon="6.64992437">
        <ele>1102.8</ele>
        <time>2010-08-26T13:03:43Z</time>
      </trkpt><trkpt lat="44.65073331" lon="6.65052669">
        <ele>1123</ele>
        <time>2010-08-26T13:04:53Z</time>
      </trkpt><trkpt lat="44.65004390" lon="6.65424708">
        <ele>1150.8</ele>
        <time>2010-08-26T13:06:26Z</time>
      </trkpt><trkpt lat="44.64367642" lon="6.65700289">
        <ele>1212.8</ele>
        <time>2010-08-26T13:10:12Z</time>
      </trkpt><trkpt lat="44.64586971" lon="6.65711872">
        <ele>1223.9</ele>
        <time>2010-08-26T13:11:27Z</time>
      </trkpt><trkpt lat="44.64112614" lon="6.66226077">
        <ele>1291.7</ele>
        <time>2010-08-26T13:14:51Z</time>
      </trkpt><trkpt lat="44.64323268" lon="6.66287860">
        <ele>1321.5</ele>
        <time>2010-08-26T13:16:04Z</time>
      </trkpt><trkpt lat="44.64033463" lon="6.66570707">
        <ele>1360.9</ele>
        <time>2010-08-26T13:18:04Z</time>
      </trkpt><trkpt lat="44.63746316" lon="6.66571269">
        <ele>1388.3</ele>
        <time>2010-08-26T13:19:41Z</time>
      </trkpt><trkpt lat="44.63971680" lon="6.66683452">
        <ele>1417.6</ele>
        <time>2010-08-26T13:21:03Z</time>
      </trkpt><trkpt lat="44.63659681" lon="6.66842331">
        <ele>1452.7</ele>
        <time>2010-08-26T13:22:55Z</time>
      </trkpt><trkpt lat="44.63732184" lon="6.66988704">
        <ele>1470.5</ele>
        <time>2010-08-26T13:23:39Z</time>
      </trkpt><trkpt lat="44.63303090" lon="6.67150140">
        <ele>1512.3</ele>
        <time>2010-08-26T13:26:10Z</time>
      </trkpt><trkpt lat="44.63437024" lon="6.67527175">
        <ele>1537.8</ele>
        <time>2010-08-26T13:27:51Z</time>
      </trkpt><trkpt lat="44.62813729" lon="6.68090866">
        <ele>1604.1</ele>
        <time>2010-08-26T13:32:03Z</time>
      </trkpt><trkpt lat="44.62569363" lon="6.68054463">
        <ele>1618.5</ele>
        <time>2010-08-26T13:33:27Z</time>
      </trkpt><trkpt lat="44.62495652" lon="6.68292526">
        <ele>1622.8</ele>
        <time>2010-08-26T13:34:30Z</time>
      </trkpt><trkpt lat="44.61882860" lon="6.68391600">
        <ele>1650.7</ele>
        <time>2010-08-26T13:37:59Z</time>
      </trkpt><trkpt lat="44.60929594" lon="6.68847492">
        <ele>1633.9</ele>
        <time>2010-08-26T13:43:42Z</time>
      </trkpt><trkpt lat="44.59511259" lon="6.68990135">
        <ele>1648.3</ele>
        <time>2010-08-26T13:51:45Z</time>
      </trkpt><trkpt lat="44.59569765" lon="6.68848355">
        <ele>1639.2</ele>
        <time>2010-08-26T13:52:25Z</time>
      </trkpt><trkpt lat="44.59315592" lon="6.68939634">
        <ele>1656</ele>
        <time>2010-08-26T13:53:54Z</time>
      </trkpt><trkpt lat="44.58706781" lon="6.68685855">
        <ele>1717.1</ele>
        <time>2010-08-26T13:57:30Z</time>
      </trkpt><trkpt lat="44.58343585" lon="6.68282032">
        <ele>1756.5</ele>
        <time>2010-08-26T14:00:07Z</time>
      </trkpt><trkpt lat="44.58020211" lon="6.68453693">
        <ele>1778.6</ele>
        <time>2010-08-26T14:02:05Z</time>
      </trkpt><trkpt lat="44.57189044" lon="6.68010995">
        <ele>1855.5</ele>
        <time>2010-08-26T14:07:07Z</time>
      </trkpt><trkpt lat="44.56884320" lon="6.68469242">
        <ele>1905</ele>
        <time>2010-08-26T14:09:39Z</time>
      </trkpt><trkpt lat="44.56059348" lon="6.69076301">
        <ele>1951.6</ele>
        <time>2010-08-26T14:14:56Z</time>
      </trkpt><trkpt lat="44.55524910" lon="6.69863035">
        <ele>1990.5</ele>
        <time>2010-08-26T14:19:19Z</time>
      </trkpt><trkpt lat="44.54804644" lon="6.70281460">
        <ele>2047.3</ele>
        <time>2010-08-26T14:23:44Z</time>
      </trkpt><trkpt lat="44.53954661" lon="6.70237362">
        <ele>2098.7</ele>
        <time>2010-08-26T14:28:33Z</time>
      </trkpt><trkpt lat="44.53347593" lon="6.70466499">
        <ele>2048.7</ele>
        <time>2010-08-26T14:32:07Z</time>
      </trkpt><trkpt lat="44.53202695" lon="6.70151129">
        <ele>2021.3</ele>
        <time>2010-08-26T14:33:38Z</time>
      </trkpt><trkpt lat="44.53276422" lon="6.70863415">
        <ele>1975.2</ele>
        <time>2010-08-26T14:36:32Z</time>
      </trkpt><trkpt lat="44.53128423" lon="6.71301093">
        <ele>1934.3</ele>
        <time>2010-08-26T14:38:30Z</time>
      </trkpt><trkpt lat="44.53059197" lon="6.71002865">
        <ele>1906.9</ele>
        <time>2010-08-26T14:39:46Z</time>
      </trkpt><trkpt lat="44.52954641" lon="6.71219294">
        <ele>1889.6</ele>
        <time>2010-08-26T14:40:49Z</time>
      </trkpt><trkpt lat="44.52888583" lon="6.72178242">
        <ele>1816.1</ele>
        <time>2010-08-26T14:44:42Z</time>
      </trkpt><trkpt lat="44.52702555" lon="6.71505637">
        <ele>1748.3</ele>
        <time>2010-08-26T14:47:37Z</time>
      </trkpt><trkpt lat="44.52493888" lon="6.73168405">
        <ele>1662.7</ele>
        <time>2010-08-26T14:54:26Z</time>
      </trkpt><trkpt lat="44.52267593" lon="6.73933463">
        <ele>1618</ele>
        <time>2010-08-26T14:57:47Z</time>
      </trkpt><trkpt lat="44.52015826" lon="6.74081722">
        <ele>1597.4</ele>
        <time>2010-08-26T14:59:20Z</time>
      </trkpt><trkpt lat="44.52029128" lon="6.74333397">
        <ele>1583.9</ele>
        <time>2010-08-26T15:00:21Z</time>
      </trkpt><trkpt lat="44.51753573" lon="6.74686996">
        <ele>1550.7</ele>
        <time>2010-08-26T15:02:28Z</time>
      </trkpt><trkpt lat="44.51762433" lon="6.75248575">
        <ele>1509.9</ele>
        <time>2010-08-26T15:04:44Z</time>
      </trkpt><trkpt lat="44.51490817" lon="6.74943214">
        <ele>1483</ele>
        <time>2010-08-26T15:06:43Z</time>
      </trkpt><trkpt lat="44.51485268" lon="6.74407577">
        <ele>1470</ele>
        <time>2010-08-26T15:08:53Z</time>
      </trkpt><trkpt lat="44.51094705" lon="6.74450317">
        <ele>1454.6</ele>
        <time>2010-08-26T15:11:06Z</time>
      </trkpt><trkpt lat="44.50987484" lon="6.74663544">
        <ele>1438.8</ele>
        <time>2010-08-26T15:12:09Z</time>
      </trkpt><trkpt lat="44.50475509" lon="6.74474113">
        <ele>1421.4</ele>
        <time>2010-08-26T15:15:09Z</time>
      </trkpt><trkpt lat="44.50219349" lon="6.74061463">
        <ele>1398.4</ele>
        <time>2010-08-26T15:17:22Z</time>
      </trkpt><trkpt lat="44.49847570" lon="6.73925400">
        <ele>1392.1</ele>
        <time>2010-08-26T15:19:32Z</time>
      </trkpt><trkpt lat="44.48904941" lon="6.74395935">
        <ele>1365.7</ele>
        <time>2010-08-26T15:25:12Z</time>
      </trkpt><trkpt lat="44.48112281" lon="6.75232248">
        <ele>1340.7</ele>
        <time>2010-08-26T15:30:50Z</time>
      </trkpt><trkpt lat="44.47629216" lon="6.76065325">
        <ele>1328.2</ele>
        <time>2010-08-26T15:35:10Z</time>
      </trkpt><trkpt lat="44.47104047" lon="6.76371826">
        <ele>1326.8</ele>
        <time>2010-08-26T15:38:23Z</time>
      </trkpt><trkpt lat="44.46746987" lon="6.76181247">
        <ele>1320</ele>
        <time>2010-08-26T15:40:33Z</time>
      </trkpt><trkpt lat="44.46520374" lon="6.75743678">
        <ele>1311.4</ele>
        <time>2010-08-26T15:42:45Z</time>
      </trkpt><trkpt lat="44.46490283" lon="6.75232155">
        <ele>1310.4</ele>
        <time>2010-08-26T15:44:49Z</time>
      </trkpt><trkpt lat="44.45731293" lon="6.74440292">
        <ele>1303.7</ele>
        <time>2010-08-26T15:50:11Z</time>
      </trkpt><trkpt lat="44.44761230" lon="6.74023175">
        <ele>1285.4</ele>
        <time>2010-08-26T15:55:56Z</time>
      </trkpt><trkpt lat="44.44423917" lon="6.74259955">
        <ele>1280.1</ele>
        <time>2010-08-26T15:58:04Z</time>
      </trkpt><trkpt lat="44.43489972" lon="6.74398810">
        <ele>1264.8</ele>
        <time>2010-08-26T16:03:23Z</time>
      </trkpt><trkpt lat="44.42956967" lon="6.73647255">
        <ele>1249.9</ele>
        <time>2010-08-26T16:07:40Z</time>
      </trkpt><trkpt lat="44.42106908" lon="6.73686734">
        <ele>1234</ele>
        <time>2010-08-26T16:12:30Z</time>
      </trkpt><trkpt lat="44.41663438" lon="6.72874343">
        <ele>1229.7</ele>
        <time>2010-08-26T16:16:38Z</time>
      </trkpt><trkpt lat="44.41007445" lon="6.72771413">
        <ele>1232.5</ele>
        <time>2010-08-26T16:20:22Z</time>
      </trkpt><trkpt lat="44.40575433" lon="6.71725737">
        <ele>1222.9</ele>
        <time>2010-08-26T16:25:16Z</time>
      </trkpt><trkpt lat="44.40387067" lon="6.70228142">
        <ele>1200.8</ele>
        <time>2010-08-26T16:31:25Z</time>
      </trkpt><trkpt lat="44.39934670" lon="6.69411711">
        <ele>1197.9</ele>
        <time>2010-08-26T16:35:36Z</time>
      </trkpt><trkpt lat="44.39279080" lon="6.68694019">
        <ele>1189.8</ele>
        <time>2010-08-26T16:40:19Z</time>
      </trkpt><trkpt lat="44.39167844" lon="6.68309156">
        <ele>1188.8</ele>
        <time>2010-08-26T16:42:00Z</time>
      </trkpt><trkpt lat="44.39136713" lon="6.67192603">
        <ele>1175.8</ele>
        <time>2010-08-26T16:46:31Z</time>
      </trkpt><trkpt lat="44.38856070" lon="6.66237409">
        <ele>1161.9</ele>
        <time>2010-08-26T16:50:42Z</time>
      </trkpt><trkpt lat="44.38631058" lon="6.64302430">
        <ele>1148.4</ele>
        <time>2010-08-26T16:58:38Z</time>
      </trkpt><trkpt lat="44.38547910" lon="6.60673401">
        <ele>1140.3</ele>
        <time>2010-08-26T17:13:20Z</time>
      </trkpt><trkpt lat="44.39076422" lon="6.58940191">
        <ele>1123.4</ele>
        <time>2010-08-26T17:20:58Z</time>
      </trkpt><trkpt lat="44.39014782" lon="6.58122495">
        <ele>1127.8</ele>
        <time>2010-08-26T17:24:18Z</time>
      </trkpt><trkpt lat="44.39338717" lon="6.57299065">
        <ele>1119.1</ele>
        <time>2010-08-26T17:28:06Z</time>
      </trkpt><trkpt lat="44.39327561" lon="6.57370194">
        <ele>1113.3</ele>
        <time>2010-08-26T17:28:24Z</time>
      </trkpt><trkpt lat="44.39136738" lon="6.57148836">
        <ele>1107.1</ele>
        <time>2010-08-26T17:29:48Z</time>
      </trkpt><trkpt lat="44.38527642" lon="6.58407681">
        <ele>1141.2</ele>
        <time>2010-08-26T17:35:57Z</time>
      </trkpt><trkpt lat="44.38166944" lon="6.61164966">
        <ele>1133.5</ele>
        <time>2010-08-26T17:47:18Z</time>
      </trkpt><trkpt lat="44.37617049" lon="6.62109456">
        <ele>1143.6</ele>
        <time>2010-08-26T17:52:14Z</time>
      </trkpt><trkpt lat="44.36680128" lon="6.62499466">
        <ele>1215.7</ele>
        <time>2010-08-26T17:57:47Z</time>
      </trkpt><trkpt lat="44.35642985" lon="6.62019409">
        <ele>1311.4</ele>
        <time>2010-08-26T18:03:58Z</time>
      </trkpt><trkpt lat="44.35193246" lon="6.61417656">
        <ele>1361.8</ele>
        <time>2010-08-26T18:07:30Z</time>
      </trkpt><trkpt lat="44.34604107" lon="6.61667042">
        <ele>1415.2</ele>
        <time>2010-08-26T18:10:59Z</time>
      </trkpt><trkpt lat="44.33407590" lon="6.61098247">
        <ele>1524.8</ele>
        <time>2010-08-26T18:18:09Z</time>
      </trkpt><trkpt lat="44.33324601" lon="6.60929913">
        <ele>1541.6</ele>
        <time>2010-08-26T18:18:58Z</time>
      </trkpt><trkpt lat="44.33647564" lon="6.60066837">
        <ele>1582.5</ele>
        <time>2010-08-26T18:22:55Z</time>
      </trkpt><trkpt lat="44.33408353" lon="6.59896935">
        <ele>1595.4</ele>
        <time>2010-08-26T18:24:26Z</time>
      </trkpt><trkpt lat="44.33636265" lon="6.58290267">
        <ele>1664.7</ele>
        <time>2010-08-26T18:31:05Z</time>
      </trkpt><trkpt lat="44.33231185" lon="6.58455315">
        <ele>1691.1</ele>
        <time>2010-08-26T18:33:28Z</time>
      </trkpt><trkpt lat="44.33011285" lon="6.58776233">
        <ele>1717.5</ele>
        <time>2010-08-26T18:35:16Z</time>
      </trkpt><trkpt lat="44.33092481" lon="6.58971448">
        <ele>1729.5</ele>
        <time>2010-08-26T18:36:11Z</time>
      </trkpt><trkpt lat="44.32780096" lon="6.59262702">
        <ele>1785.8</ele>
        <time>2010-08-26T18:38:19Z</time>
      </trkpt><trkpt lat="44.32834754" lon="6.59771852">
        <ele>1816.1</ele>
        <time>2010-08-26T18:40:24Z</time>
      </trkpt><trkpt lat="44.32554354" lon="6.60369440">
        <ele>1868</ele>
        <time>2010-08-26T18:43:18Z</time>
      </trkpt><trkpt lat="44.32094708" lon="6.60085461">
        <ele>1912.7</ele>
        <time>2010-08-26T18:46:09Z</time>
      </trkpt><trkpt lat="44.31658178" lon="6.59417046">
        <ele>1974.2</ele>
        <time>2010-08-26T18:49:49Z</time>
      </trkpt><trkpt lat="44.31503901" lon="6.59463901">
        <ele>1985.7</ele>
        <time>2010-08-26T18:50:42Z</time>
      </trkpt><trkpt lat="44.31819731" lon="6.59362597">
        <ele>2015.5</ele>
        <time>2010-08-26T18:52:33Z</time>
      </trkpt><trkpt lat="44.31650777" lon="6.59257958">
        <ele>2032.8</ele>
        <time>2010-08-26T18:53:35Z</time>
      </trkpt><trkpt lat="44.31087924" lon="6.59239124">
        <ele>2075.6</ele>
        <time>2010-08-26T18:56:47Z</time>
      </trkpt><trkpt lat="44.31060791" lon="6.59727353">
        <ele>2104</ele>
        <time>2010-08-26T18:58:46Z</time>
      </trkpt><trkpt lat="44.30557592" lon="6.59438487">
        <ele>2151.6</ele>
        <time>2010-08-26T19:01:51Z</time>
      </trkpt><trkpt lat="44.30219206" lon="6.59647968">
        <ele>2177.5</ele>
        <time>2010-08-26T19:03:57Z</time>
      </trkpt><trkpt lat="44.29751840" lon="6.59588230">
        <ele>2216.9</ele>
        <time>2010-08-26T19:06:36Z</time>
      </trkpt><trkpt lat="44.29807378" lon="6.59130285">
        <ele>2228</ele>
        <time>2010-08-26T19:08:29Z</time>
      </trkpt><trkpt lat="44.30236582" lon="6.58501198">
        <ele>2174.2</ele>
        <time>2010-08-26T19:12:01Z</time>
      </trkpt><trkpt lat="44.29910903" lon="6.58750400">
        <ele>2139.6</ele>
        <time>2010-08-26T19:14:07Z</time>
      </trkpt><trkpt lat="44.30265567" lon="6.58206792">
        <ele>2097.7</ele>
        <time>2010-08-26T19:17:06Z</time>
      </trkpt><trkpt lat="44.30054946" lon="6.57990539">
        <ele>2077.1</ele>
        <time>2010-08-26T19:18:35Z</time>
      </trkpt><trkpt lat="44.30027093" lon="6.57587595">
        <ele>2051.6</ele>
        <time>2010-08-26T19:20:13Z</time>
      </trkpt><trkpt lat="44.29923853" lon="6.57969953">
        <ele>2021.3</ele>
        <time>2010-08-26T19:21:53Z</time>
      </trkpt><trkpt lat="44.29890837" lon="6.57441759">
        <ele>1991</ele>
        <time>2010-08-26T19:24:02Z</time>
      </trkpt><trkpt lat="44.29800095" lon="6.57661448">
        <ele>1966.5</ele>
        <time>2010-08-26T19:25:03Z</time>
      </trkpt><trkpt lat="44.29730139" lon="6.57268329">
        <ele>1922.8</ele>
        <time>2010-08-26T19:26:42Z</time>
      </trkpt><trkpt lat="44.29956224" lon="6.56715517">
        <ele>1883.8</ele>
        <time>2010-08-26T19:29:17Z</time>
      </trkpt><trkpt lat="44.28936482" lon="6.57219973">
        <ele>1802.1</ele>
        <time>2010-08-26T19:35:25Z</time>
      </trkpt><trkpt lat="44.29110767" lon="6.56931158">
        <ele>1794.9</ele>
        <time>2010-08-26T19:36:56Z</time>
      </trkpt><trkpt lat="44.28945710" lon="6.56912073">
        <ele>1793.5</ele>
        <time>2010-08-26T19:37:53Z</time>
      </trkpt><trkpt lat="44.28010516" lon="6.57463811">
        <ele>1753.6</ele>
        <time>2010-08-26T19:43:38Z</time>
      </trkpt><trkpt lat="44.27643171" lon="6.57890081">
        <ele>1725.2</ele>
        <time>2010-08-26T19:46:20Z</time>
      </trkpt><trkpt lat="44.26366280" lon="6.58269296">
        <ele>1645.4</ele>
        <time>2010-08-26T19:53:44Z</time>
      </trkpt><trkpt lat="44.24717233" lon="6.60497826">
        <ele>1509.4</ele>
        <time>2010-08-26T20:06:44Z</time>
      </trkpt><trkpt lat="44.24477578" lon="6.61505356">
        <ele>1470</ele>
        <time>2010-08-26T20:11:03Z</time>
      </trkpt><trkpt lat="44.24551338" lon="6.62334309">
        <ele>1455.1</ele>
        <time>2010-08-26T20:14:26Z</time>
      </trkpt><trkpt lat="44.23998074" lon="6.62979280">
        <ele>1439.2</ele>
        <time>2010-08-26T20:18:31Z</time>
      </trkpt><trkpt lat="44.23253099" lon="6.62892083">
        <ele>1424.3</ele>
        <time>2010-08-26T20:22:45Z</time>
      </trkpt><trkpt lat="44.22555590" lon="6.63328302">
        <ele>1387.3</ele>
        <time>2010-08-26T20:27:05Z</time>
      </trkpt><trkpt lat="44.20876184" lon="6.63780212">
        <ele>1349.3</ele>
        <time>2010-08-26T20:36:47Z</time>
      </trkpt><trkpt lat="44.18955521" lon="6.63488128">
        <ele>1298.9</ele>
        <time>2010-08-26T20:47:43Z</time>
      </trkpt><trkpt lat="44.18340105" lon="6.62995147">
        <ele>1283</ele>
        <time>2010-08-26T20:51:45Z</time>
      </trkpt><trkpt lat="44.18163825" lon="6.63026000">
        <ele>1270.5</ele>
        <time>2010-08-26T20:52:45Z</time>
      </trkpt><trkpt lat="44.18223387" lon="6.62796001">
        <ele>1261.4</ele>
        <time>2010-08-26T20:53:45Z</time>
      </trkpt><trkpt lat="44.17961159" lon="6.62547033">
        <ele>1255.1</ele>
        <time>2010-08-26T20:55:33Z</time>
      </trkpt><trkpt lat="44.18336861" lon="6.63097926">
        <ele>1277.2</ele>
        <time>2010-08-26T20:58:38Z</time>
      </trkpt><trkpt lat="44.18010235" lon="6.63243771">
        <ele>1312.3</ele>
        <time>2010-08-26T21:00:34Z</time>
      </trkpt><trkpt lat="44.18546702" lon="6.63350280">
        <ele>1366.7</ele>
        <time>2010-08-26T21:03:39Z</time>
      </trkpt><trkpt lat="44.18167823" lon="6.63425029">
        <ele>1407</ele>
        <time>2010-08-26T21:05:49Z</time>
      </trkpt><trkpt lat="44.18529511" lon="6.63647175">
        <ele>1451.7</ele>
        <time>2010-08-26T21:08:03Z</time>
      </trkpt><trkpt lat="44.18041642" lon="6.63706871">
        <ele>1536.3</ele>
        <time>2010-08-26T21:10:50Z</time>
      </trkpt><trkpt lat="44.18207646" lon="6.64205074">
        <ele>1598.8</ele>
        <time>2010-08-26T21:13:04Z</time>
      </trkpt><trkpt lat="44.18559325" lon="6.64449231">
        <ele>1642.1</ele>
        <time>2010-08-26T21:15:17Z</time>
      </trkpt><trkpt lat="44.18854611" lon="6.66506368">
        <ele>1765.6</ele>
        <time>2010-08-26T21:23:49Z</time>
      </trkpt><trkpt lat="44.18490569" lon="6.65955710">
        <ele>1822.3</ele>
        <time>2010-08-26T21:26:51Z</time>
      </trkpt><trkpt lat="44.18510048" lon="6.67061702">
        <ele>1898.7</ele>
        <time>2010-08-26T21:31:21Z</time>
      </trkpt><trkpt lat="44.18186632" lon="6.67274200">
        <ele>1927.1</ele>
        <time>2010-08-26T21:33:22Z</time>
      </trkpt><trkpt lat="44.17768510" lon="6.68665269">
        <ele>2025.6</ele>
        <time>2010-08-26T21:39:30Z</time>
      </trkpt><trkpt lat="44.17583471" lon="6.68647751">
        <ele>2060.7</ele>
        <time>2010-08-26T21:40:33Z</time>
      </trkpt><trkpt lat="44.17498403" lon="6.69789501">
        <ele>2085.7</ele>
        <time>2010-08-26T21:45:13Z</time>
      </trkpt><trkpt lat="44.16682525" lon="6.70229475">
        <ele>2049.7</ele>
        <time>2010-08-26T21:50:10Z</time>
      </trkpt><trkpt lat="44.16875803" lon="6.70425922">
        <ele>2008.3</ele>
        <time>2010-08-26T21:51:32Z</time>
      </trkpt><trkpt lat="44.16410113" lon="6.70707361">
        <ele>1940.6</ele>
        <time>2010-08-26T21:54:24Z</time>
      </trkpt><trkpt lat="44.16661973" lon="6.70800450">
        <ele>1918.4</ele>
        <time>2010-08-26T21:55:53Z</time>
      </trkpt><trkpt lat="44.16559789" lon="6.71302250">
        <ele>1864.1</ele>
        <time>2010-08-26T21:58:00Z</time>
      </trkpt><trkpt lat="44.16252408" lon="6.71128837">
        <ele>1830.5</ele>
        <time>2010-08-26T21:59:53Z</time>
      </trkpt><trkpt lat="44.15865859" lon="6.71509777">
        <ele>1819.9</ele>
        <time>2010-08-26T22:02:34Z</time>
      </trkpt><trkpt lat="44.15890217" lon="6.72550298">
        <ele>1759.4</ele>
        <time>2010-08-26T22:06:48Z</time>
      </trkpt><trkpt lat="44.15665146" lon="6.72468650">
        <ele>1738.7</ele>
        <time>2010-08-26T22:08:07Z</time>
      </trkpt><trkpt lat="44.15819792" lon="6.72787372">
        <ele>1703.6</ele>
        <time>2010-08-26T22:09:40Z</time>
      </trkpt><trkpt lat="44.15670100" lon="6.72728799">
        <ele>1687.7</ele>
        <time>2010-08-26T22:10:33Z</time>
      </trkpt><trkpt lat="44.15684224" lon="6.73054218">
        <ele>1627.6</ele>
        <time>2010-08-26T22:11:53Z</time>
      </trkpt><trkpt lat="44.15382483" lon="6.73191246">
        <ele>1608.4</ele>
        <time>2010-08-26T22:13:41Z</time>
      </trkpt><trkpt lat="44.15657619" lon="6.74005799">
        <ele>1615.2</ele>
        <time>2010-08-26T22:17:20Z</time>
      </trkpt><trkpt lat="44.13902642" lon="6.75010488">
        <ele>1470</ele>
        <time>2010-08-26T22:28:05Z</time>
      </trkpt><trkpt lat="44.13531290" lon="6.75716889">
        <ele>1408.9</ele>
        <time>2010-08-26T22:31:39Z</time>
      </trkpt><trkpt lat="44.14151584" lon="6.75217629">
        <ele>1326.8</ele>
        <time>2010-08-26T22:35:42Z</time>
      </trkpt><trkpt lat="44.13465416" lon="6.76092700">
        <ele>1217.6</ele>
        <time>2010-08-26T22:40:59Z</time>
      </trkpt><trkpt lat="44.13595562" lon="6.76176150">
        <ele>1201.8</ele>
        <time>2010-08-26T22:41:47Z</time>
      </trkpt><trkpt lat="44.13328171" lon="6.76199913">
        <ele>1179.7</ele>
        <time>2010-08-26T22:43:18Z</time>
      </trkpt><trkpt lat="44.13653322" lon="6.76297763">
        <ele>1131.1</ele>
        <time>2010-08-26T22:45:11Z</time>
      </trkpt><trkpt lat="44.14293766" lon="6.75852299">
        <ele>1079.2</ele>
        <time>2010-08-26T22:49:15Z</time>
      </trkpt><trkpt lat="44.14310354" lon="6.75968036">
        <ele>1073.9</ele>
        <time>2010-08-26T22:49:44Z</time>
      </trkpt><trkpt lat="44.12953492" lon="6.77435607">
        <ele>1004.2</ele>
        <time>2010-08-26T22:59:28Z</time>
      </trkpt><trkpt lat="44.11852856" lon="6.79779086">
        <ele>962.4</ele>
        <time>2010-08-26T23:10:51Z</time>
      </trkpt><trkpt lat="44.11848472" lon="6.80380530">
        <ele>930.7</ele>
        <time>2010-08-26T23:13:18Z</time>
      </trkpt><trkpt lat="44.10908760" lon="6.82446770">
        <ele>909.5</ele>
        <time>2010-08-26T23:23:15Z</time>
      </trkpt><trkpt lat="44.10894796" lon="6.83238373">
        <ele>904.3</ele>
        <time>2010-08-26T23:26:28Z</time>
      </trkpt><trkpt lat="44.11214079" lon="6.83631619">
        <ele>888.9</ele>
        <time>2010-08-26T23:28:53Z</time>
      </trkpt><trkpt lat="44.10809040" lon="6.83881760">
        <ele>888.4</ele>
        <time>2010-08-26T23:31:24Z</time>
      </trkpt><trkpt lat="44.10395511" lon="6.84919406">
        <ele>863.4</ele>
        <time>2010-08-26T23:36:13Z</time>
      </trkpt><trkpt lat="44.10034930" lon="6.84868754">
        <ele>848.5</ele>
        <time>2010-08-26T23:38:16Z</time>
      </trkpt><trkpt lat="44.09443251" lon="6.85230777">
        <ele>824.9</ele>
        <time>2010-08-26T23:41:56Z</time>
      </trkpt><trkpt lat="44.08717890" lon="6.85373160">
        <ele>816.3</ele>
        <time>2010-08-26T23:46:05Z</time>
      </trkpt><trkpt lat="44.08482216" lon="6.85784536">
        <ele>845.6</ele>
        <time>2010-08-26T23:48:14Z</time>
      </trkpt><trkpt lat="44.08643425" lon="6.85615540">
        <ele>867.7</ele>
        <time>2010-08-26T23:49:22Z</time>
      </trkpt><trkpt lat="44.08895754" lon="6.85796966">
        <ele>892.7</ele>
        <time>2010-08-26T23:50:59Z</time>
      </trkpt><trkpt lat="44.08361919" lon="6.86068364">
        <ele>947.5</ele>
        <time>2010-08-26T23:54:12Z</time>
      </trkpt><trkpt lat="44.08504336" lon="6.87348724">
        <ele>1020.6</ele>
        <time>2010-08-26T23:59:28Z</time>
      </trkpt><trkpt lat="44.08014757" lon="6.88355265">
        <ele>1103.3</ele>
        <time>2010-08-27T00:04:25Z</time>
      </trkpt><trkpt lat="44.08201900" lon="6.89458349">
        <ele>1176.3</ele>
        <time>2010-08-27T00:09:02Z</time>
      </trkpt><trkpt lat="44.08095215" lon="6.89924240">
        <ele>1207.1</ele>
        <time>2010-08-27T00:11:01Z</time>
      </trkpt><trkpt lat="44.08476416" lon="6.89515740">
        <ele>1248.9</ele>
        <time>2010-08-27T00:13:45Z</time>
      </trkpt><trkpt lat="44.08349991" lon="6.88825607">
        <ele>1295.5</ele>
        <time>2010-08-27T00:16:39Z</time>
      </trkpt><trkpt lat="44.08408438" lon="6.89202441">
        <ele>1324.4</ele>
        <time>2010-08-27T00:18:13Z</time>
      </trkpt><trkpt lat="44.08745760" lon="6.89378687">
        <ele>1356.1</ele>
        <time>2010-08-27T00:20:15Z</time>
      </trkpt><trkpt lat="44.08642528" lon="6.90143142">
        <ele>1394</ele>
        <time>2010-08-27T00:23:25Z</time>
      </trkpt><trkpt lat="44.08783436" lon="6.90495014">
        <ele>1421.9</ele>
        <time>2010-08-27T00:25:04Z</time>
      </trkpt><trkpt lat="44.08551693" lon="6.90602537">
        <ele>1443.1</ele>
        <time>2010-08-27T00:26:27Z</time>
      </trkpt><trkpt lat="44.08538081" lon="6.90870289">
        <ele>1458.9</ele>
        <time>2010-08-27T00:27:32Z</time>
      </trkpt><trkpt lat="44.08367157" lon="6.90821573">
        <ele>1472.4</ele>
        <time>2010-08-27T00:28:32Z</time>
      </trkpt><trkpt lat="44.08791843" lon="6.91092476">
        <ele>1513.3</ele>
        <time>2010-08-27T00:31:10Z</time>
      </trkpt><trkpt lat="44.08585573" lon="6.91142349">
        <ele>1534.9</ele>
        <time>2010-08-27T00:32:22Z</time>
      </trkpt><trkpt lat="44.08454790" lon="6.91475747">
        <ele>1559.9</ele>
        <time>2010-08-27T00:33:54Z</time>
      </trkpt><trkpt lat="44.08622923" lon="6.91854802">
        <ele>1588.7</ele>
        <time>2010-08-27T00:35:43Z</time>
      </trkpt><trkpt lat="44.08608028" lon="6.91477566">
        <ele>1613.7</ele>
        <time>2010-08-27T00:37:15Z</time>
      </trkpt><trkpt lat="44.08811222" lon="6.91487038">
        <ele>1628.6</ele>
        <time>2010-08-27T00:38:25Z</time>
      </trkpt><trkpt lat="44.09075261" lon="6.92421913">
        <ele>1667.1</ele>
        <time>2010-08-27T00:42:30Z</time>
      </trkpt><trkpt lat="44.09463150" lon="6.92665542">
        <ele>1662.7</ele>
        <time>2010-08-27T00:44:55Z</time>
      </trkpt><trkpt lat="44.09521580" lon="6.92902624">
        <ele>1665.6</ele>
        <time>2010-08-27T00:45:56Z</time>
      </trkpt><trkpt lat="44.08685930" lon="6.94285227">
        <ele>1609.9</ele>
        <time>2010-08-27T00:53:17Z</time>
      </trkpt><trkpt lat="44.08983780" lon="6.94834845">
        <ele>1570</ele>
        <time>2010-08-27T00:56:05Z</time>
      </trkpt><trkpt lat="44.08861522" lon="6.95030378">
        <ele>1558.4</ele>
        <time>2010-08-27T00:57:08Z</time>
      </trkpt><trkpt lat="44.08956556" lon="6.95204772">
        <ele>1545.5</ele>
        <time>2010-08-27T00:58:02Z</time>
      </trkpt><trkpt lat="44.08613225" lon="6.95590113">
        <ele>1536.3</ele>
        <time>2010-08-27T01:00:32Z</time>
      </trkpt><trkpt lat="44.08595296" lon="6.95970467">
        <ele>1537.3</ele>
        <time>2010-08-27T01:02:05Z</time>
      </trkpt><trkpt lat="44.08674455" lon="6.96334007">
        <ele>1543.5</ele>
        <time>2010-08-27T01:03:38Z</time>
      </trkpt><trkpt lat="44.09001894" lon="6.96542700">
        <ele>1554.6</ele>
        <time>2010-08-27T01:05:40Z</time>
      </trkpt><trkpt lat="44.09118494" lon="6.97139399">
        <ele>1546.9</ele>
        <time>2010-08-27T01:08:11Z</time>
      </trkpt><trkpt lat="44.09442639" lon="6.97377781">
        <ele>1519</ele>
        <time>2010-08-27T01:10:16Z</time>
      </trkpt><trkpt lat="44.09654349" lon="6.98653028">
        <ele>1442.1</ele>
        <time>2010-08-27T01:15:35Z</time>
      </trkpt><trkpt lat="44.10500050" lon="6.98708491">
        <ele>1444</ele>
        <time>2010-08-27T01:20:23Z</time>
      </trkpt><trkpt lat="44.10097056" lon="6.99244833">
        <ele>1485.4</ele>
        <time>2010-08-27T01:23:32Z</time>
      </trkpt><trkpt lat="44.10252641" lon="6.99579514">
        <ele>1508.4</ele>
        <time>2010-08-27T01:25:10Z</time>
      </trkpt><trkpt lat="44.09900803" lon="6.99526590">
        <ele>1542.1</ele>
        <time>2010-08-27T01:27:10Z</time>
      </trkpt><trkpt lat="44.09749031" lon="6.99677599">
        <ele>1558.4</ele>
        <time>2010-08-27T01:28:14Z</time>
      </trkpt><trkpt lat="44.10147029" lon="7.00564530">
        <ele>1570.9</ele>
        <time>2010-08-27T01:32:29Z</time>
      </trkpt><trkpt lat="44.09518261" lon="7.00095177">
        <ele>1591.6</ele>
        <time>2010-08-27T01:36:31Z</time>
      </trkpt><trkpt lat="44.09234634" lon="7.00223118">
        <ele>1600.7</ele>
        <time>2010-08-27T01:38:13Z</time>
      </trkpt><trkpt lat="44.09780858" lon="7.01618579">
        <ele>1622.4</ele>
        <time>2010-08-27T01:44:41Z</time>
      </trkpt><trkpt lat="44.10238711" lon="7.02162724">
        <ele>1654.1</ele>
        <time>2010-08-27T01:48:05Z</time>
      </trkpt><trkpt lat="44.09332493" lon="7.02597141">
        <ele>1604.6</ele>
        <time>2010-08-27T01:53:31Z</time>
      </trkpt><trkpt lat="44.09272302" lon="7.03098488">
        <ele>1574.3</ele>
        <time>2010-08-27T01:55:35Z</time>
      </trkpt><trkpt lat="44.09061883" lon="7.03359886">
        <ele>1544.5</ele>
        <time>2010-08-27T01:57:11Z</time>
      </trkpt><trkpt lat="44.09334898" lon="7.03513376">
        <ele>1513.7</ele>
        <time>2010-08-27T01:58:51Z</time>
      </trkpt><trkpt lat="44.08866342" lon="7.03893042">
        <ele>1462.3</ele>
        <time>2010-08-27T02:01:56Z</time>
      </trkpt><trkpt lat="44.08787208" lon="7.04305172">
        <ele>1436.3</ele>
        <time>2010-08-27T02:03:40Z</time>
      </trkpt><trkpt lat="44.08969783" lon="7.04325071">
        <ele>1409.9</ele>
        <time>2010-08-27T02:04:42Z</time>
      </trkpt><trkpt lat="44.09215372" lon="7.03936100">
        <ele>1379.1</ele>
        <time>2010-08-27T02:06:48Z</time>
      </trkpt><trkpt lat="44.09175667" lon="7.04855553">
        <ele>1330.1</ele>
        <time>2010-08-27T02:10:33Z</time>
      </trkpt><trkpt lat="44.09093659" lon="7.04589000">
        <ele>1307.1</ele>
        <time>2010-08-27T02:11:44Z</time>
      </trkpt><trkpt lat="44.09082335" lon="7.04778532">
        <ele>1293.1</ele>
        <time>2010-08-27T02:12:31Z</time>
      </trkpt><trkpt lat="44.09282595" lon="7.05305100">
        <ele>1255.1</ele>
        <time>2010-08-27T02:14:56Z</time>
      </trkpt><trkpt lat="44.09069217" lon="7.05065603">
        <ele>1232.5</ele>
        <time>2010-08-27T02:16:29Z</time>
      </trkpt><trkpt lat="44.08917790" lon="7.05844517">
        <ele>1176.3</ele>
        <time>2010-08-27T02:19:46Z</time>
      </trkpt><trkpt lat="44.08412093" lon="7.05702502">
        <ele>1126.8</ele>
        <time>2010-08-27T02:22:42Z</time>
      </trkpt><trkpt lat="44.08847809" lon="7.06111908">
        <ele>1084</ele>
        <time>2010-08-27T02:25:40Z</time>
      </trkpt><trkpt lat="44.09438298" lon="7.05603814">
        <ele>1022</ele>
        <time>2010-08-27T02:29:36Z</time>
      </trkpt><trkpt lat="44.09641743" lon="7.05639839">
        <ele>997</ele>
        <time>2010-08-27T02:30:46Z</time>
      </trkpt><trkpt lat="44.09091496" lon="7.06299814">
        <ele>934.1</ele>
        <time>2010-08-27T02:34:53Z</time>
      </trkpt><trkpt lat="44.08961812" lon="7.07660272">
        <ele>840.8</ele>
        <time>2010-08-27T02:40:28Z</time>
      </trkpt><trkpt lat="44.08543110" lon="7.08455086">
        <ele>775.4</ele>
        <time>2010-08-27T02:44:29Z</time>
      </trkpt><trkpt lat="44.08654690" lon="7.09327374">
        <ele>718.7</ele>
        <time>2010-08-27T02:48:05Z</time>
      </trkpt><trkpt lat="44.08368180" lon="7.09821411">
        <ele>678.3</ele>
        <time>2010-08-27T02:50:40Z</time>
      </trkpt><trkpt lat="44.08850114" lon="7.10295676">
        <ele>625.5</ele>
        <time>2010-08-27T02:54:01Z</time>
      </trkpt><trkpt lat="44.08624214" lon="7.10297286">
        <ele>602.9</ele>
        <time>2010-08-27T02:55:18Z</time>
      </trkpt><trkpt lat="44.08506322" lon="7.10107327">
        <ele>587</ele>
        <time>2010-08-27T02:56:19Z</time>
      </trkpt><trkpt lat="44.08837449" lon="7.10707538">
        <ele>531.3</ele>
        <time>2010-08-27T02:59:24Z</time>
      </trkpt><trkpt lat="44.08347468" lon="7.10521837">
        <ele>519.2</ele>
        <time>2010-08-27T03:02:16Z</time>
      </trkpt><trkpt lat="44.08098207" lon="7.10699558">
        <ele>517.3</ele>
        <time>2010-08-27T03:03:51Z</time>
      </trkpt><trkpt lat="44.07770634" lon="7.10493565">
        <ele>512</ele>
        <time>2010-08-27T03:05:54Z</time>
      </trkpt><trkpt lat="44.07500318" lon="7.10856878">
        <ele>511.1</ele>
        <time>2010-08-27T03:08:01Z</time>
      </trkpt><trkpt lat="44.06960657" lon="7.11102435">
        <ele>504.3</ele>
        <time>2010-08-27T03:11:14Z</time>
      </trkpt><trkpt lat="44.06806958" lon="7.11421668">
        <ele>500</ele>
        <time>2010-08-27T03:12:48Z</time>
      </trkpt><trkpt lat="44.06541160" lon="7.11448297">
        <ele>499.1</ele>
        <time>2010-08-27T03:14:19Z</time>
      </trkpt><trkpt lat="44.06457425" lon="7.11685664">
        <ele>496.7</ele>
        <time>2010-08-27T03:15:23Z</time>
      </trkpt><trkpt lat="44.05447414" lon="7.11915127">
        <ele>506.3</ele>
        <time>2010-08-27T03:21:11Z</time>
      </trkpt><trkpt lat="44.05295835" lon="7.12441921">
        <ele>495.7</ele>
        <time>2010-08-27T03:23:30Z</time>
      </trkpt><trkpt lat="44.04609735" lon="7.12960149">
        <ele>451.5</ele>
        <time>2010-08-27T03:27:55Z</time>
      </trkpt><trkpt lat="44.05342405" lon="7.12409525">
        <ele>495.7</ele>
        <time>2010-08-27T03:32:38Z</time>
      </trkpt><trkpt lat="44.05483246" lon="7.11920894">
        <ele>520.2</ele>
        <time>2010-08-27T03:34:47Z</time>
      </trkpt><trkpt lat="44.05388346" lon="7.12553602">
        <ele>556.3</ele>
        <time>2010-08-27T03:37:25Z</time>
      </trkpt><trkpt lat="44.04853539" lon="7.13166763">
        <ele>619.7</ele>
        <time>2010-08-27T03:41:21Z</time>
      </trkpt><trkpt lat="44.05081309" lon="7.13358868">
        <ele>643.3</ele>
        <time>2010-08-27T03:42:51Z</time>
      </trkpt><trkpt lat="44.05806503" lon="7.13439921">
        <ele>694.2</ele>
        <time>2010-08-27T03:46:58Z</time>
      </trkpt><trkpt lat="44.06109735" lon="7.13702031">
        <ele>717.3</ele>
        <time>2010-08-27T03:49:00Z</time>
      </trkpt><trkpt lat="44.06375106" lon="7.14060366">
        <ele>740.8</ele>
        <time>2010-08-27T03:51:05Z</time>
      </trkpt><trkpt lat="44.06450560" lon="7.14721749">
        <ele>771.6</ele>
        <time>2010-08-27T03:53:49Z</time>
      </trkpt><trkpt lat="44.06513039" lon="7.14458750">
        <ele>796.6</ele>
        <time>2010-08-27T03:54:57Z</time>
      </trkpt><trkpt lat="44.06821073" lon="7.14780087">
        <ele>828.3</ele>
        <time>2010-08-27T03:57:08Z</time>
      </trkpt><trkpt lat="44.06802608" lon="7.14576038">
        <ele>837.4</ele>
        <time>2010-08-27T03:57:58Z</time>
      </trkpt><trkpt lat="44.06981922" lon="7.15043371">
        <ele>862.9</ele>
        <time>2010-08-27T04:00:07Z</time>
      </trkpt><trkpt lat="44.06881147" lon="7.14627603">
        <ele>884.6</ele>
        <time>2010-08-27T04:01:54Z</time>
      </trkpt><trkpt lat="44.07194177" lon="7.15350542">
        <ele>928.3</ele>
        <time>2010-08-27T04:05:21Z</time>
      </trkpt><trkpt lat="44.07210874" lon="7.15939798">
        <ele>958.6</ele>
        <time>2010-08-27T04:07:45Z</time>
      </trkpt><trkpt lat="44.07515489" lon="7.16576756">
        <ele>993.7</ele>
        <time>2010-08-27T04:10:52Z</time>
      </trkpt><trkpt lat="44.07077266" lon="7.16684690">
        <ele>1001.4</ele>
        <time>2010-08-27T04:13:23Z</time>
      </trkpt><trkpt lat="44.06952208" lon="7.16865513">
        <ele>1014.8</ele>
        <time>2010-08-27T04:14:24Z</time>
      </trkpt><trkpt lat="44.06913350" lon="7.17095487">
        <ele>1033.1</ele>
        <time>2010-08-27T04:15:22Z</time>
      </trkpt><trkpt lat="44.07323937" lon="7.16909040">
        <ele>1064.3</ele>
        <time>2010-08-27T04:17:49Z</time>
      </trkpt><trkpt lat="44.06397343" lon="7.18715709">
        <ele>1170.5</ele>
        <time>2010-08-27T04:26:51Z</time>
      </trkpt><trkpt lat="44.06624074" lon="7.18658486">
        <ele>1190.7</ele>
        <time>2010-08-27T04:28:09Z</time>
      </trkpt><trkpt lat="44.06654835" lon="7.20345503">
        <ele>1283</ele>
        <time>2010-08-27T04:35:01Z</time>
      </trkpt><trkpt lat="44.07131430" lon="7.20674266">
        <ele>1326.8</ele>
        <time>2010-08-27T04:38:02Z</time>
      </trkpt><trkpt lat="44.07208443" lon="7.20900536">
        <ele>1338.3</ele>
        <time>2010-08-27T04:39:03Z</time>
      </trkpt><trkpt lat="44.07258307" lon="7.20267694">
        <ele>1374.8</ele>
        <time>2010-08-27T04:41:39Z</time>
      </trkpt><trkpt lat="44.07351036" lon="7.20601075">
        <ele>1394</ele>
        <time>2010-08-27T04:43:06Z</time>
      </trkpt><trkpt lat="44.07395108" lon="7.21563058">
        <ele>1451.2</ele>
        <time>2010-08-27T04:47:02Z</time>
      </trkpt><trkpt lat="44.07089185" lon="7.22452990">
        <ele>1484.9</ele>
        <time>2010-08-27T04:51:03Z</time>
      </trkpt><trkpt lat="44.07409760" lon="7.23699035">
        <ele>1415.7</ele>
        <time>2010-08-27T04:56:26Z</time>
      </trkpt><trkpt lat="44.08274454" lon="7.24198152">
        <ele>1338.8</ele>
        <time>2010-08-27T05:01:44Z</time>
      </trkpt><trkpt lat="44.07980911" lon="7.24214966">
        <ele>1321.5</ele>
        <time>2010-08-27T05:03:24Z</time>
      </trkpt><trkpt lat="44.07737827" lon="7.24021168">
        <ele>1297</ele>
        <time>2010-08-27T05:04:59Z</time>
      </trkpt><trkpt lat="44.07612870" lon="7.24190927">
        <ele>1282.1</ele>
        <time>2010-08-27T05:05:58Z</time>
      </trkpt><trkpt lat="44.07762219" lon="7.24134215">
        <ele>1267.6</ele>
        <time>2010-08-27T05:06:51Z</time>
      </trkpt><trkpt lat="44.08486708" lon="7.24527486">
        <ele>1190.7</ele>
        <time>2010-08-27T05:11:15Z</time>
      </trkpt><trkpt lat="44.08982624" lon="7.24963605">
        <ele>1136.4</ele>
        <time>2010-08-27T05:14:35Z</time>
      </trkpt><trkpt lat="44.08985138" lon="7.25393772">
        <ele>1135.9</ele>
        <time>2010-08-27T05:16:20Z</time>
      </trkpt><trkpt lat="44.08794769" lon="7.25471330">
        <ele>1148</ele>
        <time>2010-08-27T05:17:27Z</time>
      </trkpt><trkpt lat="44.09059251" lon="7.25586506">
        <ele>1167.7</ele>
        <time>2010-08-27T05:19:02Z</time>
      </trkpt><trkpt lat="44.09306584" lon="7.25401207">
        <ele>1186.4</ele>
        <time>2010-08-27T05:20:37Z</time>
      </trkpt><trkpt lat="44.09247266" lon="7.25570471">
        <ele>1198.4</ele>
        <time>2010-08-27T05:21:23Z</time>
      </trkpt><trkpt lat="44.10282984" lon="7.26389291">
        <ele>1259.5</ele>
        <time>2010-08-27T05:28:08Z</time>
      </trkpt><trkpt lat="44.11336899" lon="7.27908611">
        <ele>1371.5</ele>
        <time>2010-08-27T05:36:44Z</time>
      </trkpt><trkpt lat="44.11302885" lon="7.28141544">
        <ele>1395</ele>
        <time>2010-08-27T05:37:42Z</time>
      </trkpt><trkpt lat="44.11405815" lon="7.28038573">
        <ele>1410.4</ele>
        <time>2010-08-27T05:38:25Z</time>
      </trkpt><trkpt lat="44.11332281" lon="7.28931061">
        <ele>1489.7</ele>
        <time>2010-08-27T05:42:04Z</time>
      </trkpt><trkpt lat="44.11460038" lon="7.28258539">
        <ele>1486.3</ele>
        <time>2010-08-27T05:44:54Z</time>
      </trkpt><trkpt lat="44.11334460" lon="7.28191903">
        <ele>1447.4</ele>
        <time>2010-08-27T05:45:39Z</time>
      </trkpt><trkpt lat="44.11412579" lon="7.28060533">
        <ele>1431.1</ele>
        <time>2010-08-27T05:46:21Z</time>
      </trkpt><trkpt lat="44.11310136" lon="7.28151603">
        <ele>1413.3</ele>
        <time>2010-08-27T05:47:02Z</time>
      </trkpt><trkpt lat="44.11338031" lon="7.27911444">
        <ele>1390.2</ele>
        <time>2010-08-27T05:48:02Z</time>
      </trkpt><trkpt lat="44.10184706" lon="7.26279069">
        <ele>1275.8</ele>
        <time>2010-08-27T05:57:21Z</time>
      </trkpt><trkpt lat="44.09233687" lon="7.25578015">
        <ele>1215.7</ele>
        <time>2010-08-27T06:03:27Z</time>
      </trkpt><trkpt lat="44.09305545" lon="7.25401894">
        <ele>1204.2</ele>
        <time>2010-08-27T06:04:16Z</time>
      </trkpt><trkpt lat="44.09049520" lon="7.25589749">
        <ele>1185.4</ele>
        <time>2010-08-27T06:05:54Z</time>
      </trkpt><trkpt lat="44.08846694" lon="7.25514966">
        <ele>1171.5</ele>
        <time>2010-08-27T06:07:06Z</time>
      </trkpt><trkpt lat="44.09045245" lon="7.25261774">
        <ele>1146</ele>
        <time>2010-08-27T06:08:37Z</time>
      </trkpt><trkpt lat="44.08974150" lon="7.25063316">
        <ele>1135</ele>
        <time>2010-08-27T06:09:31Z</time>
      </trkpt><trkpt lat="44.07523938" lon="7.24957871">
        <ele>1019.6</ele>
        <time>2010-08-27T06:17:45Z</time>
      </trkpt><trkpt lat="44.07031652" lon="7.25624635">
        <ele>989.8</ele>
        <time>2010-08-27T06:21:39Z</time>
      </trkpt><trkpt lat="44.07047796" lon="7.25455170">
        <ele>981.2</ele>
        <time>2010-08-27T06:22:20Z</time>
      </trkpt><trkpt lat="44.06670392" lon="7.25737095">
        <ele>953.8</ele>
        <time>2010-08-27T06:24:46Z</time>
      </trkpt><trkpt lat="44.06199933" lon="7.25788593">
        <ele>945.6</ele>
        <time>2010-08-27T06:27:26Z</time>
      </trkpt><trkpt lat="44.05326262" lon="7.26657076">
        <ele>899.5</ele>
        <time>2010-08-27T06:33:31Z</time>
      </trkpt><trkpt lat="44.04925875" lon="7.27451814">
        <ele>866.8</ele>
        <time>2010-08-27T06:37:28Z</time>
      </trkpt><trkpt lat="44.04582024" lon="7.27646828">
        <ele>837.4</ele>
        <time>2010-08-27T06:39:35Z</time>
      </trkpt><trkpt lat="44.04281013" lon="7.28833865">
        <ele>798</ele>
        <time>2010-08-27T06:44:42Z</time>
      </trkpt><trkpt lat="44.03688320" lon="7.29243027">
        <ele>760.5</ele>
        <time>2010-08-27T06:48:27Z</time>
      </trkpt><trkpt lat="44.03385817" lon="7.29686304">
        <ele>735.1</ele>
        <time>2010-08-27T06:50:57Z</time>
      </trkpt><trkpt lat="44.03373303" lon="7.30254220">
        <ele>719.7</ele>
        <time>2010-08-27T06:53:15Z</time>
      </trkpt><trkpt lat="44.02913330" lon="7.30908268">
        <ele>687.5</ele>
        <time>2010-08-27T06:56:59Z</time>
      </trkpt><trkpt lat="44.01369953" lon="7.31375869">
        <ele>607.7</ele>
        <time>2010-08-27T07:05:56Z</time>
      </trkpt><trkpt lat="44.00087899" lon="7.31119551">
        <ele>566.8</ele>
        <time>2010-08-27T07:13:16Z</time>
      </trkpt><trkpt lat="43.99754567" lon="7.31718564">
        <ele>552.9</ele>
        <time>2010-08-27T07:16:22Z</time>
      </trkpt><trkpt lat="43.99007581" lon="7.32108926">
        <ele>526.9</ele>
        <time>2010-08-27T07:20:53Z</time>
      </trkpt><trkpt lat="43.99131482" lon="7.32559914">
        <ele>574</ele>
        <time>2010-08-27T07:22:51Z</time>
      </trkpt><trkpt lat="43.98925396" lon="7.32281291">
        <ele>603.4</ele>
        <time>2010-08-27T07:24:29Z</time>
      </trkpt><trkpt lat="43.98723551" lon="7.32429257">
        <ele>619.2</ele>
        <time>2010-08-27T07:25:46Z</time>
      </trkpt><trkpt lat="43.98899823" lon="7.32412635">
        <ele>633.2</ele>
        <time>2010-08-27T07:26:46Z</time>
      </trkpt><trkpt lat="43.98878575" lon="7.32843004">
        <ele>649</ele>
        <time>2010-08-27T07:28:32Z</time>
      </trkpt><trkpt lat="43.99078156" lon="7.33026610">
        <ele>684.6</ele>
        <time>2010-08-27T07:29:53Z</time>
      </trkpt><trkpt lat="43.98964431" lon="7.33154702">
        <ele>703.8</ele>
        <time>2010-08-27T07:30:43Z</time>
      </trkpt><trkpt lat="43.99172721" lon="7.33369195">
        <ele>718.7</ele>
        <time>2010-08-27T07:32:11Z</time>
      </trkpt><trkpt lat="43.99049842" lon="7.33488780">
        <ele>739.9</ele>
        <time>2010-08-27T07:33:02Z</time>
      </trkpt><trkpt lat="43.98577815" lon="7.33442361">
        <ele>783.6</ele>
        <time>2010-08-27T07:35:43Z</time>
      </trkpt><trkpt lat="43.98548127" lon="7.33983999">
        <ele>811</ele>
        <time>2010-08-27T07:37:56Z</time>
      </trkpt><trkpt lat="43.98294826" lon="7.34160740">
        <ele>848</ele>
        <time>2010-08-27T07:39:32Z</time>
      </trkpt><trkpt lat="43.98457091" lon="7.34605014">
        <ele>879.7</ele>
        <time>2010-08-27T07:41:34Z</time>
      </trkpt><trkpt lat="43.98444308" lon="7.35652383">
        <ele>968.7</ele>
        <time>2010-08-27T07:45:50Z</time>
      </trkpt><trkpt lat="43.98571806" lon="7.35373501">
        <ele>994.1</ele>
        <time>2010-08-27T07:47:11Z</time>
      </trkpt><trkpt lat="43.98578863" lon="7.35756336">
        <ele>1022.5</ele>
        <time>2010-08-27T07:48:45Z</time>
      </trkpt><trkpt lat="43.98594143" lon="7.35550317">
        <ele>1037.4</ele>
        <time>2010-08-27T07:49:35Z</time>
      </trkpt><trkpt lat="43.98766341" lon="7.36013912">
        <ele>1065.8</ele>
        <time>2010-08-27T07:51:43Z</time>
      </trkpt><trkpt lat="43.98743257" lon="7.36132809">
        <ele>1073.4</ele>
        <time>2010-08-27T07:52:13Z</time>
      </trkpt><trkpt lat="43.98427964" lon="7.35993862">
        <ele>1106.6</ele>
        <time>2010-08-27T07:54:06Z</time>
      </trkpt><trkpt lat="43.98464928" lon="7.36402933">
        <ele>1131.6</ele>
        <time>2010-08-27T07:55:46Z</time>
      </trkpt><trkpt lat="43.98562535" lon="7.36101251">
        <ele>1157.6</ele>
        <time>2010-08-27T07:57:07Z</time>
      </trkpt><trkpt lat="43.98506158" lon="7.36720573">
        <ele>1198.9</ele>
        <time>2010-08-27T07:59:40Z</time>
      </trkpt><trkpt lat="43.98193480" lon="7.36488571">
        <ele>1230.1</ele>
        <time>2010-08-27T08:01:41Z</time>
      </trkpt><trkpt lat="43.98107146" lon="7.36765458">
        <ele>1281.1</ele>
        <time>2010-08-27T08:02:54Z</time>
      </trkpt><trkpt lat="43.97707162" lon="7.36891924">
        <ele>1328.7</ele>
        <time>2010-08-27T08:05:14Z</time>
      </trkpt><trkpt lat="43.97594149" lon="7.37250410">
        <ele>1353.7</ele>
        <time>2010-08-27T08:06:50Z</time>
      </trkpt><trkpt lat="43.97718997" lon="7.37295681">
        <ele>1370.5</ele>
        <time>2010-08-27T08:07:33Z</time>
      </trkpt><trkpt lat="43.97770755" lon="7.37076528">
        <ele>1389.2</ele>
        <time>2010-08-27T08:08:30Z</time>
      </trkpt><trkpt lat="43.97775650" lon="7.37730685">
        <ele>1436.8</ele>
        <time>2010-08-27T08:11:10Z</time>
      </trkpt><trkpt lat="43.98106099" lon="7.38120133">
        <ele>1488.7</ele>
        <time>2010-08-27T08:13:37Z</time>
      </trkpt><trkpt lat="43.98028315" lon="7.38749011">
        <ele>1541.6</ele>
        <time>2010-08-27T08:16:13Z</time>
      </trkpt><trkpt lat="43.97854164" lon="7.38742196">
        <ele>1559.4</ele>
        <time>2010-08-27T08:17:12Z</time>
      </trkpt><trkpt lat="43.97704119" lon="7.39180092">
        <ele>1597.8</ele>
        <time>2010-08-27T08:19:11Z</time>
      </trkpt><trkpt lat="43.97319331" lon="7.37860772">
        <ele>1607.5</ele>
        <time>2010-08-27T08:24:59Z</time>
      </trkpt><trkpt lat="43.97226602" lon="7.37665960">
        <ele>1599.3</ele>
        <time>2010-08-27T08:25:57Z</time>
      </trkpt><trkpt lat="43.96970787" lon="7.37774053">
        <ele>1587.8</ele>
        <time>2010-08-27T08:27:27Z</time>
      </trkpt><trkpt lat="43.96883984" lon="7.37312151">
        <ele>1588.2</ele>
        <time>2010-08-27T08:29:24Z</time>
      </trkpt><trkpt lat="43.96583367" lon="7.37676303">
        <ele>1572.4</ele>
        <time>2010-08-27T08:31:40Z</time>
      </trkpt><trkpt lat="43.96134809" lon="7.37581009">
        <ele>1539.7</ele>
        <time>2010-08-27T08:34:14Z</time>
      </trkpt><trkpt lat="43.95389566" lon="7.36985735">
        <ele>1499.8</ele>
        <time>2010-08-27T08:39:06Z</time>
      </trkpt><trkpt lat="43.95205206" lon="7.36531628">
        <ele>1498.8</ele>
        <time>2010-08-27T08:41:14Z</time>
      </trkpt><trkpt lat="43.94874573" lon="7.36697674">
        <ele>1495</ele>
        <time>2010-08-27T08:43:13Z</time>
      </trkpt><trkpt lat="43.94193225" lon="7.36653769">
        <ele>1464.2</ele>
        <time>2010-08-27T08:47:05Z</time>
      </trkpt><trkpt lat="43.93791045" lon="7.36354745">
        <ele>1434.9</ele>
        <time>2010-08-27T08:49:40Z</time>
      </trkpt><trkpt lat="43.93511525" lon="7.36424533">
        <ele>1425.8</ele>
        <time>2010-08-27T08:51:17Z</time>
      </trkpt><trkpt lat="43.93012793" lon="7.36055838">
        <ele>1421</ele>
        <time>2010-08-27T08:54:29Z</time>
      </trkpt><trkpt lat="43.92343909" lon="7.36077497">
        <ele>1423.9</ele>
        <time>2010-08-27T08:58:16Z</time>
      </trkpt><trkpt lat="43.92042797" lon="7.35564885">
        <ele>1401.7</ele>
        <time>2010-08-27T09:00:58Z</time>
      </trkpt><trkpt lat="43.91676684" lon="7.35550409">
        <ele>1380.1</ele>
        <time>2010-08-27T09:03:03Z</time>
      </trkpt><trkpt lat="43.90933779" lon="7.34734221">
        <ele>1355.1</ele>
        <time>2010-08-27T09:08:25Z</time>
      </trkpt><trkpt lat="43.90897109" lon="7.34350666">
        <ele>1334.9</ele>
        <time>2010-08-27T09:10:00Z</time>
      </trkpt><trkpt lat="43.90401395" lon="7.34557623">
        <ele>1258</ele>
        <time>2010-08-27T09:12:56Z</time>
      </trkpt><trkpt lat="43.90421737" lon="7.34432481">
        <ele>1216.2</ele>
        <time>2010-08-27T09:13:27Z</time>
      </trkpt><trkpt lat="43.90227629" lon="7.34528756">
        <ele>1197</ele>
        <time>2010-08-27T09:14:37Z</time>
      </trkpt><trkpt lat="43.89764856" lon="7.34405994">
        <ele>1145.1</ele>
        <time>2010-08-27T09:17:17Z</time>
      </trkpt><trkpt lat="43.89579826" lon="7.34193547">
        <ele>1113.3</ele>
        <time>2010-08-27T09:18:39Z</time>
      </trkpt><trkpt lat="43.89196773" lon="7.34543407">
        <ele>1059.5</ele>
        <time>2010-08-27T09:21:15Z</time>
      </trkpt><trkpt lat="43.89555845" lon="7.34032036">
        <ele>1012.4</ele>
        <time>2010-08-27T09:24:10Z</time>
      </trkpt><trkpt lat="43.89481615" lon="7.33782314">
        <ele>990.3</ele>
        <time>2010-08-27T09:25:16Z</time>
      </trkpt><trkpt lat="43.89505168" lon="7.33970764">
        <ele>979.2</ele>
        <time>2010-08-27T09:26:03Z</time>
      </trkpt><trkpt lat="43.89023225" lon="7.34218173">
        <ele>907.1</ele>
        <time>2010-08-27T09:28:58Z</time>
      </trkpt><trkpt lat="43.88673189" lon="7.34683704">
        <ele>849</ele>
        <time>2010-08-27T09:31:42Z</time>
      </trkpt><trkpt lat="43.88664823" lon="7.35015518">
        <ele>830.2</ele>
        <time>2010-08-27T09:33:04Z</time>
      </trkpt><trkpt lat="43.88958936" lon="7.35289564">
        <ele>803.8</ele>
        <time>2010-08-27T09:35:04Z</time>
      </trkpt><trkpt lat="43.88384885" lon="7.35786980">
        <ele>729.8</ele>
        <time>2010-08-27T09:38:54Z</time>
      </trkpt><trkpt lat="43.88468050" lon="7.35544374">
        <ele>706.2</ele>
        <time>2010-08-27T09:40:00Z</time>
      </trkpt><trkpt lat="43.88282483" lon="7.35660816">
        <ele>695.2</ele>
        <time>2010-08-27T09:41:09Z</time>
      </trkpt><trkpt lat="43.88437330" lon="7.36062007">
        <ele>661</ele>
        <time>2010-08-27T09:43:01Z</time>
      </trkpt><trkpt lat="43.88266641" lon="7.36056601">
        <ele>651.4</ele>
        <time>2010-08-27T09:43:59Z</time>
      </trkpt><trkpt lat="43.88063908" lon="7.35505725">
        <ele>626.9</ele>
        <time>2010-08-27T09:46:30Z</time>
      </trkpt><trkpt lat="43.87813792" lon="7.35292104">
        <ele>606.2</ele>
        <time>2010-08-27T09:48:10Z</time>
      </trkpt><trkpt lat="43.86938570" lon="7.35105515">
        <ele>549.5</ele>
        <time>2010-08-27T09:53:11Z</time>
      </trkpt><trkpt lat="43.86229344" lon="7.34706402">
        <ele>511.6</ele>
        <time>2010-08-27T09:57:32Z</time>
      </trkpt><trkpt lat="43.85556520" lon="7.34805644">
        <ele>475.5</ele>
        <time>2010-08-27T10:01:22Z</time>
      </trkpt><trkpt lat="43.84750215" lon="7.35472013">
        <ele>431.8</ele>
        <time>2010-08-27T10:06:41Z</time>
      </trkpt><trkpt lat="43.84039798" lon="7.35119211">
        <ele>413.5</ele>
        <time>2010-08-27T10:10:57Z</time>
      </trkpt><trkpt lat="43.83721060" lon="7.35527217">
        <ele>384.2</ele>
        <time>2010-08-27T10:13:25Z</time>
      </trkpt><trkpt lat="43.83032193" lon="7.35101760">
        <ele>407.3</ele>
        <time>2010-08-27T10:17:41Z</time>
      </trkpt><trkpt lat="43.82648972" lon="7.35041385">
        <ele>436.1</ele>
        <time>2010-08-27T10:19:52Z</time>
      </trkpt><trkpt lat="43.81301908" lon="7.35662115">
        <ele>289</ele>
        <time>2010-08-27T10:27:55Z</time>
      </trkpt><trkpt lat="43.80712392" lon="7.35687210">
        <ele>249.1</ele>
        <time>2010-08-27T10:31:15Z</time>
      </trkpt><trkpt lat="43.79392234" lon="7.35324886">
        <ele>199.1</ele>
        <time>2010-08-27T10:38:53Z</time>
      </trkpt><trkpt lat="43.79059707" lon="7.35059414">
        <ele>188.6</ele>
        <time>2010-08-27T10:41:03Z</time>
      </trkpt><trkpt lat="43.78303006" lon="7.33949876">
        <ele>158.8</ele>
        <time>2010-08-27T10:47:18Z</time>
      </trkpt><trkpt lat="43.77525903" lon="7.33592506">
        <ele>148.2</ele>
        <time>2010-08-27T10:51:56Z</time>
      </trkpt><trkpt lat="43.77050255" lon="7.32714024">
        <ele>131.4</ele>
        <time>2010-08-27T10:56:26Z</time>
      </trkpt><trkpt lat="43.76059958" lon="7.31828048">
        <ele>120.8</ele>
        <time>2010-08-27T11:03:06Z</time>
      </trkpt><trkpt lat="43.74899827" lon="7.31777228">
        <ele>111.7</ele>
        <time>2010-08-27T11:09:41Z</time>
      </trkpt><trkpt lat="43.74458503" lon="7.30971786">
        <ele>97.7</ele>
        <time>2010-08-27T11:13:49Z</time>
      </trkpt><trkpt lat="43.74283137" lon="7.30853979">
        <ele>96.8</ele>
        <time>2010-08-27T11:14:56Z</time>
      </trkpt><trkpt lat="43.74009418" lon="7.31007862">
        <ele>86.2</ele>
        <time>2010-08-27T11:16:36Z</time>
      </trkpt><trkpt lat="43.73739118" lon="7.30849033">
        <ele>83.3</ele>
        <time>2010-08-27T11:18:16Z</time>
      </trkpt><trkpt lat="43.73485440" lon="7.30431422">
        <ele>79</ele>
        <time>2010-08-27T11:20:30Z</time>
      </trkpt><trkpt lat="43.73298616" lon="7.29116670">
        <ele>73.2</ele>
        <time>2010-08-27T11:25:59Z</time>
      </trkpt><trkpt lat="43.72943927" lon="7.28330498">
        <ele>64.5</ele>
        <time>2010-08-27T11:29:47Z</time>
      </trkpt><trkpt lat="43.72305394" lon="7.28853713">
        <ele>51.6</ele>
        <time>2010-08-27T11:33:59Z</time>
      </trkpt><trkpt lat="43.72265948" lon="7.29242256">
        <ele>52</ele>
        <time>2010-08-27T11:35:35Z</time>
      </trkpt><trkpt lat="43.71707580" lon="7.29432106">
        <ele>45.8</ele>
        <time>2010-08-27T11:38:51Z</time>
      </trkpt><trkpt lat="43.71743203" lon="7.29599434">
        <ele>58.8</ele>
        <time>2010-08-27T11:39:34Z</time>
      </trkpt><trkpt lat="43.71474739" lon="7.29690277">
        <ele>96.8</ele>
        <time>2010-08-27T11:41:08Z</time>
      </trkpt><trkpt lat="43.70852257" lon="7.29269028">
        <ele>33.3</ele>
        <time>2010-08-27T11:45:03Z</time>
      </trkpt><trkpt lat="43.71077788" lon="7.29513444">
        <ele>65.5</ele>
        <time>2010-08-27T11:46:41Z</time>
      </trkpt><trkpt lat="43.70881032" lon="7.29506621">
        <ele>91</ele>
        <time>2010-08-27T11:47:47Z</time>
      </trkpt><trkpt lat="43.70927811" lon="7.29796887">
        <ele>121.7</ele>
        <time>2010-08-27T11:49:01Z</time>
      </trkpt><trkpt lat="43.70761757" lon="7.29691082">
        <ele>131.8</ele>
        <time>2010-08-27T11:50:03Z</time>
      </trkpt><trkpt lat="43.70511608" lon="7.29998916">
        <ele>158.3</ele>
        <time>2010-08-27T11:51:57Z</time>
      </trkpt><trkpt lat="43.69680098" lon="7.29757827">
        <ele>202.5</ele>
        <time>2010-08-27T11:56:45Z</time>
      </trkpt><trkpt lat="43.69636512" lon="7.29973736">
        <ele>205.9</ele>
        <time>2010-08-27T11:57:40Z</time>
      </trkpt><trkpt lat="43.70086880" lon="7.30015243">
        <ele>227.5</ele>
        <time>2010-08-27T12:00:14Z</time>
      </trkpt><trkpt lat="43.69560312" lon="7.29897578">
        <ele>194.3</ele>
        <time>2010-08-27T12:03:15Z</time>
      </trkpt><trkpt lat="43.69700692" lon="7.29772529">
        <ele>196.2</ele>
        <time>2010-08-27T12:04:12Z</time>
      </trkpt><trkpt lat="43.70193850" lon="7.29822460">
        <ele>168.8</ele>
        <time>2010-08-27T12:07:00Z</time>
      </trkpt><trkpt lat="43.70182853" lon="7.29840732">
        <ele>0</ele>
        <time>2010-08-27T12:07:06Z</time>
      </trkpt><trkpt lat="43.70609994" lon="7.30111216">
        <ele>0</ele>
        <time>2010-08-27T12:09:46Z</time>
      </trkpt><trkpt lat="43.70763408" lon="7.30327603">
        <ele>0</ele>
        <time>2010-08-27T12:11:00Z</time>
      </trkpt><trkpt lat="43.70594957" lon="7.30614734">
        <ele>0</ele>
        <time>2010-08-27T12:12:31Z</time>
      </trkpt><trkpt lat="43.70989016" lon="7.30926834">
        <ele>0</ele>
        <time>2010-08-27T12:15:05Z</time>
      </trkpt><trkpt lat="43.70937878" lon="7.31084959">
        <ele>0</ele>
        <time>2010-08-27T12:15:48Z</time>
      </trkpt><trkpt lat="43.71043154" lon="7.31392901">
        <ele>0</ele>
        <time>2010-08-27T12:17:12Z</time>
      </trkpt><trkpt lat="43.70967952" lon="7.31638416">
        <ele>0</ele>
        <time>2010-08-27T12:18:17Z</time>
      </trkpt><trkpt lat="43.71007062" lon="7.31938027">
        <ele>0</ele>
        <time>2010-08-27T12:19:32Z</time>
      </trkpt><trkpt lat="43.71334937" lon="7.32054544">
        <ele>0</ele>
        <time>2010-08-27T12:21:27Z</time>
      </trkpt><trkpt lat="43.71220633" lon="7.32512288">
        <ele>0</ele>
        <time>2010-08-27T12:23:26Z</time>
      </trkpt><trkpt lat="43.71380057" lon="7.33061562">
        <ele>0</ele>
        <time>2010-08-27T12:25:51Z</time>
      </trkpt><trkpt lat="43.71692894" lon="7.33319591">
        <ele>0</ele>
        <time>2010-08-27T12:27:55Z</time>
      </trkpt><trkpt lat="43.71909474" lon="7.33868924">
        <ele>0</ele>
        <time>2010-08-27T12:30:29Z</time>
      </trkpt><trkpt lat="43.72065889" lon="7.33927187">
        <ele>0</ele>
        <time>2010-08-27T12:31:24Z</time>
      </trkpt><trkpt lat="43.72108008" lon="7.34393288">
        <ele>0</ele>
        <time>2010-08-27T12:33:20Z</time>
      </trkpt><trkpt lat="43.72324580" lon="7.34426580">
        <ele>0</ele>
        <time>2010-08-27T12:34:34Z</time>
      </trkpt><trkpt lat="43.72342634" lon="7.34701247">
        <ele>0</ele>
        <time>2010-08-27T12:35:41Z</time>
      </trkpt><trkpt lat="43.72571242" lon="7.34801126">
        <ele>0</ele>
        <time>2010-08-27T12:37:03Z</time>
      </trkpt><trkpt lat="43.72709611" lon="7.35009207">
        <ele>0</ele>
        <time>2010-08-27T12:38:12Z</time>
      </trkpt><trkpt lat="43.72673518" lon="7.35233942">
        <ele>0</ele>
        <time>2010-08-27T12:39:09Z</time>
      </trkpt><trkpt lat="43.72829933" lon="7.35683397">
        <ele>0</ele>
        <time>2010-08-27T12:41:11Z</time>
      </trkpt><trkpt lat="43.72980338" lon="7.35749982">
        <ele>0</ele>
        <time>2010-08-27T12:42:05Z</time>
      </trkpt><trkpt lat="43.72968302" lon="7.36216083">
        <ele>0</ele>
        <time>2010-08-27T12:44:00Z</time>
      </trkpt><trkpt lat="43.73118706" lon="7.36432487">
        <ele>0</ele>
        <time>2010-08-27T12:45:13Z</time>
      </trkpt><trkpt lat="43.72914163" lon="7.36707154">
        <ele>0</ele>
        <time>2010-08-27T12:46:50Z</time>
      </trkpt><trkpt lat="43.72866034" lon="7.37206556">
        <ele>0</ele>
        <time>2010-08-27T12:48:54Z</time>
      </trkpt><trkpt lat="43.73100660" lon="7.37506192">
        <ele>0</ele>
        <time>2010-08-27T12:50:43Z</time>
      </trkpt><trkpt lat="43.73016430" lon="7.37797505">
        <ele>0</ele>
        <time>2010-08-27T12:52:00Z</time>
      </trkpt><trkpt lat="43.73136753" lon="7.37939000">
        <ele>0</ele>
        <time>2010-08-27T12:52:53Z</time>
      </trkpt><trkpt lat="43.73106678" lon="7.38130434">
        <ele>0</ele>
        <time>2010-08-27T12:53:42Z</time>
      </trkpt><trkpt lat="43.73226992" lon="7.38263606">
        <ele>0</ele>
        <time>2010-08-27T12:54:34Z</time>
      </trkpt><trkpt lat="43.73233010" lon="7.38463364">
        <ele>0</ele>
        <time>2010-08-27T12:55:23Z</time>
      </trkpt><trkpt lat="43.73371379" lon="7.38738030">
        <ele>0</ele>
        <time>2010-08-27T12:56:45Z</time>
      </trkpt><trkpt lat="43.73281139" lon="7.38996050">
        <ele>0</ele>
        <time>2010-08-27T12:57:56Z</time>
      </trkpt><trkpt lat="43.72914163" lon="7.39112584">
        <ele>0</ele>
        <time>2010-08-27T13:00:04Z</time>
      </trkpt><trkpt lat="43.72547178" lon="7.38871202">
        <ele>0</ele>
        <time>2010-08-27T13:02:22Z</time>
      </trkpt><trkpt lat="43.72444902" lon="7.39387251">
        <ele>0</ele>
        <time>2010-08-27T13:04:33Z</time>
      </trkpt><trkpt lat="43.72607343" lon="7.39710717">
        <ele>0</ele>
        <time>2010-08-27T13:06:10Z</time>
      </trkpt><trkpt lat="43.72390763" lon="7.40543333">
        <ele>0</ele>
        <time>2010-08-27T13:09:47Z</time>
      </trkpt><trkpt lat="43.72468966" lon="7.40668223">
        <ele>0</ele>
        <time>2010-08-27T13:10:28Z</time>
      </trkpt><trkpt lat="43.73112688" lon="7.40959645">
        <ele>0</ele>
        <time>2010-08-27T13:14:18Z</time>
      </trkpt><trkpt lat="43.73160817" lon="7.41317670">
        <ele>0</ele>
        <time>2010-08-27T13:15:48Z</time>
      </trkpt><trkpt lat="43.73413498" lon="7.41192780">
        <ele>0</ele>
        <time>2010-08-27T13:17:19Z</time>
      </trkpt><trkpt lat="43.73551866" lon="7.41350971">
        <ele>0</ele>
        <time>2010-08-27T13:18:20Z</time>
      </trkpt><trkpt lat="43.73762428" lon="7.41184448">
        <ele>0</ele>
        <time>2010-08-27T13:19:42Z</time>
      </trkpt><trkpt lat="43.74183552" lon="7.41417582">
        <ele>0</ele>
        <time>2010-08-27T13:22:17Z</time>
      </trkpt><trkpt lat="43.74231681" lon="7.41908829">
        <ele>0</ele>
        <time>2010-08-27T13:24:18Z</time>
      </trkpt><trkpt lat="43.74598666" lon="7.42641533">
        <ele>0</ele>
        <time>2010-08-27T13:27:57Z</time>
      </trkpt><trkpt lat="43.74785163" lon="7.42441708">
        <ele>0</ele>
        <time>2010-08-27T13:29:17Z</time>
      </trkpt><trkpt lat="43.74929550" lon="7.42658188">
        <ele>0</ele>
        <time>2010-08-27T13:30:30Z</time>
      </trkpt><trkpt lat="43.75224341" lon="7.42583253">
        <ele>0</ele>
        <time>2010-08-27T13:32:12Z</time>
      </trkpt><trkpt lat="43.75146130" lon="7.42941278">
        <ele>0</ele>
        <time>2010-08-27T13:33:44Z</time>
      </trkpt><trkpt lat="43.75188240" lon="7.43216045">
        <ele>0</ele>
        <time>2010-08-27T13:34:53Z</time>
      </trkpt><trkpt lat="43.75362710" lon="7.43324281">
        <ele>0</ele>
        <time>2010-08-27T13:35:58Z</time>
      </trkpt><trkpt lat="43.75446931" lon="7.43507459">
        <ele>0</ele>
        <time>2010-08-27T13:36:51Z</time>
      </trkpt><trkpt lat="43.75380756" lon="7.43865484">
        <ele>0</ele>
        <time>2010-08-27T13:38:22Z</time>
      </trkpt><trkpt lat="43.75464977" lon="7.44148574">
        <ele>0</ele>
        <time>2010-08-27T13:39:37Z</time>
      </trkpt><trkpt lat="43.75470995" lon="7.44656475">
        <ele>0</ele>
        <time>2010-08-27T13:41:42Z</time>
      </trkpt><trkpt lat="43.75603354" lon="7.44654908">
        <ele>0</ele>
        <time>2010-08-27T13:42:27Z</time>
      </trkpt><trkpt lat="43.76120735" lon="7.45387956">
        <ele>0</ele>
        <time>2010-08-27T13:46:38Z</time>
      </trkpt><trkpt lat="43.76355362" lon="7.45421274">
        <ele>0</ele>
        <time>2010-08-27T13:47:58Z</time>
      </trkpt><trkpt lat="43.76156828" lon="7.45646194">
        <ele>0</ele>
        <time>2010-08-27T13:49:26Z</time>
      </trkpt><trkpt lat="43.76265122" lon="7.46087685">
        <ele>0</ele>
        <time>2010-08-27T13:51:20Z</time>
      </trkpt><trkpt lat="43.75825944" lon="7.46829065">
        <ele>0</ele>
        <time>2010-08-27T13:55:15Z</time>
      </trkpt><trkpt lat="43.75825944" lon="7.47012327">
        <ele>0</ele>
        <time>2010-08-27T13:56:00Z</time>
      </trkpt><trkpt lat="43.76289186" lon="7.47103958">
        <ele>0</ele>
        <time>2010-08-27T13:58:40Z</time>
      </trkpt><trkpt lat="43.75922202" lon="7.47728719">
        <ele>0</ele>
        <time>2010-08-27T14:01:57Z</time>
      </trkpt><trkpt lat="43.76126754" lon="7.47903650">
        <ele>0</ele>
        <time>2010-08-27T14:03:19Z</time>
      </trkpt><trkpt lat="43.76271140" lon="7.47886987">
        <ele>0</ele>
        <time>2010-08-27T14:04:08Z</time>
      </trkpt><trkpt lat="43.76620070" lon="7.48361805">
        <ele>0</ele>
        <time>2010-08-27T14:06:55Z</time>
      </trkpt><trkpt lat="43.76583970" lon="7.48761647">
        <ele>0</ele>
        <time>2010-08-27T14:08:33Z</time>
      </trkpt><trkpt lat="43.76746411" lon="7.48536735">
        <ele>0</ele>
        <time>2010-08-27T14:09:52Z</time>
      </trkpt><trkpt lat="43.76842669" lon="7.48070248">
        <ele>0</ele>
        <time>2010-08-27T14:11:51Z</time>
      </trkpt><trkpt lat="43.77769146" lon="7.47195588">
        <ele>0</ele>
        <time>2010-08-27T14:18:12Z</time>
      </trkpt><trkpt lat="43.77847349" lon="7.46970677">
        <ele>0</ele>
        <time>2010-08-27T14:19:13Z</time>
      </trkpt><trkpt lat="43.77937588" lon="7.46911459">
        <ele>0</ele>
        <time>2010-08-27T14:19:47Z</time>
      </trkpt><trkpt lat="43.77904505" lon="7.47103144">
        <ele>0</ele>
        <time>2010-08-27T14:20:35Z</time>
      </trkpt><trkpt lat="43.78039864" lon="7.46982294">
        <ele>0</ele>
        <time>2010-08-27T14:21:30Z</time>
      </trkpt><trkpt lat="43.78003772" lon="7.47078141">
        <ele>0</ele>
        <time>2010-08-27T14:21:57Z</time>
      </trkpt><trkpt lat="43.78166205" lon="7.47123974">
        <ele>0</ele>
        <time>2010-08-27T14:22:53Z</time>
      </trkpt><trkpt lat="43.78220352" lon="7.47286490">
        <ele>0</ele>
        <time>2010-08-27T14:23:37Z</time>
      </trkpt><trkpt lat="43.78298555" lon="7.47115642">
        <ele>0</ele>
        <time>2010-08-27T14:24:27Z</time>
      </trkpt><trkpt lat="43.78394813" lon="7.47128148">
        <ele>0</ele>
        <time>2010-08-27T14:25:00Z</time>
      </trkpt><trkpt lat="43.78364738" lon="7.46961465">
        <ele>0</ele>
        <time>2010-08-27T14:25:42Z</time>
      </trkpt><trkpt lat="43.78491071" lon="7.46886456">
        <ele>0</ele>
        <time>2010-08-27T14:26:28Z</time>
      </trkpt><trkpt lat="43.78473024" lon="7.46753116">
        <ele>0</ele>
        <time>2010-08-27T14:27:02Z</time>
      </trkpt><trkpt lat="43.78758789" lon="7.46161396">
        <ele>0</ele>
        <time>2010-08-27T14:29:56Z</time>
      </trkpt><trkpt lat="43.79273161" lon="7.46069723">
        <ele>0</ele>
        <time>2010-08-27T14:32:53Z</time>
      </trkpt><trkpt lat="43.79011461" lon="7.45953047">
        <ele>0</ele>
        <time>2010-08-27T14:34:26Z</time>
      </trkpt><trkpt lat="43.79243087" lon="7.45894709">
        <ele>0</ele>
        <time>2010-08-27T14:35:46Z</time>
      </trkpt><trkpt lat="43.79411538" lon="7.45982216">
        <ele>0</ele>
        <time>2010-08-27T14:36:47Z</time>
      </trkpt><trkpt lat="43.79390474" lon="7.46369745">
        <ele>0</ele>
        <time>2010-08-27T14:38:23Z</time>
      </trkpt><trkpt lat="43.79507787" lon="7.46161396">
        <ele>0</ele>
        <time>2010-08-27T14:39:28Z</time>
      </trkpt><trkpt lat="43.79456657" lon="7.46044720">
        <ele>0</ele>
        <time>2010-08-27T14:40:01Z</time>
      </trkpt><trkpt lat="43.79522833" lon="7.45911372">
        <ele>0</ele>
        <time>2010-08-27T14:40:41Z</time>
      </trkpt><trkpt lat="43.79179912" lon="7.45661357">
        <ele>0</ele>
        <time>2010-08-27T14:42:53Z</time>
      </trkpt><trkpt lat="43.79014470" lon="7.45703023">
        <ele>0</ele>
        <time>2010-08-27T14:43:50Z</time>
      </trkpt><trkpt lat="43.79155848" lon="7.45578015">
        <ele>0</ele>
        <time>2010-08-27T14:44:47Z</time>
      </trkpt><trkpt lat="43.80175573" lon="7.45869706">
        <ele>0</ele>
        <time>2010-08-27T14:50:41Z</time>
      </trkpt><trkpt lat="43.79697302" lon="7.45494674">
        <ele>0</ele>
        <time>2010-08-27T14:53:47Z</time>
      </trkpt><trkpt lat="43.79447630" lon="7.45507171">
        <ele>0</ele>
        <time>2010-08-27T14:55:12Z</time>
      </trkpt><trkpt lat="43.79306253" lon="7.45419664">
        <ele>0</ele>
        <time>2010-08-27T14:56:05Z</time>
      </trkpt><trkpt lat="43.79252105" lon="7.45282159">
        <ele>0</ele>
        <time>2010-08-27T14:56:43Z</time>
      </trkpt><trkpt lat="43.79315280" lon="7.45090474">
        <ele>0</ele>
        <time>2010-08-27T14:57:35Z</time>
      </trkpt><trkpt lat="43.79432593" lon="7.45036301">
        <ele>0</ele>
        <time>2010-08-27T14:58:17Z</time>
      </trkpt><trkpt lat="43.79495759" lon="7.44823786">
        <ele>0</ele>
        <time>2010-08-27T14:59:14Z</time>
      </trkpt><trkpt lat="43.79889809" lon="7.44815447">
        <ele>0</ele>
        <time>2010-08-27T15:01:28Z</time>
      </trkpt><trkpt lat="43.80142490" lon="7.44648772">
        <ele>0</ele>
        <time>2010-08-27T15:03:03Z</time>
      </trkpt><trkpt lat="43.80446300" lon="7.44140393">
        <ele>0</ele>
        <time>2010-08-27T15:05:45Z</time>
      </trkpt><trkpt lat="43.80392153" lon="7.43698692">
        <ele>0</ele>
        <time>2010-08-27T15:07:35Z</time>
      </trkpt><trkpt lat="43.80479392" lon="7.43615351">
        <ele>0</ele>
        <time>2010-08-27T15:08:11Z</time>
      </trkpt><trkpt lat="43.80416218" lon="7.43423665">
        <ele>0</ele>
        <time>2010-08-27T15:09:02Z</time>
      </trkpt><trkpt lat="43.80428254" lon="7.42781947">
        <ele>0</ele>
        <time>2010-08-27T15:11:40Z</time>
      </trkpt><trkpt lat="43.80289886" lon="7.42823613">
        <ele>0</ele>
        <time>2010-08-27T15:12:28Z</time>
      </trkpt><trkpt lat="43.80124444" lon="7.42623596">
        <ele>0</ele>
        <time>2010-08-27T15:13:43Z</time>
      </trkpt><trkpt lat="43.80359070" lon="7.42506919">
        <ele>0</ele>
        <time>2010-08-27T15:15:07Z</time>
      </trkpt><trkpt lat="43.80289886" lon="7.42261070">
        <ele>0</ele>
        <time>2010-08-27T15:16:12Z</time>
      </trkpt><trkpt lat="43.80368089" lon="7.42152725">
        <ele>0</ele>
        <time>2010-08-27T15:16:50Z</time>
      </trkpt><trkpt lat="43.80319960" lon="7.42006880">
        <ele>0</ele>
        <time>2010-08-27T15:17:29Z</time>
      </trkpt><trkpt lat="43.80395162" lon="7.41161205">
        <ele>0</ele>
        <time>2010-08-27T15:20:58Z</time>
      </trkpt><trkpt lat="43.80109398" lon="7.40869481">
        <ele>0</ele>
        <time>2010-08-27T15:22:59Z</time>
      </trkpt><trkpt lat="43.80013140" lon="7.40965328">
        <ele>0</ele>
        <time>2010-08-27T15:23:39Z</time>
      </trkpt><trkpt lat="43.79916883" lon="7.40806961">
        <ele>0</ele>
        <time>2010-08-27T15:24:30Z</time>
      </trkpt><trkpt lat="43.79601044" lon="7.40715279">
        <ele>0</ele>
        <time>2010-08-27T15:26:20Z</time>
      </trkpt><trkpt lat="43.79315280" lon="7.40265188">
        <ele>0</ele>
        <time>2010-08-27T15:28:47Z</time>
      </trkpt><trkpt lat="43.79158857" lon="7.40319360">
        <ele>0</ele>
        <time>2010-08-27T15:29:41Z</time>
      </trkpt><trkpt lat="43.79294216" lon="7.40161001">
        <ele>0</ele>
        <time>2010-08-27T15:30:42Z</time>
      </trkpt><trkpt lat="43.79035525" lon="7.40265188">
        <ele>0</ele>
        <time>2010-08-27T15:32:13Z</time>
      </trkpt><trkpt lat="43.79330317" lon="7.39944287">
        <ele>0</ele>
        <time>2010-08-27T15:34:21Z</time>
      </trkpt><trkpt lat="43.79531851" lon="7.40377707">
        <ele>0</ele>
        <time>2010-08-27T15:36:27Z</time>
      </trkpt><trkpt lat="43.79676238" lon="7.40506905">
        <ele>0</ele>
        <time>2010-08-27T15:37:26Z</time>
      </trkpt><trkpt lat="43.80091352" lon="7.40611092">
        <ele>0</ele>
        <time>2010-08-27T15:39:49Z</time>
      </trkpt><trkpt lat="43.80265821" lon="7.40569417">
        <ele>0</ele>
        <time>2010-08-27T15:40:49Z</time>
      </trkpt><trkpt lat="43.80344024" lon="7.40427721">
        <ele>0</ele>
        <time>2010-08-27T15:41:33Z</time>
      </trkpt><trkpt lat="43.80476383" lon="7.40402718">
        <ele>0</ele>
        <time>2010-08-27T15:42:18Z</time>
      </trkpt><trkpt lat="43.80350043" lon="7.40198501">
        <ele>0</ele>
        <time>2010-08-27T15:43:24Z</time>
      </trkpt><trkpt lat="43.80217692" lon="7.39594217">
        <ele>0</ele>
        <time>2010-08-27T15:45:59Z</time>
      </trkpt><trkpt lat="43.80205656" lon="7.40098489">
        <ele>0</ele>
        <time>2010-08-27T15:48:03Z</time>
      </trkpt><trkpt lat="43.80079315" lon="7.39656729">
        <ele>0</ele>
        <time>2010-08-27T15:50:00Z</time>
      </trkpt><trkpt lat="43.80082325" lon="7.39948453">
        <ele>0</ele>
        <time>2010-08-27T15:51:11Z</time>
      </trkpt><trkpt lat="43.79968021" lon="7.39631726">
        <ele>0</ele>
        <time>2010-08-27T15:52:38Z</time>
      </trkpt><trkpt lat="43.80055251" lon="7.39052435">
        <ele>0</ele>
        <time>2010-08-27T15:55:03Z</time>
      </trkpt><trkpt lat="43.79940947" lon="7.39306650">
        <ele>0</ele>
        <time>2010-08-27T15:56:17Z</time>
      </trkpt><trkpt lat="43.80019159" lon="7.38981583">
        <ele>0</ele>
        <time>2010-08-27T15:57:41Z</time>
      </trkpt><trkpt lat="43.79874772" lon="7.39077439">
        <ele>0</ele>
        <time>2010-08-27T15:58:35Z</time>
      </trkpt><trkpt lat="43.79877781" lon="7.39202463">
        <ele>0</ele>
        <time>2010-08-27T15:59:06Z</time>
      </trkpt><trkpt lat="43.79754450" lon="7.39181626">
        <ele>0</ele>
        <time>2010-08-27T15:59:48Z</time>
      </trkpt><trkpt lat="43.79706321" lon="7.39006595">
        <ele>0</ele>
        <time>2010-08-27T16:00:34Z</time>
      </trkpt><trkpt lat="43.79850707" lon="7.38856559">
        <ele>0</ele>
        <time>2010-08-27T16:01:36Z</time>
      </trkpt><trkpt lat="43.79673237" lon="7.38902408">
        <ele>0</ele>
        <time>2010-08-27T16:02:37Z</time>
      </trkpt><trkpt lat="43.79673237" lon="7.38648185">
        <ele>0</ele>
        <time>2010-08-27T16:03:39Z</time>
      </trkpt><trkpt lat="43.79835670" lon="7.38744040">
        <ele>0</ele>
        <time>2010-08-27T16:04:39Z</time>
      </trkpt><trkpt lat="43.79742422" lon="7.38564835">
        <ele>0</ele>
        <time>2010-08-27T16:05:34Z</time>
      </trkpt><trkpt lat="43.79655183" lon="7.38506489">
        <ele>0</ele>
        <time>2010-08-27T16:06:07Z</time>
      </trkpt><trkpt lat="43.79501777" lon="7.38744040">
        <ele>0</ele>
        <time>2010-08-27T16:07:25Z</time>
      </trkpt><trkpt lat="43.79429584" lon="7.38335623">
        <ele>0</ele>
        <time>2010-08-27T16:09:08Z</time>
      </trkpt><trkpt lat="43.79465676" lon="7.38073069">
        <ele>0</ele>
        <time>2010-08-27T16:10:14Z</time>
      </trkpt><trkpt lat="43.79279179" lon="7.37956376">
        <ele>0</ele>
        <time>2010-08-27T16:11:23Z</time>
      </trkpt><trkpt lat="43.79285197" lon="7.37831351">
        <ele>0</ele>
        <time>2010-08-27T16:11:54Z</time>
      </trkpt><trkpt lat="43.79077644" lon="7.37610472">
        <ele>0</ele>
        <time>2010-08-27T16:13:23Z</time>
      </trkpt><trkpt lat="43.79267151" lon="7.37752168">
        <ele>0</ele>
        <time>2010-08-27T16:14:36Z</time>
      </trkpt><trkpt lat="43.79360400" lon="7.37714659">
        <ele>0</ele>
        <time>2010-08-27T16:15:09Z</time>
      </trkpt><trkpt lat="43.79709330" lon="7.37993885">
        <ele>0</ele>
        <time>2010-08-27T16:17:26Z</time>
      </trkpt><trkpt lat="43.79625109" lon="7.38135581">
        <ele>0</ele>
        <time>2010-08-27T16:18:11Z</time>
      </trkpt><trkpt lat="43.79968021" lon="7.38293949">
        <ele>0</ele>
        <time>2010-08-27T16:20:14Z</time>
      </trkpt><trkpt lat="43.80280858" lon="7.38281443">
        <ele>0</ele>
        <time>2010-08-27T16:22:00Z</time>
      </trkpt><trkpt lat="43.80419227" lon="7.38064729">
        <ele>0</ele>
        <time>2010-08-27T16:23:11Z</time>
      </trkpt><trkpt lat="43.80969700" lon="7.38139747">
        <ele>0</ele>
        <time>2010-08-27T16:26:19Z</time>
      </trkpt><trkpt lat="43.81198308" lon="7.37977213">
        <ele>0</ele>
        <time>2010-08-27T16:27:47Z</time>
      </trkpt><trkpt lat="43.81517164" lon="7.38164348">
        <ele>0</ele>
        <time>2010-08-27T16:29:44Z</time>
      </trkpt><trkpt lat="43.81869103" lon="7.37968404">
        <ele>0</ele>
        <time>2010-08-27T16:31:53Z</time>
      </trkpt><trkpt lat="43.81899186" lon="7.37814152">
        <ele>0</ele>
        <time>2010-08-27T16:32:33Z</time>
      </trkpt><trkpt lat="43.81962352" lon="7.37876689">
        <ele>0</ele>
        <time>2010-08-27T16:32:59Z</time>
      </trkpt><trkpt lat="43.82224052" lon="7.37576516">
        <ele>0</ele>
        <time>2010-08-27T16:34:54Z</time>
      </trkpt><trkpt lat="43.82163895" lon="7.37217981">
        <ele>0</ele>
        <time>2010-08-27T16:36:25Z</time>
      </trkpt><trkpt lat="43.82251125" lon="7.37076234">
        <ele>0</ele>
        <time>2010-08-27T16:37:10Z</time>
      </trkpt><trkpt lat="43.83249795" lon="7.36509249">
        <ele>0</ele>
        <time>2010-08-27T16:43:17Z</time>
      </trkpt><trkpt lat="43.83430283" lon="7.35820063">
        <ele>0</ele>
        <time>2010-08-27T16:46:17Z</time>
      </trkpt><trkpt lat="43.83385163" lon="7.35528105">
        <ele>0</ele>
        <time>2010-08-27T16:47:30Z</time>
      </trkpt><trkpt lat="43.83547596" lon="7.35323729">
        <ele>0</ele>
        <time>2010-08-27T16:48:45Z</time>
      </trkpt><trkpt lat="43.83649864" lon="7.35536445">
        <ele>0</ele>
        <time>2010-08-27T16:49:48Z</time>
      </trkpt><trkpt lat="43.83971729" lon="7.35573988">
        <ele>0</ele>
        <time>2010-08-27T16:51:37Z</time>
      </trkpt><trkpt lat="43.84642524" lon="7.36049459">
        <ele>0</ele>
        <time>2010-08-27T16:55:54Z</time>
      </trkpt><trkpt lat="43.84804957" lon="7.36278864">
        <ele>0</ele>
        <time>2010-08-27T16:57:12Z</time>
      </trkpt><trkpt lat="43.84826012" lon="7.36495745">
        <ele>0</ele>
        <time>2010-08-27T16:58:06Z</time>
      </trkpt><trkpt lat="43.84964381" lon="7.36516600">
        <ele>0</ele>
        <time>2010-08-27T16:58:53Z</time>
      </trkpt><trkpt lat="43.85006492" lon="7.36758510">
        <ele>0</ele>
        <time>2010-08-27T16:59:54Z</time>
      </trkpt><trkpt lat="43.84997473" lon="7.36654239">
        <ele>0</ele>
        <time>2010-08-27T17:00:20Z</time>
      </trkpt><trkpt lat="43.85093730" lon="7.36871121">
        <ele>0</ele>
        <time>2010-08-27T17:01:23Z</time>
      </trkpt><trkpt lat="43.85439651" lon="7.37213136">
        <ele>0</ele>
        <time>2010-08-27T17:03:47Z</time>
      </trkpt><trkpt lat="43.85638185" lon="7.37413338">
        <ele>0</ele>
        <time>2010-08-27T17:05:10Z</time>
      </trkpt><trkpt lat="43.85599075" lon="7.37592685">
        <ele>0</ele>
        <time>2010-08-27T17:05:56Z</time>
      </trkpt><trkpt lat="43.85839720" lon="7.37784538">
        <ele>0</ele>
        <time>2010-08-27T17:07:31Z</time>
      </trkpt><trkpt lat="43.85996143" lon="7.37622064">
        <ele>0</ele>
        <time>2010-08-27T17:08:37Z</time>
      </trkpt><trkpt lat="43.86134511" lon="7.37763936">
        <ele>0</ele>
        <time>2010-08-27T17:09:36Z</time>
      </trkpt><trkpt lat="43.86083373" lon="7.37626229">
        <ele>0</ele>
        <time>2010-08-27T17:10:14Z</time>
      </trkpt><trkpt lat="43.86215732" lon="7.37667963">
        <ele>0</ele>
        <time>2010-08-27T17:11:00Z</time>
      </trkpt><trkpt lat="43.86387184" lon="7.37501046">
        <ele>0</ele>
        <time>2010-08-27T17:12:11Z</time>
      </trkpt><trkpt lat="43.86269871" lon="7.37705514">
        <ele>0</ele>
        <time>2010-08-27T17:13:15Z</time>
      </trkpt><trkpt lat="43.86438322" lon="7.37538605">
        <ele>0</ele>
        <time>2010-08-27T17:14:25Z</time>
      </trkpt><trkpt lat="43.86314990" lon="7.37814009">
        <ele>0</ele>
        <time>2010-08-27T17:15:45Z</time>
      </trkpt><trkpt lat="43.86516533" lon="7.38172872">
        <ele>0</ele>
        <time>2010-08-27T17:17:36Z</time>
      </trkpt><trkpt lat="43.86438322" lon="7.37705514">
        <ele>0</ele>
        <time>2010-08-27T17:19:34Z</time>
      </trkpt><trkpt lat="43.86588727" lon="7.38131147">
        <ele>0</ele>
        <time>2010-08-27T17:21:30Z</time>
      </trkpt><trkpt lat="43.86591736" lon="7.38005955">
        <ele>0</ele>
        <time>2010-08-27T17:22:01Z</time>
      </trkpt><trkpt lat="43.86844408" lon="7.38101936">
        <ele>0</ele>
        <time>2010-08-27T17:23:30Z</time>
      </trkpt><trkpt lat="43.86958712" lon="7.38285542">
        <ele>0</ele>
        <time>2010-08-27T17:24:29Z</time>
      </trkpt><trkpt lat="43.86823353" lon="7.38473313">
        <ele>0</ele>
        <time>2010-08-27T17:25:34Z</time>
      </trkpt><trkpt lat="43.86859445" lon="7.38640230">
        <ele>0</ele>
        <time>2010-08-27T17:26:17Z</time>
      </trkpt><trkpt lat="43.86703031" lon="7.38932323">
        <ele>0</ele>
        <time>2010-08-27T17:27:46Z</time>
      </trkpt><trkpt lat="43.86991804" lon="7.39061681">
        <ele>0</ele>
        <time>2010-08-27T17:29:29Z</time>
      </trkpt><trkpt lat="43.87205375" lon="7.39253635">
        <ele>0</ele>
        <time>2010-08-27T17:30:56Z</time>
      </trkpt><trkpt lat="43.87226430" lon="7.39378818">
        <ele>0</ele>
        <time>2010-08-27T17:31:27Z</time>
      </trkpt><trkpt lat="43.87400899" lon="7.39478965">
        <ele>0</ele>
        <time>2010-08-27T17:32:32Z</time>
      </trkpt><trkpt lat="43.87403909" lon="7.39666737">
        <ele>0</ele>
        <time>2010-08-27T17:33:18Z</time>
      </trkpt><trkpt lat="43.87250495" lon="7.39933801">
        <ele>0</ele>
        <time>2010-08-27T17:34:41Z</time>
      </trkpt><trkpt lat="43.87295614" lon="7.40246764">
        <ele>0</ele>
        <time>2010-08-27T17:36:00Z</time>
      </trkpt><trkpt lat="43.87241467" lon="7.40538857">
        <ele>0</ele>
        <time>2010-08-27T17:37:13Z</time>
      </trkpt><trkpt lat="43.87373826" lon="7.40559711">
        <ele>0</ele>
        <time>2010-08-27T17:37:59Z</time>
      </trkpt><trkpt lat="43.87382845" lon="7.40893529">
        <ele>0</ele>
        <time>2010-08-27T17:39:21Z</time>
      </trkpt><trkpt lat="43.87322688" lon="7.40693235">
        <ele>0</ele>
        <time>2010-08-27T17:40:14Z</time>
      </trkpt><trkpt lat="43.87223421" lon="7.40739134">
        <ele>0</ele>
        <time>2010-08-27T17:40:49Z</time>
      </trkpt><trkpt lat="43.87057979" lon="7.40609776">
        <ele>0</ele>
        <time>2010-08-27T17:41:54Z</time>
      </trkpt><trkpt lat="43.87181310" lon="7.40830933">
        <ele>0</ele>
        <time>2010-08-27T17:43:02Z</time>
      </trkpt><trkpt lat="43.87217403" lon="7.41648789">
        <ele>0</ele>
        <time>2010-08-27T17:46:23Z</time>
      </trkpt><trkpt lat="43.86808316" lon="7.42028506">
        <ele>0</ele>
        <time>2010-08-27T17:49:11Z</time>
      </trkpt><trkpt lat="43.86913592" lon="7.42011817">
        <ele>0</ele>
        <time>2010-08-27T17:49:47Z</time>
      </trkpt><trkpt lat="43.86648884" lon="7.42207929">
        <ele>0</ele>
        <time>2010-08-27T17:51:29Z</time>
      </trkpt><trkpt lat="43.86709049" lon="7.42253828">
        <ele>0</ele>
        <time>2010-08-27T17:51:52Z</time>
      </trkpt><trkpt lat="43.86603764" lon="7.42303901">
        <ele>0</ele>
        <time>2010-08-27T17:52:30Z</time>
      </trkpt><trkpt lat="43.86444340" lon="7.42107782">
        <ele>0</ele>
        <time>2010-08-27T17:53:42Z</time>
      </trkpt><trkpt lat="43.86366128" lon="7.42245488">
        <ele>0</ele>
        <time>2010-08-27T17:54:25Z</time>
      </trkpt><trkpt lat="43.86206705" lon="7.42124478">
        <ele>0</ele>
        <time>2010-08-27T17:55:27Z</time>
      </trkpt><trkpt lat="43.86164594" lon="7.42554269">
        <ele>0</ele>
        <time>2010-08-27T17:57:13Z</time>
      </trkpt><trkpt lat="43.85957033" lon="7.42721178">
        <ele>0</ele>
        <time>2010-08-27T17:58:35Z</time>
      </trkpt><trkpt lat="43.86161585" lon="7.42658582">
        <ele>0</ele>
        <time>2010-08-27T17:59:46Z</time>
      </trkpt><trkpt lat="43.86071345" lon="7.42808802">
        <ele>0</ele>
        <time>2010-08-27T18:00:34Z</time>
      </trkpt><trkpt lat="43.85941996" lon="7.42792114">
        <ele>0</ele>
        <time>2010-08-27T18:01:18Z</time>
      </trkpt><trkpt lat="43.85996143" lon="7.43025784">
        <ele>0</ele>
        <time>2010-08-27T18:02:18Z</time>
      </trkpt><trkpt lat="43.85839720" lon="7.42854701">
        <ele>0</ele>
        <time>2010-08-27T18:03:26Z</time>
      </trkpt><trkpt lat="43.85857774" lon="7.43121757">
        <ele>0</ele>
        <time>2010-08-27T18:04:32Z</time>
      </trkpt><trkpt lat="43.85785581" lon="7.42970556">
        <ele>0</ele>
        <time>2010-08-27T18:05:16Z</time>
      </trkpt><trkpt lat="43.85719398" lon="7.43024787">
        <ele>0</ele>
        <time>2010-08-27T18:05:42Z</time>
      </trkpt><trkpt lat="43.85797609" lon="7.43087366">
        <ele>0</ele>
        <time>2010-08-27T18:06:13Z</time>
      </trkpt><trkpt lat="43.85677287" lon="7.43425274">
        <ele>0</ele>
        <time>2010-08-27T18:07:45Z</time>
      </trkpt><trkpt lat="43.85716397" lon="7.44009317">
        <ele>0</ele>
        <time>2010-08-27T18:10:09Z</time>
      </trkpt><trkpt lat="43.85926959" lon="7.44334719">
        <ele>0</ele>
        <time>2010-08-27T18:11:56Z</time>
      </trkpt><trkpt lat="43.86694003" lon="7.44213735">
        <ele>0</ele>
        <time>2010-08-27T18:16:19Z</time>
      </trkpt><trkpt lat="43.87136191" lon="7.44322205">
        <ele>0</ele>
        <time>2010-08-27T18:18:52Z</time>
      </trkpt><trkpt lat="43.87485121" lon="7.44597500">
        <ele>0</ele>
        <time>2010-08-27T18:21:08Z</time>
      </trkpt><trkpt lat="43.87572360" lon="7.44351282">
        <ele>0</ele>
        <time>2010-08-27T18:22:15Z</time>
      </trkpt><trkpt lat="43.87674627" lon="7.44355456">
        <ele>0</ele>
        <time>2010-08-27T18:22:50Z</time>
      </trkpt><trkpt lat="43.87698692" lon="7.44476482">
        <ele>0</ele>
        <time>2010-08-27T18:23:21Z</time>
      </trkpt><trkpt lat="43.87812996" lon="7.44317897">
        <ele>0</ele>
        <time>2010-08-27T18:24:16Z</time>
      </trkpt><trkpt lat="43.87761866" lon="7.45085771">
        <ele>0</ele>
        <time>2010-08-27T18:27:25Z</time>
      </trkpt><trkpt lat="43.87996492" lon="7.46170809">
        <ele>0</ele>
        <time>2010-08-27T18:32:02Z</time>
      </trkpt><trkpt lat="43.88185999" lon="7.46450412">
        <ele>0</ele>
        <time>2010-08-27T18:33:36Z</time>
      </trkpt><trkpt lat="43.88216073" lon="7.46671594">
        <ele>0</ele>
        <time>2010-08-27T18:34:31Z</time>
      </trkpt><trkpt lat="43.88468754" lon="7.47034664">
        <ele>0</ele>
        <time>2010-08-27T18:36:35Z</time>
      </trkpt><trkpt lat="43.88941016" lon="7.46692465">
        <ele>0</ele>
        <time>2010-08-27T18:39:36Z</time>
      </trkpt><trkpt lat="43.88947034" lon="7.46905298">
        <ele>0</ele>
        <time>2010-08-27T18:40:28Z</time>
      </trkpt><trkpt lat="43.88676307" lon="7.47518761">
        <ele>0</ele>
        <time>2010-08-27T18:43:25Z</time>
      </trkpt><trkpt lat="43.88712407" lon="7.47639787">
        <ele>0</ele>
        <time>2010-08-27T18:43:57Z</time>
      </trkpt><trkpt lat="43.88760536" lon="7.47414432">
        <ele>0</ele>
        <time>2010-08-27T18:44:54Z</time>
      </trkpt><trkpt lat="43.88736472" lon="7.47593880">
        <ele>0</ele>
        <time>2010-08-27T18:45:39Z</time>
      </trkpt><trkpt lat="43.88802647" lon="7.47706558">
        <ele>0</ele>
        <time>2010-08-27T18:46:15Z</time>
      </trkpt><trkpt lat="43.88778583" lon="7.47547972">
        <ele>0</ele>
        <time>2010-08-27T18:46:54Z</time>
      </trkpt><trkpt lat="43.89085402" lon="7.47243332">
        <ele>0</ele>
        <time>2010-08-27T18:49:03Z</time>
      </trkpt><trkpt lat="43.89082393" lon="7.47336161">
        <ele>0</ele>
        <time>2010-08-27T18:49:25Z</time>
      </trkpt><trkpt lat="43.89362139" lon="7.47164995">
        <ele>0</ele>
        <time>2010-08-27T18:51:09Z</time>
      </trkpt><trkpt lat="43.89265881" lon="7.47273540">
        <ele>0</ele>
        <time>2010-08-27T18:51:51Z</time>
      </trkpt><trkpt lat="43.89900584" lon="7.47240147">
        <ele>0</ele>
        <time>2010-08-27T18:55:27Z</time>
      </trkpt><trkpt lat="43.89765216" lon="7.47306942">
        <ele>0</ele>
        <time>2010-08-27T18:56:16Z</time>
      </trkpt><trkpt lat="43.90237478" lon="7.47311116">
        <ele>0</ele>
        <time>2010-08-27T18:58:57Z</time>
      </trkpt><trkpt lat="43.90387883" lon="7.47553261">
        <ele>0</ele>
        <time>2010-08-27T19:00:15Z</time>
      </trkpt><trkpt lat="43.90778932" lon="7.47336161">
        <ele>0</ele>
        <time>2010-08-27T19:02:38Z</time>
      </trkpt><trkpt lat="43.90691693" lon="7.47674329">
        <ele>0</ele>
        <time>2010-08-27T19:04:06Z</time>
      </trkpt><trkpt lat="43.90830070" lon="7.47853844">
        <ele>0</ele>
        <time>2010-08-27T19:05:11Z</time>
      </trkpt><trkpt lat="43.91106807" lon="7.47807920">
        <ele>0</ele>
        <time>2010-08-27T19:06:45Z</time>
      </trkpt><trkpt lat="43.91148918" lon="7.48212867">
        <ele>0</ele>
        <time>2010-08-27T19:08:26Z</time>
      </trkpt><trkpt lat="43.91242166" lon="7.48317272">
        <ele>0</ele>
        <time>2010-08-27T19:09:06Z</time>
      </trkpt><trkpt lat="43.91389562" lon="7.48279687">
        <ele>0</ele>
        <time>2010-08-27T19:09:57Z</time>
      </trkpt><trkpt lat="43.91561022" lon="7.47686659">
        <ele>0</ele>
        <time>2010-08-27T19:12:34Z</time>
      </trkpt><trkpt lat="43.92117505" lon="7.47348382">
        <ele>0</ele>
        <time>2010-08-27T19:16:00Z</time>
      </trkpt><trkpt lat="43.92135560" lon="7.47214750">
        <ele>0</ele>
        <time>2010-08-27T19:16:34Z</time>
      </trkpt><trkpt lat="43.92237828" lon="7.47699190">
        <ele>0</ele>
        <time>2010-08-27T19:18:37Z</time>
      </trkpt><trkpt lat="43.92285956" lon="7.47607316">
        <ele>0</ele>
        <time>2010-08-27T19:19:05Z</time>
      </trkpt><trkpt lat="43.92322057" lon="7.47720069">
        <ele>0</ele>
        <time>2010-08-27T19:19:35Z</time>
      </trkpt><trkpt lat="43.92391242" lon="7.47686659">
        <ele>0</ele>
        <time>2010-08-27T19:20:00Z</time>
      </trkpt><trkpt lat="43.92328076" lon="7.47486197">
        <ele>0</ele>
        <time>2010-08-27T19:20:54Z</time>
      </trkpt><trkpt lat="43.92466444" lon="7.47703364">
        <ele>0</ele>
        <time>2010-08-27T19:22:05Z</time>
      </trkpt><trkpt lat="43.92592776" lon="7.47385975">
        <ele>0</ele>
        <time>2010-08-27T19:23:33Z</time>
      </trkpt><trkpt lat="43.92854476" lon="7.47427734">
        <ele>0</ele>
        <time>2010-08-27T19:25:03Z</time>
      </trkpt><trkpt lat="43.92604812" lon="7.47607316">
        <ele>0</ele>
        <time>2010-08-27T19:26:39Z</time>
      </trkpt><trkpt lat="43.92899604" lon="7.47536313">
        <ele>0</ele>
        <time>2010-08-27T19:28:20Z</time>
      </trkpt><trkpt lat="43.93188369" lon="7.47866241">
        <ele>0</ele>
        <time>2010-08-27T19:30:27Z</time>
      </trkpt><trkpt lat="43.93398939" lon="7.47811943">
        <ele>0</ele>
        <time>2010-08-27T19:31:40Z</time>
      </trkpt><trkpt lat="43.93317718" lon="7.47887121">
        <ele>0</ele>
        <time>2010-08-27T19:32:13Z</time>
      </trkpt><trkpt lat="43.93489179" lon="7.48045815">
        <ele>0</ele>
        <time>2010-08-27T19:33:23Z</time>
      </trkpt><trkpt lat="43.93540317" lon="7.47853593">
        <ele>0</ele>
        <time>2010-08-27T19:34:14Z</time>
      </trkpt><trkpt lat="43.93666649" lon="7.47962206">
        <ele>0</ele>
        <time>2010-08-27T19:35:04Z</time>
      </trkpt><trkpt lat="43.93847136" lon="7.47891194">
        <ele>0</ele>
        <time>2010-08-27T19:36:08Z</time>
      </trkpt><trkpt lat="43.93678685" lon="7.48434258">
        <ele>0</ele>
        <time>2010-08-27T19:38:33Z</time>
      </trkpt><trkpt lat="43.93985505" lon="7.49173667">
        <ele>0</ele>
        <time>2010-08-27T19:42:02Z</time>
      </trkpt><trkpt lat="43.94253223" lon="7.49219617">
        <ele>0</ele>
        <time>2010-08-27T19:43:33Z</time>
      </trkpt><trkpt lat="43.94352490" lon="7.49077586">
        <ele>0</ele>
        <time>2010-08-27T19:44:22Z</time>
      </trkpt><trkpt lat="43.94382564" lon="7.49545455">
        <ele>0</ele>
        <time>2010-08-27T19:46:17Z</time>
      </trkpt><trkpt lat="43.94286306" lon="7.49704200">
        <ele>0</ele>
        <time>2010-08-27T19:47:08Z</time>
      </trkpt><trkpt lat="43.94244195" lon="7.50464497">
        <ele>0</ele>
        <time>2010-08-27T19:50:14Z</time>
      </trkpt><trkpt lat="43.94313380" lon="7.50919836">
        <ele>0</ele>
        <time>2010-08-27T19:52:08Z</time>
      </trkpt><trkpt lat="43.94911982" lon="7.51254031">
        <ele>0</ele>
        <time>2010-08-27T19:55:47Z</time>
      </trkpt><trkpt lat="43.94899954" lon="7.51513031">
        <ele>0</ele>
        <time>2010-08-27T19:56:51Z</time>
      </trkpt><trkpt lat="43.95263921" lon="7.51563482">
        <ele>0</ele>
        <time>2010-08-27T19:58:55Z</time>
      </trkpt><trkpt lat="43.95444408" lon="7.51379659">
        <ele>0</ele>
        <time>2010-08-27T20:00:11Z</time>
      </trkpt><trkpt lat="43.95266930" lon="7.51684014">
        <ele>0</ele>
        <time>2010-08-27T20:01:47Z</time>
      </trkpt><trkpt lat="43.94981166" lon="7.51729980">
        <ele>0</ele>
        <time>2010-08-27T20:03:25Z</time>
      </trkpt><trkpt lat="43.95504565" lon="7.52055944">
        <ele>0</ele>
        <time>2010-08-27T20:06:40Z</time>
      </trkpt><trkpt lat="43.95790330" lon="7.52030865">
        <ele>0</ele>
        <time>2010-08-27T20:08:17Z</time>
      </trkpt><trkpt lat="43.96620549" lon="7.52532346">
        <ele>0</ele>
        <time>2010-08-27T20:13:25Z</time>
      </trkpt><trkpt lat="43.96948424" lon="7.53109038">
        <ele>0</ele>
        <time>2010-08-27T20:16:25Z</time>
      </trkpt><trkpt lat="43.97116875" lon="7.53735887">
        <ele>0</ele>
        <time>2010-08-27T20:19:09Z</time>
      </trkpt><trkpt lat="43.97498897" lon="7.53982449">
        <ele>0</ele>
        <time>2010-08-27T20:21:32Z</time>
      </trkpt><trkpt lat="43.97730522" lon="7.54337766">
        <ele>0</ele>
        <time>2010-08-27T20:23:29Z</time>
      </trkpt><trkpt lat="43.98419364" lon="7.54718171">
        <ele>0</ele>
        <time>2010-08-27T20:27:41Z</time>
      </trkpt><trkpt lat="43.98458465" lon="7.54956443">
        <ele>0</ele>
        <time>2010-08-27T20:28:41Z</time>
      </trkpt><trkpt lat="43.98554723" lon="7.55019148">
        <ele>0</ele>
        <time>2010-08-27T20:29:17Z</time>
      </trkpt><trkpt lat="43.98641954" lon="7.54647109">
        <ele>0</ele>
        <time>2010-08-27T20:30:53Z</time>
      </trkpt><trkpt lat="43.98936745" lon="7.54743258">
        <ele>0</ele>
        <time>2010-08-27T20:32:36Z</time>
      </trkpt><trkpt lat="43.99090151" lon="7.54605442">
        <ele>0</ele>
        <time>2010-08-27T20:33:38Z</time>
      </trkpt><trkpt lat="43.99312749" lon="7.54714147">
        <ele>0</ele>
        <time>2010-08-27T20:34:58Z</time>
      </trkpt><trkpt lat="43.99445099" lon="7.54965018">
        <ele>0</ele>
        <time>2010-08-27T20:36:14Z</time>
      </trkpt><trkpt lat="43.99709808" lon="7.54931565">
        <ele>0</ele>
        <time>2010-08-27T20:37:44Z</time>
      </trkpt><trkpt lat="44.00028664" lon="7.55199158">
        <ele>0</ele>
        <time>2010-08-27T20:39:51Z</time>
      </trkpt><trkpt lat="44.00753598" lon="7.55454714">
        <ele>0</ele>
        <time>2010-08-27T20:44:05Z</time>
      </trkpt><trkpt lat="44.01337163" lon="7.55931526">
        <ele>0</ele>
        <time>2010-08-27T20:47:55Z</time>
      </trkpt><trkpt lat="44.01628945" lon="7.56324688">
        <ele>0</ele>
        <time>2010-08-27T20:50:14Z</time>
      </trkpt><trkpt lat="44.02026005" lon="7.56458530">
        <ele>0</ele>
        <time>2010-08-27T20:52:32Z</time>
      </trkpt><trkpt lat="44.02149336" lon="7.56579825">
        <ele>0</ele>
        <time>2010-08-27T20:53:24Z</time>
      </trkpt><trkpt lat="44.02119253" lon="7.56793136">
        <ele>0</ele>
        <time>2010-08-27T20:54:17Z</time>
      </trkpt><trkpt lat="44.02459165" lon="7.57060921">
        <ele>0</ele>
        <time>2010-08-27T20:56:30Z</time>
      </trkpt><trkpt lat="44.02483229" lon="7.57219909">
        <ele>0</ele>
        <time>2010-08-27T20:57:09Z</time>
      </trkpt><trkpt lat="44.02768993" lon="7.57470947">
        <ele>0</ele>
        <time>2010-08-27T20:59:04Z</time>
      </trkpt><trkpt lat="44.02895325" lon="7.57713620">
        <ele>0</ele>
        <time>2010-08-27T21:00:18Z</time>
      </trkpt><trkpt lat="44.03057767" lon="7.57638308">
        <ele>0</ele>
        <time>2010-08-27T21:01:16Z</time>
      </trkpt><trkpt lat="44.03039712" lon="7.57956293">
        <ele>0</ele>
        <time>2010-08-27T21:02:34Z</time>
      </trkpt><trkpt lat="44.03111905" lon="7.58148749">
        <ele>0</ele>
        <time>2010-08-27T21:03:27Z</time>
      </trkpt><trkpt lat="44.03217190" lon="7.58186409">
        <ele>0</ele>
        <time>2010-08-27T21:04:04Z</time>
      </trkpt><trkpt lat="44.03349541" lon="7.57977205">
        <ele>0</ele>
        <time>2010-08-27T21:05:12Z</time>
      </trkpt><trkpt lat="44.03686443" lon="7.57947919">
        <ele>0</ele>
        <time>2010-08-27T21:07:07Z</time>
      </trkpt><trkpt lat="44.03755627" lon="7.58165488">
        <ele>0</ele>
        <time>2010-08-27T21:08:05Z</time>
      </trkpt><trkpt lat="44.04014318" lon="7.58228243">
        <ele>0</ele>
        <time>2010-08-27T21:09:34Z</time>
      </trkpt><trkpt lat="44.04375284" lon="7.58579697">
        <ele>0</ele>
        <time>2010-08-27T21:12:04Z</time>
      </trkpt><trkpt lat="44.04769343" lon="7.58608941">
        <ele>0</ele>
        <time>2010-08-27T21:14:18Z</time>
      </trkpt><trkpt lat="44.05220549" lon="7.58876827">
        <ele>0</ele>
        <time>2010-08-27T21:17:05Z</time>
      </trkpt><trkpt lat="44.05581516" lon="7.58822411">
        <ele>0</ele>
        <time>2010-08-27T21:19:08Z</time>
      </trkpt><trkpt lat="44.05771022" lon="7.58567082">
        <ele>0</ele>
        <time>2010-08-27T21:20:38Z</time>
      </trkpt><trkpt lat="44.05999630" lon="7.58784743">
        <ele>0</ele>
        <time>2010-08-27T21:22:12Z</time>
      </trkpt><trkpt lat="44.06814812" lon="7.58968910">
        <ele>0</ele>
        <time>2010-08-27T21:26:53Z</time>
      </trkpt><trkpt lat="44.06980254" lon="7.58834967">
        <ele>0</ele>
        <time>2010-08-27T21:27:58Z</time>
      </trkpt><trkpt lat="44.07088540" lon="7.58851715">
        <ele>0</ele>
        <time>2010-08-27T21:28:35Z</time>
      </trkpt><trkpt lat="44.07115614" lon="7.59383303">
        <ele>0</ele>
        <time>2010-08-27T21:30:45Z</time>
      </trkpt><trkpt lat="44.07302111" lon="7.59576204">
        <ele>0</ele>
        <time>2010-08-27T21:32:04Z</time>
      </trkpt><trkpt lat="44.07365285" lon="7.59823269">
        <ele>0</ele>
        <time>2010-08-27T21:33:08Z</time>
      </trkpt><trkpt lat="44.07930796" lon="7.59865145">
        <ele>0</ele>
        <time>2010-08-27T21:36:21Z</time>
      </trkpt><trkpt lat="44.08394030" lon="7.59291454">
        <ele>0</ele>
        <time>2010-08-27T21:39:51Z</time>
      </trkpt><trkpt lat="44.08830199" lon="7.59333330">
        <ele>0</ele>
        <time>2010-08-27T21:42:20Z</time>
      </trkpt><trkpt lat="44.09404736" lon="7.58985850">
        <ele>0</ele>
        <time>2010-08-27T21:45:53Z</time>
      </trkpt><trkpt lat="44.10024394" lon="7.58851807">
        <ele>0</ele>
        <time>2010-08-27T21:49:26Z</time>
      </trkpt><trkpt lat="44.10072523" lon="7.58604666">
        <ele>0</ele>
        <time>2010-08-27T21:50:29Z</time>
      </trkpt><trkpt lat="44.10213900" lon="7.58575338">
        <ele>0</ele>
        <time>2010-08-27T21:51:17Z</time>
      </trkpt><trkpt lat="44.10171790" lon="7.58441295">
        <ele>0</ele>
        <time>2010-08-27T21:51:53Z</time>
      </trkpt><trkpt lat="44.10331213" lon="7.57976334">
        <ele>0</ele>
        <time>2010-08-27T21:53:59Z</time>
      </trkpt><trkpt lat="44.10286094" lon="7.57528120">
        <ele>0</ele>
        <time>2010-08-27T21:55:49Z</time>
      </trkpt><trkpt lat="44.10764373" lon="7.57138554">
        <ele>0</ele>
        <time>2010-08-27T21:58:58Z</time>
      </trkpt><trkpt lat="44.10836567" lon="7.56966809">
        <ele>0</ele>
        <time>2010-08-27T21:59:46Z</time>
      </trkpt><trkpt lat="44.11020055" lon="7.56862094">
        <ele>0</ele>
        <time>2010-08-27T22:00:54Z</time>
      </trkpt><trkpt lat="44.11020055" lon="7.56631700">
        <ele>0</ele>
        <time>2010-08-27T22:01:50Z</time>
      </trkpt><trkpt lat="44.11287773" lon="7.56518603">
        <ele>0</ele>
        <time>2010-08-27T22:03:25Z</time>
      </trkpt><trkpt lat="44.11438169" lon="7.56581434">
        <ele>0</ele>
        <time>2010-08-27T22:04:18Z</time>
      </trkpt><trkpt lat="44.11513372" lon="7.56413092">
        <ele>0</ele>
        <time>2010-08-27T22:05:07Z</time>
      </trkpt><trkpt lat="44.12142056" lon="7.56760882">
        <ele>0</ele>
        <time>2010-08-27T22:08:57Z</time>
      </trkpt><trkpt lat="44.12295462" lon="7.56656125">
        <ele>0</ele>
        <time>2010-08-27T22:09:55Z</time>
      </trkpt><trkpt lat="44.12581226" lon="7.56773455">
        <ele>0</ele>
        <time>2010-08-27T22:11:36Z</time>
      </trkpt><trkpt lat="44.12827889" lon="7.56723172">
        <ele>0</ele>
        <time>2010-08-27T22:13:01Z</time>
      </trkpt><trkpt lat="44.12903091" lon="7.56572323">
        <ele>0</ele>
        <time>2010-08-27T22:13:46Z</time>
      </trkpt><trkpt lat="44.13020404" lon="7.56618415">
        <ele>0</ele>
        <time>2010-08-27T22:14:27Z</time>
      </trkpt><trkpt lat="44.12752686" lon="7.56375373">
        <ele>0</ele>
        <time>2010-08-27T22:16:16Z</time>
      </trkpt><trkpt lat="44.12888046" lon="7.56329281">
        <ele>0</ele>
        <time>2010-08-27T22:17:03Z</time>
      </trkpt><trkpt lat="44.12668465" lon="7.56283189">
        <ele>0</ele>
        <time>2010-08-27T22:18:18Z</time>
      </trkpt><trkpt lat="44.12927156" lon="7.56283189">
        <ele>0</ele>
        <time>2010-08-27T22:19:46Z</time>
      </trkpt><trkpt lat="44.13170809" lon="7.56635179">
        <ele>0</ele>
        <time>2010-08-27T22:21:46Z</time>
      </trkpt><trkpt lat="44.13435510" lon="7.56798157">
        <ele>0</ele>
        <time>2010-08-27T22:23:24Z</time>
      </trkpt><trkpt lat="44.13606970" lon="7.56697565">
        <ele>0</ele>
        <time>2010-08-27T22:24:27Z</time>
      </trkpt><trkpt lat="44.13823550" lon="7.56835884">
        <ele>0</ele>
        <time>2010-08-27T22:25:48Z</time>
      </trkpt><trkpt lat="44.13880706" lon="7.57016103">
        <ele>0</ele>
        <time>2010-08-27T22:26:36Z</time>
      </trkpt><trkpt lat="44.15210260" lon="7.57099427">
        <ele>0</ele>
        <time>2010-08-27T22:34:09Z</time>
      </trkpt><trkpt lat="44.15423831" lon="7.57275514">
        <ele>0</ele>
        <time>2010-08-27T22:35:33Z</time>
      </trkpt><trkpt lat="44.16792487" lon="7.57170523">
        <ele>0</ele>
        <time>2010-08-27T22:43:19Z</time>
      </trkpt><trkpt lat="44.17006058" lon="7.57074080">
        <ele>0</ele>
        <time>2010-08-27T22:44:36Z</time>
      </trkpt><trkpt lat="44.17177518" lon="7.56860233">
        <ele>0</ele>
        <time>2010-08-27T22:45:54Z</time>
      </trkpt><trkpt lat="44.16966957" lon="7.56956675">
        <ele>0</ele>
        <time>2010-08-27T22:47:09Z</time>
      </trkpt><trkpt lat="44.16605990" lon="7.56885395">
        <ele>0</ele>
        <time>2010-08-27T22:49:13Z</time>
      </trkpt><trkpt lat="44.16413474" lon="7.57237611">
        <ele>0</ele>
        <time>2010-08-27T22:51:01Z</time>
      </trkpt><trkpt lat="44.16440548" lon="7.57015382">
        <ele>0</ele>
        <time>2010-08-27T22:51:56Z</time>
      </trkpt><trkpt lat="44.16311207" lon="7.57304700">
        <ele>0</ele>
        <time>2010-08-27T22:53:19Z</time>
      </trkpt><trkpt lat="44.16326244" lon="7.56973447">
        <ele>0</ele>
        <time>2010-08-27T22:54:40Z</time>
      </trkpt><trkpt lat="44.16263078" lon="7.57157941">
        <ele>0</ele>
        <time>2010-08-27T22:55:30Z</time>
      </trkpt><trkpt lat="44.16229986" lon="7.56906359">
        <ele>0</ele>
        <time>2010-08-27T22:56:32Z</time>
      </trkpt><trkpt lat="44.16097636" lon="7.57178905">
        <ele>0</ele>
        <time>2010-08-27T22:57:53Z</time>
      </trkpt><trkpt lat="44.16088609" lon="7.56784762">
        <ele>0</ele>
        <time>2010-08-27T22:59:29Z</time>
      </trkpt><trkpt lat="44.16305189" lon="7.56499635">
        <ele>0</ele>
        <time>2010-08-27T23:01:10Z</time>
      </trkpt><trkpt lat="44.16025442" lon="7.56675739">
        <ele>0</ele>
        <time>2010-08-27T23:02:54Z</time>
      </trkpt><trkpt lat="44.15950240" lon="7.56960866">
        <ele>0</ele>
        <time>2010-08-27T23:04:08Z</time>
      </trkpt><trkpt lat="44.15923167" lon="7.56692511">
        <ele>0</ele>
        <time>2010-08-27T23:05:14Z</time>
      </trkpt><trkpt lat="44.16211940" lon="7.56373840">
        <ele>0</ele>
        <time>2010-08-27T23:07:20Z</time>
      </trkpt><trkpt lat="44.15790808" lon="7.56583496">
        <ele>0</ele>
        <time>2010-08-27T23:09:52Z</time>
      </trkpt><trkpt lat="44.16109664" lon="7.56155801">
        <ele>0</ele>
        <time>2010-08-27T23:12:22Z</time>
      </trkpt><trkpt lat="44.15186196" lon="7.56570915">
        <ele>0</ele>
        <time>2010-08-27T23:17:52Z</time>
      </trkpt><trkpt lat="44.14900432" lon="7.56134838">
        <ele>0</ele>
        <time>2010-08-27T23:20:16Z</time>
      </trkpt><trkpt lat="44.14954579" lon="7.55900396">
        <ele>0</ele>
        <time>2010-08-27T23:21:16Z</time>
      </trkpt><trkpt lat="44.14747018" lon="7.55833316">
        <ele>0</ele>
        <time>2010-08-27T23:22:29Z</time>
      </trkpt><trkpt lat="44.14936524" lon="7.55900396">
        <ele>0</ele>
        <time>2010-08-27T23:23:35Z</time>
      </trkpt><trkpt lat="44.15165141" lon="7.56533464">
        <ele>0</ele>
        <time>2010-08-27T23:26:28Z</time>
      </trkpt><trkpt lat="44.16100637" lon="7.56151945">
        <ele>0</ele>
        <time>2010-08-27T23:31:59Z</time>
      </trkpt><trkpt lat="44.15799835" lon="7.56583773">
        <ele>0</ele>
        <time>2010-08-27T23:34:26Z</time>
      </trkpt><trkpt lat="44.16214949" lon="7.56386731">
        <ele>0</ele>
        <time>2010-08-27T23:36:55Z</time>
      </trkpt><trkpt lat="44.15917148" lon="7.56701161">
        <ele>0</ele>
        <time>2010-08-27T23:39:02Z</time>
      </trkpt><trkpt lat="44.15953249" lon="7.56982064">
        <ele>0</ele>
        <time>2010-08-27T23:40:12Z</time>
      </trkpt><trkpt lat="44.16037471" lon="7.56692779">
        <ele>0</ele>
        <time>2010-08-27T23:41:28Z</time>
      </trkpt><trkpt lat="44.16281124" lon="7.56516692">
        <ele>0</ele>
        <time>2010-08-27T23:43:01Z</time>
      </trkpt><trkpt lat="44.16094627" lon="7.56747278">
        <ele>0</ele>
        <time>2010-08-27T23:44:26Z</time>
      </trkpt><trkpt lat="44.16112673" lon="7.57191687">
        <ele>0</ele>
        <time>2010-08-27T23:46:14Z</time>
      </trkpt><trkpt lat="44.16311207" lon="7.56709552">
        <ele>0</ele>
        <time>2010-08-27T23:48:30Z</time>
      </trkpt><trkpt lat="44.16232995" lon="7.56898211">
        <ele>0</ele>
        <time>2010-08-27T23:49:23Z</time>
      </trkpt><trkpt lat="44.16257060" lon="7.57162342">
        <ele>0</ele>
        <time>2010-08-27T23:50:28Z</time>
      </trkpt><trkpt lat="44.16329253" lon="7.56994637">
        <ele>0</ele>
        <time>2010-08-27T23:51:16Z</time>
      </trkpt><trkpt lat="44.16317217" lon="7.57279730">
        <ele>0</ele>
        <time>2010-08-27T23:52:25Z</time>
      </trkpt><trkpt lat="44.16431521" lon="7.56986255">
        <ele>0</ele>
        <time>2010-08-27T23:53:47Z</time>
      </trkpt><trkpt lat="44.16398437" lon="7.57212650">
        <ele>0</ele>
        <time>2010-08-27T23:54:43Z</time>
      </trkpt><trkpt lat="44.16578916" lon="7.56910524">
        <ele>0</ele>
        <time>2010-08-27T23:56:19Z</time>
      </trkpt><trkpt lat="44.17186546" lon="7.56906333">
        <ele>0</ele>
        <time>2010-08-27T23:59:46Z</time>
      </trkpt><trkpt lat="44.16921837" lon="7.57078246">
        <ele>0</ele>
        <time>2010-08-28T00:01:25Z</time>
      </trkpt><trkpt lat="44.17282803" lon="7.56876980">
        <ele>0</ele>
        <time>2010-08-28T00:03:37Z</time>
      </trkpt><trkpt lat="44.17493365" lon="7.56914154">
        <ele>0</ele>
        <time>2010-08-28T00:04:49Z</time>
      </trkpt><trkpt lat="44.17514421" lon="7.56750573">
        <ele>0</ele>
        <time>2010-08-28T00:05:30Z</time>
      </trkpt><trkpt lat="44.17682872" lon="7.56763154">
        <ele>0</ele>
        <time>2010-08-28T00:06:27Z</time>
      </trkpt><trkpt lat="44.18043838" lon="7.56280800">
        <ele>0</ele>
        <time>2010-08-28T00:09:17Z</time>
      </trkpt><trkpt lat="44.17905470" lon="7.56704430">
        <ele>0</ele>
        <time>2010-08-28T00:11:11Z</time>
      </trkpt><trkpt lat="44.18188225" lon="7.56431800">
        <ele>0</ele>
        <time>2010-08-28T00:13:07Z</time>
      </trkpt><trkpt lat="44.18200253" lon="7.55991382">
        <ele>0</ele>
        <time>2010-08-28T00:14:55Z</time>
      </trkpt><trkpt lat="44.18272446" lon="7.56314353">
        <ele>0</ele>
        <time>2010-08-28T00:16:17Z</time>
      </trkpt><trkpt lat="44.18275455" lon="7.56125601">
        <ele>0</ele>
        <time>2010-08-28T00:17:03Z</time>
      </trkpt><trkpt lat="44.18308547" lon="7.56247239">
        <ele>0</ele>
        <time>2010-08-28T00:17:35Z</time>
      </trkpt><trkpt lat="44.18365695" lon="7.56071077">
        <ele>0</ele>
        <time>2010-08-28T00:18:22Z</time>
      </trkpt><trkpt lat="44.18395778" lon="7.56301772">
        <ele>0</ele>
        <time>2010-08-28T00:19:19Z</time>
      </trkpt><trkpt lat="44.18609349" lon="7.56343715">
        <ele>0</ele>
        <time>2010-08-28T00:20:33Z</time>
      </trkpt><trkpt lat="44.18678533" lon="7.56234658">
        <ele>0</ele>
        <time>2010-08-28T00:21:08Z</time>
      </trkpt><trkpt lat="44.18964297" lon="7.56817686">
        <ele>0</ele>
        <time>2010-08-28T00:24:00Z</time>
      </trkpt><trkpt lat="44.19514770" lon="7.57450646">
        <ele>0</ele>
        <time>2010-08-28T00:28:03Z</time>
      </trkpt><trkpt lat="44.19926875" lon="7.57521967">
        <ele>0</ele>
        <time>2010-08-28T00:30:24Z</time>
      </trkpt><trkpt lat="44.20311897" lon="7.57379316">
        <ele>0</ele>
        <time>2010-08-28T00:32:40Z</time>
      </trkpt><trkpt lat="44.20510431" lon="7.57496797">
        <ele>0</ele>
        <time>2010-08-28T00:33:53Z</time>
      </trkpt><trkpt lat="44.20844324" lon="7.57396096">
        <ele>0</ele>
        <time>2010-08-28T00:35:49Z</time>
      </trkpt><trkpt lat="44.21024803" lon="7.57215215">
        <ele>0</ele>
        <time>2010-08-28T00:37:05Z</time>
      </trkpt><trkpt lat="44.21274475" lon="7.57273972">
        <ele>0</ele>
        <time>2010-08-28T00:38:31Z</time>
      </trkpt><trkpt lat="44.22231035" lon="7.56724161">
        <ele>0</ele>
        <time>2010-08-28T00:44:22Z</time>
      </trkpt><trkpt lat="44.22321274" lon="7.56489133">
        <ele>0</ele>
        <time>2010-08-28T00:45:27Z</time>
      </trkpt><trkpt lat="44.22880766" lon="7.56199538">
        <ele>0</ele>
        <time>2010-08-28T00:48:50Z</time>
      </trkpt><trkpt lat="44.22838656" lon="7.55792429">
        <ele>0</ele>
        <time>2010-08-28T00:50:30Z</time>
      </trkpt><trkpt lat="44.23127429" lon="7.55527292">
        <ele>0</ele>
        <time>2010-08-28T00:52:28Z</time>
      </trkpt><trkpt lat="44.23347018" lon="7.55036029">
        <ele>0</ele>
        <time>2010-08-28T00:54:49Z</time>
      </trkpt><trkpt lat="44.23371083" lon="7.54800892">
        <ele>0</ele>
        <time>2010-08-28T00:55:47Z</time>
      </trkpt><trkpt lat="44.24345688" lon="7.53356497">
        <ele>0</ele>
        <time>2010-08-28T01:03:50Z</time>
      </trkpt><trkpt lat="44.24875106" lon="7.53230534">
        <ele>0</ele>
        <time>2010-08-28T01:06:53Z</time>
      </trkpt><trkpt lat="44.25997099" lon="7.52323209">
        <ele>0</ele>
        <time>2010-08-28T01:14:13Z</time>
      </trkpt><trkpt lat="44.26168560" lon="7.51852834">
        <ele>0</ele>
        <time>2010-08-28T01:16:22Z</time>
      </trkpt><trkpt lat="44.26358066" lon="7.51911633">
        <ele>0</ele>
        <time>2010-08-28T01:17:28Z</time>
      </trkpt><trkpt lat="44.26415222" lon="7.51823438">
        <ele>0</ele>
        <time>2010-08-28T01:17:57Z</time>
      </trkpt><trkpt lat="44.27392837" lon="7.51919327">
        <ele>0</ele>
        <time>2010-08-28T01:23:30Z</time>
      </trkpt><trkpt lat="44.28259149" lon="7.51772284">
        <ele>0</ele>
        <time>2010-08-28T01:28:27Z</time>
      </trkpt><trkpt lat="44.28704345" lon="7.51957138">
        <ele>0</ele>
        <time>2010-08-28T01:31:05Z</time>
      </trkpt><trkpt lat="44.29600739" lon="7.51590824">
        <ele>0</ele>
        <time>2010-08-28T01:36:22Z</time>
      </trkpt><trkpt lat="44.30039918" lon="7.51641249">
        <ele>0</ele>
        <time>2010-08-28T01:38:52Z</time>
      </trkpt><trkpt lat="44.30247470" lon="7.51494155">
        <ele>0</ele>
        <time>2010-08-28T01:40:11Z</time>
      </trkpt><trkpt lat="44.30888183" lon="7.50435085">
        <ele>0</ele>
        <time>2010-08-28T01:45:48Z</time>
      </trkpt><trkpt lat="44.30987450" lon="7.49935532">
        <ele>0</ele>
        <time>2010-08-28T01:47:54Z</time>
      </trkpt><trkpt lat="44.31423610" lon="7.48850746">
        <ele>0</ele>
        <time>2010-08-28T01:52:57Z</time>
      </trkpt><trkpt lat="44.31820678" lon="7.48636312">
        <ele>0</ele>
        <time>2010-08-28T01:55:22Z</time>
      </trkpt><trkpt lat="44.31886853" lon="7.48156993">
        <ele>0</ele>
        <time>2010-08-28T01:57:21Z</time>
      </trkpt><trkpt lat="44.32416271" lon="7.48085512">
        <ele>0</ele>
        <time>2010-08-28T02:00:21Z</time>
      </trkpt><trkpt lat="44.33240472" lon="7.49721098">
        <ele>0</ele>
        <time>2010-08-28T02:08:28Z</time>
      </trkpt><trkpt lat="44.33400767" lon="7.49583785">
        <ele>0</ele>
        <time>2010-08-28T02:09:32Z</time>
      </trkpt><trkpt lat="44.33725633" lon="7.49617447">
        <ele>0</ele>
        <time>2010-08-28T02:11:23Z</time>
      </trkpt><trkpt lat="44.33815873" lon="7.49482825">
        <ele>0</ele>
        <time>2010-08-28T02:12:07Z</time>
      </trkpt><trkpt lat="44.38442247" lon="7.54313199">
        <ele>0</ele>
        <time>2010-08-28T02:44:50Z</time>
      </trkpt><trkpt lat="44.38725003" lon="7.53740899">
        <ele>0</ele>
        <time>2010-08-28T02:47:39Z</time>
      </trkpt><trkpt lat="44.38514441" lon="7.53522081">
        <ele>0</ele>
        <time>2010-08-28T02:49:08Z</time>
      </trkpt><trkpt lat="44.38477938" lon="7.53537848">
        <ele>563</ele>
        <time>2010-08-28T02:49:21Z</time>
      </trkpt><trkpt lat="44.38004553" lon="7.52933873">
        <ele>582.7</ele>
        <time>2010-08-28T02:52:59Z</time>
      </trkpt><trkpt lat="44.38841343" lon="7.52029382">
        <ele>568.3</ele>
        <time>2010-08-28T02:58:58Z</time>
      </trkpt><trkpt lat="44.38789459" lon="7.51640570">
        <ele>574.5</ele>
        <time>2010-08-28T03:00:35Z</time>
      </trkpt><trkpt lat="44.38984037" lon="7.51306107">
        <ele>587.5</ele>
        <time>2010-08-28T03:02:19Z</time>
      </trkpt><trkpt lat="44.39159730" lon="7.51180362">
        <ele>584.6</ele>
        <time>2010-08-28T03:03:26Z</time>
      </trkpt><trkpt lat="44.39458587" lon="7.51206329">
        <ele>576.9</ele>
        <time>2010-08-28T03:05:08Z</time>
      </trkpt><trkpt lat="44.39573880" lon="7.49012668">
        <ele>581.3</ele>
        <time>2010-08-28T03:14:02Z</time>
      </trkpt><trkpt lat="44.40070491" lon="7.44957863">
        <ele>579.8</ele>
        <time>2010-08-28T03:30:42Z</time>
      </trkpt><trkpt lat="44.41424755" lon="7.43692959">
        <ele>592.8</ele>
        <time>2010-08-28T03:39:55Z</time>
      </trkpt><trkpt lat="44.41446305" lon="7.43280854">
        <ele>598.1</ele>
        <time>2010-08-28T03:41:36Z</time>
      </trkpt><trkpt lat="44.41205979" lon="7.42267985">
        <ele>610.1</ele>
        <time>2010-08-28T03:45:55Z</time>
      </trkpt><trkpt lat="44.41356183" lon="7.42199421">
        <ele>609.6</ele>
        <time>2010-08-28T03:46:48Z</time>
      </trkpt><trkpt lat="44.41478265" lon="7.41982246">
        <ele>613</ele>
        <time>2010-08-28T03:47:55Z</time>
      </trkpt><trkpt lat="44.41548421" lon="7.41602420">
        <ele>617.3</ele>
        <time>2010-08-28T03:49:31Z</time>
      </trkpt><trkpt lat="44.41187103" lon="7.37430738">
        <ele>662</ele>
        <time>2010-08-28T04:06:31Z</time>
      </trkpt><trkpt lat="44.41291424" lon="7.35283705">
        <ele>694.2</ele>
        <time>2010-08-28T04:15:14Z</time>
      </trkpt><trkpt lat="44.40760640" lon="7.31781797">
        <ele>763.9</ele>
        <time>2010-08-28T04:29:43Z</time>
      </trkpt><trkpt lat="44.40856110" lon="7.31421241">
        <ele>779.3</ele>
        <time>2010-08-28T04:31:16Z</time>
      </trkpt><trkpt lat="44.40862136" lon="7.30604835">
        <ele>776.9</ele>
        <time>2010-08-28T04:34:35Z</time>
      </trkpt><trkpt lat="44.41146166" lon="7.29455710">
        <ele>792.3</ele>
        <time>2010-08-28T04:39:30Z</time>
      </trkpt><trkpt lat="44.41753200" lon="7.28285906">
        <ele>818.2</ele>
        <time>2010-08-28T04:45:21Z</time>
      </trkpt><trkpt lat="44.41939831" lon="7.27696071">
        <ele>833.1</ele>
        <time>2010-08-28T04:47:58Z</time>
      </trkpt><trkpt lat="44.41694845" lon="7.27027573">
        <ele>843.2</ele>
        <time>2010-08-28T04:51:00Z</time>
      </trkpt><trkpt lat="44.41452616" lon="7.26813340">
        <ele>854.3</ele>
        <time>2010-08-28T04:52:38Z</time>
      </trkpt><trkpt lat="44.41405518" lon="7.26554607">
        <ele>861.5</ele>
        <time>2010-08-28T04:53:42Z</time>
      </trkpt><trkpt lat="44.41214562" lon="7.26372242">
        <ele>866.8</ele>
        <time>2010-08-28T04:55:01Z</time>
      </trkpt><trkpt lat="44.41230102" lon="7.26054073">
        <ele>873</ele>
        <time>2010-08-28T04:56:19Z</time>
      </trkpt><trkpt lat="44.41139753" lon="7.25819799">
        <ele>880.2</ele>
        <time>2010-08-28T04:57:23Z</time>
      </trkpt><trkpt lat="44.41138546" lon="7.24522582">
        <ele>911.5</ele>
        <time>2010-08-28T05:02:38Z</time>
      </trkpt><trkpt lat="44.41349879" lon="7.24052265">
        <ele>924.9</ele>
        <time>2010-08-28T05:04:53Z</time>
      </trkpt><trkpt lat="44.41318774" lon="7.23921441">
        <ele>927.8</ele>
        <time>2010-08-28T05:05:27Z</time>
      </trkpt><trkpt lat="44.41158479" lon="7.23840136">
        <ele>938.4</ele>
        <time>2010-08-28T05:06:25Z</time>
      </trkpt><trkpt lat="44.41132335" lon="7.23472531">
        <ele>955.2</ele>
        <time>2010-08-28T05:07:54Z</time>
      </trkpt><trkpt lat="44.41227462" lon="7.23512664">
        <ele>960</ele>
        <time>2010-08-28T05:08:28Z</time>
      </trkpt><trkpt lat="44.41412199" lon="7.23304952">
        <ele>979.2</ele>
        <time>2010-08-28T05:09:49Z</time>
      </trkpt><trkpt lat="44.41325513" lon="7.23259606">
        <ele>986.5</ele>
        <time>2010-08-28T05:10:20Z</time>
      </trkpt><trkpt lat="44.41321850" lon="7.22720146">
        <ele>1017.2</ele>
        <time>2010-08-28T05:12:31Z</time>
      </trkpt><trkpt lat="44.41440395" lon="7.22556255">
        <ele>1027.3</ele>
        <time>2010-08-28T05:13:28Z</time>
      </trkpt><trkpt lat="44.41116586" lon="7.22298226">
        <ele>1053.7</ele>
        <time>2010-08-28T05:15:34Z</time>
      </trkpt><trkpt lat="44.40966407" lon="7.21148808">
        <ele>1169.6</ele>
        <time>2010-08-28T05:20:18Z</time>
      </trkpt><trkpt lat="44.40566540" lon="7.20698834">
        <ele>1234.5</ele>
        <time>2010-08-28T05:23:13Z</time>
      </trkpt><trkpt lat="44.40459889" lon="7.20336819">
        <ele>1259.9</ele>
        <time>2010-08-28T05:24:48Z</time>
      </trkpt><trkpt lat="44.39584181" lon="7.19601609">
        <ele>1376.7</ele>
        <time>2010-08-28T05:30:35Z</time>
      </trkpt><trkpt lat="44.39780460" lon="7.19681740">
        <ele>1407.5</ele>
        <time>2010-08-28T05:31:44Z</time>
      </trkpt><trkpt lat="44.39540863" lon="7.19389916">
        <ele>1458</ele>
        <time>2010-08-28T05:33:32Z</time>
      </trkpt><trkpt lat="44.39457003" lon="7.18920764">
        <ele>1505.6</ele>
        <time>2010-08-28T05:35:30Z</time>
      </trkpt><trkpt lat="44.39582848" lon="7.18597281">
        <ele>1556</ele>
        <time>2010-08-28T05:36:59Z</time>
      </trkpt><trkpt lat="44.39520210" lon="7.18365940">
        <ele>1572.4</ele>
        <time>2010-08-28T05:37:59Z</time>
      </trkpt><trkpt lat="44.39585790" lon="7.18112120">
        <ele>1583.4</ele>
        <time>2010-08-28T05:39:05Z</time>
      </trkpt><trkpt lat="44.39959875" lon="7.17616615">
        <ele>1656</ele>
        <time>2010-08-28T05:42:00Z</time>
      </trkpt><trkpt lat="44.40035530" lon="7.17294767">
        <ele>1692.5</ele>
        <time>2010-08-28T05:43:22Z</time>
      </trkpt><trkpt lat="44.39947185" lon="7.16957294">
        <ele>1726.2</ele>
        <time>2010-08-28T05:44:50Z</time>
      </trkpt><trkpt lat="44.39974593" lon="7.17077893">
        <ele>1733.9</ele>
        <time>2010-08-28T05:45:20Z</time>
      </trkpt><trkpt lat="44.40052193" lon="7.16760689">
        <ele>1767</ele>
        <time>2010-08-28T05:46:42Z</time>
      </trkpt><trkpt lat="44.40198902" lon="7.16641523">
        <ele>1783.9</ele>
        <time>2010-08-28T05:47:39Z</time>
      </trkpt><trkpt lat="44.40183781" lon="7.16423107">
        <ele>1787.2</ele>
        <time>2010-08-28T05:48:33Z</time>
      </trkpt><trkpt lat="44.39839620" lon="7.16284923">
        <ele>1805.5</ele>
        <time>2010-08-28T05:50:34Z</time>
      </trkpt><trkpt lat="44.39574047" lon="7.15805948">
        <ele>1862.7</ele>
        <time>2010-08-28T05:53:02Z</time>
      </trkpt><trkpt lat="44.39578800" lon="7.15421571">
        <ele>1886.2</ele>
        <time>2010-08-28T05:54:35Z</time>
      </trkpt><trkpt lat="44.39350737" lon="7.15242332">
        <ele>1911.2</ele>
        <time>2010-08-28T05:56:04Z</time>
      </trkpt><trkpt lat="44.39362438" lon="7.15128581">
        <ele>1921.3</ele>
        <time>2010-08-28T05:56:32Z</time>
      </trkpt><trkpt lat="44.39183669" lon="7.15104089">
        <ele>1938.6</ele>
        <time>2010-08-28T05:57:33Z</time>
      </trkpt><trkpt lat="44.39094544" lon="7.15291500">
        <ele>1956.4</ele>
        <time>2010-08-28T05:58:28Z</time>
      </trkpt><trkpt lat="44.39055300" lon="7.15185536">
        <ele>1966.5</ele>
        <time>2010-08-28T05:58:57Z</time>
      </trkpt><trkpt lat="44.39058569" lon="7.14940500">
        <ele>1984.3</ele>
        <time>2010-08-28T05:59:56Z</time>
      </trkpt><trkpt lat="44.39315365" lon="7.14866638">
        <ele>2000.6</ele>
        <time>2010-08-28T06:01:25Z</time>
      </trkpt><trkpt lat="44.39742951" lon="7.14017308">
        <ele>2089.1</ele>
        <time>2010-08-28T06:05:38Z</time>
      </trkpt><trkpt lat="44.39778943" lon="7.13759020">
        <ele>2114.6</ele>
        <time>2010-08-28T06:06:42Z</time>
      </trkpt><trkpt lat="44.39622403" lon="7.13828087">
        <ele>2137.1</ele>
        <time>2010-08-28T06:07:37Z</time>
      </trkpt><trkpt lat="44.39611900" lon="7.13723288">
        <ele>2148.7</ele>
        <time>2010-08-28T06:08:03Z</time>
      </trkpt><trkpt lat="44.39636853" lon="7.13605899">
        <ele>2160.7</ele>
        <time>2010-08-28T06:08:33Z</time>
      </trkpt><trkpt lat="44.39734242" lon="7.13598381">
        <ele>2171.8</ele>
        <time>2010-08-28T06:09:06Z</time>
      </trkpt><trkpt lat="44.39527989" lon="7.13423870">
        <ele>2203.5</ele>
        <time>2010-08-28T06:10:28Z</time>
      </trkpt><trkpt lat="44.39571717" lon="7.12815905">
        <ele>2254.9</ele>
        <time>2010-08-28T06:12:56Z</time>
      </trkpt><trkpt lat="44.39420700" lon="7.12772369">
        <ele>2274.6</ele>
        <time>2010-08-28T06:13:49Z</time>
      </trkpt><trkpt lat="44.39399033" lon="7.12666757">
        <ele>2283.3</ele>
        <time>2010-08-28T06:14:15Z</time>
      </trkpt><trkpt lat="44.39479164" lon="7.12601052">
        <ele>2291.4</ele>
        <time>2010-08-28T06:14:47Z</time>
      </trkpt><trkpt lat="44.39730663" lon="7.12651326">
        <ele>2319.3</ele>
        <time>2010-08-28T06:16:13Z</time>
      </trkpt><trkpt lat="44.39645042" lon="7.12447663">
        <ele>2340</ele>
        <time>2010-08-28T06:17:11Z</time>
      </trkpt><trkpt lat="44.39578942" lon="7.12475332">
        <ele>2366.4</ele>
        <time>2010-08-28T06:17:34Z</time>
      </trkpt><trkpt lat="44.39803695" lon="7.12111079">
        <ele>2350.1</ele>
        <time>2010-08-28T06:19:31Z</time>
      </trkpt><trkpt lat="44.39985054" lon="7.12104164">
        <ele>2332.3</ele>
        <time>2010-08-28T06:20:33Z</time>
      </trkpt><trkpt lat="44.40046192" lon="7.12191219">
        <ele>2323.6</ele>
        <time>2010-08-28T06:21:02Z</time>
      </trkpt><trkpt lat="44.40120221" lon="7.12124348">
        <ele>2316.9</ele>
        <time>2010-08-28T06:21:32Z</time>
      </trkpt><trkpt lat="44.40175591" lon="7.11872597">
        <ele>2299.6</ele>
        <time>2010-08-28T06:22:36Z</time>
      </trkpt><trkpt lat="44.40365458" lon="7.11621903">
        <ele>2275.1</ele>
        <time>2010-08-28T06:24:05Z</time>
      </trkpt><trkpt lat="44.40711740" lon="7.11545242">
        <ele>2239.5</ele>
        <time>2010-08-28T06:26:04Z</time>
      </trkpt><trkpt lat="44.40731697" lon="7.11490039">
        <ele>2231.8</ele>
        <time>2010-08-28T06:26:19Z</time>
      </trkpt><trkpt lat="44.40312082" lon="7.11332032">
        <ele>2191</ele>
        <time>2010-08-28T06:28:47Z</time>
      </trkpt><trkpt lat="44.39953295" lon="7.11443042">
        <ele>2153</ele>
        <time>2010-08-28T06:30:52Z</time>
      </trkpt><trkpt lat="44.39815580" lon="7.10740252">
        <ele>2109.8</ele>
        <time>2010-08-28T06:33:49Z</time>
      </trkpt><trkpt lat="44.40073550" lon="7.10596377">
        <ele>2094.9</ele>
        <time>2010-08-28T06:35:23Z</time>
      </trkpt><trkpt lat="44.40267574" lon="7.10559069">
        <ele>2081.9</ele>
        <time>2010-08-28T06:36:30Z</time>
      </trkpt><trkpt lat="44.40354906" lon="7.10751568">
        <ele>2064.6</ele>
        <time>2010-08-28T06:37:25Z</time>
      </trkpt><trkpt lat="44.40791862" lon="7.10830383">
        <ele>2022.8</ele>
        <time>2010-08-28T06:39:55Z</time>
      </trkpt><trkpt lat="44.41017730" lon="7.11008155">
        <ele>2000.6</ele>
        <time>2010-08-28T06:41:23Z</time>
      </trkpt><trkpt lat="44.41206188" lon="7.10970788">
        <ele>1985.3</ele>
        <time>2010-08-28T06:42:28Z</time>
      </trkpt><trkpt lat="44.41522479" lon="7.10454782">
        <ele>1953.1</ele>
        <time>2010-08-28T06:45:13Z</time>
      </trkpt><trkpt lat="44.41657797" lon="7.10630978">
        <ele>1932.9</ele>
        <time>2010-08-28T06:46:16Z</time>
      </trkpt><trkpt lat="44.41835619" lon="7.10648060">
        <ele>1918</ele>
        <time>2010-08-28T06:47:16Z</time>
      </trkpt><trkpt lat="44.42009921" lon="7.10587266">
        <ele>1901.6</ele>
        <time>2010-08-28T06:48:17Z</time>
      </trkpt><trkpt lat="44.41699229" lon="7.10409117">
        <ele>1868</ele>
        <time>2010-08-28T06:50:12Z</time>
      </trkpt><trkpt lat="44.41827002" lon="7.10426065">
        <ele>1848.3</ele>
        <time>2010-08-28T06:50:55Z</time>
      </trkpt><trkpt lat="44.41794858" lon="7.10375497">
        <ele>1839.1</ele>
        <time>2010-08-28T06:51:12Z</time>
      </trkpt><trkpt lat="44.42112121" lon="7.10263071">
        <ele>1783.4</ele>
        <time>2010-08-28T06:53:03Z</time>
      </trkpt><trkpt lat="44.42247875" lon="7.10418354">
        <ele>1763.7</ele>
        <time>2010-08-28T06:54:03Z</time>
      </trkpt><trkpt lat="44.42340570" lon="7.10407734">
        <ele>1753.6</ele>
        <time>2010-08-28T06:54:34Z</time>
      </trkpt><trkpt lat="44.42287144" lon="7.10311887">
        <ele>1735.3</ele>
        <time>2010-08-28T06:55:04Z</time>
      </trkpt><trkpt lat="44.42802312" lon="7.10205915">
        <ele>1660.3</ele>
        <time>2010-08-28T06:58:01Z</time>
      </trkpt><trkpt lat="44.43275781" lon="7.10393434">
        <ele>1631</ele>
        <time>2010-08-28T07:00:48Z</time>
      </trkpt><trkpt lat="44.43651148" lon="7.10323898">
        <ele>1605.5</ele>
        <time>2010-08-28T07:02:57Z</time>
      </trkpt><trkpt lat="44.44106394" lon="7.10444430">
        <ele>1564.2</ele>
        <time>2010-08-28T07:05:34Z</time>
      </trkpt><trkpt lat="44.44303821" lon="7.10646216">
        <ele>1541.1</ele>
        <time>2010-08-28T07:06:57Z</time>
      </trkpt><trkpt lat="44.44557365" lon="7.10609788">
        <ele>1518.1</ele>
        <time>2010-08-28T07:08:24Z</time>
      </trkpt><trkpt lat="44.44681359" lon="7.10956371">
        <ele>1497.9</ele>
        <time>2010-08-28T07:09:58Z</time>
      </trkpt><trkpt lat="44.44872248" lon="7.10556949">
        <ele>1467.6</ele>
        <time>2010-08-28T07:11:55Z</time>
      </trkpt><trkpt lat="44.45039467" lon="7.10427742">
        <ele>1450.8</ele>
        <time>2010-08-28T07:13:00Z</time>
      </trkpt><trkpt lat="44.44881678" lon="7.10427063">
        <ele>1434.4</ele>
        <time>2010-08-28T07:13:53Z</time>
      </trkpt><trkpt lat="44.45034028" lon="7.10291863">
        <ele>1419</ele>
        <time>2010-08-28T07:14:55Z</time>
      </trkpt><trkpt lat="44.45131719" lon="7.10236961">
        <ele>1412.8</ele>
        <time>2010-08-28T07:15:30Z</time>
      </trkpt><trkpt lat="44.45168121" lon="7.10606813">
        <ele>1401.3</ele>
        <time>2010-08-28T07:17:01Z</time>
      </trkpt><trkpt lat="44.45358214" lon="7.10238051">
        <ele>1397.4</ele>
        <time>2010-08-28T07:18:51Z</time>
      </trkpt><trkpt lat="44.45819378" lon="7.09918499">
        <ele>1374.8</ele>
        <time>2010-08-28T07:21:46Z</time>
      </trkpt><trkpt lat="44.45890398" lon="7.09671912">
        <ele>1354.6</ele>
        <time>2010-08-28T07:22:51Z</time>
      </trkpt><trkpt lat="44.46236026" lon="7.09616482">
        <ele>1319.5</ele>
        <time>2010-08-28T07:24:49Z</time>
      </trkpt><trkpt lat="44.45754008" lon="7.09278365">
        <ele>1228.2</ele>
        <time>2010-08-28T07:27:52Z</time>
      </trkpt><trkpt lat="44.45915519" lon="7.09147314">
        <ele>1210.9</ele>
        <time>2010-08-28T07:28:56Z</time>
      </trkpt><trkpt lat="44.46336416" lon="7.09318774">
        <ele>1182.1</ele>
        <time>2010-08-28T07:31:25Z</time>
      </trkpt><trkpt lat="44.46627193" lon="7.09200933">
        <ele>1152.3</ele>
        <time>2010-08-28T07:33:08Z</time>
      </trkpt><trkpt lat="44.47180583" lon="7.09473864">
        <ele>1099.4</ele>
        <time>2010-08-28T07:36:27Z</time>
      </trkpt><trkpt lat="44.47725205" lon="7.09550534">
        <ele>1067.2</ele>
        <time>2010-08-28T07:39:33Z</time>
      </trkpt><trkpt lat="44.48017390" lon="7.09514458">
        <ele>1055.7</ele>
        <time>2010-08-28T07:41:13Z</time>
      </trkpt><trkpt lat="44.48178281" lon="7.09372058">
        <ele>1042.7</ele>
        <time>2010-08-28T07:42:17Z</time>
      </trkpt><trkpt lat="44.48443819" lon="7.09441627">
        <ele>1010.5</ele>
        <time>2010-08-28T07:43:49Z</time>
      </trkpt><trkpt lat="44.48919844" lon="7.09342453">
        <ele>982.1</ele>
        <time>2010-08-28T07:46:33Z</time>
      </trkpt><trkpt lat="44.49414460" lon="7.09900704">
        <ele>968.2</ele>
        <time>2010-08-28T07:50:09Z</time>
      </trkpt><trkpt lat="44.49466688" lon="7.10119740">
        <ele>962.9</ele>
        <time>2010-08-28T07:51:05Z</time>
      </trkpt><trkpt lat="44.49640654" lon="7.10146302">
        <ele>979.7</ele>
        <time>2010-08-28T07:52:04Z</time>
      </trkpt><trkpt lat="44.50191253" lon="7.09950090">
        <ele>1043.2</ele>
        <time>2010-08-28T07:55:17Z</time>
      </trkpt><trkpt lat="44.50546646" lon="7.09694057">
        <ele>1086.9</ele>
        <time>2010-08-28T07:57:33Z</time>
      </trkpt><trkpt lat="44.50800551" lon="7.09276822">
        <ele>1144.1</ele>
        <time>2010-08-28T07:59:46Z</time>
      </trkpt><trkpt lat="44.51077698" lon="7.09278113">
        <ele>1149.9</ele>
        <time>2010-08-28T08:01:20Z</time>
      </trkpt><trkpt lat="44.51202153" lon="7.09102982">
        <ele>1164.3</ele>
        <time>2010-08-28T08:02:20Z</time>
      </trkpt><trkpt lat="44.51655153" lon="7.09004209">
        <ele>1172</ele>
        <time>2010-08-28T08:04:56Z</time>
      </trkpt><trkpt lat="44.51827527" lon="7.08716869">
        <ele>1197.9</ele>
        <time>2010-08-28T08:06:27Z</time>
      </trkpt><trkpt lat="44.52140976" lon="7.08746307">
        <ele>1243.6</ele>
        <time>2010-08-28T08:08:14Z</time>
      </trkpt><trkpt lat="44.52503208" lon="7.08385818">
        <ele>1310.4</ele>
        <time>2010-08-28T08:10:45Z</time>
      </trkpt><trkpt lat="44.52666169" lon="7.08487557">
        <ele>1319.1</ele>
        <time>2010-08-28T08:11:46Z</time>
      </trkpt><trkpt lat="44.53179561" lon="7.08442211">
        <ele>1346</ele>
        <time>2010-08-28T08:14:41Z</time>
      </trkpt><trkpt lat="44.53239425" lon="7.08560891">
        <ele>1356.6</ele>
        <time>2010-08-28T08:15:16Z</time>
      </trkpt><trkpt lat="44.53593468" lon="7.08632573">
        <ele>1395.5</ele>
        <time>2010-08-28T08:17:17Z</time>
      </trkpt><trkpt lat="44.53742339" lon="7.08356464">
        <ele>1418.1</ele>
        <time>2010-08-28T08:18:41Z</time>
      </trkpt><trkpt lat="44.53905954" lon="7.08320959">
        <ele>1425.3</ele>
        <time>2010-08-28T08:19:38Z</time>
      </trkpt><trkpt lat="44.53936665" lon="7.08147495">
        <ele>1445.5</ele>
        <time>2010-08-28T08:20:21Z</time>
      </trkpt><trkpt lat="44.54003049" lon="7.08054934">
        <ele>1454.6</ele>
        <time>2010-08-28T08:20:53Z</time>
      </trkpt><trkpt lat="44.53967720" lon="7.08214844">
        <ele>1471.9</ele>
        <time>2010-08-28T08:21:33Z</time>
      </trkpt><trkpt lat="44.54021498" lon="7.08165491">
        <ele>1479.6</ele>
        <time>2010-08-28T08:21:55Z</time>
      </trkpt><trkpt lat="44.54077414" lon="7.07945801">
        <ele>1493.5</ele>
        <time>2010-08-28T08:22:52Z</time>
      </trkpt><trkpt lat="44.54296525" lon="7.07716716">
        <ele>1519.5</ele>
        <time>2010-08-28T08:24:25Z</time>
      </trkpt><trkpt lat="44.54152029" lon="7.08148409">
        <ele>1573.8</ele>
        <time>2010-08-28T08:26:20Z</time>
      </trkpt><trkpt lat="44.54264598" lon="7.08342467">
        <ele>1592.6</ele>
        <time>2010-08-28T08:27:21Z</time>
      </trkpt><trkpt lat="44.54206193" lon="7.08840159">
        <ele>1624.3</ele>
        <time>2010-08-28T08:29:23Z</time>
      </trkpt><trkpt lat="44.53998993" lon="7.08982366">
        <ele>1647.4</ele>
        <time>2010-08-28T08:30:41Z</time>
      </trkpt><trkpt lat="44.54085452" lon="7.08987236">
        <ele>1651.2</ele>
        <time>2010-08-28T08:31:11Z</time>
      </trkpt><trkpt lat="44.54022043" lon="7.09102915">
        <ele>1671.4</ele>
        <time>2010-08-28T08:31:46Z</time>
      </trkpt><trkpt lat="44.54184794" lon="7.09710125">
        <ele>1718</ele>
        <time>2010-08-28T08:34:23Z</time>
      </trkpt><trkpt lat="44.54138115" lon="7.09908399">
        <ele>1733.4</ele>
        <time>2010-08-28T08:35:14Z</time>
      </trkpt><trkpt lat="44.53739472" lon="7.09773283">
        <ele>1770.4</ele>
        <time>2010-08-28T08:37:33Z</time>
      </trkpt><trkpt lat="44.53532238" lon="7.10497420">
        <ele>1831</ele>
        <time>2010-08-28T08:40:42Z</time>
      </trkpt><trkpt lat="44.53296748" lon="7.10685418">
        <ele>1859.8</ele>
        <time>2010-08-28T08:42:14Z</time>
      </trkpt><trkpt lat="44.52974079" lon="7.10676290">
        <ele>1903.1</ele>
        <time>2010-08-28T08:44:04Z</time>
      </trkpt><trkpt lat="44.52659816" lon="7.10380904">
        <ele>1938.2</ele>
        <time>2010-08-28T08:46:13Z</time>
      </trkpt><trkpt lat="44.52569828" lon="7.10391942">
        <ele>1951.6</ele>
        <time>2010-08-28T08:46:44Z</time>
      </trkpt><trkpt lat="44.52647419" lon="7.10635663">
        <ele>1973.2</ele>
        <time>2010-08-28T08:47:48Z</time>
      </trkpt><trkpt lat="44.53043112" lon="7.11335787">
        <ele>2039.6</ele>
        <time>2010-08-28T08:51:25Z</time>
      </trkpt><trkpt lat="44.53121030" lon="7.11413596">
        <ele>2049.2</ele>
        <time>2010-08-28T08:51:57Z</time>
      </trkpt><trkpt lat="44.53492348" lon="7.11428021">
        <ele>2091</ele>
        <time>2010-08-28T08:54:04Z</time>
      </trkpt><trkpt lat="44.53760678" lon="7.11787932">
        <ele>2133.8</ele>
        <time>2010-08-28T08:56:10Z</time>
      </trkpt><trkpt lat="44.54305997" lon="7.11938135">
        <ele>2187.6</ele>
        <time>2010-08-28T08:59:19Z</time>
      </trkpt><trkpt lat="44.54465965" lon="7.11824217">
        <ele>2208.3</ele>
        <time>2010-08-28T09:00:20Z</time>
      </trkpt><trkpt lat="44.54550195" lon="7.11864391">
        <ele>2217.4</ele>
        <time>2010-08-28T09:00:50Z</time>
      </trkpt><trkpt lat="44.54612657" lon="7.12113267">
        <ele>2233.3</ele>
        <time>2010-08-28T09:01:54Z</time>
      </trkpt><trkpt lat="44.54700030" lon="7.12121649">
        <ele>2240.5</ele>
        <time>2010-08-28T09:02:24Z</time>
      </trkpt><trkpt lat="44.55113300" lon="7.11919000">
        <ele>2276.5</ele>
        <time>2010-08-28T09:04:52Z</time>
      </trkpt><trkpt lat="44.55163239" lon="7.12537115">
        <ele>2252</ele>
        <time>2010-08-28T09:07:23Z</time>
      </trkpt><trkpt lat="44.55101825" lon="7.12641696">
        <ele>2242.9</ele>
        <time>2010-08-28T09:07:56Z</time>
      </trkpt><trkpt lat="44.54915587" lon="7.12683840">
        <ele>2224.1</ele>
        <time>2010-08-28T09:09:00Z</time>
      </trkpt><trkpt lat="44.54793513" lon="7.12887704">
        <ele>2204</ele>
        <time>2010-08-28T09:10:05Z</time>
      </trkpt><trkpt lat="44.54771880" lon="7.13523530">
        <ele>2160.7</ele>
        <time>2010-08-28T09:12:39Z</time>
      </trkpt><trkpt lat="44.55063712" lon="7.13796604">
        <ele>2122.7</ele>
        <time>2010-08-28T09:14:38Z</time>
      </trkpt><trkpt lat="44.55133575" lon="7.14039998">
        <ele>2104</ele>
        <time>2010-08-28T09:15:42Z</time>
      </trkpt><trkpt lat="44.55356559" lon="7.14213537">
        <ele>2078.5</ele>
        <time>2010-08-28T09:17:08Z</time>
      </trkpt><trkpt lat="44.55514072" lon="7.14919017">
        <ele>2028</ele>
        <time>2010-08-28T09:20:07Z</time>
      </trkpt><trkpt lat="44.54980254" lon="7.15345706">
        <ele>1968</ele>
        <time>2010-08-28T09:23:36Z</time>
      </trkpt><trkpt lat="44.55532998" lon="7.15257034">
        <ele>1914.1</ele>
        <time>2010-08-28T09:26:45Z</time>
      </trkpt><trkpt lat="44.55790624" lon="7.15402787">
        <ele>1889.6</ele>
        <time>2010-08-28T09:28:20Z</time>
      </trkpt><trkpt lat="44.55493528" lon="7.15454428">
        <ele>1860.8</ele>
        <time>2010-08-28T09:30:02Z</time>
      </trkpt><trkpt lat="44.55385879" lon="7.15634521">
        <ele>1843.5</ele>
        <time>2010-08-28T09:30:58Z</time>
      </trkpt><trkpt lat="44.55420396" lon="7.16019879">
        <ele>1815.1</ele>
        <time>2010-08-28T09:32:33Z</time>
      </trkpt><trkpt lat="44.55283544" lon="7.16325928">
        <ele>1786.3</ele>
        <time>2010-08-28T09:34:00Z</time>
      </trkpt><trkpt lat="44.55674367" lon="7.16537654">
        <ele>1738.7</ele>
        <time>2010-08-28T09:36:23Z</time>
      </trkpt><trkpt lat="44.55566015" lon="7.16334569">
        <ele>1722.8</ele>
        <time>2010-08-28T09:37:24Z</time>
      </trkpt><trkpt lat="44.55735321" lon="7.16323556">
        <ele>1704.1</ele>
        <time>2010-08-28T09:38:22Z</time>
      </trkpt><trkpt lat="44.55792904" lon="7.16133563">
        <ele>1686.3</ele>
        <time>2010-08-28T09:39:12Z</time>
      </trkpt><trkpt lat="44.56157291" lon="7.16074512">
        <ele>1650.2</ele>
        <time>2010-08-28T09:41:16Z</time>
      </trkpt><trkpt lat="44.56315457" lon="7.16371567">
        <ele>1622.4</ele>
        <time>2010-08-28T09:42:46Z</time>
      </trkpt><trkpt lat="44.56731543" lon="7.16602773">
        <ele>1574.8</ele>
        <time>2010-08-28T09:45:18Z</time>
      </trkpt><trkpt lat="44.56807140" lon="7.16534603">
        <ele>1569.5</ele>
        <time>2010-08-28T09:45:49Z</time>
      </trkpt><trkpt lat="44.56748165" lon="7.16617853">
        <ele>1560.8</ele>
        <time>2010-08-28T09:46:17Z</time>
      </trkpt><trkpt lat="44.56457212" lon="7.16572967">
        <ele>1534.4</ele>
        <time>2010-08-28T09:47:57Z</time>
      </trkpt><trkpt lat="44.56284427" lon="7.16645379">
        <ele>1517.1</ele>
        <time>2010-08-28T09:48:58Z</time>
      </trkpt><trkpt lat="44.56491050" lon="7.17039454">
        <ele>1478.2</ele>
        <time>2010-08-28T09:50:57Z</time>
      </trkpt><trkpt lat="44.56364902" lon="7.17221609">
        <ele>1455.6</ele>
        <time>2010-08-28T09:51:58Z</time>
      </trkpt><trkpt lat="44.56184398" lon="7.17223520">
        <ele>1439.7</ele>
        <time>2010-08-28T09:52:59Z</time>
      </trkpt><trkpt lat="44.56273950" lon="7.17574303">
        <ele>1413.8</ele>
        <time>2010-08-28T09:54:30Z</time>
      </trkpt><trkpt lat="44.56543847" lon="7.17481298">
        <ele>1382.5</ele>
        <time>2010-08-28T09:56:04Z</time>
      </trkpt><trkpt lat="44.56961291" lon="7.17957515">
        <ele>1322.9</ele>
        <time>2010-08-28T09:59:07Z</time>
      </trkpt><trkpt lat="44.56824013" lon="7.17600446">
        <ele>1294.1</ele>
        <time>2010-08-28T10:00:45Z</time>
      </trkpt><trkpt lat="44.57138694" lon="7.17498556">
        <ele>1259.5</ele>
        <time>2010-08-28T10:02:35Z</time>
      </trkpt><trkpt lat="44.57203889" lon="7.17297851">
        <ele>1239.8</ele>
        <time>2010-08-28T10:03:29Z</time>
      </trkpt><trkpt lat="44.57365928" lon="7.17323835">
        <ele>1224.9</ele>
        <time>2010-08-28T10:04:24Z</time>
      </trkpt><trkpt lat="44.57513106" lon="7.16818716">
        <ele>1183.5</ele>
        <time>2010-08-28T10:06:36Z</time>
      </trkpt><trkpt lat="44.57459411" lon="7.16449821">
        <ele>1156.6</ele>
        <time>2010-08-28T10:08:07Z</time>
      </trkpt><trkpt lat="44.57637443" lon="7.16863300">
        <ele>1114.8</ele>
        <time>2010-08-28T10:10:04Z</time>
      </trkpt><trkpt lat="44.57614786" lon="7.18012048">
        <ele>1027.8</ele>
        <time>2010-08-28T10:14:43Z</time>
      </trkpt><trkpt lat="44.57734430" lon="7.18201202">
        <ele>985</ele>
        <time>2010-08-28T10:15:44Z</time>
      </trkpt><trkpt lat="44.57842841" lon="7.18683899">
        <ele>977.8</ele>
        <time>2010-08-28T10:17:46Z</time>
      </trkpt><trkpt lat="44.58055473" lon="7.18070285">
        <ele>996.1</ele>
        <time>2010-08-28T10:20:32Z</time>
      </trkpt><trkpt lat="44.58178997" lon="7.17269898">
        <ele>1006.2</ele>
        <time>2010-08-28T10:23:50Z</time>
      </trkpt><trkpt lat="44.58180632" lon="7.16852680">
        <ele>1000.4</ele>
        <time>2010-08-28T10:25:31Z</time>
      </trkpt><trkpt lat="44.57956257" lon="7.16253500">
        <ele>1012.9</ele>
        <time>2010-08-28T10:28:15Z</time>
      </trkpt><trkpt lat="44.57923257" lon="7.15836877">
        <ele>1025.9</ele>
        <time>2010-08-28T10:29:56Z</time>
      </trkpt><trkpt lat="44.58054887" lon="7.14890652">
        <ele>1046.1</ele>
        <time>2010-08-28T10:33:50Z</time>
      </trkpt><trkpt lat="44.58264820" lon="7.14291589">
        <ele>1063.8</ele>
        <time>2010-08-28T10:36:31Z</time>
      </trkpt><trkpt lat="44.58144875" lon="7.13653106">
        <ele>1090.8</ele>
        <time>2010-08-28T10:39:11Z</time>
      </trkpt><trkpt lat="44.58380741" lon="7.12186927">
        <ele>1132.6</ele>
        <time>2010-08-28T10:45:15Z</time>
      </trkpt><trkpt lat="44.58317735" lon="7.11733474">
        <ele>1139.8</ele>
        <time>2010-08-28T10:47:07Z</time>
      </trkpt><trkpt lat="44.58402157" lon="7.10591700">
        <ele>1159</ele>
        <time>2010-08-28T10:51:45Z</time>
      </trkpt><trkpt lat="44.58340517" lon="7.08956399">
        <ele>1201.8</ele>
        <time>2010-08-28T10:58:22Z</time>
      </trkpt><trkpt lat="44.58502497" lon="7.08794553">
        <ele>1211.4</ele>
        <time>2010-08-28T10:59:29Z</time>
      </trkpt><trkpt lat="44.58459892" lon="7.08940004">
        <ele>1224.4</ele>
        <time>2010-08-28T11:00:07Z</time>
      </trkpt><trkpt lat="44.58542294" lon="7.08859965">
        <ele>1234.5</ele>
        <time>2010-08-28T11:00:41Z</time>
      </trkpt><trkpt lat="44.58535907" lon="7.08962769">
        <ele>1242.2</ele>
        <time>2010-08-28T11:01:06Z</time>
      </trkpt><trkpt lat="44.58571522" lon="7.08861156">
        <ele>1248.9</ele>
        <time>2010-08-28T11:01:34Z</time>
      </trkpt><trkpt lat="44.58528473" lon="7.07797232">
        <ele>1298.9</ele>
        <time>2010-08-28T11:05:52Z</time>
      </trkpt><trkpt lat="44.58762219" lon="7.07565598">
        <ele>1296</ele>
        <time>2010-08-28T11:07:29Z</time>
      </trkpt><trkpt lat="44.59007230" lon="7.06893168">
        <ele>1292.6</ele>
        <time>2010-08-28T11:10:32Z</time>
      </trkpt><trkpt lat="44.59357535" lon="7.06727559">
        <ele>1322</ele>
        <time>2010-08-28T11:12:38Z</time>
      </trkpt><trkpt lat="44.59066649" lon="7.07050094">
        <ele>1342.1</ele>
        <time>2010-08-28T11:14:44Z</time>
      </trkpt><trkpt lat="44.59018571" lon="7.07294033">
        <ele>1350.3</ele>
        <time>2010-08-28T11:15:45Z</time>
      </trkpt><trkpt lat="44.59489609" lon="7.06883303">
        <ele>1407.5</ele>
        <time>2010-08-28T11:18:53Z</time>
      </trkpt><trkpt lat="44.59689609" lon="7.06905825">
        <ele>1421</ele>
        <time>2010-08-28T11:20:01Z</time>
      </trkpt><trkpt lat="44.59961116" lon="7.06754892">
        <ele>1450.8</ele>
        <time>2010-08-28T11:21:41Z</time>
      </trkpt><trkpt lat="44.60871047" lon="7.06001787">
        <ele>1538.2</ele>
        <time>2010-08-28T11:27:40Z</time>
      </trkpt><trkpt lat="44.61111943" lon="7.05463786">
        <ele>1561.8</ele>
        <time>2010-08-28T11:30:14Z</time>
      </trkpt><trkpt lat="44.61534977" lon="7.05232496">
        <ele>1572.4</ele>
        <time>2010-08-28T11:32:48Z</time>
      </trkpt><trkpt lat="44.61481316" lon="7.04869408">
        <ele>1580.5</ele>
        <time>2010-08-28T11:34:18Z</time>
      </trkpt><trkpt lat="44.61790542" lon="7.03888365">
        <ele>1585.4</ele>
        <time>2010-08-28T11:38:37Z</time>
      </trkpt><trkpt lat="44.62086507" lon="7.03232934">
        <ele>1589.7</ele>
        <time>2010-08-28T11:41:45Z</time>
      </trkpt><trkpt lat="44.62324670" lon="7.03034744">
        <ele>1606.5</ele>
        <time>2010-08-28T11:43:19Z</time>
      </trkpt><trkpt lat="44.62458185" lon="7.02681002">
        <ele>1629.1</ele>
        <time>2010-08-28T11:44:56Z</time>
      </trkpt><trkpt lat="44.62462628" lon="7.02320002">
        <ele>1652.2</ele>
        <time>2010-08-28T11:46:23Z</time>
      </trkpt><trkpt lat="44.62828892" lon="7.02158307">
        <ele>1691.6</ele>
        <time>2010-08-28T11:48:34Z</time>
      </trkpt><trkpt lat="44.63613178" lon="7.01330200">
        <ele>1736.3</ele>
        <time>2010-08-28T11:54:07Z</time>
      </trkpt><trkpt lat="44.64059355" lon="7.01016340">
        <ele>1744</ele>
        <time>2010-08-28T11:56:57Z</time>
      </trkpt><trkpt lat="44.64946244" lon="6.99591500">
        <ele>1796.8</ele>
        <time>2010-08-28T12:04:35Z</time>
      </trkpt><trkpt lat="44.65496064" lon="6.99064479">
        <ele>1832.4</ele>
        <time>2010-08-28T12:08:21Z</time>
      </trkpt><trkpt lat="44.65324821" lon="6.98985036">
        <ele>1849.2</ele>
        <time>2010-08-28T12:09:23Z</time>
      </trkpt><trkpt lat="44.65294722" lon="6.98737099">
        <ele>1870.9</ele>
        <time>2010-08-28T12:10:23Z</time>
      </trkpt><trkpt lat="44.65422739" lon="6.98890546">
        <ele>1893</ele>
        <time>2010-08-28T12:11:21Z</time>
      </trkpt><trkpt lat="44.65812548" lon="6.98983896">
        <ele>1942</ele>
        <time>2010-08-28T12:13:35Z</time>
      </trkpt><trkpt lat="44.66212750" lon="6.99222403">
        <ele>1991</ele>
        <time>2010-08-28T12:16:03Z</time>
      </trkpt><trkpt lat="44.66002800" lon="6.98782311">
        <ele>2031.4</ele>
        <time>2010-08-28T12:18:11Z</time>
      </trkpt><trkpt lat="44.65694555" lon="6.98698869">
        <ele>2067.5</ele>
        <time>2010-08-28T12:19:58Z</time>
      </trkpt><trkpt lat="44.66166197" lon="6.98602201">
        <ele>2130.9</ele>
        <time>2010-08-28T12:22:40Z</time>
      </trkpt><trkpt lat="44.66255146" lon="6.98635133">
        <ele>2142.4</ele>
        <time>2010-08-28T12:23:11Z</time>
      </trkpt><trkpt lat="44.66223454" lon="6.98716454">
        <ele>2160.7</ele>
        <time>2010-08-28T12:23:33Z</time>
      </trkpt><trkpt lat="44.67195520" lon="6.98666096">
        <ele>2275.6</ele>
        <time>2010-08-28T12:29:04Z</time>
      </trkpt><trkpt lat="44.67105389" lon="6.98816300">
        <ele>2296.2</ele>
        <time>2010-08-28T12:29:51Z</time>
      </trkpt><trkpt lat="44.67312313" lon="6.98876984">
        <ele>2343.4</ele>
        <time>2010-08-28T12:31:03Z</time>
      </trkpt><trkpt lat="44.67335774" lon="6.98991037">
        <ele>2349.6</ele>
        <time>2010-08-28T12:31:32Z</time>
      </trkpt><trkpt lat="44.67167843" lon="6.99042846">
        <ele>2350.1</ele>
        <time>2010-08-28T12:32:31Z</time>
      </trkpt><trkpt lat="44.67347207" lon="6.99119238">
        <ele>2374.1</ele>
        <time>2010-08-28T12:33:34Z</time>
      </trkpt><trkpt lat="44.67495919" lon="6.98979378">
        <ele>2398.6</ele>
        <time>2010-08-28T12:34:35Z</time>
      </trkpt><trkpt lat="44.67397171" lon="6.99261873">
        <ele>2436.1</ele>
        <time>2010-08-28T12:35:51Z</time>
      </trkpt><trkpt lat="44.67888988" lon="6.98852057">
        <ele>2507.7</ele>
        <time>2010-08-28T12:39:05Z</time>
      </trkpt><trkpt lat="44.68037381" lon="6.98379711">
        <ele>2541.4</ele>
        <time>2010-08-28T12:41:10Z</time>
      </trkpt><trkpt lat="44.67731660" lon="6.97758487">
        <ele>2592.3</ele>
        <time>2010-08-28T12:44:13Z</time>
      </trkpt><trkpt lat="44.68230358" lon="6.97898347">
        <ele>2662.5</ele>
        <time>2010-08-28T12:47:06Z</time>
      </trkpt><trkpt lat="44.68316222" lon="6.97961806">
        <ele>2675</ele>
        <time>2010-08-28T12:47:39Z</time>
      </trkpt><trkpt lat="44.68327403" lon="6.98167188">
        <ele>2706.2</ele>
        <time>2010-08-28T12:48:29Z</time>
      </trkpt><trkpt lat="44.68411927" lon="6.97975729">
        <ele>2720.7</ele>
        <time>2010-08-28T12:49:23Z</time>
      </trkpt><trkpt lat="44.68567595" lon="6.98019683">
        <ele>2703.8</ele>
        <time>2010-08-28T12:50:17Z</time>
      </trkpt><trkpt lat="44.68503449" lon="6.97820127">
        <ele>2679.8</ele>
        <time>2010-08-28T12:51:10Z</time>
      </trkpt><trkpt lat="44.68761150" lon="6.97881432">
        <ele>2653.4</ele>
        <time>2010-08-28T12:52:39Z</time>
      </trkpt><trkpt lat="44.69044199" lon="6.97697223">
        <ele>2618.8</ele>
        <time>2010-08-28T12:54:25Z</time>
      </trkpt><trkpt lat="44.69010830" lon="6.97460175">
        <ele>2601.5</ele>
        <time>2010-08-28T12:55:23Z</time>
      </trkpt><trkpt lat="44.69178577" lon="6.97169976">
        <ele>2572.6</ele>
        <time>2010-08-28T12:56:54Z</time>
      </trkpt><trkpt lat="44.69272614" lon="6.96495242">
        <ele>2523.1</ele>
        <time>2010-08-28T12:59:40Z</time>
      </trkpt><trkpt lat="44.69189918" lon="6.96597576">
        <ele>2512.1</ele>
        <time>2010-08-28T13:00:17Z</time>
      </trkpt><trkpt lat="44.69214393" lon="6.96466391">
        <ele>2502.4</ele>
        <time>2010-08-28T13:00:50Z</time>
      </trkpt><trkpt lat="44.69828200" lon="6.94934707">
        <ele>2380.8</ele>
        <time>2010-08-28T13:07:55Z</time>
      </trkpt><trkpt lat="44.69647386" lon="6.95139620">
        <ele>2349.6</ele>
        <time>2010-08-28T13:09:14Z</time>
      </trkpt><trkpt lat="44.69580104" lon="6.95115354">
        <ele>2339</ele>
        <time>2010-08-28T13:09:37Z</time>
      </trkpt><trkpt lat="44.69595644" lon="6.94967581">
        <ele>2330.9</ele>
        <time>2010-08-28T13:10:14Z</time>
      </trkpt><trkpt lat="44.69929219" lon="6.94562140">
        <ele>2279.9</ele>
        <time>2010-08-28T13:12:43Z</time>
      </trkpt><trkpt lat="44.70001756" lon="6.94159867">
        <ele>2263.6</ele>
        <time>2010-08-28T13:14:24Z</time>
      </trkpt><trkpt lat="44.70319966" lon="6.93633727">
        <ele>2223.7</ele>
        <time>2010-08-28T13:17:11Z</time>
      </trkpt><trkpt lat="44.70817231" lon="6.92466253">
        <ele>2158.3</ele>
        <time>2010-08-28T13:22:39Z</time>
      </trkpt><trkpt lat="44.71492242" lon="6.91628038">
        <ele>2094.4</ele>
        <time>2010-08-28T13:27:45Z</time>
      </trkpt><trkpt lat="44.71752819" lon="6.91040441">
        <ele>2067.5</ele>
        <time>2010-08-28T13:30:33Z</time>
      </trkpt><trkpt lat="44.71930306" lon="6.90384616">
        <ele>2042</ele>
        <time>2010-08-28T13:33:22Z</time>
      </trkpt><trkpt lat="44.72132117" lon="6.88933943">
        <ele>2023.2</ele>
        <time>2010-08-28T13:39:19Z</time>
      </trkpt><trkpt lat="44.72438777" lon="6.88103079">
        <ele>1996.3</ele>
        <time>2010-08-28T13:43:06Z</time>
      </trkpt><trkpt lat="44.72443186" lon="6.87555917">
        <ele>1973.7</ele>
        <time>2010-08-28T13:45:18Z</time>
      </trkpt><trkpt lat="44.72551673" lon="6.87156234">
        <ele>1958.3</ele>
        <time>2010-08-28T13:47:01Z</time>
      </trkpt><trkpt lat="44.72391327" lon="6.85572423">
        <ele>1897.3</ele>
        <time>2010-08-28T13:53:27Z</time>
      </trkpt><trkpt lat="44.72959042" lon="6.84658527">
        <ele>1819.9</ele>
        <time>2010-08-28T13:58:21Z</time>
      </trkpt><trkpt lat="44.72879573" lon="6.84636584">
        <ele>1804.1</ele>
        <time>2010-08-28T13:58:48Z</time>
      </trkpt><trkpt lat="44.73158707" lon="6.83979568">
        <ele>1759.4</ele>
        <time>2010-08-28T14:01:53Z</time>
      </trkpt><trkpt lat="44.73431061" lon="6.83591947">
        <ele>1741.1</ele>
        <time>2010-08-28T14:04:05Z</time>
      </trkpt><trkpt lat="44.73857414" lon="6.83237216">
        <ele>1711.3</ele>
        <time>2010-08-28T14:06:53Z</time>
      </trkpt><trkpt lat="44.74328519" lon="6.83018608">
        <ele>1667.5</ele>
        <time>2010-08-28T14:09:42Z</time>
      </trkpt><trkpt lat="44.74594636" lon="6.83117741">
        <ele>1645</ele>
        <time>2010-08-28T14:11:15Z</time>
      </trkpt><trkpt lat="44.74851609" lon="6.83010578">
        <ele>1618.5</ele>
        <time>2010-08-28T14:12:46Z</time>
      </trkpt><trkpt lat="44.74884642" lon="6.83235423">
        <ele>1600.7</ele>
        <time>2010-08-28T14:13:42Z</time>
      </trkpt><trkpt lat="44.75076897" lon="6.83279352">
        <ele>1583.4</ele>
        <time>2010-08-28T14:14:48Z</time>
      </trkpt><trkpt lat="44.75336007" lon="6.82570889">
        <ele>1545</ele>
        <time>2010-08-28T14:18:00Z</time>
      </trkpt><trkpt lat="44.75479505" lon="6.82406067">
        <ele>1537.8</ele>
        <time>2010-08-28T14:19:03Z</time>
      </trkpt><trkpt lat="44.75950543" lon="6.82433912">
        <ele>1498.8</ele>
        <time>2010-08-28T14:21:44Z</time>
      </trkpt><trkpt lat="44.76248704" lon="6.82595833">
        <ele>1468.6</ele>
        <time>2010-08-28T14:23:32Z</time>
      </trkpt><trkpt lat="44.76084486" lon="6.82458177">
        <ele>1452.2</ele>
        <time>2010-08-28T14:24:37Z</time>
      </trkpt><trkpt lat="44.75976619" lon="6.82124075">
        <ele>1427.2</ele>
        <time>2010-08-28T14:26:06Z</time>
      </trkpt><trkpt lat="44.76242066" lon="6.82092190">
        <ele>1416.6</ele>
        <time>2010-08-28T14:27:36Z</time>
      </trkpt><trkpt lat="44.76250573" lon="6.81975807">
        <ele>1416.2</ele>
        <time>2010-08-28T14:28:05Z</time>
      </trkpt><trkpt lat="44.75933394" lon="6.81015928">
        <ele>1405.1</ele>
        <time>2010-08-28T14:32:20Z</time>
      </trkpt><trkpt lat="44.75792243" lon="6.80091547">
        <ele>1393.6</ele>
        <time>2010-08-28T14:36:08Z</time>
      </trkpt><trkpt lat="44.75836608" lon="6.79702727">
        <ele>1387.3</ele>
        <time>2010-08-28T14:37:44Z</time>
      </trkpt><trkpt lat="44.75650144" lon="6.79009544">
        <ele>1415.2</ele>
        <time>2010-08-28T14:40:42Z</time>
      </trkpt><trkpt lat="44.75685541" lon="6.78820381">
        <ele>1412.8</ele>
        <time>2010-08-28T14:41:30Z</time>
      </trkpt><trkpt lat="44.75541691" lon="6.78684494">
        <ele>1403.7</ele>
        <time>2010-08-28T14:42:29Z</time>
      </trkpt><trkpt lat="44.75434444" lon="6.78152670">
        <ele>1384.4</ele>
        <time>2010-08-28T14:44:42Z</time>
      </trkpt><trkpt lat="44.74720633" lon="6.77045354">
        <ele>1401.7</ele>
        <time>2010-08-28T14:50:43Z</time>
      </trkpt><trkpt lat="44.74823395" lon="6.76665846">
        <ele>1423.9</ele>
        <time>2010-08-28T14:52:21Z</time>
      </trkpt><trkpt lat="44.75013245" lon="6.76606192">
        <ele>1433.5</ele>
        <time>2010-08-28T14:53:27Z</time>
      </trkpt><trkpt lat="44.75312714" lon="6.75973543">
        <ele>1454.6</ele>
        <time>2010-08-28T14:56:31Z</time>
      </trkpt><trkpt lat="44.75661720" lon="6.75061047">
        <ele>1518.1</ele>
        <time>2010-08-28T15:00:41Z</time>
      </trkpt><trkpt lat="44.76200299" lon="6.74334655">
        <ele>1557.5</ele>
        <time>2010-08-28T15:04:55Z</time>
      </trkpt><trkpt lat="44.76920128" lon="6.73710823">
        <ele>1595.9</ele>
        <time>2010-08-28T15:09:42Z</time>
      </trkpt><trkpt lat="44.77633981" lon="6.73518810">
        <ele>1651.7</ele>
        <time>2010-08-28T15:13:49Z</time>
      </trkpt><trkpt lat="44.78305003" lon="6.73482450">
        <ele>1707</ele>
        <time>2010-08-28T15:17:37Z</time>
      </trkpt><trkpt lat="44.78664419" lon="6.73303924">
        <ele>1736.8</ele>
        <time>2010-08-28T15:19:47Z</time>
      </trkpt><trkpt lat="44.79155917" lon="6.73202737">
        <ele>1771.8</ele>
        <time>2010-08-28T15:22:36Z</time>
      </trkpt><trkpt lat="44.79486466" lon="6.73024178">
        <ele>1813.2</ele>
        <time>2010-08-28T15:24:36Z</time>
      </trkpt><trkpt lat="44.79634616" lon="6.72804195">
        <ele>1836.7</ele>
        <time>2010-08-28T15:25:49Z</time>
      </trkpt><trkpt lat="44.79692267" lon="6.72893177">
        <ele>1845.9</ele>
        <time>2010-08-28T15:26:18Z</time>
      </trkpt><trkpt lat="44.79621708" lon="6.73251277">
        <ele>1876.2</ele>
        <time>2010-08-28T15:27:48Z</time>
      </trkpt><trkpt lat="44.79850676" lon="6.73449333">
        <ele>1902.1</ele>
        <time>2010-08-28T15:29:19Z</time>
      </trkpt><trkpt lat="44.79721411" lon="6.73269809">
        <ele>1920.4</ele>
        <time>2010-08-28T15:30:21Z</time>
      </trkpt><trkpt lat="44.79898453" lon="6.72925489">
        <ele>1959.8</ele>
        <time>2010-08-28T15:32:03Z</time>
      </trkpt><trkpt lat="44.79861497" lon="6.73200131">
        <ele>1982.9</ele>
        <time>2010-08-28T15:33:11Z</time>
      </trkpt><trkpt lat="44.79998181" lon="6.72964163">
        <ele>2007.4</ele>
        <time>2010-08-28T15:34:24Z</time>
      </trkpt><trkpt lat="44.79990160" lon="6.73233231">
        <ele>2034.3</ele>
        <time>2010-08-28T15:35:29Z</time>
      </trkpt><trkpt lat="44.80199975" lon="6.73396275">
        <ele>2060.7</ele>
        <time>2010-08-28T15:36:51Z</time>
      </trkpt><trkpt lat="44.80132937" lon="6.73181405">
        <ele>2088.6</ele>
        <time>2010-08-28T15:37:47Z</time>
      </trkpt><trkpt lat="44.80280115" lon="6.73360644">
        <ele>2111.7</ele>
        <time>2010-08-28T15:38:54Z</time>
      </trkpt><trkpt lat="44.80566902" lon="6.73475987">
        <ele>2137.6</ele>
        <time>2010-08-28T15:40:35Z</time>
      </trkpt><trkpt lat="44.80353356" lon="6.73746564">
        <ele>2166.9</ele>
        <time>2010-08-28T15:42:13Z</time>
      </trkpt><trkpt lat="44.80709000" lon="6.73611129">
        <ele>2202.5</ele>
        <time>2010-08-28T15:44:18Z</time>
      </trkpt><trkpt lat="44.81009357" lon="6.73831690">
        <ele>2179.9</ele>
        <time>2010-08-28T15:46:13Z</time>
      </trkpt><trkpt lat="44.81218611" lon="6.73495215">
        <ele>2208.8</ele>
        <time>2010-08-28T15:48:01Z</time>
      </trkpt><trkpt lat="44.81305984" lon="6.73444807">
        <ele>2218.4</ele>
        <time>2010-08-28T15:48:33Z</time>
      </trkpt><trkpt lat="44.81523428" lon="6.73629284">
        <ele>2244.3</ele>
        <time>2010-08-28T15:49:59Z</time>
      </trkpt><trkpt lat="44.81615226" lon="6.73453641">
        <ele>2262.1</ele>
        <time>2010-08-28T15:50:52Z</time>
      </trkpt><trkpt lat="44.81954811" lon="6.73240447">
        <ele>2320.8</ele>
        <time>2010-08-28T15:52:58Z</time>
      </trkpt><trkpt lat="44.81884034" lon="6.73465761">
        <ele>2338.5</ele>
        <time>2010-08-28T15:53:58Z</time>
      </trkpt><trkpt lat="44.82094780" lon="6.73474261">
        <ele>2332.8</ele>
        <time>2010-08-28T15:55:09Z</time>
      </trkpt><trkpt lat="44.82224892" lon="6.73606427">
        <ele>2316.4</ele>
        <time>2010-08-28T15:56:04Z</time>
      </trkpt><trkpt lat="44.82228698" lon="6.73189251">
        <ele>2270.3</ele>
        <time>2010-08-28T15:57:44Z</time>
      </trkpt><trkpt lat="44.82487330" lon="6.73147970">
        <ele>2239.5</ele>
        <time>2010-08-28T15:59:13Z</time>
      </trkpt><trkpt lat="44.82722283" lon="6.72929764">
        <ele>2212.6</ele>
        <time>2010-08-28T16:00:48Z</time>
      </trkpt><trkpt lat="44.82660039" lon="6.72784832">
        <ele>2202</ele>
        <time>2010-08-28T16:01:29Z</time>
      </trkpt><trkpt lat="44.82840023" lon="6.72778739">
        <ele>2181.8</ele>
        <time>2010-08-28T16:02:31Z</time>
      </trkpt><trkpt lat="44.82723850" lon="6.72544314">
        <ele>2156.4</ele>
        <time>2010-08-28T16:03:39Z</time>
      </trkpt><trkpt lat="44.82973841" lon="6.72355159">
        <ele>2134.3</ele>
        <time>2010-08-28T16:05:16Z</time>
      </trkpt><trkpt lat="44.83054466" lon="6.72362913">
        <ele>2124.2</ele>
        <time>2010-08-28T16:05:43Z</time>
      </trkpt><trkpt lat="44.83029706" lon="6.72457695">
        <ele>2114.6</ele>
        <time>2010-08-28T16:06:08Z</time>
      </trkpt><trkpt lat="44.83207662" lon="6.72398075">
        <ele>2089.1</ele>
        <time>2010-08-28T16:07:10Z</time>
      </trkpt><trkpt lat="44.83357941" lon="6.72204377">
        <ele>2062.6</ele>
        <time>2010-08-28T16:08:19Z</time>
      </trkpt><trkpt lat="44.83308656" lon="6.72293720">
        <ele>2053.5</ele>
        <time>2010-08-28T16:08:46Z</time>
      </trkpt><trkpt lat="44.83411082" lon="6.72245557">
        <ele>2037.2</ele>
        <time>2010-08-28T16:09:23Z</time>
      </trkpt><trkpt lat="44.83393833" lon="6.72349208">
        <ele>2029.5</ele>
        <time>2010-08-28T16:09:49Z</time>
      </trkpt><trkpt lat="44.83487165" lon="6.72155318">
        <ele>2014.1</ele>
        <time>2010-08-28T16:10:45Z</time>
      </trkpt><trkpt lat="44.83498472" lon="6.72267158">
        <ele>2005.4</ele>
        <time>2010-08-28T16:11:13Z</time>
      </trkpt><trkpt lat="44.83593372" lon="6.72175326">
        <ele>1988.6</ele>
        <time>2010-08-28T16:11:52Z</time>
      </trkpt><trkpt lat="44.83814604" lon="6.72339544">
        <ele>1944.9</ele>
        <time>2010-08-28T16:13:17Z</time>
      </trkpt><trkpt lat="44.84412820" lon="6.72359216">
        <ele>1888.6</ele>
        <time>2010-08-28T16:16:40Z</time>
      </trkpt><trkpt lat="44.84602704" lon="6.72560013">
        <ele>1847.3</ele>
        <time>2010-08-28T16:18:01Z</time>
      </trkpt><trkpt lat="44.84792764" lon="6.72472581">
        <ele>1830</ele>
        <time>2010-08-28T16:19:09Z</time>
      </trkpt><trkpt lat="44.85298561" lon="6.72460361">
        <ele>1788.7</ele>
        <time>2010-08-28T16:22:01Z</time>
      </trkpt><trkpt lat="44.85515158" lon="6.72710896">
        <ele>1764.2</ele>
        <time>2010-08-28T16:23:36Z</time>
      </trkpt><trkpt lat="44.85880156" lon="6.72508154">
        <ele>1745.9</ele>
        <time>2010-08-28T16:25:49Z</time>
      </trkpt><trkpt lat="44.86376952" lon="6.72431141">
        <ele>1708.9</ele>
        <time>2010-08-28T16:28:39Z</time>
      </trkpt><trkpt lat="44.86767574" lon="6.72471349">
        <ele>1676.2</ele>
        <time>2010-08-28T16:30:52Z</time>
      </trkpt><trkpt lat="44.87007891" lon="6.72589702">
        <ele>1655.5</ele>
        <time>2010-08-28T16:32:19Z</time>
      </trkpt><trkpt lat="44.86838996" lon="6.72240855">
        <ele>1637.7</ele>
        <time>2010-08-28T16:34:01Z</time>
      </trkpt><trkpt lat="44.86748916" lon="6.70968273">
        <ele>1585.4</ele>
        <time>2010-08-28T16:39:09Z</time>
      </trkpt><trkpt lat="44.86918607" lon="6.70332028">
        <ele>1580.5</ele>
        <time>2010-08-28T16:41:53Z</time>
      </trkpt><trkpt lat="44.87213357" lon="6.70046993">
        <ele>1562.8</ele>
        <time>2010-08-28T16:43:54Z</time>
      </trkpt><trkpt lat="44.87331500" lon="6.69388720">
        <ele>1542.1</ele>
        <time>2010-08-28T16:46:38Z</time>
      </trkpt><trkpt lat="44.87678418" lon="6.68882143">
        <ele>1509.4</ele>
        <time>2010-08-28T16:49:27Z</time>
      </trkpt><trkpt lat="44.87718651" lon="6.68299994">
        <ele>1473.4</ele>
        <time>2010-08-28T16:51:48Z</time>
      </trkpt><trkpt lat="44.87868931" lon="6.67950972">
        <ele>1458</ele>
        <time>2010-08-28T16:53:27Z</time>
      </trkpt><trkpt lat="44.88043333" lon="6.66987120">
        <ele>1458</ele>
        <time>2010-08-28T16:57:26Z</time>
      </trkpt><trkpt lat="44.88180151" lon="6.66880410">
        <ele>1463.3</ele>
        <time>2010-08-28T16:58:19Z</time>
      </trkpt><trkpt lat="44.88223443" lon="6.66237904">
        <ele>1462.3</ele>
        <time>2010-08-28T17:00:55Z</time>
      </trkpt><trkpt lat="44.88404811" lon="6.65869083">
        <ele>1446</ele>
        <time>2010-08-28T17:02:43Z</time>
      </trkpt><trkpt lat="44.88559013" lon="6.65117143">
        <ele>1419.5</ele>
        <time>2010-08-28T17:05:52Z</time>
      </trkpt><trkpt lat="44.88728512" lon="6.64787935">
        <ele>1383</ele>
        <time>2010-08-28T17:07:30Z</time>
      </trkpt><trkpt lat="44.89003916" lon="6.64779754">
        <ele>1365.2</ele>
        <time>2010-08-28T17:09:03Z</time>
      </trkpt><trkpt lat="44.89277258" lon="6.64465047">
        <ele>1345.5</ele>
        <time>2010-08-28T17:11:03Z</time>
      </trkpt><trkpt lat="44.89326510" lon="6.64211730">
        <ele>1330.1</ele>
        <time>2010-08-28T17:12:06Z</time>
      </trkpt><trkpt lat="44.89260402" lon="6.64026833">
        <ele>1316.7</ele>
        <time>2010-08-28T17:12:56Z</time>
      </trkpt><trkpt lat="44.88909686" lon="6.64029775">
        <ele>1291.7</ele>
        <time>2010-08-28T17:14:55Z</time>
      </trkpt><trkpt lat="44.88901455" lon="6.63925337">
        <ele>1284</ele>
        <time>2010-08-28T17:15:21Z</time>
      </trkpt><trkpt lat="44.89504156" lon="6.63668037">
        <ele>1236.4</ele>
        <time>2010-08-28T17:18:55Z</time>
      </trkpt><trkpt lat="44.89401360" lon="6.63491548">
        <ele>1233.5</ele>
        <time>2010-08-28T17:19:50Z</time>
      </trkpt><trkpt lat="44.89478256" lon="6.63314933">
        <ele>1229.2</ele>
        <time>2010-08-28T17:20:40Z</time>
      </trkpt><trkpt lat="44.89571656" lon="6.63488095">
        <ele>1233</ele>
        <time>2010-08-28T17:21:32Z</time>
      </trkpt><trkpt lat="44.89550005" lon="6.63286342">
        <ele>1229.7</ele>
        <time>2010-08-28T17:22:21Z</time>
      </trkpt><trkpt lat="44.89657402" lon="6.63458347">
        <ele>1238.3</ele>
        <time>2010-08-28T17:23:17Z</time>
      </trkpt><trkpt lat="44.89921189" lon="6.63347413">
        <ele>1246</ele>
        <time>2010-08-28T17:24:50Z</time>
      </trkpt><trkpt lat="44.90262048" lon="6.63132316">
        <ele>1263.8</ele>
        <time>2010-08-28T17:26:57Z</time>
      </trkpt><trkpt lat="44.90410910" lon="6.62810619">
        <ele>1276.3</ele>
        <time>2010-08-28T17:28:30Z</time>
      </trkpt><trkpt lat="44.90763126" lon="6.62757436">
        <ele>1302.2</ele>
        <time>2010-08-28T17:30:30Z</time>
      </trkpt><trkpt lat="44.91105594" lon="6.62481939">
        <ele>1320</ele>
        <time>2010-08-28T17:32:44Z</time>
      </trkpt><trkpt lat="44.91715939" lon="6.62206912">
        <ele>1351.8</ele>
        <time>2010-08-28T17:36:22Z</time>
      </trkpt><trkpt lat="44.91854324" lon="6.62030172">
        <ele>1357.5</ele>
        <time>2010-08-28T17:37:25Z</time>
      </trkpt><trkpt lat="44.92183566" lon="6.61542663">
        <ele>1352.2</ele>
        <time>2010-08-28T17:40:07Z</time>
      </trkpt><trkpt lat="44.92461132" lon="6.60871130">
        <ele>1366.7</ele>
        <time>2010-08-28T17:43:15Z</time>
      </trkpt><trkpt lat="44.92767533" lon="6.60599574">
        <ele>1370.5</ele>
        <time>2010-08-28T17:45:18Z</time>
      </trkpt><trkpt lat="44.92942731" lon="6.59871010">
        <ele>1383</ele>
        <time>2010-08-28T17:48:23Z</time>
      </trkpt><trkpt lat="44.93119581" lon="6.59812060">
        <ele>1396.5</ele>
        <time>2010-08-28T17:49:24Z</time>
      </trkpt><trkpt lat="44.93625664" lon="6.59325273">
        <ele>1440.2</ele>
        <time>2010-08-28T17:52:53Z</time>
      </trkpt><trkpt lat="44.93711679" lon="6.58963879">
        <ele>1428.2</ele>
        <time>2010-08-28T17:54:24Z</time>
      </trkpt><trkpt lat="44.93523656" lon="6.59101191">
        <ele>1413.3</ele>
        <time>2010-08-28T17:55:36Z</time>
      </trkpt><trkpt lat="44.93511200" lon="6.59020901">
        <ele>1405.1</ele>
        <time>2010-08-28T17:55:56Z</time>
      </trkpt><trkpt lat="44.93415789" lon="6.59036818">
        <ele>1400.3</ele>
        <time>2010-08-28T17:56:29Z</time>
      </trkpt><trkpt lat="44.93405999" lon="6.58787943">
        <ele>1384.4</ele>
        <time>2010-08-28T17:57:29Z</time>
      </trkpt><trkpt lat="44.93646300" lon="6.58354078">
        <ele>1373.9</ele>
        <time>2010-08-28T17:59:41Z</time>
      </trkpt><trkpt lat="44.93987829" lon="6.57179162">
        <ele>1394.5</ele>
        <time>2010-08-28T18:04:47Z</time>
      </trkpt><trkpt lat="44.94268422" lon="6.56809897">
        <ele>1391.2</ele>
        <time>2010-08-28T18:06:57Z</time>
      </trkpt><trkpt lat="44.94560338" lon="6.56116295">
        <ele>1396.5</ele>
        <time>2010-08-28T18:10:12Z</time>
      </trkpt><trkpt lat="44.94606581" lon="6.55709990">
        <ele>1401.3</ele>
        <time>2010-08-28T18:11:51Z</time>
      </trkpt><trkpt lat="44.94455212" lon="6.55596960">
        <ele>1409.9</ele>
        <time>2010-08-28T18:12:49Z</time>
      </trkpt><trkpt lat="44.94389582" lon="6.55680696">
        <ele>1412.3</ele>
        <time>2010-08-28T18:13:19Z</time>
      </trkpt><trkpt lat="44.94516417" lon="6.56040874">
        <ele>1403.7</ele>
        <time>2010-08-28T18:14:56Z</time>
      </trkpt><trkpt lat="44.94628416" lon="6.55858057">
        <ele>1402.2</ele>
        <time>2010-08-28T18:15:54Z</time>
      </trkpt><trkpt lat="44.94600437" lon="6.55702765">
        <ele>1404.1</ele>
        <time>2010-08-28T18:16:32Z</time>
      </trkpt><trkpt lat="44.94450963" lon="6.55601503">
        <ele>1413.3</ele>
        <time>2010-08-28T18:17:29Z</time>
      </trkpt><trkpt lat="44.94390965" lon="6.55682087">
        <ele>1413.8</ele>
        <time>2010-08-28T18:17:57Z</time>
      </trkpt><trkpt lat="44.94564462" lon="6.56113084">
        <ele>1399.3</ele>
        <time>2010-08-28T18:19:56Z</time>
      </trkpt><trkpt lat="44.94776264" lon="6.55890897">
        <ele>1399.8</ele>
        <time>2010-08-28T18:21:26Z</time>
      </trkpt><trkpt lat="44.94556440" lon="6.56063405">
        <ele>1396</ele>
        <time>2010-08-28T18:22:51Z</time>
      </trkpt><trkpt lat="44.94162977" lon="6.57020132">
        <ele>1391.6</ele>
        <time>2010-08-28T18:27:18Z</time>
      </trkpt><trkpt lat="44.94587093" lon="6.55909287">
        <ele>1397.4</ele>
        <time>2010-08-28T18:32:21Z</time>
      </trkpt><trkpt lat="44.94780925" lon="6.55643866">
        <ele>1397.9</ele>
        <time>2010-08-28T18:33:53Z</time>
      </trkpt><trkpt lat="44.95080980" lon="6.55478742">
        <ele>1404.6</ele>
        <time>2010-08-28T18:35:42Z</time>
      </trkpt><trkpt lat="44.95574515" lon="6.54849764">
        <ele>1411.8</ele>
        <time>2010-08-28T18:39:28Z</time>
      </trkpt><trkpt lat="44.95855895" lon="6.54167385">
        <ele>1419.5</ele>
        <time>2010-08-28T18:42:38Z</time>
      </trkpt><trkpt lat="44.96422537" lon="6.53614657">
        <ele>1431.5</ele>
        <time>2010-08-28T18:46:32Z</time>
      </trkpt><trkpt lat="44.96762608" lon="6.53106823">
        <ele>1442.6</ele>
        <time>2010-08-28T18:49:21Z</time>
      </trkpt><trkpt lat="44.96871790" lon="6.52451886">
        <ele>1454.6</ele>
        <time>2010-08-28T18:52:02Z</time>
      </trkpt><trkpt lat="44.97114933" lon="6.52241550">
        <ele>1456.1</ele>
        <time>2010-08-28T18:53:39Z</time>
      </trkpt><trkpt lat="44.97253636" lon="6.51911697">
        <ele>1460.4</ele>
        <time>2010-08-28T18:55:12Z</time>
      </trkpt><trkpt lat="44.97558788" lon="6.51594694">
        <ele>1471.4</ele>
        <time>2010-08-28T18:57:20Z</time>
      </trkpt><trkpt lat="44.97594755" lon="6.50839124">
        <ele>1487.3</ele>
        <time>2010-08-28T19:00:23Z</time>
      </trkpt><trkpt lat="44.97916125" lon="6.50021712">
        <ele>1512.8</ele>
        <time>2010-08-28T19:04:07Z</time>
      </trkpt><trkpt lat="44.98364842" lon="6.49796926">
        <ele>1528.6</ele>
        <time>2010-08-28T19:06:49Z</time>
      </trkpt><trkpt lat="44.99282359" lon="6.48198607">
        <ele>1568.5</ele>
        <time>2010-08-28T19:15:04Z</time>
      </trkpt><trkpt lat="45.00554011" lon="6.47262876">
        <ele>1624.8</ele>
        <time>2010-08-28T19:23:12Z</time>
      </trkpt><trkpt lat="45.01101927" lon="6.46989978">
        <ele>1657</ele>
        <time>2010-08-28T19:26:29Z</time>
      </trkpt><trkpt lat="45.01560660" lon="6.46555862">
        <ele>1685.3</ele>
        <time>2010-08-28T19:29:37Z</time>
      </trkpt><trkpt lat="45.01824037" lon="6.46586465">
        <ele>1702.6</ele>
        <time>2010-08-28T19:31:06Z</time>
      </trkpt><trkpt lat="45.02619404" lon="6.45009108">
        <ele>1775.2</ele>
        <time>2010-08-28T19:38:52Z</time>
      </trkpt><trkpt lat="45.03197026" lon="6.44084919">
        <ele>1828.6</ele>
        <time>2010-08-28T19:43:48Z</time>
      </trkpt><trkpt lat="45.03942965" lon="6.43184845">
        <ele>1880.5</ele>
        <time>2010-08-28T19:49:22Z</time>
      </trkpt><trkpt lat="45.04065475" lon="6.42804332">
        <ele>1897.8</ele>
        <time>2010-08-28T19:51:02Z</time>
      </trkpt><trkpt lat="45.04238109" lon="6.42658101">
        <ele>1906</ele>
        <time>2010-08-28T19:52:11Z</time>
      </trkpt><trkpt lat="45.04308701" lon="6.42286900">
        <ele>1925.2</ele>
        <time>2010-08-28T19:53:43Z</time>
      </trkpt><trkpt lat="45.04149914" lon="6.41969553">
        <ele>1944.4</ele>
        <time>2010-08-28T19:55:16Z</time>
      </trkpt><trkpt lat="45.04286581" lon="6.41936269">
        <ele>1960.3</ele>
        <time>2010-08-28T19:56:03Z</time>
      </trkpt><trkpt lat="45.04178756" lon="6.41837329">
        <ele>1959.8</ele>
        <time>2010-08-28T19:56:47Z</time>
      </trkpt><trkpt lat="45.04261570" lon="6.41912523">
        <ele>1960.3</ele>
        <time>2010-08-28T19:57:21Z</time>
      </trkpt><trkpt lat="45.04135514" lon="6.41981456">
        <ele>1963.1</ele>
        <time>2010-08-28T19:58:07Z</time>
      </trkpt><trkpt lat="45.04217984" lon="6.41946084">
        <ele>1948.7</ele>
        <time>2010-08-28T19:58:36Z</time>
      </trkpt><trkpt lat="45.04243079" lon="6.42652293">
        <ele>1940.1</ele>
        <time>2010-08-28T20:01:26Z</time>
      </trkpt><trkpt lat="45.02574385" lon="6.45083749">
        <ele>1802.1</ele>
        <time>2010-08-28T20:15:00Z</time>
      </trkpt><trkpt lat="45.01820189" lon="6.46590698">
        <ele>1726.7</ele>
        <time>2010-08-28T20:22:24Z</time>
      </trkpt><trkpt lat="45.01537535" lon="6.46585610">
        <ele>1711.8</ele>
        <time>2010-08-28T20:24:00Z</time>
      </trkpt><trkpt lat="44.99363479" lon="6.48105140">
        <ele>1587.8</ele>
        <time>2010-08-28T20:37:44Z</time>
      </trkpt><trkpt lat="44.98307719" lon="6.49871676">
        <ele>1542.6</ele>
        <time>2010-08-28T20:47:00Z</time>
      </trkpt><trkpt lat="44.97949695" lon="6.49982510">
        <ele>1533.9</ele>
        <time>2010-08-28T20:49:05Z</time>
      </trkpt><trkpt lat="44.97602298" lon="6.50796427">
        <ele>1506</ele>
        <time>2010-08-28T20:52:53Z</time>
      </trkpt><trkpt lat="44.97571076" lon="6.51560898">
        <ele>1489.2</ele>
        <time>2010-08-28T20:55:58Z</time>
      </trkpt><trkpt lat="44.96864967" lon="6.52476244">
        <ele>1465.7</ele>
        <time>2010-08-28T21:01:23Z</time>
      </trkpt><trkpt lat="44.96742726" lon="6.53146863">
        <ele>1454.6</ele>
        <time>2010-08-28T21:04:10Z</time>
      </trkpt><trkpt lat="44.95897989" lon="6.54118326">
        <ele>1431.1</ele>
        <time>2010-08-28T21:10:20Z</time>
      </trkpt><trkpt lat="44.95600029" lon="6.54816915">
        <ele>1423.4</ele>
        <time>2010-08-28T21:13:36Z</time>
      </trkpt><trkpt lat="44.94565954" lon="6.56066573">
        <ele>1396.9</ele>
        <time>2010-08-28T21:21:19Z</time>
      </trkpt><trkpt lat="44.93964184" lon="6.57238280">
        <ele>1391.6</ele>
        <time>2010-08-28T21:27:07Z</time>
      </trkpt><trkpt lat="44.93594131" lon="6.58456405">
        <ele>1373.4</ele>
        <time>2010-08-28T21:32:26Z</time>
      </trkpt><trkpt lat="44.92499102" lon="6.60530289">
        <ele>1352.7</ele>
        <time>2010-08-28T21:42:49Z</time>
      </trkpt><trkpt lat="44.92181420" lon="6.61545949">
        <ele>1349.3</ele>
        <time>2010-08-28T21:47:16Z</time>
      </trkpt><trkpt lat="44.91457601" lon="6.62554569">
        <ele>1357.5</ele>
        <time>2010-08-28T21:53:02Z</time>
      </trkpt><trkpt lat="44.90423005" lon="6.63643462">
        <ele>1345</ele>
        <time>2010-08-28T22:00:20Z</time>
      </trkpt><trkpt lat="44.90138054" lon="6.64423943">
        <ele>1342.6</ele>
        <time>2010-08-28T22:03:52Z</time>
      </trkpt><trkpt lat="44.90501628" lon="6.65749180">
        <ele>1352.7</ele>
        <time>2010-08-28T22:09:34Z</time>
      </trkpt><trkpt lat="44.90963689" lon="6.66333407">
        <ele>1354.2</ele>
        <time>2010-08-28T22:13:05Z</time>
      </trkpt><trkpt lat="44.91254172" lon="6.67172226">
        <ele>1380.1</ele>
        <time>2010-08-28T22:16:50Z</time>
      </trkpt><trkpt lat="44.91873100" lon="6.67394942">
        <ele>1370.5</ele>
        <time>2010-08-28T22:20:27Z</time>
      </trkpt><trkpt lat="44.92427152" lon="6.67903405">
        <ele>1376.3</ele>
        <time>2010-08-28T22:24:11Z</time>
      </trkpt><trkpt lat="44.93513204" lon="6.67808312">
        <ele>1386.4</ele>
        <time>2010-08-28T22:30:21Z</time>
      </trkpt><trkpt lat="44.94178006" lon="6.68147402">
        <ele>1395.5</ele>
        <time>2010-08-28T22:34:22Z</time>
      </trkpt><trkpt lat="44.94971211" lon="6.67806082">
        <ele>1405.1</ele>
        <time>2010-08-28T22:39:04Z</time>
      </trkpt><trkpt lat="44.95110467" lon="6.67623675">
        <ele>1407.5</ele>
        <time>2010-08-28T22:40:08Z</time>
      </trkpt><trkpt lat="44.95724283" lon="6.67917252">
        <ele>1414.2</ele>
        <time>2010-08-28T22:43:48Z</time>
      </trkpt><trkpt lat="44.96182739" lon="6.67690462">
        <ele>1420.5</ele>
        <time>2010-08-28T22:46:34Z</time>
      </trkpt><trkpt lat="44.96461773" lon="6.67737007">
        <ele>1423.4</ele>
        <time>2010-08-28T22:48:09Z</time>
      </trkpt><trkpt lat="44.96841716" lon="6.67287335">
        <ele>1444</ele>
        <time>2010-08-28T22:50:58Z</time>
      </trkpt><trkpt lat="44.97484524" lon="6.66931464">
        <ele>1453.2</ele>
        <time>2010-08-28T22:54:52Z</time>
      </trkpt><trkpt lat="44.98126754" lon="6.67035920">
        <ele>1449.3</ele>
        <time>2010-08-28T22:58:32Z</time>
      </trkpt><trkpt lat="44.98583878" lon="6.66723702">
        <ele>1459.9</ele>
        <time>2010-08-28T23:01:25Z</time>
      </trkpt><trkpt lat="44.99928042" lon="6.66197553">
        <ele>1485.4</ele>
        <time>2010-08-28T23:09:19Z</time>
      </trkpt><trkpt lat="45.00203941" lon="6.66225256">
        <ele>1489.7</ele>
        <time>2010-08-28T23:10:53Z</time>
      </trkpt><trkpt lat="45.00336408" lon="6.65929140">
        <ele>1496.9</ele>
        <time>2010-08-28T23:12:17Z</time>
      </trkpt><trkpt lat="45.01022953" lon="6.65874758">
        <ele>1512.3</ele>
        <time>2010-08-28T23:16:11Z</time>
      </trkpt><trkpt lat="45.01504519" lon="6.65505921">
        <ele>1529.6</ele>
        <time>2010-08-28T23:19:17Z</time>
      </trkpt><trkpt lat="45.01745984" lon="6.65097781">
        <ele>1543.1</ele>
        <time>2010-08-28T23:21:25Z</time>
      </trkpt><trkpt lat="45.01668862" lon="6.63677383">
        <ele>1587.3</ele>
        <time>2010-08-28T23:27:07Z</time>
      </trkpt><trkpt lat="45.02156622" lon="6.64249507">
        <ele>1614.2</ele>
        <time>2010-08-28T23:30:43Z</time>
      </trkpt><trkpt lat="45.02055645" lon="6.65415773">
        <ele>1694.5</ele>
        <time>2010-08-28T23:35:25Z</time>
      </trkpt><trkpt lat="45.02370637" lon="6.65780738">
        <ele>1744</ele>
        <time>2010-08-28T23:37:43Z</time>
      </trkpt><trkpt lat="45.03749804" lon="6.65440802">
        <ele>1748.3</ele>
        <time>2010-08-28T23:45:39Z</time>
      </trkpt><trkpt lat="45.04391623" lon="6.65715326">
        <ele>1779.1</ele>
        <time>2010-08-28T23:49:27Z</time>
      </trkpt><trkpt lat="45.04545020" lon="6.65979875">
        <ele>1772.3</ele>
        <time>2010-08-28T23:50:49Z</time>
      </trkpt><trkpt lat="45.04270077" lon="6.66524909">
        <ele>1746.4</ele>
        <time>2010-08-28T23:53:30Z</time>
      </trkpt><trkpt lat="45.04306890" lon="6.66707651">
        <ele>1735.3</ele>
        <time>2010-08-28T23:54:16Z</time>
      </trkpt><trkpt lat="45.04651496" lon="6.65954344">
        <ele>1684.4</ele>
        <time>2010-08-28T23:57:51Z</time>
      </trkpt><trkpt lat="45.04796595" lon="6.65906173">
        <ele>1659.4</ele>
        <time>2010-08-28T23:58:42Z</time>
      </trkpt><trkpt lat="45.04536664" lon="6.66440964">
        <ele>1613.2</ele>
        <time>2010-08-29T00:01:18Z</time>
      </trkpt><trkpt lat="45.05209135" lon="6.65756137">
        <ele>1534.9</ele>
        <time>2010-08-29T00:06:00Z</time>
      </trkpt><trkpt lat="45.04974526" lon="6.66628735">
        <ele>1475.3</ele>
        <time>2010-08-29T00:09:44Z</time>
      </trkpt><trkpt lat="45.05260776" lon="6.67735054">
        <ele>1420</ele>
        <time>2010-08-29T00:14:27Z</time>
      </trkpt><trkpt lat="45.05604895" lon="6.67910420">
        <ele>1398.9</ele>
        <time>2010-08-29T00:16:31Z</time>
      </trkpt><trkpt lat="45.05785156" lon="6.68232336">
        <ele>1385.4</ele>
        <time>2010-08-29T00:18:10Z</time>
      </trkpt><trkpt lat="45.05995919" lon="6.68172414">
        <ele>1393.1</ele>
        <time>2010-08-29T00:19:23Z</time>
      </trkpt><trkpt lat="45.06351773" lon="6.68672796">
        <ele>1387.8</ele>
        <time>2010-08-29T00:22:13Z</time>
      </trkpt><trkpt lat="45.07045602" lon="6.69025155">
        <ele>1335.9</ele>
        <time>2010-08-29T00:26:24Z</time>
      </trkpt><trkpt lat="45.07411480" lon="6.70612335">
        <ele>1285.9</ele>
        <time>2010-08-29T00:33:05Z</time>
      </trkpt><trkpt lat="45.07586956" lon="6.70932876">
        <ele>1281.1</ele>
        <time>2010-08-29T00:34:42Z</time>
      </trkpt><trkpt lat="45.07786914" lon="6.70871076">
        <ele>1279.7</ele>
        <time>2010-08-29T00:35:52Z</time>
      </trkpt><trkpt lat="45.07655771" lon="6.71318008">
        <ele>1273.9</ele>
        <time>2010-08-29T00:37:48Z</time>
      </trkpt><trkpt lat="45.07119966" lon="6.71626696">
        <ele>1258</ele>
        <time>2010-08-29T00:41:05Z</time>
      </trkpt><trkpt lat="45.05841282" lon="6.73123763">
        <ele>1227.7</ele>
        <time>2010-08-29T00:50:29Z</time>
      </trkpt><trkpt lat="45.04853726" lon="6.75212860">
        <ele>1182.6</ele>
        <time>2010-08-29T01:00:32Z</time>
      </trkpt><trkpt lat="45.04178807" lon="6.78365395">
        <ele>1143.1</ele>
        <time>2010-08-29T01:13:43Z</time>
      </trkpt><trkpt lat="45.04364491" lon="6.78792000">
        <ele>1136.9</ele>
        <time>2010-08-29T01:15:44Z</time>
      </trkpt><trkpt lat="45.04524032" lon="6.79896265">
        <ele>1129.2</ele>
        <time>2010-08-29T01:20:15Z</time>
      </trkpt><trkpt lat="45.04196073" lon="6.80906754">
        <ele>1122.5</ele>
        <time>2010-08-29T01:24:42Z</time>
      </trkpt><trkpt lat="45.04278660" lon="6.81392670">
        <ele>1104.7</ele>
        <time>2010-08-29T01:26:42Z</time>
      </trkpt><trkpt lat="45.04167080" lon="6.82480691">
        <ele>1097</ele>
        <time>2010-08-29T01:31:06Z</time>
      </trkpt><trkpt lat="45.03461098" lon="6.83280425">
        <ele>1092.7</ele>
        <time>2010-08-29T01:36:13Z</time>
      </trkpt><trkpt lat="45.03304214" lon="6.83330080">
        <ele>1095.1</ele>
        <time>2010-08-29T01:37:08Z</time>
      </trkpt><trkpt lat="45.02918495" lon="6.82976489">
        <ele>1103.7</ele>
        <time>2010-08-29T01:39:44Z</time>
      </trkpt><trkpt lat="45.01700186" lon="6.83113793">
        <ele>1130.2</ele>
        <time>2010-08-29T01:46:40Z</time>
      </trkpt><trkpt lat="45.00693804" lon="6.82404198">
        <ele>1175.8</ele>
        <time>2010-08-29T01:53:02Z</time>
      </trkpt><trkpt lat="45.00153481" lon="6.81329437">
        <ele>1231.6</ele>
        <time>2010-08-29T01:58:19Z</time>
      </trkpt><trkpt lat="44.99500615" lon="6.80820043">
        <ele>1246</ele>
        <time>2010-08-29T02:02:32Z</time>
      </trkpt><trkpt lat="44.99014347" lon="6.80850235">
        <ele>1249.9</ele>
        <time>2010-08-29T02:05:18Z</time>
      </trkpt><trkpt lat="44.97950600" lon="6.80554261">
        <ele>1273.4</ele>
        <time>2010-08-29T02:11:26Z</time>
      </trkpt><trkpt lat="44.97550817" lon="6.79970822">
        <ele>1294.1</ele>
        <time>2010-08-29T02:14:42Z</time>
      </trkpt><trkpt lat="44.96786932" lon="6.79849419">
        <ele>1314.7</ele>
        <time>2010-08-29T02:19:03Z</time>
      </trkpt><trkpt lat="44.95611269" lon="6.79302491">
        <ele>1352.2</ele>
        <time>2010-08-29T02:26:04Z</time>
      </trkpt><trkpt lat="44.94721706" lon="6.79754033">
        <ele>1394.5</ele>
        <time>2010-08-29T02:31:25Z</time>
      </trkpt><trkpt lat="44.95274753" lon="6.79837684">
        <ele>1447.4</ele>
        <time>2010-08-29T02:34:34Z</time>
      </trkpt><trkpt lat="44.94764815" lon="6.80371335">
        <ele>1505.6</ele>
        <time>2010-08-29T02:38:10Z</time>
      </trkpt><trkpt lat="44.94203504" lon="6.80231919">
        <ele>1557.5</ele>
        <time>2010-08-29T02:41:24Z</time>
      </trkpt><trkpt lat="44.94067599" lon="6.80570782">
        <ele>1571.9</ele>
        <time>2010-08-29T02:42:57Z</time>
      </trkpt><trkpt lat="44.94208323" lon="6.81311759">
        <ele>1605.1</ele>
        <time>2010-08-29T02:46:02Z</time>
      </trkpt><trkpt lat="44.94080642" lon="6.82464103">
        <ele>1651.2</ele>
        <time>2010-08-29T02:50:43Z</time>
      </trkpt><trkpt lat="44.94339467" lon="6.83182717">
        <ele>1684.4</ele>
        <time>2010-08-29T02:53:57Z</time>
      </trkpt><trkpt lat="44.94397268" lon="6.84117802">
        <ele>1720.4</ele>
        <time>2010-08-29T02:57:43Z</time>
      </trkpt><trkpt lat="44.94676612" lon="6.84652367">
        <ele>1748.3</ele>
        <time>2010-08-29T03:00:22Z</time>
      </trkpt><trkpt lat="44.94848852" lon="6.86035481">
        <ele>1817</ele>
        <time>2010-08-29T03:06:00Z</time>
      </trkpt><trkpt lat="44.95017906" lon="6.85545559">
        <ele>1848.8</ele>
        <time>2010-08-29T03:08:11Z</time>
      </trkpt><trkpt lat="44.94976810" lon="6.86032808">
        <ele>1882.4</ele>
        <time>2010-08-29T03:10:09Z</time>
      </trkpt><trkpt lat="44.95451041" lon="6.86466336">
        <ele>1926.6</ele>
        <time>2010-08-29T03:13:22Z</time>
      </trkpt><trkpt lat="44.95400439" lon="6.86953660">
        <ele>1955.5</ele>
        <time>2010-08-29T03:15:20Z</time>
      </trkpt><trkpt lat="44.95657085" lon="6.87324928">
        <ele>1981.9</ele>
        <time>2010-08-29T03:17:25Z</time>
      </trkpt><trkpt lat="44.95696857" lon="6.88033979">
        <ele>2017.5</ele>
        <time>2010-08-29T03:20:16Z</time>
      </trkpt><trkpt lat="44.96154358" lon="6.88407535">
        <ele>2003.5</ele>
        <time>2010-08-29T03:23:16Z</time>
      </trkpt><trkpt lat="44.96508033" lon="6.88261530">
        <ele>2029</ele>
        <time>2010-08-29T03:25:21Z</time>
      </trkpt><trkpt lat="44.96257623" lon="6.87895040">
        <ele>2038.1</ele>
        <time>2010-08-29T03:27:23Z</time>
      </trkpt><trkpt lat="44.96527395" lon="6.88203394">
        <ele>2027.6</ele>
        <time>2010-08-29T03:29:21Z</time>
      </trkpt><trkpt lat="44.96225034" lon="6.88365106">
        <ele>2008.3</ele>
        <time>2010-08-29T03:31:11Z</time>
      </trkpt><trkpt lat="44.96595146" lon="6.88293600">
        <ele>1994.4</ele>
        <time>2010-08-29T03:33:18Z</time>
      </trkpt><trkpt lat="44.97101890" lon="6.88619999">
        <ele>1952.6</ele>
        <time>2010-08-29T03:36:28Z</time>
      </trkpt><trkpt lat="44.97558117" lon="6.89984322">
        <ele>1877.6</ele>
        <time>2010-08-29T03:42:30Z</time>
      </trkpt><trkpt lat="44.97934138" lon="6.90593912">
        <ele>1836.3</ele>
        <time>2010-08-29T03:45:45Z</time>
      </trkpt><trkpt lat="44.98395327" lon="6.91063718">
        <ele>1794.9</ele>
        <time>2010-08-29T03:48:58Z</time>
      </trkpt><trkpt lat="44.99341677" lon="6.91460953">
        <ele>1718</ele>
        <time>2010-08-29T03:54:34Z</time>
      </trkpt><trkpt lat="44.98768858" lon="6.91546440">
        <ele>1688.2</ele>
        <time>2010-08-29T03:57:50Z</time>
      </trkpt><trkpt lat="44.99568668" lon="6.91741663">
        <ele>1631.5</ele>
        <time>2010-08-29T04:02:26Z</time>
      </trkpt><trkpt lat="45.00006790" lon="6.92615083">
        <ele>1607</ele>
        <time>2010-08-29T04:06:43Z</time>
      </trkpt><trkpt lat="45.01029969" lon="6.93533421">
        <ele>1548.3</ele>
        <time>2010-08-29T04:13:35Z</time>
      </trkpt><trkpt lat="45.01134692" lon="6.93891596">
        <ele>1545.5</ele>
        <time>2010-08-29T04:15:08Z</time>
      </trkpt><trkpt lat="45.02295619" lon="6.95000757">
        <ele>1516.6</ele>
        <time>2010-08-29T04:23:04Z</time>
      </trkpt><trkpt lat="45.03282354" lon="6.96445336">
        <ele>1486.3</ele>
        <time>2010-08-29T04:31:07Z</time>
      </trkpt><trkpt lat="45.03611578" lon="6.96700598">
        <ele>1478.2</ele>
        <time>2010-08-29T04:33:15Z</time>
      </trkpt><trkpt lat="45.04151565" lon="6.97948404">
        <ele>1450.3</ele>
        <time>2010-08-29T04:39:06Z</time>
      </trkpt><trkpt lat="45.04755456" lon="7.00163900">
        <ele>1423.9</ele>
        <time>2010-08-29T04:48:36Z</time>
      </trkpt><trkpt lat="45.04744811" lon="7.00596113">
        <ele>1416.6</ele>
        <time>2010-08-29T04:50:20Z</time>
      </trkpt><trkpt lat="45.04553318" lon="7.00880528">
        <ele>1403.7</ele>
        <time>2010-08-29T04:51:55Z</time>
      </trkpt><trkpt lat="45.04604482" lon="7.02159120">
        <ele>1362.3</ele>
        <time>2010-08-29T04:57:02Z</time>
      </trkpt><trkpt lat="45.04026968" lon="7.04421312">
        <ele>1220.1</ele>
        <time>2010-08-29T05:06:40Z</time>
      </trkpt><trkpt lat="45.03658969" lon="7.04845034">
        <ele>1184</ele>
        <time>2010-08-29T05:09:21Z</time>
      </trkpt><trkpt lat="45.03444728" lon="7.05402254">
        <ele>1180.2</ele>
        <time>2010-08-29T05:11:54Z</time>
      </trkpt><trkpt lat="45.03079143" lon="7.05667282">
        <ele>1146</ele>
        <time>2010-08-29T05:14:13Z</time>
      </trkpt><trkpt lat="45.02696769" lon="7.05684297">
        <ele>1122</ele>
        <time>2010-08-29T05:16:23Z</time>
      </trkpt><trkpt lat="45.02606957" lon="7.07757116">
        <ele>1081.6</ele>
        <time>2010-08-29T05:24:42Z</time>
      </trkpt><trkpt lat="45.02201725" lon="7.09672205">
        <ele>1054.7</ele>
        <time>2010-08-29T05:32:43Z</time>
      </trkpt><trkpt lat="45.02278487" lon="7.10314871">
        <ele>1037.4</ele>
        <time>2010-08-29T05:35:19Z</time>
      </trkpt><trkpt lat="45.02115685" lon="7.10821197">
        <ele>1016.7</ele>
        <time>2010-08-29T05:37:33Z</time>
      </trkpt><trkpt lat="45.01571574" lon="7.11594285">
        <ele>991.7</ele>
        <time>2010-08-29T05:41:55Z</time>
      </trkpt><trkpt lat="45.01045601" lon="7.11879211">
        <ele>960</ele>
        <time>2010-08-29T05:45:07Z</time>
      </trkpt><trkpt lat="44.99978543" lon="7.13098526">
        <ele>874.9</ele>
        <time>2010-08-29T05:52:53Z</time>
      </trkpt><trkpt lat="44.99589061" lon="7.13309968">
        <ele>859.6</ele>
        <time>2010-08-29T05:55:15Z</time>
      </trkpt><trkpt lat="44.99330521" lon="7.13982582">
        <ele>832.2</ele>
        <time>2010-08-29T05:58:19Z</time>
      </trkpt><trkpt lat="44.98858997" lon="7.14158359">
        <ele>809.1</ele>
        <time>2010-08-29T06:01:05Z</time>
      </trkpt><trkpt lat="44.98342672" lon="7.14713727">
        <ele>785.5</ele>
        <time>2010-08-29T06:04:45Z</time>
      </trkpt><trkpt lat="44.98080134" lon="7.15846265">
        <ele>755.7</ele>
        <time>2010-08-29T06:09:32Z</time>
      </trkpt><trkpt lat="44.97666940" lon="7.16348953">
        <ele>731.7</ele>
        <time>2010-08-29T06:12:37Z</time>
      </trkpt><trkpt lat="44.97566047" lon="7.17124547">
        <ele>713.9</ele>
        <time>2010-08-29T06:15:47Z</time>
      </trkpt><trkpt lat="44.97154202" lon="7.17680602">
        <ele>694.7</ele>
        <time>2010-08-29T06:19:00Z</time>
      </trkpt><trkpt lat="44.96798432" lon="7.17907316">
        <ele>682.2</ele>
        <time>2010-08-29T06:21:13Z</time>
      </trkpt><trkpt lat="44.96572045" lon="7.18506044">
        <ele>680.3</ele>
        <time>2010-08-29T06:23:56Z</time>
      </trkpt><trkpt lat="44.96022310" lon="7.18811615">
        <ele>671.6</ele>
        <time>2010-08-29T06:27:17Z</time>
      </trkpt><trkpt lat="44.95521793" lon="7.19426846">
        <ele>638</ele>
        <time>2010-08-29T06:31:03Z</time>
      </trkpt><trkpt lat="44.95344557" lon="7.19458136">
        <ele>634.6</ele>
        <time>2010-08-29T06:32:03Z</time>
      </trkpt><trkpt lat="44.95536805" lon="7.20137137">
        <ele>624</ele>
        <time>2010-08-29T06:34:59Z</time>
      </trkpt><trkpt lat="44.94624460" lon="7.21820592">
        <ele>583.7</ele>
        <time>2010-08-29T06:43:29Z</time>
      </trkpt><trkpt lat="44.93337351" lon="7.22639781">
        <ele>546.6</ele>
        <time>2010-08-29T06:51:29Z</time>
      </trkpt><trkpt lat="44.93040733" lon="7.23164471">
        <ele>540.9</ele>
        <time>2010-08-29T06:54:11Z</time>
      </trkpt><trkpt lat="44.91533256" lon="7.24240305">
        <ele>508.2</ele>
        <time>2010-08-29T07:03:45Z</time>
      </trkpt><trkpt lat="44.91270860" lon="7.24636870">
        <ele>504.3</ele>
        <time>2010-08-29T07:05:56Z</time>
      </trkpt><trkpt lat="44.90807726" lon="7.24861236">
        <ele>498.1</ele>
        <time>2010-08-29T07:08:42Z</time>
      </trkpt><trkpt lat="44.90223382" lon="7.24893222">
        <ele>490.4</ele>
        <time>2010-08-29T07:12:01Z</time>
      </trkpt><trkpt lat="44.89696864" lon="7.24503690">
        <ele>480.3</ele>
        <time>2010-08-29T07:15:23Z</time>
      </trkpt><trkpt lat="44.89204662" lon="7.24423885">
        <ele>472.6</ele>
        <time>2010-08-29T07:18:12Z</time>
      </trkpt><trkpt lat="44.88831274" lon="7.24838035">
        <ele>479.8</ele>
        <time>2010-08-29T07:20:53Z</time>
      </trkpt><trkpt lat="44.88705721" lon="7.25482277">
        <ele>487.5</ele>
        <time>2010-08-29T07:23:34Z</time>
      </trkpt><trkpt lat="44.88421415" lon="7.25517858">
        <ele>487</ele>
        <time>2010-08-29T07:25:11Z</time>
      </trkpt><trkpt lat="44.88671481" lon="7.25791259">
        <ele>484.6</ele>
        <time>2010-08-29T07:26:58Z</time>
      </trkpt><trkpt lat="44.88424458" lon="7.27926255">
        <ele>446.2</ele>
        <time>2010-08-29T07:35:39Z</time>
      </trkpt><trkpt lat="44.88488613" lon="7.28794319">
        <ele>432.3</ele>
        <time>2010-08-29T07:39:10Z</time>
      </trkpt><trkpt lat="44.88219437" lon="7.30113739">
        <ele>417.4</ele>
        <time>2010-08-29T07:44:40Z</time>
      </trkpt><trkpt lat="44.88411986" lon="7.30322625">
        <ele>415.9</ele>
        <time>2010-08-29T07:46:03Z</time>
      </trkpt><trkpt lat="44.88505075" lon="7.31093357">
        <ele>408.7</ele>
        <time>2010-08-29T07:49:11Z</time>
      </trkpt><trkpt lat="44.88723030" lon="7.31236001">
        <ele>411.6</ele>
        <time>2010-08-29T07:50:33Z</time>
      </trkpt><trkpt lat="44.88743624" lon="7.31428575">
        <ele>410.1</ele>
        <time>2010-08-29T07:51:20Z</time>
      </trkpt><trkpt lat="44.88919921" lon="7.31373858">
        <ele>413.5</ele>
        <time>2010-08-29T07:52:21Z</time>
      </trkpt><trkpt lat="44.88562374" lon="7.31648097">
        <ele>403.4</ele>
        <time>2010-08-29T07:54:40Z</time>
      </trkpt><trkpt lat="44.88467600" lon="7.33111594">
        <ele>390.4</ele>
        <time>2010-08-29T08:00:34Z</time>
      </trkpt><trkpt lat="44.88636101" lon="7.33703876">
        <ele>385.1</ele>
        <time>2010-08-29T08:03:07Z</time>
      </trkpt><trkpt lat="44.88849035" lon="7.33739440">
        <ele>383.2</ele>
        <time>2010-08-29T08:04:20Z</time>
      </trkpt><trkpt lat="44.89181755" lon="7.34508120">
        <ele>380.3</ele>
        <time>2010-08-29T08:07:57Z</time>
      </trkpt><trkpt lat="44.88804921" lon="7.35014035">
        <ele>372.6</ele>
        <time>2010-08-29T08:10:54Z</time>
      </trkpt><trkpt lat="44.88896661" lon="7.35852024">
        <ele>365</ele>
        <time>2010-08-29T08:14:18Z</time>
      </trkpt><trkpt lat="44.89761363" lon="7.36088276">
        <ele>366.9</ele>
        <time>2010-08-29T08:19:18Z</time>
      </trkpt><trkpt lat="44.90289633" lon="7.35878544">
        <ele>356.3</ele>
        <time>2010-08-29T08:22:24Z</time>
      </trkpt><trkpt lat="44.94041884" lon="7.37427327">
        <ele>330.4</ele>
        <time>2010-08-29T08:44:33Z</time>
      </trkpt><trkpt lat="44.97514221" lon="7.44633358">
        <ele>291.4</ele>
        <time>2010-08-29T09:19:30Z</time>
      </trkpt><trkpt lat="44.98905089" lon="7.46428527">
        <ele>306.3</ele>
        <time>2010-08-29T09:30:11Z</time>
      </trkpt><trkpt lat="44.98989503" lon="7.46808202">
        <ele>305.8</ele>
        <time>2010-08-29T09:31:46Z</time>
      </trkpt><trkpt lat="45.01999855" lon="7.46503830">
        <ele>332.3</ele>
        <time>2010-08-29T09:48:52Z</time>
      </trkpt><trkpt lat="45.02372959" lon="7.45893879">
        <ele>341.9</ele>
        <time>2010-08-29T09:52:06Z</time>
      </trkpt><trkpt lat="45.03361194" lon="7.43343752">
        <ele>370.7</ele>
        <time>2010-08-29T10:03:45Z</time>
      </trkpt><trkpt lat="45.03492756" lon="7.41998465">
        <ele>378.9</ele>
        <time>2010-08-29T10:09:11Z</time>
      </trkpt><trkpt lat="45.03789216" lon="7.41926967">
        <ele>380.8</ele>
        <time>2010-08-29T10:10:53Z</time>
      </trkpt><trkpt lat="45.04101752" lon="7.41600878">
        <ele>397.6</ele>
        <time>2010-08-29T10:13:05Z</time>
      </trkpt><trkpt lat="45.05252017" lon="7.39691438">
        <ele>370.7</ele>
        <time>2010-08-29T10:23:08Z</time>
      </trkpt><trkpt lat="45.05739500" lon="7.39549834">
        <ele>370.7</ele>
        <time>2010-08-29T10:25:57Z</time>
      </trkpt><trkpt lat="45.05941873" lon="7.39278847">
        <ele>370.2</ele>
        <time>2010-08-29T10:27:32Z</time>
      </trkpt><trkpt lat="45.06154061" lon="7.39264011">
        <ele>370.7</ele>
        <time>2010-08-29T10:28:44Z</time>
      </trkpt><trkpt lat="45.06631435" lon="7.39678388">
        <ele>392.8</ele>
        <time>2010-08-29T10:31:54Z</time>
      </trkpt><trkpt lat="45.07328013" lon="7.41288995">
        <ele>388.5</ele>
        <time>2010-08-29T10:39:28Z</time>
      </trkpt><trkpt lat="45.07757837" lon="7.41486364">
        <ele>365</ele>
        <time>2010-08-29T10:42:01Z</time>
      </trkpt><trkpt lat="45.08526533" lon="7.41231957">
        <ele>351</ele>
        <time>2010-08-29T10:46:30Z</time>
      </trkpt><trkpt lat="45.08781938" lon="7.40216254">
        <ele>351</ele>
        <time>2010-08-29T10:50:49Z</time>
      </trkpt><trkpt lat="45.09641209" lon="7.40451652">
        <ele>352.5</ele>
        <time>2010-08-29T10:55:46Z</time>
      </trkpt><trkpt lat="45.10867884" lon="7.40010738">
        <ele>356.3</ele>
        <time>2010-08-29T11:02:56Z</time>
      </trkpt><trkpt lat="45.11712042" lon="7.39525359">
        <ele>375.5</ele>
        <time>2010-08-29T11:08:06Z</time>
      </trkpt><trkpt lat="45.11762753" lon="7.38911837">
        <ele>369.8</ele>
        <time>2010-08-29T11:10:34Z</time>
      </trkpt><trkpt lat="45.11934003" lon="7.39015362">
        <ele>377.5</ele>
        <time>2010-08-29T11:11:38Z</time>
      </trkpt><trkpt lat="45.12054057" lon="7.38795346">
        <ele>406.3</ele>
        <time>2010-08-29T11:12:44Z</time>
      </trkpt><trkpt lat="45.12163927" lon="7.39408549">
        <ele>441.4</ele>
        <time>2010-08-29T11:15:16Z</time>
      </trkpt><trkpt lat="45.12300779" lon="7.39127638">
        <ele>468.3</ele>
        <time>2010-08-29T11:16:38Z</time>
      </trkpt><trkpt lat="45.12404295" lon="7.39339348">
        <ele>484.2</ele>
        <time>2010-08-29T11:17:40Z</time>
      </trkpt><trkpt lat="45.12702649" lon="7.39370101">
        <ele>517.3</ele>
        <time>2010-08-29T11:19:21Z</time>
      </trkpt><trkpt lat="45.12900428" lon="7.39596865">
        <ele>540.9</ele>
        <time>2010-08-29T11:20:48Z</time>
      </trkpt><trkpt lat="45.13069894" lon="7.39454649">
        <ele>558.7</ele>
        <time>2010-08-29T11:21:55Z</time>
      </trkpt><trkpt lat="45.13341953" lon="7.39328820">
        <ele>585.6</ele>
        <time>2010-08-29T11:23:32Z</time>
      </trkpt><trkpt lat="45.13510212" lon="7.38597365">
        <ele>604.3</ele>
        <time>2010-08-29T11:26:37Z</time>
      </trkpt><trkpt lat="45.13877205" lon="7.38278735">
        <ele>639.4</ele>
        <time>2010-08-29T11:29:03Z</time>
      </trkpt><trkpt lat="45.13823033" lon="7.38083839">
        <ele>658.2</ele>
        <time>2010-08-29T11:29:53Z</time>
      </trkpt><trkpt lat="45.14076233" lon="7.38186836">
        <ele>668.7</ele>
        <time>2010-08-29T11:31:23Z</time>
      </trkpt><trkpt lat="45.13951058" lon="7.37876404">
        <ele>692.3</ele>
        <time>2010-08-29T11:32:48Z</time>
      </trkpt><trkpt lat="45.14643755" lon="7.38022744">
        <ele>758.6</ele>
        <time>2010-08-29T11:36:47Z</time>
      </trkpt><trkpt lat="45.14728547" lon="7.38341332">
        <ele>781.7</ele>
        <time>2010-08-29T11:38:08Z</time>
      </trkpt><trkpt lat="45.14979115" lon="7.38337677">
        <ele>794.2</ele>
        <time>2010-08-29T11:39:33Z</time>
      </trkpt><trkpt lat="45.15212643" lon="7.37669455">
        <ele>784.1</ele>
        <time>2010-08-29T11:42:32Z</time>
      </trkpt><trkpt lat="45.15555606" lon="7.37814604">
        <ele>827.4</ele>
        <time>2010-08-29T11:44:34Z</time>
      </trkpt><trkpt lat="45.15866164" lon="7.37573004">
        <ele>857.6</ele>
        <time>2010-08-29T11:46:34Z</time>
      </trkpt><trkpt lat="45.15944677" lon="7.36978023">
        <ele>890.3</ele>
        <time>2010-08-29T11:48:59Z</time>
      </trkpt><trkpt lat="45.16316414" lon="7.36998081">
        <ele>924.9</ele>
        <time>2010-08-29T11:51:06Z</time>
      </trkpt><trkpt lat="45.16803587" lon="7.36784049">
        <ele>970.1</ele>
        <time>2010-08-29T11:53:59Z</time>
      </trkpt><trkpt lat="45.16886702" lon="7.36864423">
        <ele>980.7</ele>
        <time>2010-08-29T11:54:33Z</time>
      </trkpt><trkpt lat="45.16921722" lon="7.36582414">
        <ele>1020.1</ele>
        <time>2010-08-29T11:55:42Z</time>
      </trkpt><trkpt lat="45.17078472" lon="7.36709937">
        <ele>1037.9</ele>
        <time>2010-08-29T11:56:43Z</time>
      </trkpt><trkpt lat="45.16779900" lon="7.37281323">
        <ele>1085.9</ele>
        <time>2010-08-29T11:59:34Z</time>
      </trkpt><trkpt lat="45.16976062" lon="7.37540902">
        <ele>1114.8</ele>
        <time>2010-08-29T12:01:05Z</time>
      </trkpt><trkpt lat="45.17464408" lon="7.37801688">
        <ele>1169.6</ele>
        <time>2010-08-29T12:04:02Z</time>
      </trkpt><trkpt lat="45.17538789" lon="7.38339923">
        <ele>1208.5</ele>
        <time>2010-08-29T12:06:14Z</time>
      </trkpt><trkpt lat="45.17404084" lon="7.38781457">
        <ele>1242.6</ele>
        <time>2010-08-29T12:08:09Z</time>
      </trkpt><trkpt lat="45.18101475" lon="7.37980943">
        <ele>1274.4</ele>
        <time>2010-08-29T12:13:14Z</time>
      </trkpt><trkpt lat="45.18273354" lon="7.37429892">
        <ele>1242.2</ele>
        <time>2010-08-29T12:15:39Z</time>
      </trkpt><trkpt lat="45.18207916" lon="7.37170438">
        <ele>1226.8</ele>
        <time>2010-08-29T12:16:45Z</time>
      </trkpt><trkpt lat="45.18618965" lon="7.37094875">
        <ele>1221</ele>
        <time>2010-08-29T12:19:06Z</time>
      </trkpt><trkpt lat="45.18494418" lon="7.36585893">
        <ele>1201.3</ele>
        <time>2010-08-29T12:21:15Z</time>
      </trkpt><trkpt lat="45.18885015" lon="7.36540664">
        <ele>1177.8</ele>
        <time>2010-08-29T12:23:28Z</time>
      </trkpt><trkpt lat="45.19009780" lon="7.36361392">
        <ele>1172.5</ele>
        <time>2010-08-29T12:24:28Z</time>
      </trkpt><trkpt lat="45.19293314" lon="7.36999984">
        <ele>1165.7</ele>
        <time>2010-08-29T12:27:29Z</time>
      </trkpt><trkpt lat="45.19539097" lon="7.36928067">
        <ele>1172.5</ele>
        <time>2010-08-29T12:28:54Z</time>
      </trkpt><trkpt lat="45.19726323" lon="7.37165627">
        <ele>1168.6</ele>
        <time>2010-08-29T12:30:20Z</time>
      </trkpt><trkpt lat="45.19989968" lon="7.36810159">
        <ele>1139.3</ele>
        <time>2010-08-29T12:32:23Z</time>
      </trkpt><trkpt lat="45.20160472" lon="7.36804635">
        <ele>1132.6</ele>
        <time>2010-08-29T12:33:21Z</time>
      </trkpt><trkpt lat="45.20179617" lon="7.37542209">
        <ele>1136.9</ele>
        <time>2010-08-29T12:36:18Z</time>
      </trkpt><trkpt lat="45.20693779" lon="7.37933636">
        <ele>1139.8</ele>
        <time>2010-08-29T12:39:36Z</time>
      </trkpt><trkpt lat="45.20953895" lon="7.37414134">
        <ele>1124.9</ele>
        <time>2010-08-29T12:42:09Z</time>
      </trkpt><trkpt lat="45.21544258" lon="7.37728966">
        <ele>1113.8</ele>
        <time>2010-08-29T12:45:44Z</time>
      </trkpt><trkpt lat="45.21605622" lon="7.37653764">
        <ele>1106.6</ele>
        <time>2010-08-29T12:46:11Z</time>
      </trkpt><trkpt lat="45.21858856" lon="7.37980784">
        <ele>1081.1</ele>
        <time>2010-08-29T12:48:07Z</time>
      </trkpt><trkpt lat="45.21938048" lon="7.38405629">
        <ele>1048</ele>
        <time>2010-08-29T12:49:53Z</time>
      </trkpt><trkpt lat="45.22328083" lon="7.38720177">
        <ele>1021.1</ele>
        <time>2010-08-29T12:52:25Z</time>
      </trkpt><trkpt lat="45.22439529" lon="7.39081688">
        <ele>998.9</ele>
        <time>2010-08-29T12:54:00Z</time>
      </trkpt><trkpt lat="45.22517187" lon="7.38545431">
        <ele>942.2</ele>
        <time>2010-08-29T12:56:11Z</time>
      </trkpt><trkpt lat="45.22307396" lon="7.38355497">
        <ele>924.4</ele>
        <time>2010-08-29T12:57:35Z</time>
      </trkpt><trkpt lat="45.22402833" lon="7.38024973">
        <ele>901.9</ele>
        <time>2010-08-29T12:59:01Z</time>
      </trkpt><trkpt lat="45.22517221" lon="7.38116470">
        <ele>881.7</ele>
        <time>2010-08-29T12:59:46Z</time>
      </trkpt><trkpt lat="45.22403310" lon="7.37931540">
        <ele>866.8</ele>
        <time>2010-08-29T13:00:44Z</time>
      </trkpt><trkpt lat="45.22909544" lon="7.37381076">
        <ele>809.6</ele>
        <time>2010-08-29T13:04:21Z</time>
      </trkpt><trkpt lat="45.23010437" lon="7.37556383">
        <ele>791.3</ele>
        <time>2010-08-29T13:05:15Z</time>
      </trkpt><trkpt lat="45.23185434" lon="7.36719132">
        <ele>727.4</ele>
        <time>2010-08-29T13:08:44Z</time>
      </trkpt><trkpt lat="45.23474174" lon="7.36927866">
        <ele>745.2</ele>
        <time>2010-08-29T13:10:35Z</time>
      </trkpt><trkpt lat="45.23296109" lon="7.36888605">
        <ele>756.7</ele>
        <time>2010-08-29T13:11:36Z</time>
      </trkpt><trkpt lat="45.23363734" lon="7.37208249">
        <ele>772.1</ele>
        <time>2010-08-29T13:12:56Z</time>
      </trkpt><trkpt lat="45.23794556" lon="7.37170757">
        <ele>795.1</ele>
        <time>2010-08-29T13:15:22Z</time>
      </trkpt><trkpt lat="45.23819936" lon="7.37506259">
        <ele>791.8</ele>
        <time>2010-08-29T13:16:43Z</time>
      </trkpt><trkpt lat="45.24137007" lon="7.37950768">
        <ele>766.8</ele>
        <time>2010-08-29T13:19:15Z</time>
      </trkpt><trkpt lat="45.23789602" lon="7.38305315">
        <ele>749.5</ele>
        <time>2010-08-29T13:21:40Z</time>
      </trkpt><trkpt lat="45.23884393" lon="7.38811556">
        <ele>740.4</ele>
        <time>2010-08-29T13:23:45Z</time>
      </trkpt><trkpt lat="45.23749779" lon="7.38997291">
        <ele>741.8</ele>
        <time>2010-08-29T13:24:49Z</time>
      </trkpt><trkpt lat="45.23852315" lon="7.39110505">
        <ele>746.6</ele>
        <time>2010-08-29T13:25:33Z</time>
      </trkpt><trkpt lat="45.23628787" lon="7.39570135">
        <ele>752.9</ele>
        <time>2010-08-29T13:27:47Z</time>
      </trkpt><trkpt lat="45.23826600" lon="7.39869118">
        <ele>745.2</ele>
        <time>2010-08-29T13:29:25Z</time>
      </trkpt><trkpt lat="45.23670143" lon="7.40290635">
        <ele>736.5</ele>
        <time>2010-08-29T13:31:19Z</time>
      </trkpt><trkpt lat="45.23706001" lon="7.40695951">
        <ele>721.6</ele>
        <time>2010-08-29T13:32:57Z</time>
      </trkpt><trkpt lat="45.23922698" lon="7.41078015">
        <ele>694.2</ele>
        <time>2010-08-29T13:34:55Z</time>
      </trkpt><trkpt lat="45.23654150" lon="7.41603074">
        <ele>668.7</ele>
        <time>2010-08-29T13:37:30Z</time>
      </trkpt><trkpt lat="45.23784698" lon="7.42286023">
        <ele>646.6</ele>
        <time>2010-08-29T13:40:19Z</time>
      </trkpt><trkpt lat="45.23569460" lon="7.43452733">
        <ele>614.9</ele>
        <time>2010-08-29T13:45:08Z</time>
      </trkpt><trkpt lat="45.23976510" lon="7.43744927">
        <ele>607.7</ele>
        <time>2010-08-29T13:47:43Z</time>
      </trkpt><trkpt lat="45.24606075" lon="7.43206339">
        <ele>592.3</ele>
        <time>2010-08-29T13:51:53Z</time>
      </trkpt><trkpt lat="45.25208130" lon="7.43607044">
        <ele>590.9</ele>
        <time>2010-08-29T13:55:39Z</time>
      </trkpt><trkpt lat="45.25667324" lon="7.43639994">
        <ele>604.3</ele>
        <time>2010-08-29T13:58:15Z</time>
      </trkpt><trkpt lat="45.25955201" lon="7.43941784">
        <ele>607.7</ele>
        <time>2010-08-29T14:00:17Z</time>
      </trkpt><trkpt lat="45.26764557" lon="7.44184063">
        <ele>601.9</ele>
        <time>2010-08-29T14:04:58Z</time>
      </trkpt><trkpt lat="45.26777205" lon="7.44969539">
        <ele>570.2</ele>
        <time>2010-08-29T14:08:06Z</time>
      </trkpt><trkpt lat="45.26159384" lon="7.45757472">
        <ele>537.5</ele>
        <time>2010-08-29T14:12:48Z</time>
      </trkpt><trkpt lat="45.26100878" lon="7.45550397">
        <ele>527.4</ele>
        <time>2010-08-29T14:13:42Z</time>
      </trkpt><trkpt lat="45.26054375" lon="7.46586677">
        <ele>502.9</ele>
        <time>2010-08-29T14:17:50Z</time>
      </trkpt><trkpt lat="45.27030456" lon="7.47790192">
        <ele>494.7</ele>
        <time>2010-08-29T14:25:10Z</time>
      </trkpt><trkpt lat="45.27179713" lon="7.48486435">
        <ele>482.2</ele>
        <time>2010-08-29T14:28:04Z</time>
      </trkpt><trkpt lat="45.27385899" lon="7.48162516">
        <ele>487</ele>
        <time>2010-08-29T14:29:48Z</time>
      </trkpt><trkpt lat="45.27946850" lon="7.48083115">
        <ele>514</ele>
        <time>2010-08-29T14:33:00Z</time>
      </trkpt><trkpt lat="45.27656232" lon="7.48511380">
        <ele>539.9</ele>
        <time>2010-08-29T14:35:22Z</time>
      </trkpt><trkpt lat="45.28069745" lon="7.48432313">
        <ele>551.5</ele>
        <time>2010-08-29T14:37:44Z</time>
      </trkpt><trkpt lat="45.28078010" lon="7.48710785">
        <ele>569.7</ele>
        <time>2010-08-29T14:38:51Z</time>
      </trkpt><trkpt lat="45.28834820" lon="7.47825623">
        <ele>618.7</ele>
        <time>2010-08-29T14:44:24Z</time>
      </trkpt><trkpt lat="45.28943785" lon="7.47963153">
        <ele>628.8</ele>
        <time>2010-08-29T14:45:13Z</time>
      </trkpt><trkpt lat="45.29099638" lon="7.47909224">
        <ele>645.2</ele>
        <time>2010-08-29T14:46:08Z</time>
      </trkpt><trkpt lat="45.29110275" lon="7.48149457">
        <ele>656.7</ele>
        <time>2010-08-29T14:47:06Z</time>
      </trkpt><trkpt lat="45.29468199" lon="7.48365451">
        <ele>676.4</ele>
        <time>2010-08-29T14:49:18Z</time>
      </trkpt><trkpt lat="45.29616357" lon="7.48069670">
        <ele>694.2</ele>
        <time>2010-08-29T14:50:45Z</time>
      </trkpt><trkpt lat="45.29736042" lon="7.48263359">
        <ele>717.3</ele>
        <time>2010-08-29T14:51:46Z</time>
      </trkpt><trkpt lat="45.30216736" lon="7.47982163">
        <ele>742.8</ele>
        <time>2010-08-29T14:54:43Z</time>
      </trkpt><trkpt lat="45.30169487" lon="7.48100281">
        <ele>752.9</ele>
        <time>2010-08-29T14:55:15Z</time>
      </trkpt><trkpt lat="45.30338073" lon="7.48060752">
        <ele>774.5</ele>
        <time>2010-08-29T14:56:13Z</time>
      </trkpt><trkpt lat="45.30098241" lon="7.49489087">
        <ele>798</ele>
        <time>2010-08-29T15:02:05Z</time>
      </trkpt><trkpt lat="45.30140578" lon="7.50142523">
        <ele>792.3</ele>
        <time>2010-08-29T15:04:42Z</time>
      </trkpt><trkpt lat="45.30989313" lon="7.51784488">
        <ele>758.1</ele>
        <time>2010-08-29T15:12:49Z</time>
      </trkpt><trkpt lat="45.31581629" lon="7.52265500">
        <ele>700</ele>
        <time>2010-08-29T15:16:41Z</time>
      </trkpt><trkpt lat="45.31015758" lon="7.54298824">
        <ele>582.7</ele>
        <time>2010-08-29T15:25:23Z</time>
      </trkpt><trkpt lat="45.31024165" lon="7.54658558">
        <ele>556.3</ele>
        <time>2010-08-29T15:26:49Z</time>
      </trkpt><trkpt lat="45.31134840" lon="7.54519670">
        <ele>543.3</ele>
        <time>2010-08-29T15:27:40Z</time>
      </trkpt><trkpt lat="45.31169415" lon="7.54962444">
        <ele>510.1</ele>
        <time>2010-08-29T15:29:26Z</time>
      </trkpt><trkpt lat="45.31304741" lon="7.55035652">
        <ele>502.9</ele>
        <time>2010-08-29T15:30:15Z</time>
      </trkpt><trkpt lat="45.30969146" lon="7.56131024">
        <ele>471.7</ele>
        <time>2010-08-29T15:35:01Z</time>
      </trkpt><trkpt lat="45.31122460" lon="7.57188468">
        <ele>453.4</ele>
        <time>2010-08-29T15:39:19Z</time>
      </trkpt><trkpt lat="45.31101245" lon="7.57318832">
        <ele>451</ele>
        <time>2010-08-29T15:39:51Z</time>
      </trkpt><trkpt lat="45.30825799" lon="7.57366140">
        <ele>435.1</ele>
        <time>2010-08-29T15:41:25Z</time>
      </trkpt><trkpt lat="45.31017518" lon="7.58923656">
        <ele>408.7</ele>
        <time>2010-08-29T15:47:43Z</time>
      </trkpt><trkpt lat="45.31454358" lon="7.60060511">
        <ele>375.1</ele>
        <time>2010-08-29T15:52:53Z</time>
      </trkpt><trkpt lat="45.31361604" lon="7.60847647">
        <ele>366.4</ele>
        <time>2010-08-29T15:56:04Z</time>
      </trkpt><trkpt lat="45.32084987" lon="7.62073324">
        <ele>351</ele>
        <time>2010-08-29T16:02:26Z</time>
      </trkpt><trkpt lat="45.32259465" lon="7.62197971">
        <ele>350.5</ele>
        <time>2010-08-29T16:03:33Z</time>
      </trkpt><trkpt lat="45.32685257" lon="7.62122752">
        <ele>390.9</ele>
        <time>2010-08-29T16:05:59Z</time>
      </trkpt><trkpt lat="45.32695240" lon="7.62008440">
        <ele>402</ele>
        <time>2010-08-29T16:06:26Z</time>
      </trkpt><trkpt lat="45.32791338" lon="7.62340573">
        <ele>414.5</ele>
        <time>2010-08-29T16:07:52Z</time>
      </trkpt><trkpt lat="45.33055561" lon="7.62147387">
        <ele>392.4</ele>
        <time>2010-08-29T16:09:33Z</time>
      </trkpt><trkpt lat="45.33358097" lon="7.62391090">
        <ele>387.1</ele>
        <time>2010-08-29T16:11:31Z</time>
      </trkpt><trkpt lat="45.33230584" lon="7.63444956">
        <ele>364.5</ele>
        <time>2010-08-29T16:15:47Z</time>
      </trkpt><trkpt lat="45.32904025" lon="7.63951030">
        <ele>351.5</ele>
        <time>2010-08-29T16:18:31Z</time>
      </trkpt><trkpt lat="45.32871176" lon="7.64484295">
        <ele>342.8</ele>
        <time>2010-08-29T16:20:39Z</time>
      </trkpt><trkpt lat="45.32383919" lon="7.65845776">
        <ele>327</ele>
        <time>2010-08-29T16:26:44Z</time>
      </trkpt><trkpt lat="45.33092483" lon="7.66048157">
        <ele>335.6</ele>
        <time>2010-08-29T16:30:50Z</time>
      </trkpt><trkpt lat="45.33456065" lon="7.65458473">
        <ele>340.4</ele>
        <time>2010-08-29T16:33:57Z</time>
      </trkpt><trkpt lat="45.36926777" lon="7.66010480">
        <ele>388</ele>
        <time>2010-08-29T16:53:44Z</time>
      </trkpt><trkpt lat="45.37078732" lon="7.65705940">
        <ele>394.8</ele>
        <time>2010-08-29T16:55:14Z</time>
      </trkpt><trkpt lat="45.37339367" lon="7.65679043">
        <ele>398.1</ele>
        <time>2010-08-29T16:56:42Z</time>
      </trkpt><trkpt lat="45.38449936" lon="7.66041870">
        <ele>399.6</ele>
        <time>2010-08-29T17:03:10Z</time>
      </trkpt><trkpt lat="45.39180737" lon="7.65076610">
        <ele>416.4</ele>
        <time>2010-08-29T17:08:49Z</time>
      </trkpt><trkpt lat="45.39636612" lon="7.65558243">
        <ele>395.2</ele>
        <time>2010-08-29T17:12:02Z</time>
      </trkpt><trkpt lat="45.39560329" lon="7.65980817">
        <ele>391.4</ele>
        <time>2010-08-29T17:13:46Z</time>
      </trkpt><trkpt lat="45.39207953" lon="7.66405268">
        <ele>389</ele>
        <time>2010-08-29T17:16:23Z</time>
      </trkpt><trkpt lat="45.38354382" lon="7.68382601">
        <ele>369.3</ele>
        <time>2010-08-29T17:25:37Z</time>
      </trkpt><trkpt lat="45.38416936" lon="7.69568766">
        <ele>367.4</ele>
        <time>2010-08-29T17:30:21Z</time>
      </trkpt><trkpt lat="45.38120192" lon="7.70523305">
        <ele>360.2</ele>
        <time>2010-08-29T17:34:30Z</time>
      </trkpt><trkpt lat="45.38169251" lon="7.70748686">
        <ele>358.7</ele>
        <time>2010-08-29T17:35:26Z</time>
      </trkpt><trkpt lat="45.38615370" lon="7.70467800">
        <ele>362.1</ele>
        <time>2010-08-29T17:38:12Z</time>
      </trkpt><trkpt lat="45.38899307" lon="7.70838901">
        <ele>364</ele>
        <time>2010-08-29T17:40:23Z</time>
      </trkpt><trkpt lat="45.38644488" lon="7.70478680">
        <ele>361.6</ele>
        <time>2010-08-29T17:42:25Z</time>
      </trkpt><trkpt lat="45.38620030" lon="7.70871523">
        <ele>360.2</ele>
        <time>2010-08-29T17:44:00Z</time>
      </trkpt><trkpt lat="45.38297654" lon="7.70673752">
        <ele>356.8</ele>
        <time>2010-08-29T17:45:59Z</time>
      </trkpt><trkpt lat="45.38205453" lon="7.70824115">
        <ele>355.8</ele>
        <time>2010-08-29T17:46:47Z</time>
      </trkpt><trkpt lat="45.38353444" lon="7.70965576">
        <ele>355.8</ele>
        <time>2010-08-29T17:47:47Z</time>
      </trkpt><trkpt lat="45.38469022" lon="7.70816789">
        <ele>358.7</ele>
        <time>2010-08-29T17:48:40Z</time>
      </trkpt><trkpt lat="45.38150467" lon="7.70709350">
        <ele>357.3</ele>
        <time>2010-08-29T17:50:31Z</time>
      </trkpt><trkpt lat="45.38206014" lon="7.70924882">
        <ele>356.8</ele>
        <time>2010-08-29T17:51:26Z</time>
      </trkpt><trkpt lat="45.38027287" lon="7.70975182">
        <ele>355.3</ele>
        <time>2010-08-29T17:52:28Z</time>
      </trkpt><trkpt lat="45.38027287" lon="7.71243579">
        <ele>353.4</ele>
        <time>2010-08-29T17:53:32Z</time>
      </trkpt><trkpt lat="45.38260497" lon="7.71310844">
        <ele>352.9</ele>
        <time>2010-08-29T17:54:53Z</time>
      </trkpt><trkpt lat="45.38289071" lon="7.71688197">
        <ele>350.1</ele>
        <time>2010-08-29T17:56:24Z</time>
      </trkpt><trkpt lat="45.38555238" lon="7.71712680">
        <ele>352.9</ele>
        <time>2010-08-29T17:57:54Z</time>
      </trkpt><trkpt lat="45.38603023" lon="7.72112967">
        <ele>349.6</ele>
        <time>2010-08-29T17:59:31Z</time>
      </trkpt><trkpt lat="45.39181374" lon="7.73071529">
        <ele>357.3</ele>
        <time>2010-08-29T18:04:33Z</time>
      </trkpt><trkpt lat="45.40325504" lon="7.74126140">
        <ele>385.1</ele>
        <time>2010-08-29T18:12:16Z</time>
      </trkpt><trkpt lat="45.40752411" lon="7.75342941">
        <ele>402.4</ele>
        <time>2010-08-29T18:17:41Z</time>
      </trkpt><trkpt lat="45.41300621" lon="7.75270321">
        <ele>377.9</ele>
        <time>2010-08-29T18:20:48Z</time>
      </trkpt><trkpt lat="45.41523924" lon="7.75505391">
        <ele>365.4</ele>
        <time>2010-08-29T18:22:23Z</time>
      </trkpt><trkpt lat="45.41575858" lon="7.75895342">
        <ele>358.2</ele>
        <time>2010-08-29T18:23:57Z</time>
      </trkpt><trkpt lat="45.42269829" lon="7.77141899">
        <ele>366.4</ele>
        <time>2010-08-29T18:30:17Z</time>
      </trkpt><trkpt lat="45.42424417" lon="7.77262481">
        <ele>378.4</ele>
        <time>2010-08-29T18:31:17Z</time>
      </trkpt><trkpt lat="45.42438984" lon="7.76896477">
        <ele>404.4</ele>
        <time>2010-08-29T18:32:44Z</time>
      </trkpt><trkpt lat="45.42185784" lon="7.76347160">
        <ele>435.1</ele>
        <time>2010-08-29T18:35:21Z</time>
      </trkpt><trkpt lat="45.42242697" lon="7.75608824">
        <ele>460.1</ele>
        <time>2010-08-29T18:38:18Z</time>
      </trkpt><trkpt lat="45.43126451" lon="7.76418490">
        <ele>450.5</ele>
        <time>2010-08-29T18:44:16Z</time>
      </trkpt><trkpt lat="45.43776770" lon="7.76750984">
        <ele>473.1</ele>
        <time>2010-08-29T18:48:10Z</time>
      </trkpt><trkpt lat="45.44123822" lon="7.76605256">
        <ele>474.1</ele>
        <time>2010-08-29T18:50:13Z</time>
      </trkpt><trkpt lat="45.44344275" lon="7.76813747">
        <ele>490.9</ele>
        <time>2010-08-29T18:51:43Z</time>
      </trkpt><trkpt lat="45.44716800" lon="7.76546482">
        <ele>515.9</ele>
        <time>2010-08-29T18:54:05Z</time>
      </trkpt><trkpt lat="45.44801273" lon="7.76318276">
        <ele>527.9</ele>
        <time>2010-08-29T18:55:07Z</time>
      </trkpt><trkpt lat="45.45094556" lon="7.76817729">
        <ele>551.9</ele>
        <time>2010-08-29T18:57:42Z</time>
      </trkpt><trkpt lat="45.45515520" lon="7.76641214">
        <ele>566.8</ele>
        <time>2010-08-29T19:00:11Z</time>
      </trkpt><trkpt lat="45.45982618" lon="7.76791158">
        <ele>586.1</ele>
        <time>2010-08-29T19:02:54Z</time>
      </trkpt><trkpt lat="45.46116829" lon="7.77128220">
        <ele>602.4</ele>
        <time>2010-08-29T19:04:26Z</time>
      </trkpt><trkpt lat="45.45980389" lon="7.78320093">
        <ele>605.8</ele>
        <time>2010-08-29T19:09:14Z</time>
      </trkpt><trkpt lat="45.46133995" lon="7.79881541">
        <ele>582.7</ele>
        <time>2010-08-29T19:15:30Z</time>
      </trkpt><trkpt lat="45.45992425" lon="7.80321272">
        <ele>559.6</ele>
        <time>2010-08-29T19:17:26Z</time>
      </trkpt><trkpt lat="45.46341565" lon="7.80456866">
        <ele>536.6</ele>
        <time>2010-08-29T19:19:29Z</time>
      </trkpt><trkpt lat="45.46426247" lon="7.80131439">
        <ele>518.3</ele>
        <time>2010-08-29T19:20:51Z</time>
      </trkpt><trkpt lat="45.46610188" lon="7.80021829">
        <ele>505.8</ele>
        <time>2010-08-29T19:21:59Z</time>
      </trkpt><trkpt lat="45.47791006" lon="7.80458928">
        <ele>423.1</ele>
        <time>2010-08-29T19:28:54Z</time>
      </trkpt><trkpt lat="45.47110797" lon="7.80702121">
        <ele>367.4</ele>
        <time>2010-08-29T19:32:52Z</time>
      </trkpt><trkpt lat="45.47375313" lon="7.80725582">
        <ele>351.5</ele>
        <time>2010-08-29T19:34:22Z</time>
      </trkpt><trkpt lat="45.47561090" lon="7.81026115">
        <ele>337.1</ele>
        <time>2010-08-29T19:35:58Z</time>
      </trkpt><trkpt lat="45.47412873" lon="7.80985060">
        <ele>323.6</ele>
        <time>2010-08-29T19:36:49Z</time>
      </trkpt><trkpt lat="45.47580243" lon="7.81432629">
        <ele>300.1</ele>
        <time>2010-08-29T19:38:50Z</time>
      </trkpt><trkpt lat="45.47929307" lon="7.81643241">
        <ele>292.4</ele>
        <time>2010-08-29T19:40:59Z</time>
      </trkpt><trkpt lat="45.48117967" lon="7.82118294">
        <ele>274.1</ele>
        <time>2010-08-29T19:43:09Z</time>
      </trkpt><trkpt lat="45.47993881" lon="7.83075574">
        <ele>263.5</ele>
        <time>2010-08-29T19:47:01Z</time>
      </trkpt><trkpt lat="45.48845223" lon="7.82853973">
        <ele>265</ele>
        <time>2010-08-29T19:51:55Z</time>
      </trkpt><trkpt lat="45.49425175" lon="7.83015928">
        <ele>270.7</ele>
        <time>2010-08-29T19:55:16Z</time>
      </trkpt><trkpt lat="45.49775564" lon="7.82852456">
        <ele>276.5</ele>
        <time>2010-08-29T19:57:22Z</time>
      </trkpt><trkpt lat="45.50537110" lon="7.82818794">
        <ele>267.9</ele>
        <time>2010-08-29T20:01:41Z</time>
      </trkpt><trkpt lat="45.51061515" lon="7.83290327">
        <ele>267.9</ele>
        <time>2010-08-29T20:05:11Z</time>
      </trkpt><trkpt lat="45.51736996" lon="7.83297418">
        <ele>269.8</ele>
        <time>2010-08-29T20:09:01Z</time>
      </trkpt><trkpt lat="45.52016180" lon="7.83529672">
        <ele>278</ele>
        <time>2010-08-29T20:10:51Z</time>
      </trkpt><trkpt lat="45.52298600" lon="7.83527878">
        <ele>270.3</ele>
        <time>2010-08-29T20:12:27Z</time>
      </trkpt><trkpt lat="45.53545417" lon="7.83124390">
        <ele>280.4</ele>
        <time>2010-08-29T20:19:41Z</time>
      </trkpt><trkpt lat="45.54730190" lon="7.82421140">
        <ele>284.2</ele>
        <time>2010-08-29T20:26:58Z</time>
      </trkpt><trkpt lat="45.54881643" lon="7.82903954">
        <ele>295.7</ele>
        <time>2010-08-29T20:29:04Z</time>
      </trkpt><trkpt lat="45.54687024" lon="7.83303738">
        <ele>296.7</ele>
        <time>2010-08-29T20:31:00Z</time>
      </trkpt><trkpt lat="45.55037060" lon="7.83146166">
        <ele>324.6</ele>
        <time>2010-08-29T20:33:04Z</time>
      </trkpt><trkpt lat="45.55026256" lon="7.83485080">
        <ele>356.3</ele>
        <time>2010-08-29T20:34:25Z</time>
      </trkpt><trkpt lat="45.55138297" lon="7.83575261">
        <ele>374.6</ele>
        <time>2010-08-29T20:35:09Z</time>
      </trkpt><trkpt lat="45.55423525" lon="7.83352780">
        <ele>396.2</ele>
        <time>2010-08-29T20:36:59Z</time>
      </trkpt><trkpt lat="45.55289573" lon="7.83956713">
        <ele>461.1</ele>
        <time>2010-08-29T20:39:30Z</time>
      </trkpt><trkpt lat="45.54927945" lon="7.84368591">
        <ele>514.9</ele>
        <time>2010-08-29T20:42:07Z</time>
      </trkpt><trkpt lat="45.54918020" lon="7.84468663">
        <ele>516.8</ele>
        <time>2010-08-29T20:42:31Z</time>
      </trkpt><trkpt lat="45.55083261" lon="7.84332960">
        <ele>532.2</ele>
        <time>2010-08-29T20:43:36Z</time>
      </trkpt><trkpt lat="45.55009936" lon="7.84646049">
        <ele>555.8</ele>
        <time>2010-08-29T20:44:55Z</time>
      </trkpt><trkpt lat="45.54519897" lon="7.85023604">
        <ele>586.1</ele>
        <time>2010-08-29T20:48:04Z</time>
      </trkpt><trkpt lat="45.54297315" lon="7.84842119">
        <ele>607.7</ele>
        <time>2010-08-29T20:49:31Z</time>
      </trkpt><trkpt lat="45.53934245" lon="7.85388426">
        <ele>599.5</ele>
        <time>2010-08-29T20:52:31Z</time>
      </trkpt><trkpt lat="45.53855773" lon="7.85866798">
        <ele>589.4</ele>
        <time>2010-08-29T20:54:28Z</time>
      </trkpt><trkpt lat="45.53506080" lon="7.86313662">
        <ele>607.7</ele>
        <time>2010-08-29T20:57:07Z</time>
      </trkpt><trkpt lat="45.53070372" lon="7.86364113">
        <ele>611.1</ele>
        <time>2010-08-29T20:59:36Z</time>
      </trkpt><trkpt lat="45.52461209" lon="7.86670178">
        <ele>663.4</ele>
        <time>2010-08-29T21:03:15Z</time>
      </trkpt><trkpt lat="45.52825679" lon="7.86637397">
        <ele>694.7</ele>
        <time>2010-08-29T21:05:19Z</time>
      </trkpt><trkpt lat="45.52957644" lon="7.86829510">
        <ele>705.7</ele>
        <time>2010-08-29T21:06:23Z</time>
      </trkpt><trkpt lat="45.52788673" lon="7.86708039">
        <ele>723</ele>
        <time>2010-08-29T21:07:28Z</time>
      </trkpt><trkpt lat="45.52568607" lon="7.87093104">
        <ele>754.3</ele>
        <time>2010-08-29T21:09:26Z</time>
      </trkpt><trkpt lat="45.52700236" lon="7.87234859">
        <ele>766.3</ele>
        <time>2010-08-29T21:10:22Z</time>
      </trkpt><trkpt lat="45.52748625" lon="7.87054539">
        <ele>777.4</ele>
        <time>2010-08-29T21:11:08Z</time>
      </trkpt><trkpt lat="45.52823232" lon="7.87141861">
        <ele>785.5</ele>
        <time>2010-08-29T21:11:41Z</time>
      </trkpt><trkpt lat="45.52688602" lon="7.87468655">
        <ele>806.2</ele>
        <time>2010-08-29T21:13:11Z</time>
      </trkpt><trkpt lat="45.52757468" lon="7.87630887">
        <ele>805.7</ele>
        <time>2010-08-29T21:13:56Z</time>
      </trkpt><trkpt lat="45.52929297" lon="7.87471572">
        <ele>847.1</ele>
        <time>2010-08-29T21:15:06Z</time>
      </trkpt><trkpt lat="45.53024875" lon="7.87691681">
        <ele>854.7</ele>
        <time>2010-08-29T21:16:08Z</time>
      </trkpt><trkpt lat="45.52936078" lon="7.87907523">
        <ele>870.6</ele>
        <time>2010-08-29T21:17:07Z</time>
      </trkpt><trkpt lat="45.53117764" lon="7.87901404">
        <ele>892.7</ele>
        <time>2010-08-29T21:18:09Z</time>
      </trkpt><trkpt lat="45.53195221" lon="7.88099511">
        <ele>905.7</ele>
        <time>2010-08-29T21:19:03Z</time>
      </trkpt><trkpt lat="45.53361468" lon="7.87993111">
        <ele>926.8</ele>
        <time>2010-08-29T21:20:05Z</time>
      </trkpt><trkpt lat="45.53636402" lon="7.88103350">
        <ele>950.9</ele>
        <time>2010-08-29T21:21:42Z</time>
      </trkpt><trkpt lat="45.54068598" lon="7.88579400">
        <ele>1015.8</ele>
        <time>2010-08-29T21:24:48Z</time>
      </trkpt><trkpt lat="45.54084382" lon="7.88425097">
        <ele>1040.8</ele>
        <time>2010-08-29T21:25:25Z</time>
      </trkpt><trkpt lat="45.54199616" lon="7.88452766">
        <ele>1070.6</ele>
        <time>2010-08-29T21:26:05Z</time>
      </trkpt><trkpt lat="45.54472447" lon="7.88764095">
        <ele>1116.7</ele>
        <time>2010-08-29T21:28:03Z</time>
      </trkpt><trkpt lat="45.54458030" lon="7.88640437">
        <ele>1126.8</ele>
        <time>2010-08-29T21:28:33Z</time>
      </trkpt><trkpt lat="45.54788956" lon="7.88642977">
        <ele>1196</ele>
        <time>2010-08-29T21:30:26Z</time>
      </trkpt><trkpt lat="45.54822073" lon="7.88410320">
        <ele>1236.4</ele>
        <time>2010-08-29T21:31:22Z</time>
      </trkpt><trkpt lat="45.54828644" lon="7.88644468">
        <ele>1201.3</ele>
        <time>2010-08-29T21:32:18Z</time>
      </trkpt><trkpt lat="45.54416255" lon="7.88722688">
        <ele>1109</ele>
        <time>2010-08-29T21:34:39Z</time>
      </trkpt><trkpt lat="45.54082160" lon="7.88404386">
        <ele>1044.1</ele>
        <time>2010-08-29T21:36:56Z</time>
      </trkpt><trkpt lat="45.54085966" lon="7.88593305">
        <ele>1020.6</ele>
        <time>2010-08-29T21:37:41Z</time>
      </trkpt><trkpt lat="45.53659377" lon="7.88105764">
        <ele>952.8</ele>
        <time>2010-08-29T21:40:47Z</time>
      </trkpt><trkpt lat="45.53380796" lon="7.88001116">
        <ele>930.7</ele>
        <time>2010-08-29T21:42:25Z</time>
      </trkpt><trkpt lat="45.53207609" lon="7.88083308">
        <ele>910</ele>
        <time>2010-08-29T21:43:27Z</time>
      </trkpt><trkpt lat="45.53127830" lon="7.87923072">
        <ele>896.1</ele>
        <time>2010-08-29T21:44:14Z</time>
      </trkpt><trkpt lat="45.52957208" lon="7.87921429">
        <ele>875.4</ele>
        <time>2010-08-29T21:45:12Z</time>
      </trkpt><trkpt lat="45.53021908" lon="7.87706852">
        <ele>857.6</ele>
        <time>2010-08-29T21:46:07Z</time>
      </trkpt><trkpt lat="45.52824263" lon="7.87509601">
        <ele>839.4</ele>
        <time>2010-08-29T21:47:29Z</time>
      </trkpt><trkpt lat="45.52502331" lon="7.88526284">
        <ele>778.3</ele>
        <time>2010-08-29T21:51:55Z</time>
      </trkpt><trkpt lat="45.52000825" lon="7.88846280">
        <ele>731.7</ele>
        <time>2010-08-29T21:55:02Z</time>
      </trkpt><trkpt lat="45.51708439" lon="7.89827281">
        <ele>653.4</ele>
        <time>2010-08-29T21:59:16Z</time>
      </trkpt><trkpt lat="45.51355133" lon="7.90203285">
        <ele>622.6</ele>
        <time>2010-08-29T22:01:45Z</time>
      </trkpt><trkpt lat="45.52245551" lon="7.91609483">
        <ele>622.6</ele>
        <time>2010-08-29T22:09:17Z</time>
      </trkpt><trkpt lat="45.52075667" lon="7.92856517">
        <ele>588.5</ele>
        <time>2010-08-29T22:14:19Z</time>
      </trkpt><trkpt lat="45.52227974" lon="7.94570382">
        <ele>539.9</ele>
        <time>2010-08-29T22:21:11Z</time>
      </trkpt><trkpt lat="45.52111759" lon="7.95276616">
        <ele>521.7</ele>
        <time>2010-08-29T22:24:04Z</time>
      </trkpt><trkpt lat="45.51838601" lon="7.95849435">
        <ele>501.9</ele>
        <time>2010-08-29T22:26:49Z</time>
      </trkpt><trkpt lat="45.51769141" lon="7.97591153">
        <ele>450.5</ele>
        <time>2010-08-29T22:33:44Z</time>
      </trkpt><trkpt lat="45.51236387" lon="8.00202711">
        <ele>377.5</ele>
        <time>2010-08-29T22:44:32Z</time>
      </trkpt><trkpt lat="45.51558679" lon="8.00644789">
        <ele>355.3</ele>
        <time>2010-08-29T22:47:04Z</time>
      </trkpt><trkpt lat="45.51681608" lon="8.00569452">
        <ele>358.2</ele>
        <time>2010-08-29T22:47:50Z</time>
      </trkpt><trkpt lat="45.52282239" lon="8.00990936">
        <ele>353.4</ele>
        <time>2010-08-29T22:51:37Z</time>
      </trkpt><trkpt lat="45.53412547" lon="8.01114561">
        <ele>377</ele>
        <time>2010-08-29T22:58:03Z</time>
      </trkpt><trkpt lat="45.55026390" lon="8.01506482">
        <ele>408.7</ele>
        <time>2010-08-29T23:07:19Z</time>
      </trkpt><trkpt lat="45.55353511" lon="8.01760898">
        <ele>420.2</ele>
        <time>2010-08-29T23:09:26Z</time>
      </trkpt><trkpt lat="45.55684219" lon="8.03112958">
        <ele>423.6</ele>
        <time>2010-08-29T23:15:07Z</time>
      </trkpt><trkpt lat="45.55696113" lon="8.04383663">
        <ele>418.3</ele>
        <time>2010-08-29T23:20:09Z</time>
      </trkpt><trkpt lat="45.55794516" lon="8.04375172">
        <ele>418.8</ele>
        <time>2010-08-29T23:20:43Z</time>
      </trkpt><trkpt lat="45.55716548" lon="8.04847894">
        <ele>417.4</ele>
        <time>2010-08-29T23:22:38Z</time>
      </trkpt><trkpt lat="45.56058353" lon="8.05935689">
        <ele>420.7</ele>
        <time>2010-08-29T23:27:22Z</time>
      </trkpt><trkpt lat="45.55546898" lon="8.06270454">
        <ele>407.3</ele>
        <time>2010-08-29T23:30:33Z</time>
      </trkpt><trkpt lat="45.55446198" lon="8.06793829">
        <ele>401</ele>
        <time>2010-08-29T23:32:43Z</time>
      </trkpt><trkpt lat="45.55223465" lon="8.07001591">
        <ele>394.3</ele>
        <time>2010-08-29T23:34:13Z</time>
      </trkpt><trkpt lat="45.55441621" lon="8.06815605">
        <ele>399.1</ele>
        <time>2010-08-29T23:35:39Z</time>
      </trkpt><trkpt lat="45.55545330" lon="8.06314945">
        <ele>407.7</ele>
        <time>2010-08-29T23:37:44Z</time>
      </trkpt><trkpt lat="45.55790929" lon="8.06116185">
        <ele>411.6</ele>
        <time>2010-08-29T23:39:20Z</time>
      </trkpt><trkpt lat="45.55734359" lon="8.05976333">
        <ele>410.1</ele>
        <time>2010-08-29T23:39:58Z</time>
      </trkpt><trkpt lat="45.55729866" lon="8.06186199">
        <ele>411.6</ele>
        <time>2010-08-29T23:40:48Z</time>
      </trkpt><trkpt lat="45.54980826" lon="8.06709507">
        <ele>376.5</ele>
        <time>2010-08-29T23:45:31Z</time>
      </trkpt><trkpt lat="45.54957617" lon="8.06745406">
        <ele>379.4</ele>
        <time>2010-08-29T23:45:43Z</time>
      </trkpt><trkpt lat="45.54374446" lon="8.04732769">
        <ele>377.5</ele>
        <time>2010-08-29T23:54:22Z</time>
      </trkpt><trkpt lat="45.54543190" lon="8.05470041">
        <ele>379.4</ele>
        <time>2010-08-29T23:57:26Z</time>
      </trkpt><trkpt lat="45.55241964" lon="8.05276721">
        <ele>392.8</ele>
        <time>2010-08-30T00:01:28Z</time>
      </trkpt><trkpt lat="45.55613383" lon="8.06451839">
        <ele>399.1</ele>
        <time>2010-08-30T00:06:35Z</time>
      </trkpt><trkpt lat="45.55632377" lon="8.06246415">
        <ele>401.5</ele>
        <time>2010-08-30T00:07:25Z</time>
      </trkpt><trkpt lat="45.56236351" lon="8.05857939">
        <ele>418.3</ele>
        <time>2010-08-30T00:11:10Z</time>
      </trkpt><trkpt lat="45.56479460" lon="8.06152211">
        <ele>418.8</ele>
        <time>2010-08-30T00:12:58Z</time>
      </trkpt><trkpt lat="45.57118362" lon="8.06057596">
        <ele>398.6</ele>
        <time>2010-08-30T00:16:36Z</time>
      </trkpt><trkpt lat="45.57491382" lon="8.05359475">
        <ele>415.4</ele>
        <time>2010-08-30T00:20:05Z</time>
      </trkpt><trkpt lat="45.57676756" lon="8.05274022">
        <ele>422.6</ele>
        <time>2010-08-30T00:21:12Z</time>
      </trkpt><trkpt lat="45.57775403" lon="8.05292018">
        <ele>425.5</ele>
        <time>2010-08-30T00:21:45Z</time>
      </trkpt><trkpt lat="45.58016022" lon="8.05724482">
        <ele>443.8</ele>
        <time>2010-08-30T00:23:57Z</time>
      </trkpt><trkpt lat="45.58568867" lon="8.05951933">
        <ele>473.6</ele>
        <time>2010-08-30T00:27:12Z</time>
      </trkpt><trkpt lat="45.58930278" lon="8.05783331">
        <ele>482.7</ele>
        <time>2010-08-30T00:29:22Z</time>
      </trkpt><trkpt lat="45.59308486" lon="8.05812014">
        <ele>495.2</ele>
        <time>2010-08-30T00:31:30Z</time>
      </trkpt><trkpt lat="45.59570991" lon="8.05719528">
        <ele>507.2</ele>
        <time>2010-08-30T00:33:02Z</time>
      </trkpt><trkpt lat="45.59349541" lon="8.05816750">
        <ele>497.6</ele>
        <time>2010-08-30T00:34:21Z</time>
      </trkpt><trkpt lat="45.58980251" lon="8.05771488">
        <ele>482.7</ele>
        <time>2010-08-30T00:36:27Z</time>
      </trkpt><trkpt lat="45.58619092" lon="8.05959511">
        <ele>475</ele>
        <time>2010-08-30T00:38:38Z</time>
      </trkpt><trkpt lat="45.58282173" lon="8.05906286">
        <ele>464.5</ele>
        <time>2010-08-30T00:40:33Z</time>
      </trkpt><trkpt lat="45.58604993" lon="8.06115590">
        <ele>491.4</ele>
        <time>2010-08-30T00:42:34Z</time>
      </trkpt><trkpt lat="45.58464630" lon="8.06765263">
        <ele>506.8</ele>
        <time>2010-08-30T00:45:15Z</time>
      </trkpt><trkpt lat="45.58821565" lon="8.07380151">
        <ele>501</ele>
        <time>2010-08-30T00:48:25Z</time>
      </trkpt><trkpt lat="45.58807475" lon="8.07579054">
        <ele>497.6</ele>
        <time>2010-08-30T00:49:13Z</time>
      </trkpt><trkpt lat="45.59036368" lon="8.08054727">
        <ele>508.2</ele>
        <time>2010-08-30T00:51:30Z</time>
      </trkpt><trkpt lat="45.59309828" lon="8.08191813">
        <ele>525.5</ele>
        <time>2010-08-30T00:53:09Z</time>
      </trkpt><trkpt lat="45.59291840" lon="8.08000814">
        <ele>539</ele>
        <time>2010-08-30T00:53:55Z</time>
      </trkpt><trkpt lat="45.59486292" lon="8.07911396">
        <ele>552.4</ele>
        <time>2010-08-30T00:55:04Z</time>
      </trkpt><trkpt lat="45.59570253" lon="8.07989239">
        <ele>559.1</ele>
        <time>2010-08-30T00:55:38Z</time>
      </trkpt><trkpt lat="45.59686988" lon="8.08199616">
        <ele>569.7</ele>
        <time>2010-08-30T00:56:42Z</time>
      </trkpt><trkpt lat="45.59530858" lon="8.08643027">
        <ele>584.1</ele>
        <time>2010-08-30T00:58:40Z</time>
      </trkpt><trkpt lat="45.59738864" lon="8.08936453">
        <ele>602.4</ele>
        <time>2010-08-30T01:00:19Z</time>
      </trkpt><trkpt lat="45.59937146" lon="8.08867302">
        <ele>616.8</ele>
        <time>2010-08-30T01:01:29Z</time>
      </trkpt><trkpt lat="45.60179701" lon="8.09010088">
        <ele>636.1</ele>
        <time>2010-08-30T01:02:58Z</time>
      </trkpt><trkpt lat="45.60451510" lon="8.08939462">
        <ele>651.9</ele>
        <time>2010-08-30T01:04:32Z</time>
      </trkpt><trkpt lat="45.60717535" lon="8.09017606">
        <ele>663.4</ele>
        <time>2010-08-30T01:06:04Z</time>
      </trkpt><trkpt lat="45.60779586" lon="8.09099514">
        <ele>668.3</ele>
        <time>2010-08-30T01:06:33Z</time>
      </trkpt><trkpt lat="45.60687687" lon="8.09316270">
        <ele>677.9</ele>
        <time>2010-08-30T01:07:33Z</time>
      </trkpt><trkpt lat="45.60844303" lon="8.09462065">
        <ele>688</ele>
        <time>2010-08-30T01:08:37Z</time>
      </trkpt><trkpt lat="45.60962890" lon="8.10078244">
        <ele>709.1</ele>
        <time>2010-08-30T01:11:09Z</time>
      </trkpt><trkpt lat="45.61204490" lon="8.10245521">
        <ele>697.6</ele>
        <time>2010-08-30T01:12:40Z</time>
      </trkpt><trkpt lat="45.61850332" lon="8.11367498">
        <ele>685.6</ele>
        <time>2010-08-30T01:18:25Z</time>
      </trkpt><trkpt lat="45.62132836" lon="8.11344624">
        <ele>681.2</ele>
        <time>2010-08-30T01:20:02Z</time>
      </trkpt><trkpt lat="45.62403202" lon="8.11164379">
        <ele>660.6</ele>
        <time>2010-08-30T01:21:43Z</time>
      </trkpt><trkpt lat="45.62594595" lon="8.10625674">
        <ele>622.6</ele>
        <time>2010-08-30T01:24:07Z</time>
      </trkpt><trkpt lat="45.62351746" lon="8.10401584">
        <ele>605.8</ele>
        <time>2010-08-30T01:25:45Z</time>
      </trkpt><trkpt lat="45.62321077" lon="8.10321026">
        <ele>599.5</ele>
        <time>2010-08-30T01:26:07Z</time>
      </trkpt><trkpt lat="45.62428767" lon="8.10363907">
        <ele>594.7</ele>
        <time>2010-08-30T01:26:45Z</time>
      </trkpt><trkpt lat="45.62674122" lon="8.10586682">
        <ele>574.5</ele>
        <time>2010-08-30T01:28:24Z</time>
      </trkpt><trkpt lat="45.62638524" lon="8.11108581">
        <ele>563</ele>
        <time>2010-08-30T01:30:28Z</time>
      </trkpt><trkpt lat="45.62767103" lon="8.11751439">
        <ele>541.4</ele>
        <time>2010-08-30T01:33:07Z</time>
      </trkpt><trkpt lat="45.62876411" lon="8.11728867">
        <ele>537.5</ele>
        <time>2010-08-30T01:33:45Z</time>
      </trkpt><trkpt lat="45.63092698" lon="8.11930468">
        <ele>524.5</ele>
        <time>2010-08-30T01:35:13Z</time>
      </trkpt><trkpt lat="45.63304425" lon="8.12370300">
        <ele>511.1</ele>
        <time>2010-08-30T01:37:19Z</time>
      </trkpt><trkpt lat="45.63659792" lon="8.12527461">
        <ele>499.1</ele>
        <time>2010-08-30T01:39:26Z</time>
      </trkpt><trkpt lat="45.63761901" lon="8.12795162">
        <ele>507.7</ele>
        <time>2010-08-30T01:40:38Z</time>
      </trkpt><trkpt lat="45.63937786" lon="8.12768684">
        <ele>516.8</ele>
        <time>2010-08-30T01:41:39Z</time>
      </trkpt><trkpt lat="45.64200844" lon="8.12379906">
        <ele>534.2</ele>
        <time>2010-08-30T01:43:47Z</time>
      </trkpt><trkpt lat="45.64267656" lon="8.12408254">
        <ele>538.5</ele>
        <time>2010-08-30T01:44:11Z</time>
      </trkpt><trkpt lat="45.64014221" lon="8.12980838">
        <ele>561.1</ele>
        <time>2010-08-30T01:46:52Z</time>
      </trkpt><trkpt lat="45.64518569" lon="8.12878847">
        <ele>593.8</ele>
        <time>2010-08-30T01:49:45Z</time>
      </trkpt><trkpt lat="45.64403653" lon="8.13218784">
        <ele>605.8</ele>
        <time>2010-08-30T01:51:15Z</time>
      </trkpt><trkpt lat="45.64802170" lon="8.13340187">
        <ele>623.6</ele>
        <time>2010-08-30T01:53:33Z</time>
      </trkpt><trkpt lat="45.64623292" lon="8.13582349">
        <ele>630.8</ele>
        <time>2010-08-30T01:54:57Z</time>
      </trkpt><trkpt lat="45.64655277" lon="8.13703777">
        <ele>631.2</ele>
        <time>2010-08-30T01:55:28Z</time>
      </trkpt><trkpt lat="45.64868094" lon="8.13886075">
        <ele>638</ele>
        <time>2010-08-30T01:56:52Z</time>
      </trkpt><trkpt lat="45.64843770" lon="8.14134817">
        <ele>638</ele>
        <time>2010-08-30T01:57:52Z</time>
      </trkpt><trkpt lat="45.65086551" lon="8.14192996">
        <ele>628.8</ele>
        <time>2010-08-30T01:59:16Z</time>
      </trkpt><trkpt lat="45.65140631" lon="8.14309990">
        <ele>628.8</ele>
        <time>2010-08-30T01:59:49Z</time>
      </trkpt><trkpt lat="45.65117808" lon="8.14428845">
        <ele>626.9</ele>
        <time>2010-08-30T02:00:18Z</time>
      </trkpt><trkpt lat="45.64922886" lon="8.14442558">
        <ele>625</ele>
        <time>2010-08-30T02:01:24Z</time>
      </trkpt><trkpt lat="45.64867733" lon="8.14540342">
        <ele>624</ele>
        <time>2010-08-30T02:01:54Z</time>
      </trkpt><trkpt lat="45.65144462" lon="8.14918860">
        <ele>614.9</ele>
        <time>2010-08-30T02:04:05Z</time>
      </trkpt><trkpt lat="45.64991811" lon="8.14988773">
        <ele>614.4</ele>
        <time>2010-08-30T02:04:59Z</time>
      </trkpt><trkpt lat="45.64906374" lon="8.15221765">
        <ele>614.4</ele>
        <time>2010-08-30T02:06:02Z</time>
      </trkpt><trkpt lat="45.64539984" lon="8.15167090">
        <ele>612.5</ele>
        <time>2010-08-30T02:08:07Z</time>
      </trkpt><trkpt lat="45.64197064" lon="8.15318585">
        <ele>597.6</ele>
        <time>2010-08-30T02:10:09Z</time>
      </trkpt><trkpt lat="45.64350872" lon="8.15360821">
        <ele>590.4</ele>
        <time>2010-08-30T02:11:02Z</time>
      </trkpt><trkpt lat="45.64204717" lon="8.15507219">
        <ele>584.1</ele>
        <time>2010-08-30T02:12:03Z</time>
      </trkpt><trkpt lat="45.64149857" lon="8.15760596">
        <ele>573.6</ele>
        <time>2010-08-30T02:13:06Z</time>
      </trkpt><trkpt lat="45.64359480" lon="8.15975650">
        <ele>561.1</ele>
        <time>2010-08-30T02:14:33Z</time>
      </trkpt><trkpt lat="45.64300639" lon="8.16735822">
        <ele>546.6</ele>
        <time>2010-08-30T02:17:35Z</time>
      </trkpt><trkpt lat="45.64430978" lon="8.17069589">
        <ele>534.2</ele>
        <time>2010-08-30T02:19:06Z</time>
      </trkpt><trkpt lat="45.64680792" lon="8.17252239">
        <ele>520.2</ele>
        <time>2010-08-30T02:20:41Z</time>
      </trkpt><trkpt lat="45.64876115" lon="8.17736688">
        <ele>514.4</ele>
        <time>2010-08-30T02:22:54Z</time>
      </trkpt><trkpt lat="45.65093316" lon="8.17952866">
        <ele>506.3</ele>
        <time>2010-08-30T02:24:24Z</time>
      </trkpt><trkpt lat="45.65497189" lon="8.18822438">
        <ele>496.7</ele>
        <time>2010-08-30T02:28:32Z</time>
      </trkpt><trkpt lat="45.65539845" lon="8.19221215">
        <ele>494.7</ele>
        <time>2010-08-30T02:30:08Z</time>
      </trkpt><trkpt lat="45.65458775" lon="8.19404125">
        <ele>493.8</ele>
        <time>2010-08-30T02:31:00Z</time>
      </trkpt><trkpt lat="45.65558972" lon="8.19653730">
        <ele>486.1</ele>
        <time>2010-08-30T02:32:08Z</time>
      </trkpt><trkpt lat="45.65927893" lon="8.20051669">
        <ele>474.5</ele>
        <time>2010-08-30T02:34:45Z</time>
      </trkpt><trkpt lat="45.66100552" lon="8.19925287">
        <ele>466.4</ele>
        <time>2010-08-30T02:35:51Z</time>
      </trkpt><trkpt lat="45.66279564" lon="8.19960089">
        <ele>462.5</ele>
        <time>2010-08-30T02:36:52Z</time>
      </trkpt><trkpt lat="45.66382704" lon="8.20163668">
        <ele>458.2</ele>
        <time>2010-08-30T02:37:52Z</time>
      </trkpt><trkpt lat="45.66256715" lon="8.20301391">
        <ele>451.5</ele>
        <time>2010-08-30T02:38:46Z</time>
      </trkpt><trkpt lat="45.66470110" lon="8.20577064">
        <ele>443.8</ele>
        <time>2010-08-30T02:40:24Z</time>
      </trkpt><trkpt lat="45.66667638" lon="8.21151836">
        <ele>437.5</ele>
        <time>2010-08-30T02:42:56Z</time>
      </trkpt><trkpt lat="45.67019645" lon="8.21268923">
        <ele>427</ele>
        <time>2010-08-30T02:44:59Z</time>
      </trkpt><trkpt lat="45.67234498" lon="8.21511746">
        <ele>424.1</ele>
        <time>2010-08-30T02:46:32Z</time>
      </trkpt><trkpt lat="45.67231179" lon="8.22056989">
        <ele>420.2</ele>
        <time>2010-08-30T02:48:41Z</time>
      </trkpt><trkpt lat="45.67428589" lon="8.22516653">
        <ele>414.5</ele>
        <time>2010-08-30T02:50:50Z</time>
      </trkpt><trkpt lat="45.67396109" lon="8.23051217">
        <ele>410.1</ele>
        <time>2010-08-30T02:52:57Z</time>
      </trkpt><trkpt lat="45.67625346" lon="8.23497495">
        <ele>402</ele>
        <time>2010-08-30T02:55:09Z</time>
      </trkpt><trkpt lat="45.67651531" lon="8.24048052">
        <ele>399.1</ele>
        <time>2010-08-30T02:57:20Z</time>
      </trkpt><trkpt lat="45.68729469" lon="8.25822551">
        <ele>379.4</ele>
        <time>2010-08-30T03:06:38Z</time>
      </trkpt><trkpt lat="45.68920543" lon="8.26582873">
        <ele>372.2</ele>
        <time>2010-08-30T03:09:50Z</time>
      </trkpt><trkpt lat="45.69441705" lon="8.26905937">
        <ele>364</ele>
        <time>2010-08-30T03:13:03Z</time>
      </trkpt><trkpt lat="45.69745473" lon="8.28684175">
        <ele>347.2</ele>
        <time>2010-08-30T03:20:18Z</time>
      </trkpt><trkpt lat="45.70115090" lon="8.28743711">
        <ele>348.1</ele>
        <time>2010-08-30T03:22:24Z</time>
      </trkpt><trkpt lat="45.70155348" lon="8.28877176">
        <ele>350.5</ele>
        <time>2010-08-30T03:22:59Z</time>
      </trkpt><trkpt lat="45.70428372" lon="8.28798294">
        <ele>352.9</ele>
        <time>2010-08-30T03:24:34Z</time>
      </trkpt><trkpt lat="45.70765651" lon="8.28288540">
        <ele>363.5</ele>
        <time>2010-08-30T03:27:20Z</time>
      </trkpt><trkpt lat="45.70806027" lon="8.27794075">
        <ele>368.8</ele>
        <time>2010-08-30T03:29:18Z</time>
      </trkpt><trkpt lat="45.71208970" lon="8.26639216">
        <ele>366.9</ele>
        <time>2010-08-30T03:34:25Z</time>
      </trkpt><trkpt lat="45.71649900" lon="8.26365857">
        <ele>377.9</ele>
        <time>2010-08-30T03:37:08Z</time>
      </trkpt><trkpt lat="45.72459726" lon="8.26160903">
        <ele>367.8</ele>
        <time>2010-08-30T03:41:48Z</time>
      </trkpt><trkpt lat="45.72578431" lon="8.26206207">
        <ele>367.8</ele>
        <time>2010-08-30T03:42:30Z</time>
      </trkpt><trkpt lat="45.73672529" lon="8.25934156">
        <ele>378.4</ele>
        <time>2010-08-30T03:48:47Z</time>
      </trkpt><trkpt lat="45.74739084" lon="8.26031478">
        <ele>383.2</ele>
        <time>2010-08-30T03:54:50Z</time>
      </trkpt><trkpt lat="45.75410500" lon="8.25900042">
        <ele>389.5</ele>
        <time>2010-08-30T03:58:41Z</time>
      </trkpt><trkpt lat="45.76012815" lon="8.25902539">
        <ele>400</ele>
        <time>2010-08-30T04:02:05Z</time>
      </trkpt><trkpt lat="45.76839237" lon="8.26075458">
        <ele>404.4</ele>
        <time>2010-08-30T04:06:49Z</time>
      </trkpt><trkpt lat="45.77391521" lon="8.26864614">
        <ele>408.7</ele>
        <time>2010-08-30T04:11:14Z</time>
      </trkpt><trkpt lat="45.78242409" lon="8.27613596">
        <ele>420.2</ele>
        <time>2010-08-30T04:16:54Z</time>
      </trkpt><trkpt lat="45.78915049" lon="8.27262319">
        <ele>426.5</ele>
        <time>2010-08-30T04:20:57Z</time>
      </trkpt><trkpt lat="45.79465623" lon="8.27134000">
        <ele>428.4</ele>
        <time>2010-08-30T04:24:07Z</time>
      </trkpt><trkpt lat="45.80042691" lon="8.26668109">
        <ele>429.8</ele>
        <time>2010-08-30T04:27:52Z</time>
      </trkpt><trkpt lat="45.81013877" lon="8.26274176">
        <ele>442.3</ele>
        <time>2010-08-30T04:33:35Z</time>
      </trkpt><trkpt lat="45.81181867" lon="8.26395731">
        <ele>451.5</ele>
        <time>2010-08-30T04:34:39Z</time>
      </trkpt><trkpt lat="45.81016945" lon="8.26876022">
        <ele>454.8</ele>
        <time>2010-08-30T04:36:46Z</time>
      </trkpt><trkpt lat="45.80225945" lon="8.27588081">
        <ele>490.4</ele>
        <time>2010-08-30T04:42:03Z</time>
      </trkpt><trkpt lat="45.80646515" lon="8.27356699">
        <ele>520.2</ele>
        <time>2010-08-30T04:44:37Z</time>
      </trkpt><trkpt lat="45.80398176" lon="8.27553171">
        <ele>540.4</ele>
        <time>2010-08-30T04:46:13Z</time>
      </trkpt><trkpt lat="45.80250009" lon="8.27887592">
        <ele>561.5</ele>
        <time>2010-08-30T04:47:47Z</time>
      </trkpt><trkpt lat="45.80379040" lon="8.28221594">
        <ele>584.6</ele>
        <time>2010-08-30T04:49:17Z</time>
      </trkpt><trkpt lat="45.80251694" lon="8.28717711">
        <ele>613.5</ele>
        <time>2010-08-30T04:51:23Z</time>
      </trkpt><trkpt lat="45.80355102" lon="8.28549712">
        <ele>625</ele>
        <time>2010-08-30T04:52:16Z</time>
      </trkpt><trkpt lat="45.80318674" lon="8.28828846">
        <ele>647.6</ele>
        <time>2010-08-30T04:53:23Z</time>
      </trkpt><trkpt lat="45.80374548" lon="8.28658803">
        <ele>659.1</ele>
        <time>2010-08-30T04:54:08Z</time>
      </trkpt><trkpt lat="45.80425124" lon="8.28925137">
        <ele>677.4</ele>
        <time>2010-08-30T04:55:13Z</time>
      </trkpt><trkpt lat="45.80611873" lon="8.28969243">
        <ele>691.8</ele>
        <time>2010-08-30T04:56:17Z</time>
      </trkpt><trkpt lat="45.80696337" lon="8.29448789">
        <ele>705.3</ele>
        <time>2010-08-30T04:58:15Z</time>
      </trkpt><trkpt lat="45.80903085" lon="8.29574123">
        <ele>698.5</ele>
        <time>2010-08-30T04:59:31Z</time>
      </trkpt><trkpt lat="45.80952044" lon="8.30031599">
        <ele>712</ele>
        <time>2010-08-30T05:01:21Z</time>
      </trkpt><trkpt lat="45.81217725" lon="8.30332308">
        <ele>734.6</ele>
        <time>2010-08-30T05:03:16Z</time>
      </trkpt><trkpt lat="45.81246945" lon="8.30597025">
        <ele>731.7</ele>
        <time>2010-08-30T05:04:19Z</time>
      </trkpt><trkpt lat="45.81328869" lon="8.30631198">
        <ele>727.9</ele>
        <time>2010-08-30T05:04:48Z</time>
      </trkpt><trkpt lat="45.81256114" lon="8.30726400">
        <ele>724</ele>
        <time>2010-08-30T05:05:22Z</time>
      </trkpt><trkpt lat="45.81318576" lon="8.30913878">
        <ele>723</ele>
        <time>2010-08-30T05:06:11Z</time>
      </trkpt><trkpt lat="45.81143344" lon="8.30892638">
        <ele>744.2</ele>
        <time>2010-08-30T05:07:11Z</time>
      </trkpt><trkpt lat="45.81059525" lon="8.31171286">
        <ele>769.2</ele>
        <time>2010-08-30T05:08:23Z</time>
      </trkpt><trkpt lat="45.80943184" lon="8.30984169">
        <ele>786.5</ele>
        <time>2010-08-30T05:09:22Z</time>
      </trkpt><trkpt lat="45.80962848" lon="8.30720214">
        <ele>808.1</ele>
        <time>2010-08-30T05:10:25Z</time>
      </trkpt><trkpt lat="45.80818177" lon="8.30596447">
        <ele>826.9</ele>
        <time>2010-08-30T05:11:22Z</time>
      </trkpt><trkpt lat="45.80846759" lon="8.31932497">
        <ele>897.5</ele>
        <time>2010-08-30T05:16:39Z</time>
      </trkpt><trkpt lat="45.80944743" lon="8.32301603">
        <ele>917.2</ele>
        <time>2010-08-30T05:18:12Z</time>
      </trkpt><trkpt lat="45.81103656" lon="8.32733296">
        <ele>888.4</ele>
        <time>2010-08-30T05:20:08Z</time>
      </trkpt><trkpt lat="45.81290245" lon="8.32691814">
        <ele>873.5</ele>
        <time>2010-08-30T05:21:12Z</time>
      </trkpt><trkpt lat="45.81293506" lon="8.33062269">
        <ele>855.2</ele>
        <time>2010-08-30T05:22:40Z</time>
      </trkpt><trkpt lat="45.81392128" lon="8.33022086">
        <ele>852.8</ele>
        <time>2010-08-30T05:23:15Z</time>
      </trkpt><trkpt lat="45.81651137" lon="8.33179196">
        <ele>833.6</ele>
        <time>2010-08-30T05:24:51Z</time>
      </trkpt><trkpt lat="45.81642151" lon="8.33414510">
        <ele>822.1</ele>
        <time>2010-08-30T05:25:46Z</time>
      </trkpt><trkpt lat="45.81840476" lon="8.33532410">
        <ele>806.7</ele>
        <time>2010-08-30T05:26:59Z</time>
      </trkpt><trkpt lat="45.81549892" lon="8.33906637">
        <ele>804.8</ele>
        <time>2010-08-30T05:29:12Z</time>
      </trkpt><trkpt lat="45.81194457" lon="8.33961899">
        <ele>787</ele>
        <time>2010-08-30T05:31:14Z</time>
      </trkpt><trkpt lat="45.81087194" lon="8.34151330">
        <ele>780.2</ele>
        <time>2010-08-30T05:32:11Z</time>
      </trkpt><trkpt lat="45.81155364" lon="8.34365009">
        <ele>764.9</ele>
        <time>2010-08-30T05:33:07Z</time>
      </trkpt><trkpt lat="45.81021170" lon="8.34827020">
        <ele>733.6</ele>
        <time>2010-08-30T05:35:06Z</time>
      </trkpt><trkpt lat="45.81135423" lon="8.35006183">
        <ele>720.6</ele>
        <time>2010-08-30T05:36:03Z</time>
      </trkpt><trkpt lat="45.80934048" lon="8.35707665">
        <ele>672.6</ele>
        <time>2010-08-30T05:39:03Z</time>
      </trkpt><trkpt lat="45.81217289" lon="8.35843116">
        <ele>643.7</ele>
        <time>2010-08-30T05:40:45Z</time>
      </trkpt><trkpt lat="45.80938524" lon="8.35853577">
        <ele>612.5</ele>
        <time>2010-08-30T05:42:19Z</time>
      </trkpt><trkpt lat="45.81526280" lon="8.36175442">
        <ele>574</ele>
        <time>2010-08-30T05:45:53Z</time>
      </trkpt><trkpt lat="45.81346756" lon="8.36114983">
        <ele>562</ele>
        <time>2010-08-30T05:46:56Z</time>
      </trkpt><trkpt lat="45.81357670" lon="8.36227334">
        <ele>553.9</ele>
        <time>2010-08-30T05:47:23Z</time>
      </trkpt><trkpt lat="45.81630635" lon="8.36171150">
        <ele>532.2</ele>
        <time>2010-08-30T05:48:57Z</time>
      </trkpt><trkpt lat="45.81636862" lon="8.36399582">
        <ele>517.8</ele>
        <time>2010-08-30T05:49:51Z</time>
      </trkpt><trkpt lat="45.82148611" lon="8.36176884">
        <ele>471.2</ele>
        <time>2010-08-30T05:52:53Z</time>
      </trkpt><trkpt lat="45.83086160" lon="8.36775452">
        <ele>477.4</ele>
        <time>2010-08-30T05:58:41Z</time>
      </trkpt><trkpt lat="45.83438075" lon="8.36814562">
        <ele>486.1</ele>
        <time>2010-08-30T06:00:41Z</time>
      </trkpt><trkpt lat="45.84133228" lon="8.37709129">
        <ele>463.5</ele>
        <time>2010-08-30T06:05:59Z</time>
      </trkpt><trkpt lat="45.84584275" lon="8.37758901">
        <ele>470.7</ele>
        <time>2010-08-30T06:08:33Z</time>
      </trkpt><trkpt lat="45.85487618" lon="8.38509081">
        <ele>436.6</ele>
        <time>2010-08-30T06:14:27Z</time>
      </trkpt><trkpt lat="45.86312724" lon="8.38784561">
        <ele>395.7</ele>
        <time>2010-08-30T06:19:15Z</time>
      </trkpt><trkpt lat="45.86255534" lon="8.38915235">
        <ele>387.5</ele>
        <time>2010-08-30T06:19:52Z</time>
      </trkpt><trkpt lat="45.86394372" lon="8.39265774">
        <ele>366.9</ele>
        <time>2010-08-30T06:21:27Z</time>
      </trkpt><trkpt lat="45.86718148" lon="8.39570238">
        <ele>350.1</ele>
        <time>2010-08-30T06:23:39Z</time>
      </trkpt><trkpt lat="45.87066651" lon="8.39625835">
        <ele>332.3</ele>
        <time>2010-08-30T06:25:38Z</time>
      </trkpt><trkpt lat="45.87040902" lon="8.40192318">
        <ele>321.7</ele>
        <time>2010-08-30T06:27:52Z</time>
      </trkpt><trkpt lat="45.87253785" lon="8.40636165">
        <ele>309.7</ele>
        <time>2010-08-30T06:30:00Z</time>
      </trkpt><trkpt lat="45.87534621" lon="8.40904713">
        <ele>303.4</ele>
        <time>2010-08-30T06:31:55Z</time>
      </trkpt><trkpt lat="45.87238312" lon="8.41273785">
        <ele>309.2</ele>
        <time>2010-08-30T06:34:08Z</time>
      </trkpt><trkpt lat="45.87729852" lon="8.41009780">
        <ele>307.8</ele>
        <time>2010-08-30T06:37:06Z</time>
      </trkpt><trkpt lat="45.88095865" lon="8.41165482">
        <ele>307.8</ele>
        <time>2010-08-30T06:39:16Z</time>
      </trkpt><trkpt lat="45.88228131" lon="8.40998381">
        <ele>302</ele>
        <time>2010-08-30T06:40:16Z</time>
      </trkpt><trkpt lat="45.88928422" lon="8.41466518">
        <ele>286.6</ele>
        <time>2010-08-30T06:44:39Z</time>
      </trkpt><trkpt lat="45.89738081" lon="8.41780999">
        <ele>276.5</ele>
        <time>2010-08-30T06:49:24Z</time>
      </trkpt><trkpt lat="45.89875125" lon="8.41969910">
        <ele>268.3</ele>
        <time>2010-08-30T06:50:28Z</time>
      </trkpt><trkpt lat="45.89955801" lon="8.41960589">
        <ele>267.4</ele>
        <time>2010-08-30T06:50:56Z</time>
      </trkpt><trkpt lat="45.90020375" lon="8.41629177">
        <ele>274.1</ele>
        <time>2010-08-30T06:52:17Z</time>
      </trkpt><trkpt lat="45.91348353" lon="8.42518263">
        <ele>264</ele>
        <time>2010-08-30T07:00:35Z</time>
      </trkpt><trkpt lat="45.92864514" lon="8.43277931">
        <ele>221.2</ele>
        <time>2010-08-30T07:09:41Z</time>
      </trkpt><trkpt lat="45.93639194" lon="8.44503667">
        <ele>217.4</ele>
        <time>2010-08-30T07:16:13Z</time>
      </trkpt><trkpt lat="45.93823219" lon="8.45872323">
        <ele>211.1</ele>
        <time>2010-08-30T07:21:42Z</time>
      </trkpt><trkpt lat="45.94287216" lon="8.47188936">
        <ele>209.7</ele>
        <time>2010-08-30T07:27:31Z</time>
      </trkpt><trkpt lat="45.94567004" lon="8.48842660">
        <ele>209.2</ele>
        <time>2010-08-30T07:34:14Z</time>
      </trkpt><trkpt lat="45.94564112" lon="8.49537914">
        <ele>207.8</ele>
        <time>2010-08-30T07:36:58Z</time>
      </trkpt><trkpt lat="45.94142595" lon="8.50350858">
        <ele>208.7</ele>
        <time>2010-08-30T07:40:58Z</time>
      </trkpt><trkpt lat="45.94020714" lon="8.51164732">
        <ele>206.8</ele>
        <time>2010-08-30T07:44:14Z</time>
      </trkpt><trkpt lat="45.93495688" lon="8.52603461">
        <ele>214</ele>
        <time>2010-08-30T07:50:39Z</time>
      </trkpt><trkpt lat="45.93238313" lon="8.54081827">
        <ele>226.5</ele>
        <time>2010-08-30T07:56:39Z</time>
      </trkpt><trkpt lat="45.92841438" lon="8.55403905">
        <ele>218.4</ele>
        <time>2010-08-30T08:02:19Z</time>
      </trkpt><trkpt lat="45.92723673" lon="8.56501012">
        <ele>209.7</ele>
        <time>2010-08-30T08:06:42Z</time>
      </trkpt><trkpt lat="45.93242546" lon="8.57112011">
        <ele>211.6</ele>
        <time>2010-08-30T08:10:30Z</time>
      </trkpt><trkpt lat="45.93359130" lon="8.57641412">
        <ele>202.5</ele>
        <time>2010-08-30T08:12:41Z</time>
      </trkpt><trkpt lat="45.91806173" lon="8.59219775">
        <ele>200.6</ele>
        <time>2010-08-30T08:23:28Z</time>
      </trkpt><trkpt lat="45.91148956" lon="8.60766789">
        <ele>200.1</ele>
        <time>2010-08-30T08:30:36Z</time>
      </trkpt><trkpt lat="45.90939358" lon="8.61798593">
        <ele>198.2</ele>
        <time>2010-08-30T08:34:51Z</time>
      </trkpt><trkpt lat="45.90728964" lon="8.62098112">
        <ele>210.2</ele>
        <time>2010-08-30T08:36:31Z</time>
      </trkpt><trkpt lat="45.90596505" lon="8.61927004">
        <ele>205.9</ele>
        <time>2010-08-30T08:37:32Z</time>
      </trkpt><trkpt lat="45.90735519" lon="8.62102294">
        <ele>211.6</ele>
        <time>2010-08-30T08:38:35Z</time>
      </trkpt><trkpt lat="45.90850259" lon="8.61927557">
        <ele>204.9</ele>
        <time>2010-08-30T08:39:32Z</time>
      </trkpt><trkpt lat="45.90962777" lon="8.62021577">
        <ele>203</ele>
        <time>2010-08-30T08:40:16Z</time>
      </trkpt><trkpt lat="45.90794268" lon="8.62350985">
        <ele>209.7</ele>
        <time>2010-08-30T08:41:52Z</time>
      </trkpt><trkpt lat="45.90468203" lon="8.62620078">
        <ele>216.4</ele>
        <time>2010-08-30T08:44:00Z</time>
      </trkpt><trkpt lat="45.90455111" lon="8.63031303">
        <ele>219.3</ele>
        <time>2010-08-30T08:45:38Z</time>
      </trkpt><trkpt lat="45.90240987" lon="8.63493129">
        <ele>224.6</ele>
        <time>2010-08-30T08:47:49Z</time>
      </trkpt><trkpt lat="45.90044976" lon="8.64438239">
        <ele>232.3</ele>
        <time>2010-08-30T08:51:42Z</time>
      </trkpt><trkpt lat="45.89494327" lon="8.65406114">
        <ele>241.4</ele>
        <time>2010-08-30T08:56:38Z</time>
      </trkpt><trkpt lat="45.89539664" lon="8.66500589">
        <ele>248.6</ele>
        <time>2010-08-30T09:00:57Z</time>
      </trkpt><trkpt lat="45.89416467" lon="8.66982540">
        <ele>248.6</ele>
        <time>2010-08-30T09:02:59Z</time>
      </trkpt><trkpt lat="45.89323998" lon="8.68785127">
        <ele>282.8</ele>
        <time>2010-08-30T09:10:07Z</time>
      </trkpt><trkpt lat="45.89499800" lon="8.69709701">
        <ele>293.3</ele>
        <time>2010-08-30T09:13:53Z</time>
      </trkpt><trkpt lat="45.90507171" lon="8.71230916">
        <ele>304.9</ele>
        <time>2010-08-30T09:22:10Z</time>
      </trkpt><trkpt lat="45.90666511" lon="8.71720537">
        <ele>292.4</ele>
        <time>2010-08-30T09:24:18Z</time>
      </trkpt><trkpt lat="45.90426922" lon="8.73130641">
        <ele>289</ele>
        <time>2010-08-30T09:30:01Z</time>
      </trkpt><trkpt lat="45.90526273" lon="8.74341725">
        <ele>286.1</ele>
        <time>2010-08-30T09:34:50Z</time>
      </trkpt><trkpt lat="45.90113238" lon="8.74678670">
        <ele>285.6</ele>
        <time>2010-08-30T09:37:31Z</time>
      </trkpt><trkpt lat="45.90288747" lon="8.75302241">
        <ele>297.2</ele>
        <time>2010-08-30T09:40:10Z</time>
      </trkpt><trkpt lat="45.90534211" lon="8.75666142">
        <ele>297.7</ele>
        <time>2010-08-30T09:42:10Z</time>
      </trkpt><trkpt lat="45.90503281" lon="8.75445337">
        <ele>310.6</ele>
        <time>2010-08-30T09:43:04Z</time>
      </trkpt><trkpt lat="45.90842111" lon="8.75578031">
        <ele>291.9</ele>
        <time>2010-08-30T09:45:03Z</time>
      </trkpt><trkpt lat="45.91042070" lon="8.75819773">
        <ele>288.1</ele>
        <time>2010-08-30T09:46:32Z</time>
      </trkpt><trkpt lat="45.91187069" lon="8.75433066">
        <ele>282.3</ele>
        <time>2010-08-30T09:48:16Z</time>
      </trkpt><trkpt lat="45.91658559" lon="8.76130616">
        <ele>272.2</ele>
        <time>2010-08-30T09:52:06Z</time>
      </trkpt><trkpt lat="45.92070831" lon="8.77175756">
        <ele>265.5</ele>
        <time>2010-08-30T09:56:50Z</time>
      </trkpt><trkpt lat="45.92404951" lon="8.77455167">
        <ele>261.1</ele>
        <time>2010-08-30T09:59:01Z</time>
      </trkpt><trkpt lat="45.92876425" lon="8.77529011">
        <ele>253.9</ele>
        <time>2010-08-30T10:01:43Z</time>
      </trkpt><trkpt lat="45.93129918" lon="8.78251774">
        <ele>268.3</ele>
        <time>2010-08-30T10:04:54Z</time>
      </trkpt><trkpt lat="45.93414509" lon="8.78506685">
        <ele>295.3</ele>
        <time>2010-08-30T10:06:48Z</time>
      </trkpt><trkpt lat="45.93341654" lon="8.78706107">
        <ele>308.2</ele>
        <time>2010-08-30T10:07:41Z</time>
      </trkpt><trkpt lat="45.93254708" lon="8.78669713">
        <ele>319.3</ele>
        <time>2010-08-30T10:08:12Z</time>
      </trkpt><trkpt lat="45.93441499" lon="8.78618550">
        <ele>303</ele>
        <time>2010-08-30T10:09:17Z</time>
      </trkpt><trkpt lat="45.93579700" lon="8.78800244">
        <ele>315</ele>
        <time>2010-08-30T10:10:20Z</time>
      </trkpt><trkpt lat="45.93722494" lon="8.78743147">
        <ele>327</ele>
        <time>2010-08-30T10:11:11Z</time>
      </trkpt><trkpt lat="45.93544119" lon="8.78849060">
        <ele>315</ele>
        <time>2010-08-30T10:12:16Z</time>
      </trkpt><trkpt lat="45.93679243" lon="8.79448744">
        <ele>372.2</ele>
        <time>2010-08-30T10:14:45Z</time>
      </trkpt><trkpt lat="45.93635263" lon="8.80055241">
        <ele>422.6</ele>
        <time>2010-08-30T10:17:09Z</time>
      </trkpt><trkpt lat="45.93835096" lon="8.79894409">
        <ele>421.2</ele>
        <time>2010-08-30T10:18:27Z</time>
      </trkpt><trkpt lat="45.94267611" lon="8.79198494">
        <ele>401</ele>
        <time>2010-08-30T10:22:08Z</time>
      </trkpt><trkpt lat="45.93846320" lon="8.79877570">
        <ele>419.8</ele>
        <time>2010-08-30T10:25:43Z</time>
      </trkpt><trkpt lat="45.93453544" lon="8.80242300">
        <ele>425.5</ele>
        <time>2010-08-30T10:28:22Z</time>
      </trkpt><trkpt lat="45.93169213" lon="8.81528378">
        <ele>426</ele>
        <time>2010-08-30T10:33:41Z</time>
      </trkpt><trkpt lat="45.92696758" lon="8.82055826">
        <ele>434.7</ele>
        <time>2010-08-30T10:37:04Z</time>
      </trkpt><trkpt lat="45.92726062" lon="8.82142310">
        <ele>436.1</ele>
        <time>2010-08-30T10:37:27Z</time>
      </trkpt><trkpt lat="45.93116298" lon="8.82250059">
        <ele>436.1</ele>
        <time>2010-08-30T10:39:42Z</time>
      </trkpt><trkpt lat="45.93383253" lon="8.82461845">
        <ele>448.6</ele>
        <time>2010-08-30T10:41:26Z</time>
      </trkpt><trkpt lat="45.93754907" lon="8.82373810">
        <ele>459.2</ele>
        <time>2010-08-30T10:43:34Z</time>
      </trkpt><trkpt lat="45.94025399" lon="8.82528691">
        <ele>466.4</ele>
        <time>2010-08-30T10:45:13Z</time>
      </trkpt><trkpt lat="45.94967181" lon="8.83916784">
        <ele>477.9</ele>
        <time>2010-08-30T10:52:51Z</time>
      </trkpt><trkpt lat="45.95188966" lon="8.84495462">
        <ele>464.5</ele>
        <time>2010-08-30T10:55:28Z</time>
      </trkpt><trkpt lat="45.95567929" lon="8.84926334">
        <ele>436.1</ele>
        <time>2010-08-30T10:58:12Z</time>
      </trkpt><trkpt lat="45.95619092" lon="8.85185779">
        <ele>426.5</ele>
        <time>2010-08-30T10:59:16Z</time>
      </trkpt><trkpt lat="45.95802388" lon="8.85317182">
        <ele>406.3</ele>
        <time>2010-08-30T11:00:25Z</time>
      </trkpt><trkpt lat="45.95912509" lon="8.85023070">
        <ele>388.5</ele>
        <time>2010-08-30T11:01:44Z</time>
      </trkpt><trkpt lat="45.95916667" lon="8.85503696">
        <ele>363</ele>
        <time>2010-08-30T11:03:38Z</time>
      </trkpt><trkpt lat="45.96094455" lon="8.85360693">
        <ele>349.6</ele>
        <time>2010-08-30T11:04:47Z</time>
      </trkpt><trkpt lat="45.96205071" lon="8.85735615">
        <ele>322.2</ele>
        <time>2010-08-30T11:06:23Z</time>
      </trkpt><trkpt lat="45.96325645" lon="8.85396877">
        <ele>305.8</ele>
        <time>2010-08-30T11:07:53Z</time>
      </trkpt><trkpt lat="45.96517381" lon="8.85413105">
        <ele>292.4</ele>
        <time>2010-08-30T11:08:58Z</time>
      </trkpt><trkpt lat="45.96673083" lon="8.85569201">
        <ele>280.8</ele>
        <time>2010-08-30T11:10:03Z</time>
      </trkpt><trkpt lat="45.96602113" lon="8.85795487">
        <ele>278</ele>
        <time>2010-08-30T11:11:02Z</time>
      </trkpt><trkpt lat="45.96986801" lon="8.86089608">
        <ele>280.8</ele>
        <time>2010-08-30T11:13:30Z</time>
      </trkpt><trkpt lat="45.97138832" lon="8.86595724">
        <ele>284.2</ele>
        <time>2010-08-30T11:15:40Z</time>
      </trkpt><trkpt lat="45.97644973" lon="8.87397453">
        <ele>295.3</ele>
        <time>2010-08-30T11:19:56Z</time>
      </trkpt><trkpt lat="45.98240172" lon="8.88010950">
        <ele>320.3</ele>
        <time>2010-08-30T11:24:05Z</time>
      </trkpt><trkpt lat="45.98386243" lon="8.88910756">
        <ele>303</ele>
        <time>2010-08-30T11:27:43Z</time>
      </trkpt><trkpt lat="45.99366591" lon="8.89778216">
        <ele>295.7</ele>
        <time>2010-08-30T11:34:14Z</time>
      </trkpt><trkpt lat="45.99708547" lon="8.89956985">
        <ele>300.1</ele>
        <time>2010-08-30T11:36:18Z</time>
      </trkpt><trkpt lat="45.99815500" lon="8.90189096">
        <ele>295.7</ele>
        <time>2010-08-30T11:37:24Z</time>
      </trkpt><trkpt lat="45.99764823" lon="8.91425754">
        <ele>295.3</ele>
        <time>2010-08-30T11:42:16Z</time>
      </trkpt><trkpt lat="45.99351453" lon="8.91705995">
        <ele>326</ele>
        <time>2010-08-30T11:44:52Z</time>
      </trkpt><trkpt lat="45.99294892" lon="8.92398147">
        <ele>353.4</ele>
        <time>2010-08-30T11:47:36Z</time>
      </trkpt><trkpt lat="45.99666596" lon="8.93474735">
        <ele>382.7</ele>
        <time>2010-08-30T11:52:20Z</time>
      </trkpt><trkpt lat="45.99700509" lon="8.94135389">
        <ele>355.8</ele>
        <time>2010-08-30T11:54:57Z</time>
      </trkpt><trkpt lat="45.99509494" lon="8.94154952">
        <ele>340.4</ele>
        <time>2010-08-30T11:56:02Z</time>
      </trkpt><trkpt lat="45.99648265" lon="8.94248100">
        <ele>333.2</ele>
        <time>2010-08-30T11:56:54Z</time>
      </trkpt><trkpt lat="45.99473351" lon="8.94257429">
        <ele>316.9</ele>
        <time>2010-08-30T11:57:53Z</time>
      </trkpt><trkpt lat="45.99821091" lon="8.94488812">
        <ele>318.3</ele>
        <time>2010-08-30T12:00:03Z</time>
      </trkpt><trkpt lat="45.99905279" lon="8.94959238">
        <ele>288.5</ele>
        <time>2010-08-30T12:01:58Z</time>
      </trkpt><trkpt lat="46.00267059" lon="8.95063399">
        <ele>286.6</ele>
        <time>2010-08-30T12:04:04Z</time>
      </trkpt><trkpt lat="46.00398629" lon="8.95557521">
        <ele>287.1</ele>
        <time>2010-08-30T12:06:09Z</time>
      </trkpt><trkpt lat="46.00563107" lon="8.95608718">
        <ele>287.1</ele>
        <time>2010-08-30T12:07:06Z</time>
      </trkpt><trkpt lat="46.00567818" lon="8.96820347">
        <ele>286.6</ele>
        <time>2010-08-30T12:11:52Z</time>
      </trkpt><trkpt lat="46.00118045" lon="8.97545449">
        <ele>320.3</ele>
        <time>2010-08-30T12:15:41Z</time>
      </trkpt><trkpt lat="46.00182225" lon="8.98328888">
        <ele>363</ele>
        <time>2010-08-30T12:18:48Z</time>
      </trkpt><trkpt lat="46.00482675" lon="8.99162209">
        <ele>376.5</ele>
        <time>2010-08-30T12:22:29Z</time>
      </trkpt><trkpt lat="46.00642643" lon="9.00387542">
        <ele>342.8</ele>
        <time>2010-08-30T12:27:24Z</time>
      </trkpt><trkpt lat="46.01863535" lon="9.02488886">
        <ele>287.1</ele>
        <time>2010-08-30T12:38:11Z</time>
      </trkpt><trkpt lat="46.02151478" lon="9.03178314">
        <ele>301</ele>
        <time>2010-08-30T12:41:21Z</time>
      </trkpt><trkpt lat="46.02323056" lon="9.04088974">
        <ele>283.2</ele>
        <time>2010-08-30T12:45:03Z</time>
      </trkpt><trkpt lat="46.02476143" lon="9.04260761">
        <ele>287.1</ele>
        <time>2010-08-30T12:46:09Z</time>
      </trkpt><trkpt lat="46.02552359" lon="9.04890762">
        <ele>283.7</ele>
        <time>2010-08-30T12:48:40Z</time>
      </trkpt><trkpt lat="46.02378963" lon="9.05929556">
        <ele>294.3</ele>
        <time>2010-08-30T12:52:52Z</time>
      </trkpt><trkpt lat="46.02400806" lon="9.08879827">
        <ele>283.7</ele>
        <time>2010-08-30T13:04:29Z</time>
      </trkpt><trkpt lat="46.02674861" lon="9.09747094">
        <ele>286.6</ele>
        <time>2010-08-30T13:08:14Z</time>
      </trkpt><trkpt lat="46.03519111" lon="9.10918054">
        <ele>284.7</ele>
        <time>2010-08-30T13:14:52Z</time>
      </trkpt><trkpt lat="46.03621480" lon="9.11675493">
        <ele>281.3</ele>
        <time>2010-08-30T13:17:54Z</time>
      </trkpt><trkpt lat="46.03531022" lon="9.11864966">
        <ele>281.8</ele>
        <time>2010-08-30T13:18:49Z</time>
      </trkpt><trkpt lat="46.03684646" lon="9.12221432">
        <ele>288.5</ele>
        <time>2010-08-30T13:20:28Z</time>
      </trkpt><trkpt lat="46.03771189" lon="9.13157355">
        <ele>292.9</ele>
        <time>2010-08-30T13:24:10Z</time>
      </trkpt><trkpt lat="46.04029611" lon="9.13885332">
        <ele>307.3</ele>
        <time>2010-08-30T13:27:23Z</time>
      </trkpt><trkpt lat="46.04051169" lon="9.14530051">
        <ele>303.9</ele>
        <time>2010-08-30T13:29:56Z</time>
      </trkpt><trkpt lat="46.04281932" lon="9.15271070">
        <ele>295.7</ele>
        <time>2010-08-30T13:33:07Z</time>
      </trkpt><trkpt lat="46.04280557" lon="9.16230253">
        <ele>296.7</ele>
        <time>2010-08-30T13:36:54Z</time>
      </trkpt><trkpt lat="46.04120630" lon="9.17303497">
        <ele>315</ele>
        <time>2010-08-30T13:41:13Z</time>
      </trkpt><trkpt lat="46.03979320" lon="9.17439074">
        <ele>319.3</ele>
        <time>2010-08-30T13:42:10Z</time>
      </trkpt><trkpt lat="46.03606635" lon="9.18541965">
        <ele>363</ele>
        <time>2010-08-30T13:47:00Z</time>
      </trkpt><trkpt lat="46.02927684" lon="9.19737761">
        <ele>391.9</ele>
        <time>2010-08-30T13:53:05Z</time>
      </trkpt><trkpt lat="46.02414779" lon="9.21230637">
        <ele>385.6</ele>
        <time>2010-08-30T13:59:38Z</time>
      </trkpt><trkpt lat="46.02095345" lon="9.21757875">
        <ele>386.1</ele>
        <time>2010-08-30T14:02:23Z</time>
      </trkpt><trkpt lat="46.01874699" lon="9.22514099">
        <ele>391.9</ele>
        <time>2010-08-30T14:05:36Z</time>
      </trkpt><trkpt lat="46.02127498" lon="9.22846165">
        <ele>365.4</ele>
        <time>2010-08-30T14:07:33Z</time>
      </trkpt><trkpt lat="46.01901052" lon="9.22947929">
        <ele>332.3</ele>
        <time>2010-08-30T14:08:53Z</time>
      </trkpt><trkpt lat="46.02248222" lon="9.23204273">
        <ele>285.6</ele>
        <time>2010-08-30T14:11:06Z</time>
      </trkpt><trkpt lat="46.02148603" lon="9.23428212">
        <ele>269.3</ele>
        <time>2010-08-30T14:12:09Z</time>
      </trkpt><trkpt lat="46.02682095" lon="9.23351862">
        <ele>262.6</ele>
        <time>2010-08-30T14:15:11Z</time>
      </trkpt><trkpt lat="46.03809058" lon="9.23971804">
        <ele>218.8</ele>
        <time>2010-08-30T14:22:01Z</time>
      </trkpt><trkpt lat="46.04115257" lon="9.25087720">
        <ele>223.2</ele>
        <time>2010-08-30T14:26:44Z</time>
      </trkpt><trkpt lat="46.04867978" lon="9.25498232">
        <ele>221.7</ele>
        <time>2010-08-30T14:31:18Z</time>
      </trkpt><trkpt lat="46.05286184" lon="9.25893473">
        <ele>231.8</ele>
        <time>2010-08-30T14:34:08Z</time>
      </trkpt><trkpt lat="46.05660034" lon="9.25932222">
        <ele>221.7</ele>
        <time>2010-08-30T14:36:15Z</time>
      </trkpt><trkpt lat="46.06291736" lon="9.26885622">
        <ele>213.1</ele>
        <time>2010-08-30T14:41:26Z</time>
      </trkpt><trkpt lat="46.06566285" lon="9.26986531">
        <ele>212.1</ele>
        <time>2010-08-30T14:43:03Z</time>
      </trkpt><trkpt lat="46.06675719" lon="9.27197563">
        <ele>213.6</ele>
        <time>2010-08-30T14:44:05Z</time>
      </trkpt><trkpt lat="46.07284061" lon="9.27687518">
        <ele>233.7</ele>
        <time>2010-08-30T14:48:02Z</time>
      </trkpt><trkpt lat="46.07699443" lon="9.27577305">
        <ele>234.7</ele>
        <time>2010-08-30T14:50:25Z</time>
      </trkpt><trkpt lat="46.08423237" lon="9.27767574">
        <ele>228.9</ele>
        <time>2010-08-30T14:54:35Z</time>
      </trkpt><trkpt lat="46.08703360" lon="9.27703302">
        <ele>231.3</ele>
        <time>2010-08-30T14:56:12Z</time>
      </trkpt><trkpt lat="46.09054394" lon="9.27897326">
        <ele>228</ele>
        <time>2010-08-30T14:58:20Z</time>
      </trkpt><trkpt lat="46.09431019" lon="9.27953417">
        <ele>228.9</ele>
        <time>2010-08-30T15:00:28Z</time>
      </trkpt><trkpt lat="46.09541635" lon="9.27827681">
        <ele>235.7</ele>
        <time>2010-08-30T15:01:16Z</time>
      </trkpt><trkpt lat="46.11985647" lon="9.27991044">
        <ele>222.7</ele>
        <time>2010-08-30T15:15:08Z</time>
      </trkpt><trkpt lat="46.12171147" lon="9.27908541">
        <ele>213.1</ele>
        <time>2010-08-30T15:16:14Z</time>
      </trkpt><trkpt lat="46.12345993" lon="9.28203668">
        <ele>212.6</ele>
        <time>2010-08-30T15:17:45Z</time>
      </trkpt><trkpt lat="46.12616511" lon="9.28174079">
        <ele>221.2</ele>
        <time>2010-08-30T15:19:18Z</time>
      </trkpt><trkpt lat="46.12981190" lon="9.28584768">
        <ele>215.5</ele>
        <time>2010-08-30T15:21:55Z</time>
      </trkpt><trkpt lat="46.13447987" lon="9.28688930">
        <ele>217.4</ele>
        <time>2010-08-30T15:24:36Z</time>
      </trkpt><trkpt lat="46.14038735" lon="9.29179229">
        <ele>221.7</ele>
        <time>2010-08-30T15:28:27Z</time>
      </trkpt><trkpt lat="46.14472515" lon="9.30042900">
        <ele>234.2</ele>
        <time>2010-08-30T15:32:38Z</time>
      </trkpt><trkpt lat="46.14840338" lon="9.30423866">
        <ele>233.7</ele>
        <time>2010-08-30T15:35:12Z</time>
      </trkpt><trkpt lat="46.14911677" lon="9.32024843">
        <ele>212.6</ele>
        <time>2010-08-30T15:41:30Z</time>
      </trkpt><trkpt lat="46.15073204" lon="9.32524497">
        <ele>210.7</ele>
        <time>2010-08-30T15:43:40Z</time>
      </trkpt><trkpt lat="46.14969906" lon="9.32893988">
        <ele>210.7</ele>
        <time>2010-08-30T15:45:14Z</time>
      </trkpt><trkpt lat="46.15094142" lon="9.33218359">
        <ele>212.6</ele>
        <time>2010-08-30T15:46:41Z</time>
      </trkpt><trkpt lat="46.15709827" lon="9.33819191">
        <ele>212.1</ele>
        <time>2010-08-30T15:50:54Z</time>
      </trkpt><trkpt lat="46.16338193" lon="9.34662880">
        <ele>212.1</ele>
        <time>2010-08-30T15:55:46Z</time>
      </trkpt><trkpt lat="46.16923267" lon="9.35924834">
        <ele>214</ele>
        <time>2010-08-30T16:01:43Z</time>
      </trkpt><trkpt lat="46.16984999" lon="9.36308817">
        <ele>213.6</ele>
        <time>2010-08-30T16:03:16Z</time>
      </trkpt><trkpt lat="46.16892606" lon="9.36986829">
        <ele>212.1</ele>
        <time>2010-08-30T16:05:59Z</time>
      </trkpt><trkpt lat="46.17197271" lon="9.37260088">
        <ele>209.7</ele>
        <time>2010-08-30T16:08:00Z</time>
      </trkpt><trkpt lat="46.17217999" lon="9.37936993">
        <ele>212.6</ele>
        <time>2010-08-30T16:10:40Z</time>
      </trkpt><trkpt lat="46.17373190" lon="9.38405190">
        <ele>220.8</ele>
        <time>2010-08-30T16:12:42Z</time>
      </trkpt><trkpt lat="46.17189358" lon="9.39599795">
        <ele>210.2</ele>
        <time>2010-08-30T16:17:30Z</time>
      </trkpt><trkpt lat="46.17310946" lon="9.40364678">
        <ele>214</ele>
        <time>2010-08-30T16:20:35Z</time>
      </trkpt><trkpt lat="46.17174145" lon="9.40483742">
        <ele>213.1</ele>
        <time>2010-08-30T16:21:29Z</time>
      </trkpt><trkpt lat="46.17133434" lon="9.43263852">
        <ele>212.1</ele>
        <time>2010-08-30T16:32:24Z</time>
      </trkpt><trkpt lat="46.17533402" lon="9.43486408">
        <ele>214.5</ele>
        <time>2010-08-30T16:34:50Z</time>
      </trkpt><trkpt lat="46.18336883" lon="9.44286059">
        <ele>215</ele>
        <time>2010-08-30T16:40:21Z</time>
      </trkpt><trkpt lat="46.18710741" lon="9.44458583">
        <ele>218.8</ele>
        <time>2010-08-30T16:42:35Z</time>
      </trkpt><trkpt lat="46.19197981" lon="9.44914341">
        <ele>217.9</ele>
        <time>2010-08-30T16:45:52Z</time>
      </trkpt><trkpt lat="46.19604419" lon="9.45133360">
        <ele>215</ele>
        <time>2010-08-30T16:48:20Z</time>
      </trkpt><trkpt lat="46.19978864" lon="9.45199552">
        <ele>216</ele>
        <time>2010-08-30T16:50:28Z</time>
      </trkpt><trkpt lat="46.20394917" lon="9.46041866">
        <ele>218.8</ele>
        <time>2010-08-30T16:54:31Z</time>
      </trkpt><trkpt lat="46.20567852" lon="9.46101596">
        <ele>219.3</ele>
        <time>2010-08-30T16:55:32Z</time>
      </trkpt><trkpt lat="46.20923404" lon="9.45945902">
        <ele>214.5</ele>
        <time>2010-08-30T16:57:38Z</time>
      </trkpt><trkpt lat="46.21063021" lon="9.45132405">
        <ele>219.8</ele>
        <time>2010-08-30T17:00:55Z</time>
      </trkpt><trkpt lat="46.21343648" lon="9.44730559">
        <ele>217.4</ele>
        <time>2010-08-30T17:03:10Z</time>
      </trkpt><trkpt lat="46.22110885" lon="9.44610288">
        <ele>215</ele>
        <time>2010-08-30T17:07:32Z</time>
      </trkpt><trkpt lat="46.22469756" lon="9.44766660">
        <ele>221.7</ele>
        <time>2010-08-30T17:09:39Z</time>
      </trkpt><trkpt lat="46.22662884" lon="9.44713234">
        <ele>219.3</ele>
        <time>2010-08-30T17:10:46Z</time>
      </trkpt><trkpt lat="46.23008386" lon="9.44016153">
        <ele>216.4</ele>
        <time>2010-08-30T17:14:08Z</time>
      </trkpt><trkpt lat="46.24494095" lon="9.42558942">
        <ele>215.5</ele>
        <time>2010-08-30T17:24:18Z</time>
      </trkpt><trkpt lat="46.24752433" lon="9.42363208">
        <ele>215.5</ele>
        <time>2010-08-30T17:25:57Z</time>
      </trkpt><trkpt lat="46.25219599" lon="9.42434471">
        <ele>219.8</ele>
        <time>2010-08-30T17:28:37Z</time>
      </trkpt><trkpt lat="46.25687946" lon="9.42122363">
        <ele>216.9</ele>
        <time>2010-08-30T17:31:32Z</time>
      </trkpt><trkpt lat="46.26288409" lon="9.40966272">
        <ele>219.3</ele>
        <time>2010-08-30T17:37:12Z</time>
      </trkpt><trkpt lat="46.26710924" lon="9.40598130">
        <ele>227.5</ele>
        <time>2010-08-30T17:40:00Z</time>
      </trkpt><trkpt lat="46.27173982" lon="9.39846215">
        <ele>226</ele>
        <time>2010-08-30T17:43:57Z</time>
      </trkpt><trkpt lat="46.27847292" lon="9.39653825">
        <ele>234.2</ele>
        <time>2010-08-30T17:47:50Z</time>
      </trkpt><trkpt lat="46.28951775" lon="9.38970734">
        <ele>252.5</ele>
        <time>2010-08-30T17:54:38Z</time>
      </trkpt><trkpt lat="46.29352648" lon="9.38589642">
        <ele>260.7</ele>
        <time>2010-08-30T17:57:21Z</time>
      </trkpt><trkpt lat="46.30027710" lon="9.38713024">
        <ele>284.7</ele>
        <time>2010-08-30T18:01:13Z</time>
      </trkpt><trkpt lat="46.30664936" lon="9.39112765">
        <ele>299.1</ele>
        <time>2010-08-30T18:05:09Z</time>
      </trkpt><trkpt lat="46.30996507" lon="9.39612988">
        <ele>297.7</ele>
        <time>2010-08-30T18:07:51Z</time>
      </trkpt><trkpt lat="46.31796970" lon="9.39981465">
        <ele>321.7</ele>
        <time>2010-08-30T18:12:37Z</time>
      </trkpt><trkpt lat="46.32117528" lon="9.39780576">
        <ele>327</ele>
        <time>2010-08-30T18:14:36Z</time>
      </trkpt><trkpt lat="46.32207625" lon="9.39853834">
        <ele>329.4</ele>
        <time>2010-08-30T18:15:11Z</time>
      </trkpt><trkpt lat="46.32733640" lon="9.41019002">
        <ele>359.7</ele>
        <time>2010-08-30T18:20:38Z</time>
      </trkpt><trkpt lat="46.32737160" lon="9.41996693">
        <ele>374.6</ele>
        <time>2010-08-30T18:24:27Z</time>
      </trkpt><trkpt lat="46.32620459" lon="9.42801121">
        <ele>391.9</ele>
        <time>2010-08-30T18:27:40Z</time>
      </trkpt><trkpt lat="46.32849427" lon="9.43429009">
        <ele>407.7</ele>
        <time>2010-08-30T18:30:27Z</time>
      </trkpt><trkpt lat="46.32934571" lon="9.44120122">
        <ele>423.6</ele>
        <time>2010-08-30T18:33:12Z</time>
      </trkpt><trkpt lat="46.32803813" lon="9.45092959">
        <ele>471.7</ele>
        <time>2010-08-30T18:37:04Z</time>
      </trkpt><trkpt lat="46.32568533" lon="9.45493019">
        <ele>502.4</ele>
        <time>2010-08-30T18:39:08Z</time>
      </trkpt><trkpt lat="46.32541049" lon="9.45755071">
        <ele>506.3</ele>
        <time>2010-08-30T18:40:10Z</time>
      </trkpt><trkpt lat="46.32774175" lon="9.46637384">
        <ele>532.7</ele>
        <time>2010-08-30T18:43:52Z</time>
      </trkpt><trkpt lat="46.32880767" lon="9.47710938">
        <ele>593.3</ele>
        <time>2010-08-30T18:48:06Z</time>
      </trkpt><trkpt lat="46.33094028" lon="9.48184859">
        <ele>607.2</ele>
        <time>2010-08-30T18:50:19Z</time>
      </trkpt><trkpt lat="46.32973253" lon="9.48350972">
        <ele>611.1</ele>
        <time>2010-08-30T18:51:16Z</time>
      </trkpt><trkpt lat="46.33078111" lon="9.48683423">
        <ele>621.6</ele>
        <time>2010-08-30T18:52:41Z</time>
      </trkpt><trkpt lat="46.33025942" lon="9.49058790">
        <ele>628.8</ele>
        <time>2010-08-30T18:54:11Z</time>
      </trkpt><trkpt lat="46.33127874" lon="9.49232211">
        <ele>628.8</ele>
        <time>2010-08-30T18:55:05Z</time>
      </trkpt><trkpt lat="46.33227485" lon="9.51181691">
        <ele>661.5</ele>
        <time>2010-08-30T19:02:44Z</time>
      </trkpt><trkpt lat="46.33421819" lon="9.52203177">
        <ele>707.2</ele>
        <time>2010-08-30T19:06:52Z</time>
      </trkpt><trkpt lat="46.33344354" lon="9.53056949">
        <ele>750.9</ele>
        <time>2010-08-30T19:10:14Z</time>
      </trkpt><trkpt lat="46.33641450" lon="9.54387602">
        <ele>776.9</ele>
        <time>2010-08-30T19:15:43Z</time>
      </trkpt><trkpt lat="46.33713359" lon="9.55780506">
        <ele>812.5</ele>
        <time>2010-08-30T19:21:10Z</time>
      </trkpt><trkpt lat="46.33955956" lon="9.56378765">
        <ele>859.1</ele>
        <time>2010-08-30T19:23:53Z</time>
      </trkpt><trkpt lat="46.33904642" lon="9.56968113">
        <ele>892.7</ele>
        <time>2010-08-30T19:26:13Z</time>
      </trkpt><trkpt lat="46.34005686" lon="9.57951662">
        <ele>946.6</ele>
        <time>2010-08-30T19:30:06Z</time>
      </trkpt><trkpt lat="46.34178085" lon="9.58760658">
        <ele>967.2</ele>
        <time>2010-08-30T19:33:25Z</time>
      </trkpt><trkpt lat="46.34885526" lon="9.60504849">
        <ele>1016.3</ele>
        <time>2010-08-30T19:41:20Z</time>
      </trkpt><trkpt lat="46.34998799" lon="9.62295785">
        <ele>1053.3</ele>
        <time>2010-08-30T19:48:22Z</time>
      </trkpt><trkpt lat="46.35137938" lon="9.62844833">
        <ele>1071</ele>
        <time>2010-08-30T19:50:39Z</time>
      </trkpt><trkpt lat="46.35638765" lon="9.63834501">
        <ele>1120.6</ele>
        <time>2010-08-30T19:55:27Z</time>
      </trkpt><trkpt lat="46.35919995" lon="9.64181663">
        <ele>1149.9</ele>
        <time>2010-08-30T19:57:32Z</time>
      </trkpt><trkpt lat="46.35866309" lon="9.64430655">
        <ele>1174.4</ele>
        <time>2010-08-30T19:58:34Z</time>
      </trkpt><trkpt lat="46.36217595" lon="9.64651611">
        <ele>1205.2</ele>
        <time>2010-08-30T20:00:44Z</time>
      </trkpt><trkpt lat="46.36084339" lon="9.64807397">
        <ele>1222.9</ele>
        <time>2010-08-30T20:01:42Z</time>
      </trkpt><trkpt lat="46.36397998" lon="9.65020490">
        <ele>1252.3</ele>
        <time>2010-08-30T20:03:40Z</time>
      </trkpt><trkpt lat="46.36265430" lon="9.65140116">
        <ele>1269.6</ele>
        <time>2010-08-30T20:04:33Z</time>
      </trkpt><trkpt lat="46.36433873" lon="9.65333965">
        <ele>1292.1</ele>
        <time>2010-08-30T20:05:46Z</time>
      </trkpt><trkpt lat="46.36634963" lon="9.65390157">
        <ele>1308</ele>
        <time>2010-08-30T20:06:56Z</time>
      </trkpt><trkpt lat="46.36532813" lon="9.65658797">
        <ele>1331.1</ele>
        <time>2010-08-30T20:08:07Z</time>
      </trkpt><trkpt lat="46.37207363" lon="9.65969288">
        <ele>1394.5</ele>
        <time>2010-08-30T20:12:08Z</time>
      </trkpt><trkpt lat="46.38236929" lon="9.66144377">
        <ele>1415.2</ele>
        <time>2010-08-30T20:18:00Z</time>
      </trkpt><trkpt lat="46.39007343" lon="9.66543809">
        <ele>1425.3</ele>
        <time>2010-08-30T20:22:39Z</time>
      </trkpt><trkpt lat="46.39332368" lon="9.66860133">
        <ele>1444.5</ele>
        <time>2010-08-30T20:24:52Z</time>
      </trkpt><trkpt lat="46.39469614" lon="9.67637329">
        <ele>1505.1</ele>
        <time>2010-08-30T20:28:00Z</time>
      </trkpt><trkpt lat="46.39709906" lon="9.67880094">
        <ele>1516.6</ele>
        <time>2010-08-30T20:29:39Z</time>
      </trkpt><trkpt lat="46.39861945" lon="9.68241287">
        <ele>1523.3</ele>
        <time>2010-08-30T20:31:19Z</time>
      </trkpt><trkpt lat="46.39736192" lon="9.68745961">
        <ele>1536.3</ele>
        <time>2010-08-30T20:33:24Z</time>
      </trkpt><trkpt lat="46.39868559" lon="9.68673558">
        <ele>1549.8</ele>
        <time>2010-08-30T20:34:12Z</time>
      </trkpt><trkpt lat="46.39845760" lon="9.68760562">
        <ele>1557.5</ele>
        <time>2010-08-30T20:34:34Z</time>
      </trkpt><trkpt lat="46.39727852" lon="9.69003361">
        <ele>1577.2</ele>
        <time>2010-08-30T20:35:44Z</time>
      </trkpt><trkpt lat="46.39485849" lon="9.68990184">
        <ele>1631</ele>
        <time>2010-08-30T20:37:06Z</time>
      </trkpt><trkpt lat="46.39576693" lon="9.69170756">
        <ele>1665.6</ele>
        <time>2010-08-30T20:37:59Z</time>
      </trkpt><trkpt lat="46.39479379" lon="9.69052713">
        <ele>1675.7</ele>
        <time>2010-08-30T20:38:42Z</time>
      </trkpt><trkpt lat="46.39474542" lon="9.69181904">
        <ele>1706.5</ele>
        <time>2010-08-30T20:39:12Z</time>
      </trkpt><trkpt lat="46.39644100" lon="9.69477492">
        <ele>1755</ele>
        <time>2010-08-30T20:40:42Z</time>
      </trkpt><trkpt lat="46.40018285" lon="9.69575183">
        <ele>1779.1</ele>
        <time>2010-08-30T20:42:52Z</time>
      </trkpt><trkpt lat="46.40472400" lon="9.69476041">
        <ele>1773.8</ele>
        <time>2010-08-30T20:45:28Z</time>
      </trkpt><trkpt lat="46.40550435" lon="9.69546441">
        <ele>1773.8</ele>
        <time>2010-08-30T20:45:59Z</time>
      </trkpt><trkpt lat="46.41397653" lon="9.71406620">
        <ele>1772.8</ele>
        <time>2010-08-30T20:54:41Z</time>
      </trkpt><trkpt lat="46.41857115" lon="9.72699897">
        <ele>1778.1</ele>
        <time>2010-08-30T21:00:22Z</time>
      </trkpt><trkpt lat="46.42202299" lon="9.72637653">
        <ele>1769.9</ele>
        <time>2010-08-30T21:02:21Z</time>
      </trkpt><trkpt lat="46.42397413" lon="9.72713200">
        <ele>1773.8</ele>
        <time>2010-08-30T21:03:29Z</time>
      </trkpt><trkpt lat="46.42864645" lon="9.73453791">
        <ele>1779.5</ele>
        <time>2010-08-30T21:07:25Z</time>
      </trkpt><trkpt lat="46.43277035" lon="9.74538242">
        <ele>1771.8</ele>
        <time>2010-08-30T21:12:15Z</time>
      </trkpt><trkpt lat="46.43310839" lon="9.74968887">
        <ele>1774.3</ele>
        <time>2010-08-30T21:13:56Z</time>
      </trkpt><trkpt lat="46.44263660" lon="9.77488311">
        <ele>1769.4</ele>
        <time>2010-08-30T21:25:10Z</time>
      </trkpt><trkpt lat="46.44768494" lon="9.78285807">
        <ele>1772.8</ele>
        <time>2010-08-30T21:29:23Z</time>
      </trkpt><trkpt lat="46.45567624" lon="9.79049818">
        <ele>1774.3</ele>
        <time>2010-08-30T21:34:49Z</time>
      </trkpt><trkpt lat="46.45834010" lon="9.79741811">
        <ele>1784.8</ele>
        <time>2010-08-30T21:37:54Z</time>
      </trkpt><trkpt lat="46.46015671" lon="9.79822948">
        <ele>1783.9</ele>
        <time>2010-08-30T21:38:59Z</time>
      </trkpt><trkpt lat="46.46295106" lon="9.79741283">
        <ele>1781</ele>
        <time>2010-08-30T21:40:36Z</time>
      </trkpt><trkpt lat="46.46484370" lon="9.79797894">
        <ele>1779.1</ele>
        <time>2010-08-30T21:41:41Z</time>
      </trkpt><trkpt lat="46.46751929" lon="9.80168534">
        <ele>1779.5</ele>
        <time>2010-08-30T21:43:47Z</time>
      </trkpt><trkpt lat="46.47109827" lon="9.80345911">
        <ele>1778.6</ele>
        <time>2010-08-30T21:45:56Z</time>
      </trkpt><trkpt lat="46.47315695" lon="9.80623671">
        <ele>1783.4</ele>
        <time>2010-08-30T21:47:31Z</time>
      </trkpt><trkpt lat="46.47670904" lon="9.81975244">
        <ele>1778.1</ele>
        <time>2010-08-30T21:53:10Z</time>
      </trkpt><trkpt lat="46.47984890" lon="9.82514762">
        <ele>1766.1</ele>
        <time>2010-08-30T21:55:55Z</time>
      </trkpt><trkpt lat="46.48183248" lon="9.83122828">
        <ele>1761.8</ele>
        <time>2010-08-30T21:58:33Z</time>
      </trkpt><trkpt lat="46.48370860" lon="9.83401241">
        <ele>1759.8</ele>
        <time>2010-08-30T22:00:04Z</time>
      </trkpt><trkpt lat="46.48645602" lon="9.83570187">
        <ele>1759.4</ele>
        <time>2010-08-30T22:01:45Z</time>
      </trkpt><trkpt lat="46.48818520" lon="9.83643117">
        <ele>1760.8</ele>
        <time>2010-08-30T22:02:47Z</time>
      </trkpt><trkpt lat="46.49078058" lon="9.83551461">
        <ele>1760.3</ele>
        <time>2010-08-30T22:04:17Z</time>
      </trkpt><trkpt lat="46.49349170" lon="9.83655556">
        <ele>1757.9</ele>
        <time>2010-08-30T22:05:53Z</time>
      </trkpt><trkpt lat="46.49838263" lon="9.84845535">
        <ele>1755.5</ele>
        <time>2010-08-30T22:11:17Z</time>
      </trkpt><trkpt lat="46.50902152" lon="9.86112703">
        <ele>1714.2</ele>
        <time>2010-08-30T22:19:05Z</time>
      </trkpt><trkpt lat="46.51203574" lon="9.87315347">
        <ele>1715.1</ele>
        <time>2010-08-30T22:24:04Z</time>
      </trkpt><trkpt lat="46.51092933" lon="9.87928868">
        <ele>1721.4</ele>
        <time>2010-08-30T22:26:33Z</time>
      </trkpt><trkpt lat="46.50586431" lon="9.88609973">
        <ele>1744</ele>
        <time>2010-08-30T22:30:27Z</time>
      </trkpt><trkpt lat="46.49831951" lon="9.89055924">
        <ele>1751.2</ele>
        <time>2010-08-30T22:35:04Z</time>
      </trkpt><trkpt lat="46.49148524" lon="9.89841719">
        <ele>1768.5</ele>
        <time>2010-08-30T22:40:00Z</time>
      </trkpt><trkpt lat="46.49027825" lon="9.89748973">
        <ele>1769.4</ele>
        <time>2010-08-30T22:40:47Z</time>
      </trkpt><trkpt lat="46.49144710" lon="9.89738706">
        <ele>1768</ele>
        <time>2010-08-30T22:41:27Z</time>
      </trkpt><trkpt lat="46.49092047" lon="9.89636765">
        <ele>1769</ele>
        <time>2010-08-30T22:41:56Z</time>
      </trkpt><trkpt lat="46.49090446" lon="9.89678750">
        <ele>1713.7</ele>
        <time>2010-08-30T22:42:06Z</time>
      </trkpt><trkpt lat="46.49032812" lon="9.89709855">
        <ele>1743.5</ele>
        <time>2010-08-30T22:42:27Z</time>
      </trkpt><trkpt lat="46.49065158" lon="9.90234663">
        <ele>1763.2</ele>
        <time>2010-08-30T22:44:31Z</time>
      </trkpt><trkpt lat="46.49008463" lon="9.90349067">
        <ele>1774.3</ele>
        <time>2010-08-30T22:45:04Z</time>
      </trkpt><trkpt lat="46.48847580" lon="9.90632057">
        <ele>1795.4</ele>
        <time>2010-08-30T22:46:29Z</time>
      </trkpt><trkpt lat="46.48532798" lon="9.90926790">
        <ele>1792.5</ele>
        <time>2010-08-30T22:48:37Z</time>
      </trkpt><trkpt lat="46.47896612" lon="9.92017661">
        <ele>1806.9</ele>
        <time>2010-08-30T22:54:11Z</time>
      </trkpt><trkpt lat="46.46827274" lon="9.92910150">
        <ele>1839.6</ele>
        <time>2010-08-30T23:01:11Z</time>
      </trkpt><trkpt lat="46.46303128" lon="9.93514896">
        <ele>1853.6</ele>
        <time>2010-08-30T23:04:58Z</time>
      </trkpt><trkpt lat="46.45808436" lon="9.93853407">
        <ele>1852.6</ele>
        <time>2010-08-30T23:08:04Z</time>
      </trkpt><trkpt lat="46.45596886" lon="9.94105912">
        <ele>1860.3</ele>
        <time>2010-08-30T23:09:37Z</time>
      </trkpt><trkpt lat="46.45354271" lon="9.94138241">
        <ele>1866.1</ele>
        <time>2010-08-30T23:11:00Z</time>
      </trkpt><trkpt lat="46.45630195" lon="9.94072602">
        <ele>1860.8</ele>
        <time>2010-08-30T23:12:35Z</time>
      </trkpt><trkpt lat="46.46268603" lon="9.93535498">
        <ele>1858.4</ele>
        <time>2010-08-30T23:16:46Z</time>
      </trkpt><trkpt lat="46.46131324" lon="9.93877212">
        <ele>1879.5</ele>
        <time>2010-08-30T23:18:19Z</time>
      </trkpt><trkpt lat="46.45719178" lon="9.94170251">
        <ele>1913.6</ele>
        <time>2010-08-30T23:20:55Z</time>
      </trkpt><trkpt lat="46.45701081" lon="9.94225740">
        <ele>1921.8</ele>
        <time>2010-08-30T23:21:09Z</time>
      </trkpt><trkpt lat="46.45798387" lon="9.94209764">
        <ele>1930</ele>
        <time>2010-08-30T23:21:42Z</time>
      </trkpt><trkpt lat="46.45736293" lon="9.94274086">
        <ele>1949.2</ele>
        <time>2010-08-30T23:22:08Z</time>
      </trkpt><trkpt lat="46.45813466" lon="9.94232655">
        <ele>1942</ele>
        <time>2010-08-30T23:22:36Z</time>
      </trkpt><trkpt lat="46.45700511" lon="9.94196688">
        <ele>1928.1</ele>
        <time>2010-08-30T23:23:16Z</time>
      </trkpt><trkpt lat="46.46123495" lon="9.93887697">
        <ele>1898.7</ele>
        <time>2010-08-30T23:25:57Z</time>
      </trkpt><trkpt lat="46.46284596" lon="9.93540737">
        <ele>1878.6</ele>
        <time>2010-08-30T23:27:35Z</time>
      </trkpt><trkpt lat="46.46763102" lon="9.92975730">
        <ele>1865.1</ele>
        <time>2010-08-30T23:31:04Z</time>
      </trkpt><trkpt lat="46.47866093" lon="9.92052773">
        <ele>1833.9</ele>
        <time>2010-08-30T23:38:17Z</time>
      </trkpt><trkpt lat="46.48769763" lon="9.90480077">
        <ele>1806.9</ele>
        <time>2010-08-30T23:46:16Z</time>
      </trkpt><trkpt lat="46.49009116" lon="9.90228477">
        <ele>1789.2</ele>
        <time>2010-08-30T23:47:57Z</time>
      </trkpt><trkpt lat="46.49219058" lon="9.89686461">
        <ele>1769</ele>
        <time>2010-08-30T23:50:22Z</time>
      </trkpt><trkpt lat="46.49812572" lon="9.89071942">
        <ele>1753.1</ele>
        <time>2010-08-30T23:54:30Z</time>
      </trkpt><trkpt lat="46.50576842" lon="9.88615145">
        <ele>1751.2</ele>
        <time>2010-08-30T23:59:11Z</time>
      </trkpt><trkpt lat="46.51162033" lon="9.87870170">
        <ele>1728.1</ele>
        <time>2010-08-31T00:03:36Z</time>
      </trkpt><trkpt lat="46.53020352" lon="9.87176911">
        <ele>1707.4</ele>
        <time>2010-08-31T00:14:28Z</time>
      </trkpt><trkpt lat="46.54053254" lon="9.88610359">
        <ele>1707.4</ele>
        <time>2010-08-31T00:22:33Z</time>
      </trkpt><trkpt lat="46.55224264" lon="9.89243461">
        <ele>1709.8</ele>
        <time>2010-08-31T00:29:38Z</time>
      </trkpt><trkpt lat="46.56099528" lon="9.90609569">
        <ele>1696.9</ele>
        <time>2010-08-31T00:36:55Z</time>
      </trkpt><trkpt lat="46.56580724" lon="9.90997315">
        <ele>1698.3</ele>
        <time>2010-08-31T00:40:02Z</time>
      </trkpt><trkpt lat="46.57754115" lon="9.92426053">
        <ele>1689.2</ele>
        <time>2010-08-31T00:48:42Z</time>
      </trkpt><trkpt lat="46.58327496" lon="9.92949310">
        <ele>1687.3</ele>
        <time>2010-08-31T00:52:32Z</time>
      </trkpt><trkpt lat="46.58442881" lon="9.93349931">
        <ele>1684.4</ele>
        <time>2010-08-31T00:54:13Z</time>
      </trkpt><trkpt lat="46.58400536" lon="9.93657589">
        <ele>1684.4</ele>
        <time>2010-08-31T00:55:27Z</time>
      </trkpt><trkpt lat="46.58533649" lon="9.94260701">
        <ele>1682.9</ele>
        <time>2010-08-31T00:57:55Z</time>
      </trkpt><trkpt lat="46.59102269" lon="9.94898547">
        <ele>1680.5</ele>
        <time>2010-08-31T01:01:59Z</time>
      </trkpt><trkpt lat="46.59691466" lon="9.96415177">
        <ele>1675.7</ele>
        <time>2010-08-31T01:08:46Z</time>
      </trkpt><trkpt lat="46.60228562" lon="9.97412413">
        <ele>1675.7</ele>
        <time>2010-08-31T01:13:42Z</time>
      </trkpt><trkpt lat="46.60746111" lon="9.98004218">
        <ele>1675.7</ele>
        <time>2010-08-31T01:17:25Z</time>
      </trkpt><trkpt lat="46.61239336" lon="9.99017137">
        <ele>1669.5</ele>
        <time>2010-08-31T01:22:15Z</time>
      </trkpt><trkpt lat="46.61832699" lon="9.99473540">
        <ele>1671.9</ele>
        <time>2010-08-31T01:26:03Z</time>
      </trkpt><trkpt lat="46.62574531" lon="10.00587009">
        <ele>1671.4</ele>
        <time>2010-08-31T01:32:06Z</time>
      </trkpt><trkpt lat="46.63035594" lon="10.00858474">
        <ele>1660.8</ele>
        <time>2010-08-31T01:34:55Z</time>
      </trkpt><trkpt lat="46.63189587" lon="10.01260009">
        <ele>1645</ele>
        <time>2010-08-31T01:36:42Z</time>
      </trkpt><trkpt lat="46.63530127" lon="10.01526050">
        <ele>1652.6</ele>
        <time>2010-08-31T01:38:53Z</time>
      </trkpt><trkpt lat="46.63690028" lon="10.02035461">
        <ele>1635.8</ele>
        <time>2010-08-31T01:41:04Z</time>
      </trkpt><trkpt lat="46.63861631" lon="10.02161726">
        <ele>1629.6</ele>
        <time>2010-08-31T01:42:10Z</time>
      </trkpt><trkpt lat="46.64346306" lon="10.02251990">
        <ele>1629.1</ele>
        <time>2010-08-31T01:44:56Z</time>
      </trkpt><trkpt lat="46.64594167" lon="10.02448697">
        <ele>1629.6</ele>
        <time>2010-08-31T01:46:32Z</time>
      </trkpt><trkpt lat="46.65417195" lon="10.03365040">
        <ele>1630.5</ele>
        <time>2010-08-31T01:52:24Z</time>
      </trkpt><trkpt lat="46.65850003" lon="10.03710341">
        <ele>1633.4</ele>
        <time>2010-08-31T01:55:12Z</time>
      </trkpt><trkpt lat="46.65946126" lon="10.03703442">
        <ele>1632</ele>
        <time>2010-08-31T01:55:44Z</time>
      </trkpt><trkpt lat="46.65951223" lon="10.03986432">
        <ele>1630.5</ele>
        <time>2010-08-31T01:56:50Z</time>
      </trkpt><trkpt lat="46.66024103" lon="10.04066915">
        <ele>1629.1</ele>
        <time>2010-08-31T01:57:21Z</time>
      </trkpt><trkpt lat="46.66334477" lon="10.04182913">
        <ele>1623.3</ele>
        <time>2010-08-31T01:59:10Z</time>
      </trkpt><trkpt lat="46.66565289" lon="10.04441176">
        <ele>1618.5</ele>
        <time>2010-08-31T02:00:49Z</time>
      </trkpt><trkpt lat="46.66941368" lon="10.05094905">
        <ele>1599.8</ele>
        <time>2010-08-31T02:04:08Z</time>
      </trkpt><trkpt lat="46.67208558" lon="10.05819823">
        <ele>1553.6</ele>
        <time>2010-08-31T02:07:20Z</time>
      </trkpt><trkpt lat="46.67309720" lon="10.05846930">
        <ele>1545.9</ele>
        <time>2010-08-31T02:07:55Z</time>
      </trkpt><trkpt lat="46.67441341" lon="10.06061037">
        <ele>1532.5</ele>
        <time>2010-08-31T02:09:02Z</time>
      </trkpt><trkpt lat="46.67476058" lon="10.06463838">
        <ele>1522.9</ele>
        <time>2010-08-31T02:10:37Z</time>
      </trkpt><trkpt lat="46.68077929" lon="10.07762966">
        <ele>1506</ele>
        <time>2010-08-31T02:16:43Z</time>
      </trkpt><trkpt lat="46.68910814" lon="10.08464808">
        <ele>1497.4</ele>
        <time>2010-08-31T02:22:10Z</time>
      </trkpt><trkpt lat="46.69137972" lon="10.08903265">
        <ele>1492.1</ele>
        <time>2010-08-31T02:24:18Z</time>
      </trkpt><trkpt lat="46.69889812" lon="10.09120180">
        <ele>1479.6</ele>
        <time>2010-08-31T02:28:38Z</time>
      </trkpt><trkpt lat="46.70022170" lon="10.09450670">
        <ele>1481.5</ele>
        <time>2010-08-31T02:30:08Z</time>
      </trkpt><trkpt lat="46.70106367" lon="10.09484517">
        <ele>1483.5</ele>
        <time>2010-08-31T02:30:37Z</time>
      </trkpt><trkpt lat="46.70431509" lon="10.08940741">
        <ele>1472.9</ele>
        <time>2010-08-31T02:33:25Z</time>
      </trkpt><trkpt lat="46.71548507" lon="10.08243400">
        <ele>1462.3</ele>
        <time>2010-08-31T02:40:18Z</time>
      </trkpt><trkpt lat="46.71775723" lon="10.07798203">
        <ele>1463.3</ele>
        <time>2010-08-31T02:42:28Z</time>
      </trkpt><trkpt lat="46.72049359" lon="10.07665157">
        <ele>1461.3</ele>
        <time>2010-08-31T02:44:06Z</time>
      </trkpt><trkpt lat="46.72348232" lon="10.07751189">
        <ele>1460.4</ele>
        <time>2010-08-31T02:45:49Z</time>
      </trkpt><trkpt lat="46.72436075" lon="10.07970468">
        <ele>1457.5</ele>
        <time>2010-08-31T02:46:49Z</time>
      </trkpt><trkpt lat="46.72521872" lon="10.07987391">
        <ele>1459.4</ele>
        <time>2010-08-31T02:47:18Z</time>
      </trkpt><trkpt lat="46.73421736" lon="10.07838152">
        <ele>1454.1</ele>
        <time>2010-08-31T02:52:26Z</time>
      </trkpt><trkpt lat="46.74122849" lon="10.07960561">
        <ele>1451.7</ele>
        <time>2010-08-31T02:56:26Z</time>
      </trkpt><trkpt lat="46.74718115" lon="10.07769504">
        <ele>1438.8</ele>
        <time>2010-08-31T02:59:53Z</time>
      </trkpt><trkpt lat="46.75135609" lon="10.08077622">
        <ele>1430.1</ele>
        <time>2010-08-31T03:02:32Z</time>
      </trkpt><trkpt lat="46.75420988" lon="10.08178381">
        <ele>1430.1</ele>
        <time>2010-08-31T03:04:12Z</time>
      </trkpt><trkpt lat="46.75714924" lon="10.08756372">
        <ele>1429.1</ele>
        <time>2010-08-31T03:07:00Z</time>
      </trkpt><trkpt lat="46.76015583" lon="10.09060778">
        <ele>1421</ele>
        <time>2010-08-31T03:09:04Z</time>
      </trkpt><trkpt lat="46.76083510" lon="10.09332578">
        <ele>1422.9</ele>
        <time>2010-08-31T03:10:11Z</time>
      </trkpt><trkpt lat="46.76367606" lon="10.09813774">
        <ele>1426.3</ele>
        <time>2010-08-31T03:12:39Z</time>
      </trkpt><trkpt lat="46.76446891" lon="10.10627456">
        <ele>1431.1</ele>
        <time>2010-08-31T03:15:51Z</time>
      </trkpt><trkpt lat="46.76948891" lon="10.11028748">
        <ele>1448.8</ele>
        <time>2010-08-31T03:19:05Z</time>
      </trkpt><trkpt lat="46.77040087" lon="10.11248522">
        <ele>1447.9</ele>
        <time>2010-08-31T03:20:05Z</time>
      </trkpt><trkpt lat="46.76958296" lon="10.11795533">
        <ele>1434.4</ele>
        <time>2010-08-31T03:22:16Z</time>
      </trkpt><trkpt lat="46.77065216" lon="10.12040804">
        <ele>1433.5</ele>
        <time>2010-08-31T03:23:23Z</time>
      </trkpt><trkpt lat="46.77021504" lon="10.12572276">
        <ele>1432</ele>
        <time>2010-08-31T03:25:28Z</time>
      </trkpt><trkpt lat="46.77214832" lon="10.13471034">
        <ele>1420.5</ele>
        <time>2010-08-31T03:29:07Z</time>
      </trkpt><trkpt lat="46.77051955" lon="10.14232731">
        <ele>1408.5</ele>
        <time>2010-08-31T03:32:13Z</time>
      </trkpt><trkpt lat="46.76970005" lon="10.14250081">
        <ele>1412.3</ele>
        <time>2010-08-31T03:32:41Z</time>
      </trkpt><trkpt lat="46.77255292" lon="10.16086900">
        <ele>1440.2</ele>
        <time>2010-08-31T03:40:00Z</time>
      </trkpt><trkpt lat="46.77156419" lon="10.16897874">
        <ele>1445</ele>
        <time>2010-08-31T03:43:12Z</time>
      </trkpt><trkpt lat="46.77390576" lon="10.17471196">
        <ele>1455.1</ele>
        <time>2010-08-31T03:45:47Z</time>
      </trkpt><trkpt lat="46.77399159" lon="10.18194806">
        <ele>1470</ele>
        <time>2010-08-31T03:48:35Z</time>
      </trkpt><trkpt lat="46.77501343" lon="10.18433238">
        <ele>1473.8</ele>
        <time>2010-08-31T03:49:41Z</time>
      </trkpt><trkpt lat="46.77369118" lon="10.19418698">
        <ele>1454.6</ele>
        <time>2010-08-31T03:53:35Z</time>
      </trkpt><trkpt lat="46.77401129" lon="10.19836418">
        <ele>1441.6</ele>
        <time>2010-08-31T03:55:13Z</time>
      </trkpt><trkpt lat="46.77255686" lon="10.20358393">
        <ele>1438.8</ele>
        <time>2010-08-31T03:57:24Z</time>
      </trkpt><trkpt lat="46.77223717" lon="10.21344340">
        <ele>1415.2</ele>
        <time>2010-08-31T04:01:14Z</time>
      </trkpt><trkpt lat="46.77628982" lon="10.22173494">
        <ele>1367.6</ele>
        <time>2010-08-31T04:05:11Z</time>
      </trkpt><trkpt lat="46.77844313" lon="10.22428949">
        <ele>1346.9</ele>
        <time>2010-08-31T04:06:45Z</time>
      </trkpt><trkpt lat="46.78030685" lon="10.22510908">
        <ele>1330.1</ele>
        <time>2010-08-31T04:07:51Z</time>
      </trkpt><trkpt lat="46.78012245" lon="10.22598641">
        <ele>1323.9</ele>
        <time>2010-08-31T04:08:13Z</time>
      </trkpt><trkpt lat="46.77828312" lon="10.22681236">
        <ele>1310.4</ele>
        <time>2010-08-31T04:09:18Z</time>
      </trkpt><trkpt lat="46.77650406" lon="10.23014803">
        <ele>1291.2</ele>
        <time>2010-08-31T04:10:56Z</time>
      </trkpt><trkpt lat="46.77684395" lon="10.23702219">
        <ele>1259.9</ele>
        <time>2010-08-31T04:13:37Z</time>
      </trkpt><trkpt lat="46.77890959" lon="10.24010380">
        <ele>1244.6</ele>
        <time>2010-08-31T04:15:17Z</time>
      </trkpt><trkpt lat="46.77942357" lon="10.24604213">
        <ele>1239.3</ele>
        <time>2010-08-31T04:17:37Z</time>
      </trkpt><trkpt lat="46.78401970" lon="10.25153387">
        <ele>1231.1</ele>
        <time>2010-08-31T04:20:59Z</time>
      </trkpt><trkpt lat="46.78406278" lon="10.25434767">
        <ele>1227.7</ele>
        <time>2010-08-31T04:22:04Z</time>
      </trkpt><trkpt lat="46.78568476" lon="10.25768241">
        <ele>1226.3</ele>
        <time>2010-08-31T04:23:39Z</time>
      </trkpt><trkpt lat="46.78749274" lon="10.26803741">
        <ele>1217.2</ele>
        <time>2010-08-31T04:27:48Z</time>
      </trkpt><trkpt lat="46.79004000" lon="10.27580048">
        <ele>1222</ele>
        <time>2010-08-31T04:31:08Z</time>
      </trkpt><trkpt lat="46.78941002" lon="10.27811900">
        <ele>1225.8</ele>
        <time>2010-08-31T04:32:06Z</time>
      </trkpt><trkpt lat="46.79036513" lon="10.28187811">
        <ele>1246</ele>
        <time>2010-08-31T04:33:40Z</time>
      </trkpt><trkpt lat="46.78998661" lon="10.28578249">
        <ele>1271</ele>
        <time>2010-08-31T04:35:12Z</time>
      </trkpt><trkpt lat="46.79291726" lon="10.28955460">
        <ele>1281.1</ele>
        <time>2010-08-31T04:37:24Z</time>
      </trkpt><trkpt lat="46.79647923" lon="10.29144287">
        <ele>1296.5</ele>
        <time>2010-08-31T04:39:33Z</time>
      </trkpt><trkpt lat="46.79923771" lon="10.29772779">
        <ele>1301.8</ele>
        <time>2010-08-31T04:42:27Z</time>
      </trkpt><trkpt lat="46.80058049" lon="10.30615579">
        <ele>1276.3</ele>
        <time>2010-08-31T04:45:48Z</time>
      </trkpt><trkpt lat="46.80173594" lon="10.31127890">
        <ele>1255.1</ele>
        <time>2010-08-31T04:47:54Z</time>
      </trkpt><trkpt lat="46.80617843" lon="10.31884541">
        <ele>1257.1</ele>
        <time>2010-08-31T04:51:46Z</time>
      </trkpt><trkpt lat="46.81092745" lon="10.33148314">
        <ele>1259.9</ele>
        <time>2010-08-31T04:57:21Z</time>
      </trkpt><trkpt lat="46.81048447" lon="10.33974711">
        <ele>1259.5</ele>
        <time>2010-08-31T05:00:34Z</time>
      </trkpt><trkpt lat="46.81614351" lon="10.35504785">
        <ele>1260.4</ele>
        <time>2010-08-31T05:07:19Z</time>
      </trkpt><trkpt lat="46.82756486" lon="10.37024173">
        <ele>1215.2</ele>
        <time>2010-08-31T05:16:04Z</time>
      </trkpt><trkpt lat="46.82931886" lon="10.37526475">
        <ele>1199.4</ele>
        <time>2010-08-31T05:18:15Z</time>
      </trkpt><trkpt lat="46.83184022" lon="10.37644166">
        <ele>1188.3</ele>
        <time>2010-08-31T05:19:45Z</time>
      </trkpt><trkpt lat="46.83167099" lon="10.38187455">
        <ele>1190.7</ele>
        <time>2010-08-31T05:21:51Z</time>
      </trkpt><trkpt lat="46.83408430" lon="10.38993811">
        <ele>1177.8</ele>
        <time>2010-08-31T05:25:16Z</time>
      </trkpt><trkpt lat="46.83452997" lon="10.40126056">
        <ele>1158.5</ele>
        <time>2010-08-31T05:29:40Z</time>
      </trkpt><trkpt lat="46.83811633" lon="10.41283747">
        <ele>1145.1</ele>
        <time>2010-08-31T05:34:35Z</time>
      </trkpt><trkpt lat="46.83989061" lon="10.41390776">
        <ele>1142.7</ele>
        <time>2010-08-31T05:35:41Z</time>
      </trkpt><trkpt lat="46.84208525" lon="10.41708835">
        <ele>1136.4</ele>
        <time>2010-08-31T05:37:26Z</time>
      </trkpt><trkpt lat="46.84408442" lon="10.41738390">
        <ele>1132.1</ele>
        <time>2010-08-31T05:38:34Z</time>
      </trkpt><trkpt lat="46.84709251" lon="10.42080573">
        <ele>1125.8</ele>
        <time>2010-08-31T05:40:44Z</time>
      </trkpt><trkpt lat="46.85101164" lon="10.42075309">
        <ele>1119.6</ele>
        <time>2010-08-31T05:42:57Z</time>
      </trkpt><trkpt lat="46.85279405" lon="10.42173629">
        <ele>1116.7</ele>
        <time>2010-08-31T05:44:02Z</time>
      </trkpt><trkpt lat="46.85561574" lon="10.42084571">
        <ele>1098.4</ele>
        <time>2010-08-31T05:45:40Z</time>
      </trkpt><trkpt lat="46.85653883" lon="10.42126539">
        <ele>1093.2</ele>
        <time>2010-08-31T05:46:13Z</time>
      </trkpt><trkpt lat="46.86102550" lon="10.42878421">
        <ele>1080.2</ele>
        <time>2010-08-31T05:50:05Z</time>
      </trkpt><trkpt lat="46.86194282" lon="10.43466194">
        <ele>1076.8</ele>
        <time>2010-08-31T05:52:25Z</time>
      </trkpt><trkpt lat="46.86443417" lon="10.43943208">
        <ele>1082.1</ele>
        <time>2010-08-31T05:54:44Z</time>
      </trkpt><trkpt lat="46.86958082" lon="10.44416903">
        <ele>1068.6</ele>
        <time>2010-08-31T05:58:11Z</time>
      </trkpt><trkpt lat="46.87274122" lon="10.44950419">
        <ele>1072.5</ele>
        <time>2010-08-31T06:00:55Z</time>
      </trkpt><trkpt lat="46.87408635" lon="10.45622623">
        <ele>1064.3</ele>
        <time>2010-08-31T06:03:38Z</time>
      </trkpt><trkpt lat="46.88209392" lon="10.46125076">
        <ele>1055.7</ele>
        <time>2010-08-31T06:08:34Z</time>
      </trkpt><trkpt lat="46.88917713" lon="10.46813247">
        <ele>1052.3</ele>
        <time>2010-08-31T06:13:23Z</time>
      </trkpt><trkpt lat="46.89425748" lon="10.47441529">
        <ele>1052.8</ele>
        <time>2010-08-31T06:17:09Z</time>
      </trkpt><trkpt lat="46.89827644" lon="10.47551609">
        <ele>1051.3</ele>
        <time>2010-08-31T06:19:28Z</time>
      </trkpt><trkpt lat="46.89865379" lon="10.47475870">
        <ele>1051.3</ele>
        <time>2010-08-31T06:19:50Z</time>
      </trkpt><trkpt lat="46.90134254" lon="10.47488694">
        <ele>1052.3</ele>
        <time>2010-08-31T06:21:21Z</time>
      </trkpt><trkpt lat="46.90302571" lon="10.47668863">
        <ele>1054.2</ele>
        <time>2010-08-31T06:22:32Z</time>
      </trkpt><trkpt lat="46.90789526" lon="10.47778130">
        <ele>1072</ele>
        <time>2010-08-31T06:25:20Z</time>
      </trkpt><trkpt lat="46.91060538" lon="10.47701544">
        <ele>1085</ele>
        <time>2010-08-31T06:26:54Z</time>
      </trkpt><trkpt lat="46.91207992" lon="10.47832931">
        <ele>1093.2</ele>
        <time>2010-08-31T06:27:52Z</time>
      </trkpt><trkpt lat="46.91350627" lon="10.48207945">
        <ele>1102.8</ele>
        <time>2010-08-31T06:29:32Z</time>
      </trkpt><trkpt lat="46.91548164" lon="10.48198407">
        <ele>1105.2</ele>
        <time>2010-08-31T06:30:39Z</time>
      </trkpt><trkpt lat="46.92089442" lon="10.48481941">
        <ele>1102.3</ele>
        <time>2010-08-31T06:33:55Z</time>
      </trkpt><trkpt lat="46.92490013" lon="10.48538896">
        <ele>1105.7</ele>
        <time>2010-08-31T06:36:11Z</time>
      </trkpt><trkpt lat="46.92908672" lon="10.48250257">
        <ele>1160.9</ele>
        <time>2010-08-31T06:38:49Z</time>
      </trkpt><trkpt lat="46.93025851" lon="10.48070407">
        <ele>1185</ele>
        <time>2010-08-31T06:39:46Z</time>
      </trkpt><trkpt lat="46.93264408" lon="10.48162867">
        <ele>1220.5</ele>
        <time>2010-08-31T06:41:10Z</time>
      </trkpt><trkpt lat="46.93451727" lon="10.48433695">
        <ele>1235.9</ele>
        <time>2010-08-31T06:42:40Z</time>
      </trkpt><trkpt lat="46.93777917" lon="10.48423142">
        <ele>1279.2</ele>
        <time>2010-08-31T06:44:31Z</time>
      </trkpt><trkpt lat="46.93723611" lon="10.48343523">
        <ele>1285.9</ele>
        <time>2010-08-31T06:44:57Z</time>
      </trkpt><trkpt lat="46.93889497" lon="10.47474872">
        <ele>1363.3</ele>
        <time>2010-08-31T06:48:26Z</time>
      </trkpt><trkpt lat="46.94031269" lon="10.47410634">
        <ele>1384.9</ele>
        <time>2010-08-31T06:49:17Z</time>
      </trkpt><trkpt lat="46.94277496" lon="10.46996006">
        <ele>1406.5</ele>
        <time>2010-08-31T06:51:24Z</time>
      </trkpt><trkpt lat="46.94184130" lon="10.46755185">
        <ele>1408</ele>
        <time>2010-08-31T06:52:28Z</time>
      </trkpt><trkpt lat="46.94419577" lon="10.46793860">
        <ele>1430.1</ele>
        <time>2010-08-31T06:53:49Z</time>
      </trkpt><trkpt lat="46.94547108" lon="10.46607915">
        <ele>1434.4</ele>
        <time>2010-08-31T06:54:50Z</time>
      </trkpt><trkpt lat="46.94675317" lon="10.46136584">
        <ele>1442.6</ele>
        <time>2010-08-31T06:56:48Z</time>
      </trkpt><trkpt lat="46.94869794" lon="10.45823034">
        <ele>1458</ele>
        <time>2010-08-31T06:58:26Z</time>
      </trkpt><trkpt lat="46.95230878" lon="10.44494050">
        <ele>1509.4</ele>
        <time>2010-08-31T07:03:58Z</time>
      </trkpt><trkpt lat="46.95353925" lon="10.43716846">
        <ele>1530.1</ele>
        <time>2010-08-31T07:07:03Z</time>
      </trkpt><trkpt lat="46.95492897" lon="10.43557649">
        <ele>1521.9</ele>
        <time>2010-08-31T07:08:03Z</time>
      </trkpt><trkpt lat="46.95429613" lon="10.43238541">
        <ele>1515.2</ele>
        <time>2010-08-31T07:09:20Z</time>
      </trkpt><trkpt lat="46.95514019" lon="10.43242741">
        <ele>1514.2</ele>
        <time>2010-08-31T07:09:49Z</time>
      </trkpt><trkpt lat="46.95557085" lon="10.42874976">
        <ele>1517.1</ele>
        <time>2010-08-31T07:11:16Z</time>
      </trkpt><trkpt lat="46.96027997" lon="10.42119431">
        <ele>1518.5</ele>
        <time>2010-08-31T07:15:13Z</time>
      </trkpt><trkpt lat="46.95781796" lon="10.42974779">
        <ele>1579.6</ele>
        <time>2010-08-31T07:18:48Z</time>
      </trkpt><trkpt lat="46.95805910" lon="10.44087703">
        <ele>1632</ele>
        <time>2010-08-31T07:23:07Z</time>
      </trkpt><trkpt lat="46.95685328" lon="10.44312196">
        <ele>1622.8</ele>
        <time>2010-08-31T07:24:13Z</time>
      </trkpt><trkpt lat="46.95749760" lon="10.44533252">
        <ele>1605.5</ele>
        <time>2010-08-31T07:25:09Z</time>
      </trkpt><trkpt lat="46.95595265" lon="10.44658184">
        <ele>1588.2</ele>
        <time>2010-08-31T07:26:09Z</time>
      </trkpt><trkpt lat="46.95460006" lon="10.45029804">
        <ele>1563.2</ele>
        <time>2010-08-31T07:27:47Z</time>
      </trkpt><trkpt lat="46.95644140" lon="10.45346045">
        <ele>1548.8</ele>
        <time>2010-08-31T07:29:23Z</time>
      </trkpt><trkpt lat="46.95590822" lon="10.45584653">
        <ele>1548.8</ele>
        <time>2010-08-31T07:30:21Z</time>
      </trkpt><trkpt lat="46.95269745" lon="10.46080702">
        <ele>1524.8</ele>
        <time>2010-08-31T07:33:00Z</time>
      </trkpt><trkpt lat="46.95005070" lon="10.46978002">
        <ele>1452.2</ele>
        <time>2010-08-31T07:36:47Z</time>
      </trkpt><trkpt lat="46.94799453" lon="10.47269876">
        <ele>1421</ele>
        <time>2010-08-31T07:38:24Z</time>
      </trkpt><trkpt lat="46.94492341" lon="10.47490597">
        <ele>1406.5</ele>
        <time>2010-08-31T07:40:20Z</time>
      </trkpt><trkpt lat="46.94264370" lon="10.48147436">
        <ele>1380.6</ele>
        <time>2010-08-31T07:43:11Z</time>
      </trkpt><trkpt lat="46.94261503" lon="10.48701036">
        <ele>1349.8</ele>
        <time>2010-08-31T07:45:20Z</time>
      </trkpt><trkpt lat="46.94345163" lon="10.49038692">
        <ele>1309</ele>
        <time>2010-08-31T07:46:43Z</time>
      </trkpt><trkpt lat="46.94269181" lon="10.48998619">
        <ele>1300.3</ele>
        <time>2010-08-31T07:47:11Z</time>
      </trkpt><trkpt lat="46.94619737" lon="10.49942899">
        <ele>1193.6</ele>
        <time>2010-08-31T07:51:20Z</time>
      </trkpt><trkpt lat="46.94812982" lon="10.50107192">
        <ele>1152.3</ele>
        <time>2010-08-31T07:52:36Z</time>
      </trkpt><trkpt lat="46.94720546" lon="10.50077059">
        <ele>1130.2</ele>
        <time>2010-08-31T07:53:08Z</time>
      </trkpt><trkpt lat="46.94793754" lon="10.50156629">
        <ele>1120.1</ele>
        <time>2010-08-31T07:53:39Z</time>
      </trkpt><trkpt lat="46.94695099" lon="10.50194264">
        <ele>1097</ele>
        <time>2010-08-31T07:54:14Z</time>
      </trkpt><trkpt lat="46.95261665" lon="10.51050567">
        <ele>1017.7</ele>
        <time>2010-08-31T07:58:51Z</time>
      </trkpt><trkpt lat="46.95758804" lon="10.51430678">
        <ele>1008.1</ele>
        <time>2010-08-31T08:02:01Z</time>
      </trkpt><trkpt lat="46.95972409" lon="10.52091742">
        <ele>1008.6</ele>
        <time>2010-08-31T08:04:51Z</time>
      </trkpt><trkpt lat="46.96709957" lon="10.52961012">
        <ele>997</ele>
        <time>2010-08-31T08:10:13Z</time>
      </trkpt><trkpt lat="46.97081653" lon="10.53781500">
        <ele>992.2</ele>
        <time>2010-08-31T08:14:01Z</time>
      </trkpt><trkpt lat="46.97259374" lon="10.54606841">
        <ele>983.1</ele>
        <time>2010-08-31T08:17:22Z</time>
      </trkpt><trkpt lat="46.97586788" lon="10.55104273">
        <ele>980.7</ele>
        <time>2010-08-31T08:20:02Z</time>
      </trkpt><trkpt lat="46.97828221" lon="10.55739747">
        <ele>978.8</ele>
        <time>2010-08-31T08:22:51Z</time>
      </trkpt><trkpt lat="46.98374201" lon="10.56216141">
        <ele>974.9</ele>
        <time>2010-08-31T08:26:27Z</time>
      </trkpt><trkpt lat="46.98792123" lon="10.57158577">
        <ele>971.1</ele>
        <time>2010-08-31T08:30:48Z</time>
      </trkpt><trkpt lat="46.99407455" lon="10.57704784">
        <ele>966.7</ele>
        <time>2010-08-31T08:34:52Z</time>
      </trkpt><trkpt lat="46.99957258" lon="10.58808136">
        <ele>964.8</ele>
        <time>2010-08-31T08:40:09Z</time>
      </trkpt><trkpt lat="47.00441011" lon="10.59542793">
        <ele>960</ele>
        <time>2010-08-31T08:44:06Z</time>
      </trkpt><trkpt lat="47.01323994" lon="10.60081733">
        <ele>960</ele>
        <time>2010-08-31T08:49:31Z</time>
      </trkpt><trkpt lat="47.02277117" lon="10.61902877">
        <ele>952.3</ele>
        <time>2010-08-31T08:58:23Z</time>
      </trkpt><trkpt lat="47.02842971" lon="10.62749743">
        <ele>938.4</ele>
        <time>2010-08-31T09:02:58Z</time>
      </trkpt><trkpt lat="47.03196385" lon="10.62979331">
        <ele>936.9</ele>
        <time>2010-08-31T09:05:09Z</time>
      </trkpt><trkpt lat="47.03819102" lon="10.63041693">
        <ele>930.2</ele>
        <time>2010-08-31T09:08:42Z</time>
      </trkpt><trkpt lat="47.04009841" lon="10.63145259">
        <ele>928.8</ele>
        <time>2010-08-31T09:09:51Z</time>
      </trkpt><trkpt lat="47.04517985" lon="10.64020582">
        <ele>919.6</ele>
        <time>2010-08-31T09:14:17Z</time>
      </trkpt><trkpt lat="47.05299899" lon="10.64608631">
        <ele>907.1</ele>
        <time>2010-08-31T09:19:16Z</time>
      </trkpt><trkpt lat="47.05999537" lon="10.65773665">
        <ele>902.8</ele>
        <time>2010-08-31T09:25:15Z</time>
      </trkpt><trkpt lat="47.06467272" lon="10.65951395">
        <ele>899.9</ele>
        <time>2010-08-31T09:28:00Z</time>
      </trkpt><trkpt lat="47.06993144" lon="10.66364765">
        <ele>891.3</ele>
        <time>2010-08-31T09:31:22Z</time>
      </trkpt><trkpt lat="47.07677418" lon="10.66163063">
        <ele>886.5</ele>
        <time>2010-08-31T09:35:20Z</time>
      </trkpt><trkpt lat="47.07651484" lon="10.66487443">
        <ele>885</ele>
        <time>2010-08-31T09:36:35Z</time>
      </trkpt><trkpt lat="47.08017581" lon="10.66841369">
        <ele>886</ele>
        <time>2010-08-31T09:39:04Z</time>
      </trkpt><trkpt lat="47.08066464" lon="10.67224849">
        <ele>888.4</ele>
        <time>2010-08-31T09:40:35Z</time>
      </trkpt><trkpt lat="47.07663294" lon="10.67531920">
        <ele>933.6</ele>
        <time>2010-08-31T09:43:09Z</time>
      </trkpt><trkpt lat="47.07787120" lon="10.67724402">
        <ele>965.3</ele>
        <time>2010-08-31T09:44:10Z</time>
      </trkpt><trkpt lat="47.07710267" lon="10.68139533">
        <ele>1001.8</ele>
        <time>2010-08-31T09:45:50Z</time>
      </trkpt><trkpt lat="47.07900838" lon="10.69999494">
        <ele>1128.7</ele>
        <time>2010-08-31T09:53:05Z</time>
      </trkpt><trkpt lat="47.08118759" lon="10.69415971">
        <ele>1198.4</ele>
        <time>2010-08-31T09:55:39Z</time>
      </trkpt><trkpt lat="47.08170768" lon="10.70099532">
        <ele>1274.4</ele>
        <time>2010-08-31T09:58:19Z</time>
      </trkpt><trkpt lat="47.08329622" lon="10.70414490">
        <ele>1297.9</ele>
        <time>2010-08-31T09:59:49Z</time>
      </trkpt><trkpt lat="47.08314476" lon="10.70192051">
        <ele>1320</ele>
        <time>2010-08-31T10:00:41Z</time>
      </trkpt><trkpt lat="47.08641136" lon="10.69343107">
        <ele>1390.2</ele>
        <time>2010-08-31T10:04:27Z</time>
      </trkpt><trkpt lat="47.08594323" lon="10.69098473">
        <ele>1406.5</ele>
        <time>2010-08-31T10:05:26Z</time>
      </trkpt><trkpt lat="47.08932256" lon="10.68581938">
        <ele>1435.4</ele>
        <time>2010-08-31T10:08:12Z</time>
      </trkpt><trkpt lat="47.09457005" lon="10.68325996">
        <ele>1488.3</ele>
        <time>2010-08-31T10:11:19Z</time>
      </trkpt><trkpt lat="47.09931278" lon="10.68453997">
        <ele>1513.3</ele>
        <time>2010-08-31T10:14:03Z</time>
      </trkpt><trkpt lat="47.10589660" lon="10.68394711">
        <ele>1533.4</ele>
        <time>2010-08-31T10:17:48Z</time>
      </trkpt><trkpt lat="47.10652541" lon="10.68314631">
        <ele>1536.8</ele>
        <time>2010-08-31T10:18:16Z</time>
      </trkpt><trkpt lat="47.10622006" lon="10.68072134">
        <ele>1529.6</ele>
        <time>2010-08-31T10:19:13Z</time>
      </trkpt><trkpt lat="47.10971833" lon="10.67682266">
        <ele>1507</ele>
        <time>2010-08-31T10:21:42Z</time>
      </trkpt><trkpt lat="47.11126697" lon="10.67156168">
        <ele>1516.1</ele>
        <time>2010-08-31T10:23:55Z</time>
      </trkpt><trkpt lat="47.11351499" lon="10.66928800">
        <ele>1545.9</ele>
        <time>2010-08-31T10:25:28Z</time>
      </trkpt><trkpt lat="47.11863692" lon="10.66669732">
        <ele>1552.7</ele>
        <time>2010-08-31T10:28:32Z</time>
      </trkpt><trkpt lat="47.12104764" lon="10.66870353">
        <ele>1527.2</ele>
        <time>2010-08-31T10:30:06Z</time>
      </trkpt><trkpt lat="47.12264926" lon="10.66901945">
        <ele>1510.8</ele>
        <time>2010-08-31T10:31:01Z</time>
      </trkpt><trkpt lat="47.12318017" lon="10.67562698">
        <ele>1465.2</ele>
        <time>2010-08-31T10:33:35Z</time>
      </trkpt><trkpt lat="47.12466527" lon="10.67908645">
        <ele>1431.1</ele>
        <time>2010-08-31T10:35:09Z</time>
      </trkpt><trkpt lat="47.12679863" lon="10.68134177">
        <ele>1396.9</ele>
        <time>2010-08-31T10:36:39Z</time>
      </trkpt><trkpt lat="47.12813186" lon="10.68611409">
        <ele>1366.7</ele>
        <time>2010-08-31T10:38:38Z</time>
      </trkpt><trkpt lat="47.13441493" lon="10.69162200">
        <ele>1362.8</ele>
        <time>2010-08-31T10:42:47Z</time>
      </trkpt><trkpt lat="47.13907544" lon="10.70332322">
        <ele>1278.7</ele>
        <time>2010-08-31T10:48:00Z</time>
      </trkpt><trkpt lat="47.13934785" lon="10.70459384">
        <ele>1270</ele>
        <time>2010-08-31T10:48:31Z</time>
      </trkpt><trkpt lat="47.13766468" lon="10.70446886">
        <ele>1249.4</ele>
        <time>2010-08-31T10:49:28Z</time>
      </trkpt><trkpt lat="47.13980198" lon="10.70724964">
        <ele>1229.7</ele>
        <time>2010-08-31T10:51:06Z</time>
      </trkpt><trkpt lat="47.14161776" lon="10.70746263">
        <ele>1222.9</ele>
        <time>2010-08-31T10:52:07Z</time>
      </trkpt><trkpt lat="47.14335767" lon="10.71115326">
        <ele>1206.1</ele>
        <time>2010-08-31T10:53:51Z</time>
      </trkpt><trkpt lat="47.15023041" lon="10.71873084">
        <ele>1171</ele>
        <time>2010-08-31T10:58:43Z</time>
      </trkpt><trkpt lat="47.15028288" lon="10.72289949">
        <ele>1156.1</ele>
        <time>2010-08-31T11:00:20Z</time>
      </trkpt><trkpt lat="47.15224450" lon="10.72606651">
        <ele>1129.2</ele>
        <time>2010-08-31T11:01:59Z</time>
      </trkpt><trkpt lat="47.15498010" lon="10.72679699">
        <ele>1106.1</ele>
        <time>2010-08-31T11:03:33Z</time>
      </trkpt><trkpt lat="47.15950365" lon="10.72638301">
        <ele>1084.5</ele>
        <time>2010-08-31T11:06:07Z</time>
      </trkpt><trkpt lat="47.16529370" lon="10.72956562">
        <ele>1047</ele>
        <time>2010-08-31T11:09:37Z</time>
      </trkpt><trkpt lat="47.17341962" lon="10.73189302">
        <ele>998.5</ele>
        <time>2010-08-31T11:14:19Z</time>
      </trkpt><trkpt lat="47.17542172" lon="10.73583126">
        <ele>989.3</ele>
        <time>2010-08-31T11:16:13Z</time>
      </trkpt><trkpt lat="47.17888948" lon="10.73908855">
        <ele>978.8</ele>
        <time>2010-08-31T11:18:32Z</time>
      </trkpt><trkpt lat="47.18615056" lon="10.74857712">
        <ele>950.9</ele>
        <time>2010-08-31T11:24:03Z</time>
      </trkpt><trkpt lat="47.18970272" lon="10.75217254">
        <ele>953.8</ele>
        <time>2010-08-31T11:26:29Z</time>
      </trkpt><trkpt lat="47.19249146" lon="10.75309136">
        <ele>959.5</ele>
        <time>2010-08-31T11:28:06Z</time>
      </trkpt><trkpt lat="47.19501718" lon="10.75548573">
        <ele>962.9</ele>
        <time>2010-08-31T11:29:48Z</time>
      </trkpt><trkpt lat="47.19787742" lon="10.75681946">
        <ele>950.4</ele>
        <time>2010-08-31T11:31:30Z</time>
      </trkpt><trkpt lat="47.19876188" lon="10.75588497">
        <ele>947.5</ele>
        <time>2010-08-31T11:32:07Z</time>
      </trkpt><trkpt lat="47.20249292" lon="10.75750209">
        <ele>923.5</ele>
        <time>2010-08-31T11:34:20Z</time>
      </trkpt><trkpt lat="47.20418003" lon="10.76021724">
        <ele>900.9</ele>
        <time>2010-08-31T11:35:45Z</time>
      </trkpt><trkpt lat="47.20761678" lon="10.76157913">
        <ele>878.8</ele>
        <time>2010-08-31T11:37:46Z</time>
      </trkpt><trkpt lat="47.21185768" lon="10.75867538">
        <ele>872.5</ele>
        <time>2010-08-31T11:40:25Z</time>
      </trkpt><trkpt lat="47.21296435" lon="10.75460304">
        <ele>849</ele>
        <time>2010-08-31T11:42:06Z</time>
      </trkpt><trkpt lat="47.21280618" lon="10.75169175">
        <ele>832.6</ele>
        <time>2010-08-31T11:43:13Z</time>
      </trkpt><trkpt lat="47.21323014" lon="10.75334072">
        <ele>820.6</ele>
        <time>2010-08-31T11:43:54Z</time>
      </trkpt><trkpt lat="47.21806599" lon="10.75709858">
        <ele>778.3</ele>
        <time>2010-08-31T11:47:00Z</time>
      </trkpt><trkpt lat="47.22002610" lon="10.75605839">
        <ele>772.6</ele>
        <time>2010-08-31T11:48:11Z</time>
      </trkpt><trkpt lat="47.22141322" lon="10.75284300">
        <ele>764.4</ele>
        <time>2010-08-31T11:49:39Z</time>
      </trkpt><trkpt lat="47.22409904" lon="10.75115908">
        <ele>752.4</ele>
        <time>2010-08-31T11:51:18Z</time>
      </trkpt><trkpt lat="47.22859048" lon="10.74563038">
        <ele>759.6</ele>
        <time>2010-08-31T11:54:37Z</time>
      </trkpt><trkpt lat="47.24107264" lon="10.74299913">
        <ele>801.9</ele>
        <time>2010-08-31T12:01:46Z</time>
      </trkpt><trkpt lat="47.24601805" lon="10.74528261">
        <ele>830.7</ele>
        <time>2010-08-31T12:04:42Z</time>
      </trkpt><trkpt lat="47.24996894" lon="10.74544631">
        <ele>838.4</ele>
        <time>2010-08-31T12:06:56Z</time>
      </trkpt><trkpt lat="47.25960344" lon="10.75515792">
        <ele>836.5</ele>
        <time>2010-08-31T12:13:33Z</time>
      </trkpt><trkpt lat="47.26137462" lon="10.76139640">
        <ele>834.1</ele>
        <time>2010-08-31T12:16:09Z</time>
      </trkpt><trkpt lat="47.26343045" lon="10.76389580">
        <ele>824</ele>
        <time>2010-08-31T12:17:40Z</time>
      </trkpt><trkpt lat="47.27619885" lon="10.78837540">
        <ele>833.6</ele>
        <time>2010-08-31T12:29:32Z</time>
      </trkpt><trkpt lat="47.28121827" lon="10.80541003">
        <ele>824</ele>
        <time>2010-08-31T12:36:40Z</time>
      </trkpt><trkpt lat="47.28853500" lon="10.82095393">
        <ele>835.5</ele>
        <time>2010-08-31T12:43:56Z</time>
      </trkpt><trkpt lat="47.29373153" lon="10.82886385">
        <ele>836.5</ele>
        <time>2010-08-31T12:48:10Z</time>
      </trkpt><trkpt lat="47.29742317" lon="10.83175225">
        <ele>833.1</ele>
        <time>2010-08-31T12:50:32Z</time>
      </trkpt><trkpt lat="47.29957221" lon="10.83460403">
        <ele>842.3</ele>
        <time>2010-08-31T12:52:11Z</time>
      </trkpt><trkpt lat="47.30309487" lon="10.83599568">
        <ele>847.1</ele>
        <time>2010-08-31T12:54:15Z</time>
      </trkpt><trkpt lat="47.30530124" lon="10.84198371">
        <ele>835</ele>
        <time>2010-08-31T12:56:52Z</time>
      </trkpt><trkpt lat="47.30481735" lon="10.84164969">
        <ele>840.3</ele>
        <time>2010-08-31T12:57:10Z</time>
      </trkpt><trkpt lat="47.30727316" lon="10.83687318">
        <ele>849</ele>
        <time>2010-08-31T12:59:28Z</time>
      </trkpt><trkpt lat="47.31119413" lon="10.83480586">
        <ele>854.3</ele>
        <time>2010-08-31T13:01:50Z</time>
      </trkpt><trkpt lat="47.31746531" lon="10.82491916">
        <ele>877.8</ele>
        <time>2010-08-31T13:07:02Z</time>
      </trkpt><trkpt lat="47.32257156" lon="10.82430367">
        <ele>872.5</ele>
        <time>2010-08-31T13:09:56Z</time>
      </trkpt><trkpt lat="47.32558645" lon="10.82240375">
        <ele>881.2</ele>
        <time>2010-08-31T13:11:47Z</time>
      </trkpt><trkpt lat="47.32759953" lon="10.81951618">
        <ele>891.3</ele>
        <time>2010-08-31T13:13:23Z</time>
      </trkpt><trkpt lat="47.32955520" lon="10.81821037">
        <ele>897.5</ele>
        <time>2010-08-31T13:14:36Z</time>
      </trkpt><trkpt lat="47.33564138" lon="10.81891537">
        <ele>914.8</ele>
        <time>2010-08-31T13:18:03Z</time>
      </trkpt><trkpt lat="47.33953712" lon="10.81766236">
        <ele>928.3</ele>
        <time>2010-08-31T13:20:19Z</time>
      </trkpt><trkpt lat="47.34188422" lon="10.82000066">
        <ele>943.7</ele>
        <time>2010-08-31T13:21:55Z</time>
      </trkpt><trkpt lat="47.34436300" lon="10.81867984">
        <ele>953.3</ele>
        <time>2010-08-31T13:23:25Z</time>
      </trkpt><trkpt lat="47.34599102" lon="10.81954912">
        <ele>960.5</ele>
        <time>2010-08-31T13:24:24Z</time>
      </trkpt><trkpt lat="47.34866627" lon="10.82411148">
        <ele>984</ele>
        <time>2010-08-31T13:26:43Z</time>
      </trkpt><trkpt lat="47.35136357" lon="10.82526458">
        <ele>1002.8</ele>
        <time>2010-08-31T13:28:18Z</time>
      </trkpt><trkpt lat="47.35334052" lon="10.82886754">
        <ele>1019.6</ele>
        <time>2010-08-31T13:30:05Z</time>
      </trkpt><trkpt lat="47.35451994" lon="10.83745346">
        <ele>1052.3</ele>
        <time>2010-08-31T13:33:27Z</time>
      </trkpt><trkpt lat="47.35255866" lon="10.84167467">
        <ele>1071.5</ele>
        <time>2010-08-31T13:35:25Z</time>
      </trkpt><trkpt lat="47.35512914" lon="10.83710024">
        <ele>1098</ele>
        <time>2010-08-31T13:37:41Z</time>
      </trkpt><trkpt lat="47.35632406" lon="10.82583932">
        <ele>1146.5</ele>
        <time>2010-08-31T13:42:04Z</time>
      </trkpt><trkpt lat="47.35861173" lon="10.82344101">
        <ele>1162.9</ele>
        <time>2010-08-31T13:43:39Z</time>
      </trkpt><trkpt lat="47.36007086" lon="10.82953331">
        <ele>1188.8</ele>
        <time>2010-08-31T13:46:08Z</time>
      </trkpt><trkpt lat="47.36287594" lon="10.83178997">
        <ele>1209</ele>
        <time>2010-08-31T13:47:57Z</time>
      </trkpt><trkpt lat="47.36412049" lon="10.83619466">
        <ele>1209</ele>
        <time>2010-08-31T13:49:47Z</time>
      </trkpt><trkpt lat="47.36363861" lon="10.83868174">
        <ele>1210</ele>
        <time>2010-08-31T13:50:46Z</time>
      </trkpt><trkpt lat="47.36116486" lon="10.84447623">
        <ele>1191.2</ele>
        <time>2010-08-31T13:53:24Z</time>
      </trkpt><trkpt lat="47.35871257" lon="10.84694470">
        <ele>1176.8</ele>
        <time>2010-08-31T13:55:05Z</time>
      </trkpt><trkpt lat="47.35615349" lon="10.85439043">
        <ele>1147</ele>
        <time>2010-08-31T13:58:17Z</time>
      </trkpt><trkpt lat="47.35686930" lon="10.85511329">
        <ele>1146</ele>
        <time>2010-08-31T13:58:47Z</time>
      </trkpt><trkpt lat="47.35952243" lon="10.85455229">
        <ele>1149.9</ele>
        <time>2010-08-31T14:00:18Z</time>
      </trkpt><trkpt lat="47.36055248" lon="10.85704582">
        <ele>1149.9</ele>
        <time>2010-08-31T14:01:25Z</time>
      </trkpt><trkpt lat="47.36056371" lon="10.86115974">
        <ele>1143.6</ele>
        <time>2010-08-31T14:03:00Z</time>
      </trkpt><trkpt lat="47.36319429" lon="10.86858485">
        <ele>1112.9</ele>
        <time>2010-08-31T14:06:13Z</time>
      </trkpt><trkpt lat="47.36512891" lon="10.87143755">
        <ele>1100.4</ele>
        <time>2010-08-31T14:07:46Z</time>
      </trkpt><trkpt lat="47.36700981" lon="10.87196393">
        <ele>1098.4</ele>
        <time>2010-08-31T14:08:51Z</time>
      </trkpt><trkpt lat="47.36865493" lon="10.87385011">
        <ele>1086.9</ele>
        <time>2010-08-31T14:10:01Z</time>
      </trkpt><trkpt lat="47.37063339" lon="10.87853995">
        <ele>1071.5</ele>
        <time>2010-08-31T14:12:09Z</time>
      </trkpt><trkpt lat="47.37308342" lon="10.88152156">
        <ele>1052.3</ele>
        <time>2010-08-31T14:13:57Z</time>
      </trkpt><trkpt lat="47.37666023" lon="10.88333398">
        <ele>1046.5</ele>
        <time>2010-08-31T14:16:05Z</time>
      </trkpt><trkpt lat="47.38009598" lon="10.88305017">
        <ele>1047.5</ele>
        <time>2010-08-31T14:18:02Z</time>
      </trkpt><trkpt lat="47.40465780" lon="10.87048729">
        <ele>1030.7</ele>
        <time>2010-08-31T14:32:46Z</time>
      </trkpt><trkpt lat="47.41164982" lon="10.86048869">
        <ele>1048</ele>
        <time>2010-08-31T14:38:17Z</time>
      </trkpt><trkpt lat="47.41496251" lon="10.85279594">
        <ele>1062.9</ele>
        <time>2010-08-31T14:41:46Z</time>
      </trkpt><trkpt lat="47.41774153" lon="10.84206753">
        <ele>1109</ele>
        <time>2010-08-31T14:46:11Z</time>
      </trkpt><trkpt lat="47.41849423" lon="10.82025899">
        <ele>1086.9</ele>
        <time>2010-08-31T14:54:33Z</time>
      </trkpt><trkpt lat="47.41707224" lon="10.80067962">
        <ele>1081.1</ele>
        <time>2010-08-31T15:02:06Z</time>
      </trkpt><trkpt lat="47.42159721" lon="10.79164887">
        <ele>1085</ele>
        <time>2010-08-31T15:06:24Z</time>
      </trkpt><trkpt lat="47.42413341" lon="10.78042869">
        <ele>1065.3</ele>
        <time>2010-08-31T15:10:56Z</time>
      </trkpt><trkpt lat="47.42551592" lon="10.77866698">
        <ele>1060.5</ele>
        <time>2010-08-31T15:11:58Z</time>
      </trkpt><trkpt lat="47.43129272" lon="10.77502487">
        <ele>1050.4</ele>
        <time>2010-08-31T15:15:32Z</time>
      </trkpt><trkpt lat="47.43953641" lon="10.76326691">
        <ele>1017.2</ele>
        <time>2010-08-31T15:22:01Z</time>
      </trkpt><trkpt lat="47.44611687" lon="10.75014898">
        <ele>997.5</ele>
        <time>2010-08-31T15:28:17Z</time>
      </trkpt><trkpt lat="47.45036248" lon="10.73406964">
        <ele>1029.2</ele>
        <time>2010-08-31T15:34:54Z</time>
      </trkpt><trkpt lat="47.45374826" lon="10.73122624">
        <ele>1040.3</ele>
        <time>2010-08-31T15:37:06Z</time>
      </trkpt><trkpt lat="47.45608287" lon="10.72471392">
        <ele>1021.5</ele>
        <time>2010-08-31T15:39:55Z</time>
      </trkpt><trkpt lat="47.45923011" lon="10.72150961">
        <ele>1011.9</ele>
        <time>2010-08-31T15:42:05Z</time>
      </trkpt><trkpt lat="47.45957897" lon="10.71728597">
        <ele>994.1</ele>
        <time>2010-08-31T15:43:43Z</time>
      </trkpt><trkpt lat="47.46234617" lon="10.71833932">
        <ele>981.2</ele>
        <time>2010-08-31T15:45:20Z</time>
      </trkpt><trkpt lat="47.46763230" lon="10.72484493">
        <ele>943.7</ele>
        <time>2010-08-31T15:49:14Z</time>
      </trkpt><trkpt lat="47.47257653" lon="10.72588454">
        <ele>918.7</ele>
        <time>2010-08-31T15:52:04Z</time>
      </trkpt><trkpt lat="47.47388637" lon="10.72796032">
        <ele>908.6</ele>
        <time>2010-08-31T15:53:09Z</time>
      </trkpt><trkpt lat="47.47665290" lon="10.72842384">
        <ele>893.2</ele>
        <time>2010-08-31T15:54:44Z</time>
      </trkpt><trkpt lat="47.47933352" lon="10.73161198">
        <ele>872.5</ele>
        <time>2010-08-31T15:56:41Z</time>
      </trkpt><trkpt lat="47.48049835" lon="10.72765580">
        <ele>865.3</ele>
        <time>2010-08-31T15:58:20Z</time>
      </trkpt><trkpt lat="47.48410156" lon="10.72132864">
        <ele>862.4</ele>
        <time>2010-08-31T16:01:30Z</time>
      </trkpt><trkpt lat="47.48318333" lon="10.72080452">
        <ele>862.4</ele>
        <time>2010-08-31T16:02:03Z</time>
      </trkpt><trkpt lat="47.48336438" lon="10.71870326">
        <ele>866.3</ele>
        <time>2010-08-31T16:02:52Z</time>
      </trkpt><trkpt lat="47.47942069" lon="10.71238959">
        <ele>868.7</ele>
        <time>2010-08-31T16:06:10Z</time>
      </trkpt><trkpt lat="47.47793760" lon="10.70699911">
        <ele>863.9</ele>
        <time>2010-08-31T16:08:23Z</time>
      </trkpt><trkpt lat="47.47522018" lon="10.70564501">
        <ele>865.3</ele>
        <time>2010-08-31T16:10:01Z</time>
      </trkpt><trkpt lat="47.47419432" lon="10.70149748">
        <ele>866.8</ele>
        <time>2010-08-31T16:11:42Z</time>
      </trkpt><trkpt lat="47.47216439" lon="10.69647471">
        <ele>871.1</ele>
        <time>2010-08-31T16:13:57Z</time>
      </trkpt><trkpt lat="47.46842824" lon="10.69451669">
        <ele>872.5</ele>
        <time>2010-08-31T16:16:11Z</time>
      </trkpt><trkpt lat="47.46453829" lon="10.68984764">
        <ele>877.8</ele>
        <time>2010-08-31T16:19:02Z</time>
      </trkpt><trkpt lat="47.45373552" lon="10.67215453">
        <ele>881.7</ele>
        <time>2010-08-31T16:28:10Z</time>
      </trkpt><trkpt lat="47.45119916" lon="10.66967500">
        <ele>884.1</ele>
        <time>2010-08-31T16:29:53Z</time>
      </trkpt><trkpt lat="47.44719261" lon="10.66856431">
        <ele>886</ele>
        <time>2010-08-31T16:32:12Z</time>
      </trkpt><trkpt lat="47.44401109" lon="10.66442558">
        <ele>890.3</ele>
        <time>2010-08-31T16:34:36Z</time>
      </trkpt><trkpt lat="47.44209532" lon="10.65856009">
        <ele>891.3</ele>
        <time>2010-08-31T16:37:05Z</time>
      </trkpt><trkpt lat="47.43982332" lon="10.65474305">
        <ele>894.2</ele>
        <time>2010-08-31T16:39:02Z</time>
      </trkpt><trkpt lat="47.43905562" lon="10.64875812">
        <ele>893.2</ele>
        <time>2010-08-31T16:41:22Z</time>
      </trkpt><trkpt lat="47.44078037" lon="10.64561223">
        <ele>891.8</ele>
        <time>2010-08-31T16:42:56Z</time>
      </trkpt><trkpt lat="47.44078489" lon="10.64301359">
        <ele>894.6</ele>
        <time>2010-08-31T16:43:55Z</time>
      </trkpt><trkpt lat="47.44413992" lon="10.64027656">
        <ele>900.9</ele>
        <time>2010-08-31T16:46:06Z</time>
      </trkpt><trkpt lat="47.44754792" lon="10.63837051">
        <ele>913.4</ele>
        <time>2010-08-31T16:48:09Z</time>
      </trkpt><trkpt lat="47.44840455" lon="10.63891383">
        <ele>920.6</ele>
        <time>2010-08-31T16:48:41Z</time>
      </trkpt><trkpt lat="47.44870663" lon="10.64296246">
        <ele>939.8</ele>
        <time>2010-08-31T16:50:15Z</time>
      </trkpt><trkpt lat="47.44957064" lon="10.63722479">
        <ele>960</ele>
        <time>2010-08-31T16:52:30Z</time>
      </trkpt><trkpt lat="47.44952202" lon="10.64136822">
        <ele>974</ele>
        <time>2010-08-31T16:54:05Z</time>
      </trkpt><trkpt lat="47.45196627" lon="10.63158126">
        <ele>1029.2</ele>
        <time>2010-08-31T16:58:05Z</time>
      </trkpt><trkpt lat="47.45201430" lon="10.62613067">
        <ele>1056.1</ele>
        <time>2010-08-31T17:00:10Z</time>
      </trkpt><trkpt lat="47.45723958" lon="10.62048320">
        <ele>1083.5</ele>
        <time>2010-08-31T17:03:50Z</time>
      </trkpt><trkpt lat="47.45911528" lon="10.61952724">
        <ele>1086.4</ele>
        <time>2010-08-31T17:04:58Z</time>
      </trkpt><trkpt lat="47.46010334" lon="10.61706933">
        <ele>1089.3</ele>
        <time>2010-08-31T17:06:03Z</time>
      </trkpt><trkpt lat="47.46182607" lon="10.61593861">
        <ele>1085.9</ele>
        <time>2010-08-31T17:07:08Z</time>
      </trkpt><trkpt lat="47.46456452" lon="10.61831438">
        <ele>1077.3</ele>
        <time>2010-08-31T17:08:55Z</time>
      </trkpt><trkpt lat="47.47145872" lon="10.62059233">
        <ele>1098.9</ele>
        <time>2010-08-31T17:12:56Z</time>
      </trkpt><trkpt lat="47.47544222" lon="10.62075259">
        <ele>1111.9</ele>
        <time>2010-08-31T17:15:11Z</time>
      </trkpt><trkpt lat="47.47708239" lon="10.61924217">
        <ele>1119.6</ele>
        <time>2010-08-31T17:16:17Z</time>
      </trkpt><trkpt lat="47.47899439" lon="10.61209266">
        <ele>1125.8</ele>
        <time>2010-08-31T17:19:13Z</time>
      </trkpt><trkpt lat="47.48182512" lon="10.60695866">
        <ele>1131.1</ele>
        <time>2010-08-31T17:21:46Z</time>
      </trkpt><trkpt lat="47.48679216" lon="10.60333039">
        <ele>1141.7</ele>
        <time>2010-08-31T17:24:54Z</time>
      </trkpt><trkpt lat="47.48742423" lon="10.60210671">
        <ele>1143.6</ele>
        <time>2010-08-31T17:25:29Z</time>
      </trkpt><trkpt lat="47.48976941" lon="10.59219243">
        <ele>1154.2</ele>
        <time>2010-08-31T17:29:31Z</time>
      </trkpt><trkpt lat="47.49420469" lon="10.58509070">
        <ele>1132.6</ele>
        <time>2010-08-31T17:33:13Z</time>
      </trkpt><trkpt lat="47.49490760" lon="10.58250974">
        <ele>1123.9</ele>
        <time>2010-08-31T17:34:17Z</time>
      </trkpt><trkpt lat="47.49230862" lon="10.56146169">
        <ele>1128.7</ele>
        <time>2010-08-31T17:42:28Z</time>
      </trkpt><trkpt lat="47.49270592" lon="10.56026786">
        <ele>1127.3</ele>
        <time>2010-08-31T17:42:59Z</time>
      </trkpt><trkpt lat="47.49441734" lon="10.55926572">
        <ele>1121</ele>
        <time>2010-08-31T17:44:01Z</time>
      </trkpt><trkpt lat="47.49484063" lon="10.55713177">
        <ele>1115.3</ele>
        <time>2010-08-31T17:44:52Z</time>
      </trkpt><trkpt lat="47.49657124" lon="10.55490528">
        <ele>1113.3</ele>
        <time>2010-08-31T17:46:10Z</time>
      </trkpt><trkpt lat="47.49703166" lon="10.54574437">
        <ele>1111.4</ele>
        <time>2010-08-31T17:49:41Z</time>
      </trkpt><trkpt lat="47.49867619" lon="10.53534335">
        <ele>1111.9</ele>
        <time>2010-08-31T17:53:47Z</time>
      </trkpt><trkpt lat="47.49887006" lon="10.52449029">
        <ele>1101.8</ele>
        <time>2010-08-31T17:57:56Z</time>
      </trkpt><trkpt lat="47.50142696" lon="10.51517196">
        <ele>1101.3</ele>
        <time>2010-08-31T18:01:47Z</time>
      </trkpt><trkpt lat="47.50052465" lon="10.50635940">
        <ele>1102.8</ele>
        <time>2010-08-31T18:05:12Z</time>
      </trkpt><trkpt lat="47.50128614" lon="10.50363754">
        <ele>1108.1</ele>
        <time>2010-08-31T18:06:19Z</time>
      </trkpt><trkpt lat="47.50446909" lon="10.50013206">
        <ele>1099.9</ele>
        <time>2010-08-31T18:08:34Z</time>
      </trkpt><trkpt lat="47.50533058" lon="10.49743418">
        <ele>1093.6</ele>
        <time>2010-08-31T18:09:43Z</time>
      </trkpt><trkpt lat="47.50694275" lon="10.48690483">
        <ele>1088.8</ele>
        <time>2010-08-31T18:13:51Z</time>
      </trkpt><trkpt lat="47.50630154" lon="10.47785447">
        <ele>1079.2</ele>
        <time>2010-08-31T18:17:20Z</time>
      </trkpt><trkpt lat="47.50824312" lon="10.47468251">
        <ele>1076.3</ele>
        <time>2010-08-31T18:18:58Z</time>
      </trkpt><trkpt lat="47.51043222" lon="10.46657528">
        <ele>1073.9</ele>
        <time>2010-08-31T18:22:18Z</time>
      </trkpt><trkpt lat="47.51522977" lon="10.45912863">
        <ele>1072</ele>
        <time>2010-08-31T18:26:15Z</time>
      </trkpt><trkpt lat="47.51668194" lon="10.45456284">
        <ele>1067.7</ele>
        <time>2010-08-31T18:28:11Z</time>
      </trkpt><trkpt lat="47.52074984" lon="10.44657639">
        <ele>1108.1</ele>
        <time>2010-08-31T18:32:00Z</time>
      </trkpt><trkpt lat="47.52404452" lon="10.44251553">
        <ele>1133.1</ele>
        <time>2010-08-31T18:34:26Z</time>
      </trkpt><trkpt lat="47.52434979" lon="10.43853429">
        <ele>1149.9</ele>
        <time>2010-08-31T18:35:58Z</time>
      </trkpt><trkpt lat="47.52670007" lon="10.43358285">
        <ele>1168.1</ele>
        <time>2010-08-31T18:38:17Z</time>
      </trkpt><trkpt lat="47.52671960" lon="10.43219581">
        <ele>1170.1</ele>
        <time>2010-08-31T18:38:49Z</time>
      </trkpt><trkpt lat="47.52579064" lon="10.43145536">
        <ele>1171.5</ele>
        <time>2010-08-31T18:39:25Z</time>
      </trkpt><trkpt lat="47.52382483" lon="10.43211107">
        <ele>1171.5</ele>
        <time>2010-08-31T18:40:33Z</time>
      </trkpt><trkpt lat="47.52224769" lon="10.43082554">
        <ele>1164.3</ele>
        <time>2010-08-31T18:41:34Z</time>
      </trkpt><trkpt lat="47.51637684" lon="10.41793216">
        <ele>1143.6</ele>
        <time>2010-08-31T18:47:31Z</time>
      </trkpt><trkpt lat="47.51515618" lon="10.41223565">
        <ele>1156.1</ele>
        <time>2010-08-31T18:49:49Z</time>
      </trkpt><trkpt lat="47.51704144" lon="10.40794278">
        <ele>1150.8</ele>
        <time>2010-08-31T18:51:46Z</time>
      </trkpt><trkpt lat="47.51199763" lon="10.39243433">
        <ele>1091.2</ele>
        <time>2010-08-31T18:58:21Z</time>
      </trkpt><trkpt lat="47.51058695" lon="10.39093497">
        <ele>1080.7</ele>
        <time>2010-08-31T18:59:20Z</time>
      </trkpt><trkpt lat="47.51084805" lon="10.39435387">
        <ele>1066.2</ele>
        <time>2010-08-31T19:00:39Z</time>
      </trkpt><trkpt lat="47.50998974" lon="10.39118861">
        <ele>1047</ele>
        <time>2010-08-31T19:01:58Z</time>
      </trkpt><trkpt lat="47.51188766" lon="10.38815134">
        <ele>1031.2</ele>
        <time>2010-08-31T19:03:33Z</time>
      </trkpt><trkpt lat="47.51215211" lon="10.38685843">
        <ele>1024.4</ele>
        <time>2010-08-31T19:04:04Z</time>
      </trkpt><trkpt lat="47.51183276" lon="10.38642819">
        <ele>1017.7</ele>
        <time>2010-08-31T19:04:18Z</time>
      </trkpt><trkpt lat="47.51155624" lon="10.38768757">
        <ele>1011.9</ele>
        <time>2010-08-31T19:04:49Z</time>
      </trkpt><trkpt lat="47.51136303" lon="10.38666733">
        <ele>1008.1</ele>
        <time>2010-08-31T19:05:13Z</time>
      </trkpt><trkpt lat="47.51226283" lon="10.38433448">
        <ele>1001.8</ele>
        <time>2010-08-31T19:06:15Z</time>
      </trkpt><trkpt lat="47.50982479" lon="10.38838402">
        <ele>974.9</ele>
        <time>2010-08-31T19:08:19Z</time>
      </trkpt><trkpt lat="47.51054538" lon="10.38323427">
        <ele>949.4</ele>
        <time>2010-08-31T19:10:20Z</time>
      </trkpt><trkpt lat="47.50986494" lon="10.38351825">
        <ele>943.7</ele>
        <time>2010-08-31T19:10:44Z</time>
      </trkpt><trkpt lat="47.50720519" lon="10.38840892">
        <ele>924.4</ele>
        <time>2010-08-31T19:13:08Z</time>
      </trkpt><trkpt lat="47.50659725" lon="10.38755430">
        <ele>921.1</ele>
        <time>2010-08-31T19:13:37Z</time>
      </trkpt><trkpt lat="47.50646423" lon="10.39042326">
        <ele>902.8</ele>
        <time>2010-08-31T19:14:43Z</time>
      </trkpt><trkpt lat="47.50580902" lon="10.38776879">
        <ele>893.2</ele>
        <time>2010-08-31T19:15:48Z</time>
      </trkpt><trkpt lat="47.50743930" lon="10.38178546">
        <ele>866.3</ele>
        <time>2010-08-31T19:18:16Z</time>
      </trkpt><trkpt lat="47.50456665" lon="10.37118847">
        <ele>824</ele>
        <time>2010-08-31T19:22:38Z</time>
      </trkpt><trkpt lat="47.50303746" lon="10.34440041">
        <ele>799</ele>
        <time>2010-08-31T19:32:56Z</time>
      </trkpt><trkpt lat="47.50460621" lon="10.33233818">
        <ele>795.1</ele>
        <time>2010-08-31T19:37:38Z</time>
      </trkpt><trkpt lat="47.50418460" lon="10.32496395">
        <ele>793.7</ele>
        <time>2010-08-31T19:40:28Z</time>
      </trkpt><trkpt lat="47.50549813" lon="10.31435095">
        <ele>786.5</ele>
        <time>2010-08-31T19:44:35Z</time>
      </trkpt><trkpt lat="47.50751482" lon="10.30892886">
        <ele>789.9</ele>
        <time>2010-08-31T19:46:58Z</time>
      </trkpt><trkpt lat="47.51050414" lon="10.29483494">
        <ele>769.7</ele>
        <time>2010-08-31T19:52:37Z</time>
      </trkpt><trkpt lat="47.51870156" lon="10.28547764">
        <ele>758.1</ele>
        <time>2010-08-31T19:58:29Z</time>
      </trkpt><trkpt lat="47.52039168" lon="10.27740402">
        <ele>753.3</ele>
        <time>2010-08-31T20:01:43Z</time>
      </trkpt><trkpt lat="47.52032010" lon="10.27037865">
        <ele>756.2</ele>
        <time>2010-08-31T20:04:24Z</time>
      </trkpt><trkpt lat="47.52210251" lon="10.26880436">
        <ele>750</ele>
        <time>2010-08-31T20:05:35Z</time>
      </trkpt><trkpt lat="47.53045148" lon="10.26680494">
        <ele>755.3</ele>
        <time>2010-08-31T20:10:22Z</time>
      </trkpt><trkpt lat="47.54214247" lon="10.26767163">
        <ele>747.6</ele>
        <time>2010-08-31T20:17:00Z</time>
      </trkpt><trkpt lat="47.54500640" lon="10.26671081">
        <ele>744.7</ele>
        <time>2010-08-31T20:18:40Z</time>
      </trkpt><trkpt lat="47.54846913" lon="10.26272572">
        <ele>742.8</ele>
        <time>2010-08-31T20:21:09Z</time>
      </trkpt><trkpt lat="47.56085096" lon="10.24407137">
        <ele>742.8</ele>
        <time>2010-08-31T20:31:09Z</time>
      </trkpt><trkpt lat="47.56316118" lon="10.24182460">
        <ele>752.4</ele>
        <time>2010-08-31T20:32:43Z</time>
      </trkpt><trkpt lat="47.56539379" lon="10.24100653">
        <ele>753.3</ele>
        <time>2010-08-31T20:34:01Z</time>
      </trkpt><trkpt lat="47.56737762" lon="10.24132890">
        <ele>745.2</ele>
        <time>2010-08-31T20:35:09Z</time>
      </trkpt><trkpt lat="47.56999763" lon="10.24351163">
        <ele>736</ele>
        <time>2010-08-31T20:36:51Z</time>
      </trkpt><trkpt lat="47.57174492" lon="10.24728298">
        <ele>731.7</ele>
        <time>2010-08-31T20:38:36Z</time>
      </trkpt><trkpt lat="47.57403846" lon="10.24939690">
        <ele>732.2</ele>
        <time>2010-08-31T20:40:08Z</time>
      </trkpt><trkpt lat="47.57968703" lon="10.25008522">
        <ele>733.1</ele>
        <time>2010-08-31T20:43:21Z</time>
      </trkpt><trkpt lat="47.58142250" lon="10.25106079">
        <ele>733.1</ele>
        <time>2010-08-31T20:44:24Z</time>
      </trkpt><trkpt lat="47.59552480" lon="10.26381251">
        <ele>729.8</ele>
        <time>2010-08-31T20:53:45Z</time>
      </trkpt><trkpt lat="47.59943806" lon="10.26987657">
        <ele>734.6</ele>
        <time>2010-08-31T20:56:58Z</time>
      </trkpt><trkpt lat="47.60308989" lon="10.27265542">
        <ele>740.4</ele>
        <time>2010-08-31T20:59:17Z</time>
      </trkpt><trkpt lat="47.61405040" lon="10.27503572">
        <ele>736</ele>
        <time>2010-08-31T21:05:34Z</time>
      </trkpt><trkpt lat="47.61376533" lon="10.27403425">
        <ele>736.5</ele>
        <time>2010-08-31T21:05:59Z</time>
      </trkpt><trkpt lat="47.61742521" lon="10.27373158">
        <ele>757.2</ele>
        <time>2010-08-31T21:08:03Z</time>
      </trkpt><trkpt lat="47.62703447" lon="10.27773377">
        <ele>753.8</ele>
        <time>2010-08-31T21:13:43Z</time>
      </trkpt><trkpt lat="47.62714402" lon="10.27485768">
        <ele>751.9</ele>
        <time>2010-08-31T21:14:49Z</time>
      </trkpt><trkpt lat="47.62884086" lon="10.27331005">
        <ele>746.1</ele>
        <time>2010-08-31T21:15:56Z</time>
      </trkpt><trkpt lat="47.62792773" lon="10.27286371">
        <ele>741.3</ele>
        <time>2010-08-31T21:16:29Z</time>
      </trkpt></trkseg>
  </trk>
</gpx>